<?xml version="1.0" encoding="UTF-8" standalone="no" ?>
<gpx xmlns="http://www.topografix.com/GPX/1/1" xmlns:xsi="http://www.w3.org/2001/XMLSchema-instance" xsi:schemaLocation="http://www.topografix.com/GPX/1/1 http://www.topografix.com/GPX/1/1/gpx.xsd" version="1.1" creator="VisuGPX - https://www.visugpx.com">
  <metadata>
    <name>83-D-Carcès</name>
    <desc><![CDATA[83-D-Carcès : de Carcès à Montfort
2025-02-16-MLMM]]></desc>
  </metadata>
  <trk>
    <name><![CDATA[2025-02-16-D-Carces-ML]]></name>
    <extensions>
      <line xmlns="http://www.topografix.com/GPX/gpx_style/0/2">
        <width>4</width>
      </line>
    </extensions>
    <trkseg>
      <trkpt lat="43.47422" lon="6.18104">
        <ele>169</ele>
        <time>2025-02-16T08:09:19.000Z</time>
      </trkpt>
      <trkpt lat="43.47422" lon="6.18103">
        <ele>168.9</ele>
        <time>2025-02-16T08:09:22.000Z</time>
      </trkpt>
      <trkpt lat="43.47423" lon="6.18103">
        <ele>168.9</ele>
        <time>2025-02-16T08:09:23.000Z</time>
      </trkpt>
      <trkpt lat="43.47422" lon="6.18102">
        <ele>168.8</ele>
        <time>2025-02-16T08:09:24.000Z</time>
      </trkpt>
      <trkpt lat="43.47422" lon="6.18103">
        <ele>168.7</ele>
        <time>2025-02-16T08:09:27.000Z</time>
      </trkpt>
      <trkpt lat="43.47422" lon="6.18103">
        <ele>168.7</ele>
        <time>2025-02-16T08:09:28.000Z</time>
      </trkpt>
      <trkpt lat="43.47422" lon="6.18103">
        <ele>168.7</ele>
        <time>2025-02-16T08:09:29.000Z</time>
      </trkpt>
      <trkpt lat="43.47421" lon="6.18103">
        <ele>168.6</ele>
        <time>2025-02-16T08:09:30.000Z</time>
      </trkpt>
      <trkpt lat="43.4742" lon="6.18103">
        <ele>168.6</ele>
        <time>2025-02-16T08:09:31.000Z</time>
      </trkpt>
      <trkpt lat="43.4741" lon="6.18101">
        <ele>168.3</ele>
        <time>2025-02-16T08:09:40.000Z</time>
      </trkpt>
      <trkpt lat="43.474" lon="6.181">
        <ele>167.8</ele>
        <time>2025-02-16T08:09:49.000Z</time>
      </trkpt>
      <trkpt lat="43.4739" lon="6.18099">
        <ele>167.3</ele>
        <time>2025-02-16T08:09:59.000Z</time>
      </trkpt>
      <trkpt lat="43.4739" lon="6.18097">
        <ele>166.9</ele>
        <time>2025-02-16T08:10:13.000Z</time>
      </trkpt>
      <trkpt lat="43.4739" lon="6.18098">
        <ele>166.9</ele>
        <time>2025-02-16T08:10:14.000Z</time>
      </trkpt>
      <trkpt lat="43.47391" lon="6.18097">
        <ele>166.8</ele>
        <time>2025-02-16T08:10:23.000Z</time>
      </trkpt>
      <trkpt lat="43.47391" lon="6.18096">
        <ele>166.8</ele>
        <time>2025-02-16T08:10:24.000Z</time>
      </trkpt>
      <trkpt lat="43.47394" lon="6.18083">
        <ele>166.6</ele>
        <time>2025-02-16T08:10:34.000Z</time>
      </trkpt>
      <trkpt lat="43.47396" lon="6.1807">
        <ele>166.2</ele>
        <time>2025-02-16T08:10:44.000Z</time>
      </trkpt>
      <trkpt lat="43.47395" lon="6.18058">
        <ele>165.7</ele>
        <time>2025-02-16T08:10:56.000Z</time>
      </trkpt>
      <trkpt lat="43.47393" lon="6.18054">
        <ele>165.5</ele>
        <time>2025-02-16T08:11:05.000Z</time>
      </trkpt>
      <trkpt lat="43.47393" lon="6.18054">
        <ele>165.4</ele>
        <time>2025-02-16T08:11:06.000Z</time>
      </trkpt>
      <trkpt lat="43.47393" lon="6.18054">
        <ele>165.4</ele>
        <time>2025-02-16T08:11:07.000Z</time>
      </trkpt>
      <trkpt lat="43.47392" lon="6.18053">
        <ele>165.3</ele>
        <time>2025-02-16T08:11:11.000Z</time>
      </trkpt>
      <trkpt lat="43.47392" lon="6.18054">
        <ele>165.3</ele>
        <time>2025-02-16T08:11:12.000Z</time>
      </trkpt>
      <trkpt lat="43.47387" lon="6.18065">
        <ele>165.8</ele>
        <time>2025-02-16T08:11:23.000Z</time>
      </trkpt>
      <trkpt lat="43.47383" lon="6.18078">
        <ele>166.6</ele>
        <time>2025-02-16T08:11:32.000Z</time>
      </trkpt>
      <trkpt lat="43.47381" lon="6.18091">
        <ele>167.7</ele>
        <time>2025-02-16T08:11:41.000Z</time>
      </trkpt>
      <trkpt lat="43.4738" lon="6.18096">
        <ele>168.4</ele>
        <time>2025-02-16T08:11:48.000Z</time>
      </trkpt>
      <trkpt lat="43.4738" lon="6.18097">
        <ele>168.4</ele>
        <time>2025-02-16T08:11:49.000Z</time>
      </trkpt>
      <trkpt lat="43.4738" lon="6.18097">
        <ele>168.7</ele>
        <time>2025-02-16T08:11:55.000Z</time>
      </trkpt>
      <trkpt lat="43.4738" lon="6.18098">
        <ele>168.7</ele>
        <time>2025-02-16T08:11:56.000Z</time>
      </trkpt>
      <trkpt lat="43.4738" lon="6.181">
        <ele>168.8</ele>
        <time>2025-02-16T08:11:57.000Z</time>
      </trkpt>
      <trkpt lat="43.47375" lon="6.18111">
        <ele>169.1</ele>
        <time>2025-02-16T08:12:07.000Z</time>
      </trkpt>
      <trkpt lat="43.4737" lon="6.18122">
        <ele>169.4</ele>
        <time>2025-02-16T08:12:14.000Z</time>
      </trkpt>
      <trkpt lat="43.47364" lon="6.18132">
        <ele>170.1</ele>
        <time>2025-02-16T08:12:24.000Z</time>
      </trkpt>
      <trkpt lat="43.47356" lon="6.18137">
        <ele>171.1</ele>
        <time>2025-02-16T08:12:38.000Z</time>
      </trkpt>
      <trkpt lat="43.47346" lon="6.18135">
        <ele>173.4</ele>
        <time>2025-02-16T08:12:52.000Z</time>
      </trkpt>
      <trkpt lat="43.47337" lon="6.18132">
        <ele>176</ele>
        <time>2025-02-16T08:13:07.000Z</time>
      </trkpt>
      <trkpt lat="43.47328" lon="6.18133">
        <ele>177.4</ele>
        <time>2025-02-16T08:13:16.000Z</time>
      </trkpt>
      <trkpt lat="43.47319" lon="6.18131">
        <ele>178.5</ele>
        <time>2025-02-16T08:13:24.000Z</time>
      </trkpt>
      <trkpt lat="43.4731" lon="6.18129">
        <ele>178.4</ele>
        <time>2025-02-16T08:13:31.000Z</time>
      </trkpt>
      <trkpt lat="43.47301" lon="6.18128">
        <ele>178.1</ele>
        <time>2025-02-16T08:13:38.000Z</time>
      </trkpt>
      <trkpt lat="43.47291" lon="6.18127">
        <ele>177.5</ele>
        <time>2025-02-16T08:13:46.000Z</time>
      </trkpt>
      <trkpt lat="43.47282" lon="6.18126">
        <ele>177</ele>
        <time>2025-02-16T08:13:54.000Z</time>
      </trkpt>
      <trkpt lat="43.47271" lon="6.18127">
        <ele>176.9</ele>
        <time>2025-02-16T08:14:02.000Z</time>
      </trkpt>
      <trkpt lat="43.47262" lon="6.18126">
        <ele>176.9</ele>
        <time>2025-02-16T08:14:10.000Z</time>
      </trkpt>
      <trkpt lat="43.47253" lon="6.18124">
        <ele>176.9</ele>
        <time>2025-02-16T08:14:18.000Z</time>
      </trkpt>
      <trkpt lat="43.47244" lon="6.1812">
        <ele>177.1</ele>
        <time>2025-02-16T08:14:25.000Z</time>
      </trkpt>
      <trkpt lat="43.47236" lon="6.18115">
        <ele>177.6</ele>
        <time>2025-02-16T08:14:33.000Z</time>
      </trkpt>
      <trkpt lat="43.47228" lon="6.18107">
        <ele>179.5</ele>
        <time>2025-02-16T08:14:48.000Z</time>
      </trkpt>
      <trkpt lat="43.47219" lon="6.18102">
        <ele>180.9</ele>
        <time>2025-02-16T08:14:59.000Z</time>
      </trkpt>
      <trkpt lat="43.4721" lon="6.18098">
        <ele>182.6</ele>
        <time>2025-02-16T08:15:09.000Z</time>
      </trkpt>
      <trkpt lat="43.47202" lon="6.1809">
        <ele>184.6</ele>
        <time>2025-02-16T08:15:21.000Z</time>
      </trkpt>
      <trkpt lat="43.47194" lon="6.18082">
        <ele>186.2</ele>
        <time>2025-02-16T08:15:32.000Z</time>
      </trkpt>
      <trkpt lat="43.47187" lon="6.18074">
        <ele>188.2</ele>
        <time>2025-02-16T08:15:47.000Z</time>
      </trkpt>
      <trkpt lat="43.47183" lon="6.18063">
        <ele>190</ele>
        <time>2025-02-16T08:16:01.000Z</time>
      </trkpt>
      <trkpt lat="43.4718" lon="6.18053">
        <ele>192</ele>
        <time>2025-02-16T08:16:15.000Z</time>
      </trkpt>
      <trkpt lat="43.4718" lon="6.18053">
        <ele>192</ele>
        <time>2025-02-16T08:16:16.000Z</time>
      </trkpt>
      <trkpt lat="43.4718" lon="6.18054">
        <ele>192.1</ele>
        <time>2025-02-16T08:16:17.000Z</time>
      </trkpt>
      <trkpt lat="43.4718" lon="6.18055">
        <ele>192.1</ele>
        <time>2025-02-16T08:16:18.000Z</time>
      </trkpt>
      <trkpt lat="43.47179" lon="6.18057">
        <ele>192.1</ele>
        <time>2025-02-16T08:16:19.000Z</time>
      </trkpt>
      <trkpt lat="43.47179" lon="6.18057">
        <ele>192.2</ele>
        <time>2025-02-16T08:16:23.000Z</time>
      </trkpt>
      <trkpt lat="43.47179" lon="6.18056">
        <ele>192.2</ele>
        <time>2025-02-16T08:16:24.000Z</time>
      </trkpt>
      <trkpt lat="43.47179" lon="6.18057">
        <ele>192.2</ele>
        <time>2025-02-16T08:16:25.000Z</time>
      </trkpt>
      <trkpt lat="43.47179" lon="6.18057">
        <ele>192.2</ele>
        <time>2025-02-16T08:16:26.000Z</time>
      </trkpt>
      <trkpt lat="43.4718" lon="6.18058">
        <ele>192.1</ele>
        <time>2025-02-16T08:16:27.000Z</time>
      </trkpt>
      <trkpt lat="43.47172" lon="6.18065">
        <ele>192.5</ele>
        <time>2025-02-16T08:16:50.000Z</time>
      </trkpt>
      <trkpt lat="43.47164" lon="6.18069">
        <ele>194</ele>
        <time>2025-02-16T08:17:10.000Z</time>
      </trkpt>
      <trkpt lat="43.47164" lon="6.18069">
        <ele>194.1</ele>
        <time>2025-02-16T08:17:11.000Z</time>
      </trkpt>
      <trkpt lat="43.47164" lon="6.1807">
        <ele>194.3</ele>
        <time>2025-02-16T08:17:18.000Z</time>
      </trkpt>
      <trkpt lat="43.47165" lon="6.18069">
        <ele>194.4</ele>
        <time>2025-02-16T08:17:19.000Z</time>
      </trkpt>
      <trkpt lat="43.47165" lon="6.18069">
        <ele>194.4</ele>
        <time>2025-02-16T08:17:20.000Z</time>
      </trkpt>
      <trkpt lat="43.47165" lon="6.18069">
        <ele>194.4</ele>
        <time>2025-02-16T08:17:21.000Z</time>
      </trkpt>
      <trkpt lat="43.47165" lon="6.18069">
        <ele>194.4</ele>
        <time>2025-02-16T08:17:22.000Z</time>
      </trkpt>
      <trkpt lat="43.47165" lon="6.18069">
        <ele>194.4</ele>
        <time>2025-02-16T08:17:25.000Z</time>
      </trkpt>
      <trkpt lat="43.47164" lon="6.18069">
        <ele>194.4</ele>
        <time>2025-02-16T08:17:26.000Z</time>
      </trkpt>
      <trkpt lat="43.4716" lon="6.18066">
        <ele>194.6</ele>
        <time>2025-02-16T08:17:35.000Z</time>
      </trkpt>
      <trkpt lat="43.47161" lon="6.18066">
        <ele>194.6</ele>
        <time>2025-02-16T08:17:36.000Z</time>
      </trkpt>
      <trkpt lat="43.4716" lon="6.18066">
        <ele>194.8</ele>
        <time>2025-02-16T08:17:45.000Z</time>
      </trkpt>
      <trkpt lat="43.4716" lon="6.18065">
        <ele>194.8</ele>
        <time>2025-02-16T08:17:46.000Z</time>
      </trkpt>
      <trkpt lat="43.4716" lon="6.18065">
        <ele>194.8</ele>
        <time>2025-02-16T08:17:47.000Z</time>
      </trkpt>
      <trkpt lat="43.4716" lon="6.18066">
        <ele>195.2</ele>
        <time>2025-02-16T08:17:56.000Z</time>
      </trkpt>
      <trkpt lat="43.4716" lon="6.18066">
        <ele>195.2</ele>
        <time>2025-02-16T08:17:57.000Z</time>
      </trkpt>
      <trkpt lat="43.4716" lon="6.18066">
        <ele>195.3</ele>
        <time>2025-02-16T08:18:05.000Z</time>
      </trkpt>
      <trkpt lat="43.4716" lon="6.18066">
        <ele>195.3</ele>
        <time>2025-02-16T08:18:06.000Z</time>
      </trkpt>
      <trkpt lat="43.4716" lon="6.18066">
        <ele>195.4</ele>
        <time>2025-02-16T08:18:10.000Z</time>
      </trkpt>
      <trkpt lat="43.4716" lon="6.18066">
        <ele>195.4</ele>
        <time>2025-02-16T08:18:11.000Z</time>
      </trkpt>
      <trkpt lat="43.4716" lon="6.18067">
        <ele>195.5</ele>
        <time>2025-02-16T08:18:15.000Z</time>
      </trkpt>
      <trkpt lat="43.4716" lon="6.18067">
        <ele>195.5</ele>
        <time>2025-02-16T08:18:16.000Z</time>
      </trkpt>
      <trkpt lat="43.4716" lon="6.18067">
        <ele>195.5</ele>
        <time>2025-02-16T08:18:17.000Z</time>
      </trkpt>
      <trkpt lat="43.4716" lon="6.18067">
        <ele>195.5</ele>
        <time>2025-02-16T08:18:18.000Z</time>
      </trkpt>
      <trkpt lat="43.4716" lon="6.18067">
        <ele>195.5</ele>
        <time>2025-02-16T08:18:19.000Z</time>
      </trkpt>
      <trkpt lat="43.4716" lon="6.18067">
        <ele>195.3</ele>
        <time>2025-02-16T08:18:22.000Z</time>
      </trkpt>
      <trkpt lat="43.4716" lon="6.18067">
        <ele>195.3</ele>
        <time>2025-02-16T08:18:23.000Z</time>
      </trkpt>
      <trkpt lat="43.4716" lon="6.18067">
        <ele>195.4</ele>
        <time>2025-02-16T08:18:24.000Z</time>
      </trkpt>
      <trkpt lat="43.47161" lon="6.18067">
        <ele>195.5</ele>
        <time>2025-02-16T08:18:28.000Z</time>
      </trkpt>
      <trkpt lat="43.47161" lon="6.18067">
        <ele>195.5</ele>
        <time>2025-02-16T08:18:36.000Z</time>
      </trkpt>
      <trkpt lat="43.47161" lon="6.18067">
        <ele>195.5</ele>
        <time>2025-02-16T08:18:37.000Z</time>
      </trkpt>
      <trkpt lat="43.47161" lon="6.18068">
        <ele>195.5</ele>
        <time>2025-02-16T08:18:43.000Z</time>
      </trkpt>
      <trkpt lat="43.47162" lon="6.18069">
        <ele>195.5</ele>
        <time>2025-02-16T08:18:44.000Z</time>
      </trkpt>
      <trkpt lat="43.47163" lon="6.18069">
        <ele>195.3</ele>
        <time>2025-02-16T08:18:58.000Z</time>
      </trkpt>
      <trkpt lat="43.47163" lon="6.18069">
        <ele>195.3</ele>
        <time>2025-02-16T08:18:59.000Z</time>
      </trkpt>
      <trkpt lat="43.47163" lon="6.18069">
        <ele>195.3</ele>
        <time>2025-02-16T08:19:02.000Z</time>
      </trkpt>
      <trkpt lat="43.47163" lon="6.18069">
        <ele>195.2</ele>
        <time>2025-02-16T08:19:03.000Z</time>
      </trkpt>
      <trkpt lat="43.47163" lon="6.18069">
        <ele>195.2</ele>
        <time>2025-02-16T08:19:04.000Z</time>
      </trkpt>
      <trkpt lat="43.47162" lon="6.18069">
        <ele>195</ele>
        <time>2025-02-16T08:19:45.000Z</time>
      </trkpt>
      <trkpt lat="43.47162" lon="6.18068">
        <ele>195</ele>
        <time>2025-02-16T08:19:46.000Z</time>
      </trkpt>
      <trkpt lat="43.47157" lon="6.18062">
        <ele>194.9</ele>
        <time>2025-02-16T08:19:55.000Z</time>
      </trkpt>
      <trkpt lat="43.47157" lon="6.18062">
        <ele>194.9</ele>
        <time>2025-02-16T08:19:56.000Z</time>
      </trkpt>
      <trkpt lat="43.47157" lon="6.18062">
        <ele>194.9</ele>
        <time>2025-02-16T08:19:57.000Z</time>
      </trkpt>
      <trkpt lat="43.47156" lon="6.18062">
        <ele>194.9</ele>
        <time>2025-02-16T08:19:58.000Z</time>
      </trkpt>
      <trkpt lat="43.47155" lon="6.18063">
        <ele>194.9</ele>
        <time>2025-02-16T08:19:59.000Z</time>
      </trkpt>
      <trkpt lat="43.47154" lon="6.18063">
        <ele>194.9</ele>
        <time>2025-02-16T08:20:00.000Z</time>
      </trkpt>
      <trkpt lat="43.47145" lon="6.18067">
        <ele>194.7</ele>
        <time>2025-02-16T08:20:07.000Z</time>
      </trkpt>
      <trkpt lat="43.47136" lon="6.18072">
        <ele>193.8</ele>
        <time>2025-02-16T08:20:17.000Z</time>
      </trkpt>
      <trkpt lat="43.47128" lon="6.18076">
        <ele>192.5</ele>
        <time>2025-02-16T08:20:26.000Z</time>
      </trkpt>
      <trkpt lat="43.47121" lon="6.18085">
        <ele>190.9</ele>
        <time>2025-02-16T08:20:35.000Z</time>
      </trkpt>
      <trkpt lat="43.47113" lon="6.18093">
        <ele>189.6</ele>
        <time>2025-02-16T08:20:43.000Z</time>
      </trkpt>
      <trkpt lat="43.47104" lon="6.18097">
        <ele>188</ele>
        <time>2025-02-16T08:20:51.000Z</time>
      </trkpt>
      <trkpt lat="43.47095" lon="6.18102">
        <ele>186.4</ele>
        <time>2025-02-16T08:21:01.000Z</time>
      </trkpt>
      <trkpt lat="43.47086" lon="6.18107">
        <ele>185.2</ele>
        <time>2025-02-16T08:21:10.000Z</time>
      </trkpt>
      <trkpt lat="43.47078" lon="6.18114">
        <ele>184</ele>
        <time>2025-02-16T08:21:18.000Z</time>
      </trkpt>
      <trkpt lat="43.47069" lon="6.18121">
        <ele>182.6</ele>
        <time>2025-02-16T08:21:26.000Z</time>
      </trkpt>
      <trkpt lat="43.47061" lon="6.18127">
        <ele>180.8</ele>
        <time>2025-02-16T08:21:36.000Z</time>
      </trkpt>
      <trkpt lat="43.47052" lon="6.1813">
        <ele>179.4</ele>
        <time>2025-02-16T08:21:45.000Z</time>
      </trkpt>
      <trkpt lat="43.47042" lon="6.1813">
        <ele>178.1</ele>
        <time>2025-02-16T08:21:54.000Z</time>
      </trkpt>
      <trkpt lat="43.47033" lon="6.18129">
        <ele>177.3</ele>
        <time>2025-02-16T08:22:01.000Z</time>
      </trkpt>
      <trkpt lat="43.47023" lon="6.1813">
        <ele>176.3</ele>
        <time>2025-02-16T08:22:10.000Z</time>
      </trkpt>
      <trkpt lat="43.47014" lon="6.18129">
        <ele>175.5</ele>
        <time>2025-02-16T08:22:18.000Z</time>
      </trkpt>
      <trkpt lat="43.47008" lon="6.18129">
        <ele>174.9</ele>
        <time>2025-02-16T08:22:27.000Z</time>
      </trkpt>
      <trkpt lat="43.47008" lon="6.18129">
        <ele>174.8</ele>
        <time>2025-02-16T08:22:28.000Z</time>
      </trkpt>
      <trkpt lat="43.47008" lon="6.18129">
        <ele>174.8</ele>
        <time>2025-02-16T08:22:29.000Z</time>
      </trkpt>
      <trkpt lat="43.47006" lon="6.18128">
        <ele>174.6</ele>
        <time>2025-02-16T08:22:36.000Z</time>
      </trkpt>
      <trkpt lat="43.47005" lon="6.18128">
        <ele>174.6</ele>
        <time>2025-02-16T08:22:37.000Z</time>
      </trkpt>
      <trkpt lat="43.46995" lon="6.18126">
        <ele>174.4</ele>
        <time>2025-02-16T08:22:45.000Z</time>
      </trkpt>
      <trkpt lat="43.46988" lon="6.18118">
        <ele>174.3</ele>
        <time>2025-02-16T08:22:54.000Z</time>
      </trkpt>
      <trkpt lat="43.46979" lon="6.18112">
        <ele>174.3</ele>
        <time>2025-02-16T08:23:02.000Z</time>
      </trkpt>
      <trkpt lat="43.46969" lon="6.1811">
        <ele>174.3</ele>
        <time>2025-02-16T08:23:10.000Z</time>
      </trkpt>
      <trkpt lat="43.46959" lon="6.18111">
        <ele>174.3</ele>
        <time>2025-02-16T08:23:19.000Z</time>
      </trkpt>
      <trkpt lat="43.4695" lon="6.18113">
        <ele>174.4</ele>
        <time>2025-02-16T08:23:27.000Z</time>
      </trkpt>
      <trkpt lat="43.46941" lon="6.18117">
        <ele>174.6</ele>
        <time>2025-02-16T08:23:36.000Z</time>
      </trkpt>
      <trkpt lat="43.46932" lon="6.18122">
        <ele>175</ele>
        <time>2025-02-16T08:23:44.000Z</time>
      </trkpt>
      <trkpt lat="43.46931" lon="6.18123">
        <ele>175.4</ele>
        <time>2025-02-16T08:23:48.000Z</time>
      </trkpt>
      <trkpt lat="43.46931" lon="6.18123">
        <ele>175.5</ele>
        <time>2025-02-16T08:23:49.000Z</time>
      </trkpt>
      <trkpt lat="43.4693" lon="6.18123">
        <ele>175.5</ele>
        <time>2025-02-16T08:23:50.000Z</time>
      </trkpt>
      <trkpt lat="43.4693" lon="6.18124">
        <ele>175.6</ele>
        <time>2025-02-16T08:23:51.000Z</time>
      </trkpt>
      <trkpt lat="43.4693" lon="6.18125">
        <ele>175.9</ele>
        <time>2025-02-16T08:23:55.000Z</time>
      </trkpt>
      <trkpt lat="43.4693" lon="6.18125">
        <ele>176</ele>
        <time>2025-02-16T08:23:56.000Z</time>
      </trkpt>
      <trkpt lat="43.4693" lon="6.18126">
        <ele>176</ele>
        <time>2025-02-16T08:23:57.000Z</time>
      </trkpt>
      <trkpt lat="43.46929" lon="6.18126">
        <ele>176.1</ele>
        <time>2025-02-16T08:23:58.000Z</time>
      </trkpt>
      <trkpt lat="43.46928" lon="6.18127">
        <ele>176.1</ele>
        <time>2025-02-16T08:23:59.000Z</time>
      </trkpt>
      <trkpt lat="43.46927" lon="6.18127">
        <ele>176.2</ele>
        <time>2025-02-16T08:24:00.000Z</time>
      </trkpt>
      <trkpt lat="43.46918" lon="6.18126">
        <ele>176.7</ele>
        <time>2025-02-16T08:24:09.000Z</time>
      </trkpt>
      <trkpt lat="43.46908" lon="6.18128">
        <ele>177.4</ele>
        <time>2025-02-16T08:24:18.000Z</time>
      </trkpt>
      <trkpt lat="43.46899" lon="6.1813">
        <ele>178</ele>
        <time>2025-02-16T08:24:26.000Z</time>
      </trkpt>
      <trkpt lat="43.4689" lon="6.18133">
        <ele>178.8</ele>
        <time>2025-02-16T08:24:35.000Z</time>
      </trkpt>
      <trkpt lat="43.46881" lon="6.18134">
        <ele>179.6</ele>
        <time>2025-02-16T08:24:44.000Z</time>
      </trkpt>
      <trkpt lat="43.46871" lon="6.18136">
        <ele>180.1</ele>
        <time>2025-02-16T08:24:52.000Z</time>
      </trkpt>
      <trkpt lat="43.46866" lon="6.18124">
        <ele>181.2</ele>
        <time>2025-02-16T08:25:08.000Z</time>
      </trkpt>
      <trkpt lat="43.46869" lon="6.18111">
        <ele>182.7</ele>
        <time>2025-02-16T08:25:18.000Z</time>
      </trkpt>
      <trkpt lat="43.46873" lon="6.18099">
        <ele>183.6</ele>
        <time>2025-02-16T08:25:27.000Z</time>
      </trkpt>
      <trkpt lat="43.46876" lon="6.18087">
        <ele>184.3</ele>
        <time>2025-02-16T08:25:38.000Z</time>
      </trkpt>
      <trkpt lat="43.4688" lon="6.18075">
        <ele>184.6</ele>
        <time>2025-02-16T08:25:46.000Z</time>
      </trkpt>
      <trkpt lat="43.46882" lon="6.18061">
        <ele>184.6</ele>
        <time>2025-02-16T08:25:55.000Z</time>
      </trkpt>
      <trkpt lat="43.46879" lon="6.18048">
        <ele>184.6</ele>
        <time>2025-02-16T08:26:03.000Z</time>
      </trkpt>
      <trkpt lat="43.46874" lon="6.18037">
        <ele>184.6</ele>
        <time>2025-02-16T08:26:11.000Z</time>
      </trkpt>
      <trkpt lat="43.46869" lon="6.18027">
        <ele>184.6</ele>
        <time>2025-02-16T08:26:19.000Z</time>
      </trkpt>
      <trkpt lat="43.46865" lon="6.18015">
        <ele>184.6</ele>
        <time>2025-02-16T08:26:27.000Z</time>
      </trkpt>
      <trkpt lat="43.4686" lon="6.18004">
        <ele>184.6</ele>
        <time>2025-02-16T08:26:35.000Z</time>
      </trkpt>
      <trkpt lat="43.46856" lon="6.17992">
        <ele>184.6</ele>
        <time>2025-02-16T08:26:43.000Z</time>
      </trkpt>
      <trkpt lat="43.46854" lon="6.17979">
        <ele>184.5</ele>
        <time>2025-02-16T08:26:51.000Z</time>
      </trkpt>
      <trkpt lat="43.46855" lon="6.17966">
        <ele>184.3</ele>
        <time>2025-02-16T08:27:00.000Z</time>
      </trkpt>
      <trkpt lat="43.46859" lon="6.17955">
        <ele>183.1</ele>
        <time>2025-02-16T08:27:09.000Z</time>
      </trkpt>
      <trkpt lat="43.46861" lon="6.17942">
        <ele>181.6</ele>
        <time>2025-02-16T08:27:18.000Z</time>
      </trkpt>
      <trkpt lat="43.46857" lon="6.17928">
        <ele>181</ele>
        <time>2025-02-16T08:27:26.000Z</time>
      </trkpt>
      <trkpt lat="43.46852" lon="6.17919">
        <ele>180.8</ele>
        <time>2025-02-16T08:27:33.000Z</time>
      </trkpt>
      <trkpt lat="43.46843" lon="6.17913">
        <ele>180.7</ele>
        <time>2025-02-16T08:27:42.000Z</time>
      </trkpt>
      <trkpt lat="43.46834" lon="6.1791">
        <ele>180.6</ele>
        <time>2025-02-16T08:27:49.000Z</time>
      </trkpt>
      <trkpt lat="43.46825" lon="6.17905">
        <ele>180.4</ele>
        <time>2025-02-16T08:27:55.000Z</time>
      </trkpt>
      <trkpt lat="43.46817" lon="6.17899">
        <ele>179.9</ele>
        <time>2025-02-16T08:28:02.000Z</time>
      </trkpt>
      <trkpt lat="43.4681" lon="6.17891">
        <ele>178.9</ele>
        <time>2025-02-16T08:28:10.000Z</time>
      </trkpt>
      <trkpt lat="43.468" lon="6.17888">
        <ele>177.2</ele>
        <time>2025-02-16T08:28:19.000Z</time>
      </trkpt>
      <trkpt lat="43.46792" lon="6.17883">
        <ele>175.8</ele>
        <time>2025-02-16T08:28:26.000Z</time>
      </trkpt>
      <trkpt lat="43.46782" lon="6.17883">
        <ele>173.7</ele>
        <time>2025-02-16T08:28:37.000Z</time>
      </trkpt>
      <trkpt lat="43.46774" lon="6.17878">
        <ele>172.6</ele>
        <time>2025-02-16T08:28:44.000Z</time>
      </trkpt>
      <trkpt lat="43.46765" lon="6.17879">
        <ele>171.3</ele>
        <time>2025-02-16T08:28:55.000Z</time>
      </trkpt>
      <trkpt lat="43.46755" lon="6.17881">
        <ele>170.2</ele>
        <time>2025-02-16T08:29:04.000Z</time>
      </trkpt>
      <trkpt lat="43.46746" lon="6.17879">
        <ele>169.3</ele>
        <time>2025-02-16T08:29:13.000Z</time>
      </trkpt>
      <trkpt lat="43.46736" lon="6.17875">
        <ele>169</ele>
        <time>2025-02-16T08:29:21.000Z</time>
      </trkpt>
      <trkpt lat="43.46728" lon="6.17869">
        <ele>169.1</ele>
        <time>2025-02-16T08:29:30.000Z</time>
      </trkpt>
      <trkpt lat="43.4672" lon="6.17862">
        <ele>169.2</ele>
        <time>2025-02-16T08:29:39.000Z</time>
      </trkpt>
      <trkpt lat="43.46711" lon="6.17859">
        <ele>169.8</ele>
        <time>2025-02-16T08:29:49.000Z</time>
      </trkpt>
      <trkpt lat="43.46703" lon="6.17851">
        <ele>170.7</ele>
        <time>2025-02-16T08:29:57.000Z</time>
      </trkpt>
      <trkpt lat="43.46696" lon="6.17843">
        <ele>171.5</ele>
        <time>2025-02-16T08:30:05.000Z</time>
      </trkpt>
      <trkpt lat="43.46689" lon="6.17834">
        <ele>172.2</ele>
        <time>2025-02-16T08:30:13.000Z</time>
      </trkpt>
      <trkpt lat="43.46683" lon="6.17824">
        <ele>172.8</ele>
        <time>2025-02-16T08:30:22.000Z</time>
      </trkpt>
      <trkpt lat="43.46676" lon="6.17816">
        <ele>173.4</ele>
        <time>2025-02-16T08:30:30.000Z</time>
      </trkpt>
      <trkpt lat="43.46668" lon="6.1781">
        <ele>174.1</ele>
        <time>2025-02-16T08:30:39.000Z</time>
      </trkpt>
      <trkpt lat="43.4666" lon="6.17803">
        <ele>174.8</ele>
        <time>2025-02-16T08:30:48.000Z</time>
      </trkpt>
      <trkpt lat="43.46652" lon="6.17797">
        <ele>176</ele>
        <time>2025-02-16T08:30:59.000Z</time>
      </trkpt>
      <trkpt lat="43.46644" lon="6.17789">
        <ele>177.9</ele>
        <time>2025-02-16T08:31:12.000Z</time>
      </trkpt>
      <trkpt lat="43.46637" lon="6.17783">
        <ele>180.7</ele>
        <time>2025-02-16T08:31:30.000Z</time>
      </trkpt>
      <trkpt lat="43.4663" lon="6.17773">
        <ele>182.5</ele>
        <time>2025-02-16T08:31:40.000Z</time>
      </trkpt>
      <trkpt lat="43.46622" lon="6.17766">
        <ele>184.4</ele>
        <time>2025-02-16T08:31:51.000Z</time>
      </trkpt>
      <trkpt lat="43.46615" lon="6.1776">
        <ele>185.7</ele>
        <time>2025-02-16T08:32:00.000Z</time>
      </trkpt>
      <trkpt lat="43.46606" lon="6.17753">
        <ele>186.8</ele>
        <time>2025-02-16T08:32:10.000Z</time>
      </trkpt>
      <trkpt lat="43.46598" lon="6.17747">
        <ele>187.5</ele>
        <time>2025-02-16T08:32:20.000Z</time>
      </trkpt>
      <trkpt lat="43.46591" lon="6.17738">
        <ele>187.6</ele>
        <time>2025-02-16T08:32:29.000Z</time>
      </trkpt>
      <trkpt lat="43.46584" lon="6.1773">
        <ele>187.4</ele>
        <time>2025-02-16T08:32:37.000Z</time>
      </trkpt>
      <trkpt lat="43.46582" lon="6.17727">
        <ele>186.6</ele>
        <time>2025-02-16T08:33:00.000Z</time>
      </trkpt>
      <trkpt lat="43.46582" lon="6.17727">
        <ele>186.6</ele>
        <time>2025-02-16T08:33:01.000Z</time>
      </trkpt>
      <trkpt lat="43.4658" lon="6.17727">
        <ele>186.5</ele>
        <time>2025-02-16T08:33:11.000Z</time>
      </trkpt>
      <trkpt lat="43.46579" lon="6.17727">
        <ele>186.5</ele>
        <time>2025-02-16T08:33:12.000Z</time>
      </trkpt>
      <trkpt lat="43.46571" lon="6.1772">
        <ele>186.4</ele>
        <time>2025-02-16T08:33:20.000Z</time>
      </trkpt>
      <trkpt lat="43.46564" lon="6.17712">
        <ele>186.1</ele>
        <time>2025-02-16T08:33:28.000Z</time>
      </trkpt>
      <trkpt lat="43.46556" lon="6.17704">
        <ele>185.7</ele>
        <time>2025-02-16T08:33:37.000Z</time>
      </trkpt>
      <trkpt lat="43.4655" lon="6.17694">
        <ele>185.1</ele>
        <time>2025-02-16T08:33:46.000Z</time>
      </trkpt>
      <trkpt lat="43.46547" lon="6.17681">
        <ele>184.5</ele>
        <time>2025-02-16T08:33:57.000Z</time>
      </trkpt>
      <trkpt lat="43.46543" lon="6.17668">
        <ele>184</ele>
        <time>2025-02-16T08:34:07.000Z</time>
      </trkpt>
      <trkpt lat="43.46542" lon="6.17654">
        <ele>183.6</ele>
        <time>2025-02-16T08:34:16.000Z</time>
      </trkpt>
      <trkpt lat="43.46541" lon="6.17647">
        <ele>182.9</ele>
        <time>2025-02-16T08:34:32.000Z</time>
      </trkpt>
      <trkpt lat="43.46541" lon="6.17647">
        <ele>182.9</ele>
        <time>2025-02-16T08:34:33.000Z</time>
      </trkpt>
      <trkpt lat="43.46541" lon="6.17647">
        <ele>182.8</ele>
        <time>2025-02-16T08:34:34.000Z</time>
      </trkpt>
      <trkpt lat="43.46542" lon="6.17647">
        <ele>182.7</ele>
        <time>2025-02-16T08:34:42.000Z</time>
      </trkpt>
      <trkpt lat="43.46542" lon="6.17647">
        <ele>182.7</ele>
        <time>2025-02-16T08:34:43.000Z</time>
      </trkpt>
      <trkpt lat="43.46542" lon="6.17647">
        <ele>182.6</ele>
        <time>2025-02-16T08:34:44.000Z</time>
      </trkpt>
      <trkpt lat="43.46543" lon="6.17646">
        <ele>182.6</ele>
        <time>2025-02-16T08:34:47.000Z</time>
      </trkpt>
      <trkpt lat="43.46544" lon="6.17646">
        <ele>182.6</ele>
        <time>2025-02-16T08:34:48.000Z</time>
      </trkpt>
      <trkpt lat="43.46545" lon="6.17646">
        <ele>182.6</ele>
        <time>2025-02-16T08:34:49.000Z</time>
      </trkpt>
      <trkpt lat="43.46543" lon="6.17646">
        <ele>182.5</ele>
        <time>2025-02-16T08:34:56.000Z</time>
      </trkpt>
      <trkpt lat="43.46543" lon="6.17645">
        <ele>182.5</ele>
        <time>2025-02-16T08:34:57.000Z</time>
      </trkpt>
      <trkpt lat="43.46542" lon="6.17644">
        <ele>182.5</ele>
        <time>2025-02-16T08:35:03.000Z</time>
      </trkpt>
      <trkpt lat="43.46542" lon="6.17644">
        <ele>182.5</ele>
        <time>2025-02-16T08:35:04.000Z</time>
      </trkpt>
      <trkpt lat="43.46542" lon="6.17644">
        <ele>182.4</ele>
        <time>2025-02-16T08:35:07.000Z</time>
      </trkpt>
      <trkpt lat="43.46542" lon="6.17644">
        <ele>182.4</ele>
        <time>2025-02-16T08:35:08.000Z</time>
      </trkpt>
      <trkpt lat="43.46542" lon="6.17644">
        <ele>182.4</ele>
        <time>2025-02-16T08:35:09.000Z</time>
      </trkpt>
      <trkpt lat="43.4654" lon="6.17641">
        <ele>182.3</ele>
        <time>2025-02-16T08:35:16.000Z</time>
      </trkpt>
      <trkpt lat="43.4654" lon="6.17641">
        <ele>182.3</ele>
        <time>2025-02-16T08:35:17.000Z</time>
      </trkpt>
      <trkpt lat="43.46539" lon="6.17641">
        <ele>182.3</ele>
        <time>2025-02-16T08:35:22.000Z</time>
      </trkpt>
      <trkpt lat="43.46539" lon="6.1764">
        <ele>182.3</ele>
        <time>2025-02-16T08:35:23.000Z</time>
      </trkpt>
      <trkpt lat="43.46538" lon="6.17639">
        <ele>182.3</ele>
        <time>2025-02-16T08:35:24.000Z</time>
      </trkpt>
      <trkpt lat="43.46534" lon="6.17628">
        <ele>182.1</ele>
        <time>2025-02-16T08:35:34.000Z</time>
      </trkpt>
      <trkpt lat="43.46529" lon="6.17624">
        <ele>181.9</ele>
        <time>2025-02-16T08:35:48.000Z</time>
      </trkpt>
      <trkpt lat="43.46529" lon="6.17624">
        <ele>181.8</ele>
        <time>2025-02-16T08:35:49.000Z</time>
      </trkpt>
      <trkpt lat="43.46529" lon="6.17624">
        <ele>181.8</ele>
        <time>2025-02-16T08:35:50.000Z</time>
      </trkpt>
      <trkpt lat="43.46529" lon="6.17624">
        <ele>181.8</ele>
        <time>2025-02-16T08:35:53.000Z</time>
      </trkpt>
      <trkpt lat="43.46528" lon="6.17623">
        <ele>181.7</ele>
        <time>2025-02-16T08:35:54.000Z</time>
      </trkpt>
      <trkpt lat="43.46527" lon="6.17623">
        <ele>181.7</ele>
        <time>2025-02-16T08:35:55.000Z</time>
      </trkpt>
      <trkpt lat="43.46519" lon="6.17614">
        <ele>181.6</ele>
        <time>2025-02-16T08:36:04.000Z</time>
      </trkpt>
      <trkpt lat="43.46513" lon="6.17604">
        <ele>181.1</ele>
        <time>2025-02-16T08:36:10.000Z</time>
      </trkpt>
      <trkpt lat="43.46508" lon="6.17593">
        <ele>179.6</ele>
        <time>2025-02-16T08:36:21.000Z</time>
      </trkpt>
      <trkpt lat="43.46504" lon="6.17582">
        <ele>178.7</ele>
        <time>2025-02-16T08:36:29.000Z</time>
      </trkpt>
      <trkpt lat="43.46498" lon="6.17571">
        <ele>177.9</ele>
        <time>2025-02-16T08:36:37.000Z</time>
      </trkpt>
      <trkpt lat="43.46494" lon="6.17559">
        <ele>177.2</ele>
        <time>2025-02-16T08:36:44.000Z</time>
      </trkpt>
      <trkpt lat="43.46492" lon="6.17546">
        <ele>176.4</ele>
        <time>2025-02-16T08:36:53.000Z</time>
      </trkpt>
      <trkpt lat="43.46493" lon="6.17532">
        <ele>175.7</ele>
        <time>2025-02-16T08:37:01.000Z</time>
      </trkpt>
      <trkpt lat="43.46493" lon="6.17519">
        <ele>175.1</ele>
        <time>2025-02-16T08:37:09.000Z</time>
      </trkpt>
      <trkpt lat="43.46494" lon="6.17506">
        <ele>174.5</ele>
        <time>2025-02-16T08:37:17.000Z</time>
      </trkpt>
      <trkpt lat="43.46495" lon="6.17494">
        <ele>173.8</ele>
        <time>2025-02-16T08:37:25.000Z</time>
      </trkpt>
      <trkpt lat="43.46496" lon="6.17481">
        <ele>173.2</ele>
        <time>2025-02-16T08:37:34.000Z</time>
      </trkpt>
      <trkpt lat="43.46494" lon="6.17466">
        <ele>172.8</ele>
        <time>2025-02-16T08:37:43.000Z</time>
      </trkpt>
      <trkpt lat="43.46498" lon="6.17453">
        <ele>172.3</ele>
        <time>2025-02-16T08:37:50.000Z</time>
      </trkpt>
      <trkpt lat="43.46502" lon="6.17441">
        <ele>171.8</ele>
        <time>2025-02-16T08:37:58.000Z</time>
      </trkpt>
      <trkpt lat="43.46505" lon="6.17428">
        <ele>171.2</ele>
        <time>2025-02-16T08:38:05.000Z</time>
      </trkpt>
      <trkpt lat="43.46502" lon="6.17416">
        <ele>170.9</ele>
        <time>2025-02-16T08:38:12.000Z</time>
      </trkpt>
      <trkpt lat="43.465" lon="6.17413">
        <ele>170.4</ele>
        <time>2025-02-16T08:38:18.000Z</time>
      </trkpt>
      <trkpt lat="43.465" lon="6.17413">
        <ele>170.3</ele>
        <time>2025-02-16T08:38:19.000Z</time>
      </trkpt>
      <trkpt lat="43.46499" lon="6.17411">
        <ele>169.8</ele>
        <time>2025-02-16T08:38:43.000Z</time>
      </trkpt>
      <trkpt lat="43.46499" lon="6.17411">
        <ele>169.8</ele>
        <time>2025-02-16T08:38:44.000Z</time>
      </trkpt>
      <trkpt lat="43.4649" lon="6.17407">
        <ele>169.6</ele>
        <time>2025-02-16T08:38:54.000Z</time>
      </trkpt>
      <trkpt lat="43.46482" lon="6.174">
        <ele>169.2</ele>
        <time>2025-02-16T08:39:05.000Z</time>
      </trkpt>
      <trkpt lat="43.46475" lon="6.17391">
        <ele>168.6</ele>
        <time>2025-02-16T08:39:16.000Z</time>
      </trkpt>
      <trkpt lat="43.46472" lon="6.17388">
        <ele>168.1</ele>
        <time>2025-02-16T08:39:25.000Z</time>
      </trkpt>
      <trkpt lat="43.46472" lon="6.17388">
        <ele>168.1</ele>
        <time>2025-02-16T08:39:26.000Z</time>
      </trkpt>
      <trkpt lat="43.46471" lon="6.17387">
        <ele>167.9</ele>
        <time>2025-02-16T08:39:30.000Z</time>
      </trkpt>
      <trkpt lat="43.4647" lon="6.17386">
        <ele>167.9</ele>
        <time>2025-02-16T08:39:31.000Z</time>
      </trkpt>
      <trkpt lat="43.46462" lon="6.1738">
        <ele>167.5</ele>
        <time>2025-02-16T08:39:41.000Z</time>
      </trkpt>
      <trkpt lat="43.46455" lon="6.17371">
        <ele>166.7</ele>
        <time>2025-02-16T08:39:51.000Z</time>
      </trkpt>
      <trkpt lat="43.46449" lon="6.17361">
        <ele>165.7</ele>
        <time>2025-02-16T08:40:03.000Z</time>
      </trkpt>
      <trkpt lat="43.46441" lon="6.17355">
        <ele>165</ele>
        <time>2025-02-16T08:40:11.000Z</time>
      </trkpt>
      <trkpt lat="43.46433" lon="6.17347">
        <ele>164.4</ele>
        <time>2025-02-16T08:40:19.000Z</time>
      </trkpt>
      <trkpt lat="43.46425" lon="6.1734">
        <ele>163.9</ele>
        <time>2025-02-16T08:40:27.000Z</time>
      </trkpt>
      <trkpt lat="43.46418" lon="6.17331">
        <ele>163.3</ele>
        <time>2025-02-16T08:40:34.000Z</time>
      </trkpt>
      <trkpt lat="43.46413" lon="6.1732">
        <ele>162.5</ele>
        <time>2025-02-16T08:40:42.000Z</time>
      </trkpt>
      <trkpt lat="43.46412" lon="6.17307">
        <ele>161.4</ele>
        <time>2025-02-16T08:40:52.000Z</time>
      </trkpt>
      <trkpt lat="43.4641" lon="6.17294">
        <ele>160.5</ele>
        <time>2025-02-16T08:41:01.000Z</time>
      </trkpt>
      <trkpt lat="43.4641" lon="6.17281">
        <ele>159.8</ele>
        <time>2025-02-16T08:41:09.000Z</time>
      </trkpt>
      <trkpt lat="43.46411" lon="6.17267">
        <ele>159.1</ele>
        <time>2025-02-16T08:41:17.000Z</time>
      </trkpt>
      <trkpt lat="43.46413" lon="6.17255">
        <ele>158.1</ele>
        <time>2025-02-16T08:41:26.000Z</time>
      </trkpt>
      <trkpt lat="43.46416" lon="6.17243">
        <ele>157.2</ele>
        <time>2025-02-16T08:41:35.000Z</time>
      </trkpt>
      <trkpt lat="43.46413" lon="6.1723">
        <ele>156.6</ele>
        <time>2025-02-16T08:41:45.000Z</time>
      </trkpt>
      <trkpt lat="43.46409" lon="6.17217">
        <ele>156.1</ele>
        <time>2025-02-16T08:41:55.000Z</time>
      </trkpt>
      <trkpt lat="43.46404" lon="6.17206">
        <ele>155.2</ele>
        <time>2025-02-16T08:42:05.000Z</time>
      </trkpt>
      <trkpt lat="43.46401" lon="6.17194">
        <ele>154.4</ele>
        <time>2025-02-16T08:42:13.000Z</time>
      </trkpt>
      <trkpt lat="43.46395" lon="6.17184">
        <ele>153.7</ele>
        <time>2025-02-16T08:42:21.000Z</time>
      </trkpt>
      <trkpt lat="43.46388" lon="6.17175">
        <ele>152</ele>
        <time>2025-02-16T08:42:35.000Z</time>
      </trkpt>
      <trkpt lat="43.46381" lon="6.17165">
        <ele>151.2</ele>
        <time>2025-02-16T08:42:44.000Z</time>
      </trkpt>
      <trkpt lat="43.46375" lon="6.17154">
        <ele>150.4</ele>
        <time>2025-02-16T08:42:54.000Z</time>
      </trkpt>
      <trkpt lat="43.46369" lon="6.17145">
        <ele>149.5</ele>
        <time>2025-02-16T08:43:02.000Z</time>
      </trkpt>
      <trkpt lat="43.46364" lon="6.17134">
        <ele>148.4</ele>
        <time>2025-02-16T08:43:11.000Z</time>
      </trkpt>
      <trkpt lat="43.46358" lon="6.17125">
        <ele>147.8</ele>
        <time>2025-02-16T08:43:19.000Z</time>
      </trkpt>
      <trkpt lat="43.46357" lon="6.17122">
        <ele>147.2</ele>
        <time>2025-02-16T08:43:30.000Z</time>
      </trkpt>
      <trkpt lat="43.46357" lon="6.17122">
        <ele>147.2</ele>
        <time>2025-02-16T08:43:31.000Z</time>
      </trkpt>
      <trkpt lat="43.46357" lon="6.17122">
        <ele>147.2</ele>
        <time>2025-02-16T08:43:32.000Z</time>
      </trkpt>
      <trkpt lat="43.46357" lon="6.17122">
        <ele>147.1</ele>
        <time>2025-02-16T08:43:40.000Z</time>
      </trkpt>
      <trkpt lat="43.46356" lon="6.17122">
        <ele>147.1</ele>
        <time>2025-02-16T08:43:41.000Z</time>
      </trkpt>
      <trkpt lat="43.46351" lon="6.17111">
        <ele>146.9</ele>
        <time>2025-02-16T08:43:57.000Z</time>
      </trkpt>
      <trkpt lat="43.4635" lon="6.1711">
        <ele>146.8</ele>
        <time>2025-02-16T08:44:03.000Z</time>
      </trkpt>
      <trkpt lat="43.4635" lon="6.1711">
        <ele>146.8</ele>
        <time>2025-02-16T08:44:04.000Z</time>
      </trkpt>
      <trkpt lat="43.4635" lon="6.1711">
        <ele>146.8</ele>
        <time>2025-02-16T08:44:05.000Z</time>
      </trkpt>
      <trkpt lat="43.4635" lon="6.1711">
        <ele>146.8</ele>
        <time>2025-02-16T08:44:12.000Z</time>
      </trkpt>
      <trkpt lat="43.46349" lon="6.17109">
        <ele>146.8</ele>
        <time>2025-02-16T08:44:13.000Z</time>
      </trkpt>
      <trkpt lat="43.46349" lon="6.17108">
        <ele>146.8</ele>
        <time>2025-02-16T08:44:14.000Z</time>
      </trkpt>
      <trkpt lat="43.46343" lon="6.17098">
        <ele>146.6</ele>
        <time>2025-02-16T08:44:26.000Z</time>
      </trkpt>
      <trkpt lat="43.4634" lon="6.17086">
        <ele>146.4</ele>
        <time>2025-02-16T08:44:36.000Z</time>
      </trkpt>
      <trkpt lat="43.46342" lon="6.17079">
        <ele>145.1</ele>
        <time>2025-02-16T08:44:52.000Z</time>
      </trkpt>
      <trkpt lat="43.46342" lon="6.17079">
        <ele>145.1</ele>
        <time>2025-02-16T08:44:53.000Z</time>
      </trkpt>
      <trkpt lat="43.46342" lon="6.17079">
        <ele>145.1</ele>
        <time>2025-02-16T08:44:54.000Z</time>
      </trkpt>
      <trkpt lat="43.46341" lon="6.17078">
        <ele>144.8</ele>
        <time>2025-02-16T08:45:03.000Z</time>
      </trkpt>
      <trkpt lat="43.46341" lon="6.17078">
        <ele>144.8</ele>
        <time>2025-02-16T08:45:04.000Z</time>
      </trkpt>
      <trkpt lat="43.4634" lon="6.17078">
        <ele>144.7</ele>
        <time>2025-02-16T08:45:10.000Z</time>
      </trkpt>
      <trkpt lat="43.4634" lon="6.17079">
        <ele>144.7</ele>
        <time>2025-02-16T08:45:11.000Z</time>
      </trkpt>
      <trkpt lat="43.4634" lon="6.17079">
        <ele>144.7</ele>
        <time>2025-02-16T08:45:12.000Z</time>
      </trkpt>
      <trkpt lat="43.4634" lon="6.17079">
        <ele>144.6</ele>
        <time>2025-02-16T08:45:13.000Z</time>
      </trkpt>
      <trkpt lat="43.4634" lon="6.17079">
        <ele>144.6</ele>
        <time>2025-02-16T08:45:14.000Z</time>
      </trkpt>
      <trkpt lat="43.46339" lon="6.17081">
        <ele>144.6</ele>
        <time>2025-02-16T08:45:25.000Z</time>
      </trkpt>
      <trkpt lat="43.46339" lon="6.17081">
        <ele>144.6</ele>
        <time>2025-02-16T08:45:26.000Z</time>
      </trkpt>
      <trkpt lat="43.46339" lon="6.17081">
        <ele>144.6</ele>
        <time>2025-02-16T08:45:27.000Z</time>
      </trkpt>
      <trkpt lat="43.46339" lon="6.17081">
        <ele>144.6</ele>
        <time>2025-02-16T08:45:31.000Z</time>
      </trkpt>
      <trkpt lat="43.46338" lon="6.1708">
        <ele>144.6</ele>
        <time>2025-02-16T08:45:32.000Z</time>
      </trkpt>
      <trkpt lat="43.46338" lon="6.1708">
        <ele>144.5</ele>
        <time>2025-02-16T08:45:35.000Z</time>
      </trkpt>
      <trkpt lat="43.46338" lon="6.1708">
        <ele>144.5</ele>
        <time>2025-02-16T08:45:36.000Z</time>
      </trkpt>
      <trkpt lat="43.46337" lon="6.17081">
        <ele>144.5</ele>
        <time>2025-02-16T08:45:40.000Z</time>
      </trkpt>
      <trkpt lat="43.46336" lon="6.17083">
        <ele>144.5</ele>
        <time>2025-02-16T08:45:41.000Z</time>
      </trkpt>
      <trkpt lat="43.46336" lon="6.17084">
        <ele>144.5</ele>
        <time>2025-02-16T08:45:42.000Z</time>
      </trkpt>
      <trkpt lat="43.46335" lon="6.17085">
        <ele>144.5</ele>
        <time>2025-02-16T08:45:50.000Z</time>
      </trkpt>
      <trkpt lat="43.46335" lon="6.17085">
        <ele>144.5</ele>
        <time>2025-02-16T08:45:51.000Z</time>
      </trkpt>
      <trkpt lat="43.46335" lon="6.17085">
        <ele>144.5</ele>
        <time>2025-02-16T08:45:52.000Z</time>
      </trkpt>
      <trkpt lat="43.46335" lon="6.17085">
        <ele>144.5</ele>
        <time>2025-02-16T08:45:53.000Z</time>
      </trkpt>
      <trkpt lat="43.46335" lon="6.17085">
        <ele>144.5</ele>
        <time>2025-02-16T08:45:54.000Z</time>
      </trkpt>
      <trkpt lat="43.46335" lon="6.17085">
        <ele>144.5</ele>
        <time>2025-02-16T08:45:55.000Z</time>
      </trkpt>
      <trkpt lat="43.46335" lon="6.17085">
        <ele>144.5</ele>
        <time>2025-02-16T08:45:56.000Z</time>
      </trkpt>
      <trkpt lat="43.46335" lon="6.17085">
        <ele>144.5</ele>
        <time>2025-02-16T08:46:02.000Z</time>
      </trkpt>
      <trkpt lat="43.46335" lon="6.17085">
        <ele>144.5</ele>
        <time>2025-02-16T08:46:03.000Z</time>
      </trkpt>
      <trkpt lat="43.46335" lon="6.17086">
        <ele>144.5</ele>
        <time>2025-02-16T08:46:04.000Z</time>
      </trkpt>
      <trkpt lat="43.46334" lon="6.17087">
        <ele>144.5</ele>
        <time>2025-02-16T08:46:17.000Z</time>
      </trkpt>
      <trkpt lat="43.46334" lon="6.17087">
        <ele>144.5</ele>
        <time>2025-02-16T08:46:18.000Z</time>
      </trkpt>
      <trkpt lat="43.46334" lon="6.17087">
        <ele>144.5</ele>
        <time>2025-02-16T08:46:19.000Z</time>
      </trkpt>
      <trkpt lat="43.46332" lon="6.17087">
        <ele>144.5</ele>
        <time>2025-02-16T08:46:23.000Z</time>
      </trkpt>
      <trkpt lat="43.46331" lon="6.17087">
        <ele>144.5</ele>
        <time>2025-02-16T08:46:24.000Z</time>
      </trkpt>
      <trkpt lat="43.4633" lon="6.17087">
        <ele>144.5</ele>
        <time>2025-02-16T08:46:25.000Z</time>
      </trkpt>
      <trkpt lat="43.4632" lon="6.17091">
        <ele>144.5</ele>
        <time>2025-02-16T08:46:35.000Z</time>
      </trkpt>
      <trkpt lat="43.46313" lon="6.171">
        <ele>144.5</ele>
        <time>2025-02-16T08:46:48.000Z</time>
      </trkpt>
      <trkpt lat="43.46305" lon="6.17107">
        <ele>144.6</ele>
        <time>2025-02-16T08:46:58.000Z</time>
      </trkpt>
      <trkpt lat="43.46298" lon="6.17116">
        <ele>144.7</ele>
        <time>2025-02-16T08:47:09.000Z</time>
      </trkpt>
      <trkpt lat="43.4629" lon="6.17125">
        <ele>144.8</ele>
        <time>2025-02-16T08:47:18.000Z</time>
      </trkpt>
      <trkpt lat="43.46283" lon="6.17132">
        <ele>144.8</ele>
        <time>2025-02-16T08:47:26.000Z</time>
      </trkpt>
      <trkpt lat="43.46273" lon="6.1713">
        <ele>144.9</ele>
        <time>2025-02-16T08:47:34.000Z</time>
      </trkpt>
      <trkpt lat="43.46267" lon="6.17121">
        <ele>145</ele>
        <time>2025-02-16T08:47:42.000Z</time>
      </trkpt>
      <trkpt lat="43.4626" lon="6.1711">
        <ele>145.1</ele>
        <time>2025-02-16T08:47:54.000Z</time>
      </trkpt>
      <trkpt lat="43.46254" lon="6.171">
        <ele>145.1</ele>
        <time>2025-02-16T08:48:02.000Z</time>
      </trkpt>
      <trkpt lat="43.46248" lon="6.17089">
        <ele>145.1</ele>
        <time>2025-02-16T08:48:09.000Z</time>
      </trkpt>
      <trkpt lat="43.46243" lon="6.17079">
        <ele>145.1</ele>
        <time>2025-02-16T08:48:17.000Z</time>
      </trkpt>
      <trkpt lat="43.46238" lon="6.17067">
        <ele>145.1</ele>
        <time>2025-02-16T08:48:26.000Z</time>
      </trkpt>
      <trkpt lat="43.46232" lon="6.17058">
        <ele>145.1</ele>
        <time>2025-02-16T08:48:34.000Z</time>
      </trkpt>
      <trkpt lat="43.46225" lon="6.17047">
        <ele>145.1</ele>
        <time>2025-02-16T08:48:42.000Z</time>
      </trkpt>
      <trkpt lat="43.46219" lon="6.17036">
        <ele>145.1</ele>
        <time>2025-02-16T08:48:51.000Z</time>
      </trkpt>
      <trkpt lat="43.46213" lon="6.17027">
        <ele>145.2</ele>
        <time>2025-02-16T08:49:00.000Z</time>
      </trkpt>
      <trkpt lat="43.46212" lon="6.17026">
        <ele>145.2</ele>
        <time>2025-02-16T08:49:05.000Z</time>
      </trkpt>
      <trkpt lat="43.46212" lon="6.17026">
        <ele>145.2</ele>
        <time>2025-02-16T08:49:06.000Z</time>
      </trkpt>
      <trkpt lat="43.46212" lon="6.17026">
        <ele>145.2</ele>
        <time>2025-02-16T08:49:07.000Z</time>
      </trkpt>
      <trkpt lat="43.46212" lon="6.17027">
        <ele>145.2</ele>
        <time>2025-02-16T08:49:08.000Z</time>
      </trkpt>
      <trkpt lat="43.46212" lon="6.17027">
        <ele>145.2</ele>
        <time>2025-02-16T08:49:09.000Z</time>
      </trkpt>
      <trkpt lat="43.46205" lon="6.17017">
        <ele>145.2</ele>
        <time>2025-02-16T08:49:20.000Z</time>
      </trkpt>
      <trkpt lat="43.46198" lon="6.17008">
        <ele>145.4</ele>
        <time>2025-02-16T08:49:28.000Z</time>
      </trkpt>
      <trkpt lat="43.46189" lon="6.17">
        <ele>145.6</ele>
        <time>2025-02-16T08:49:36.000Z</time>
      </trkpt>
      <trkpt lat="43.46182" lon="6.16992">
        <ele>146</ele>
        <time>2025-02-16T08:49:43.000Z</time>
      </trkpt>
      <trkpt lat="43.46174" lon="6.16983">
        <ele>146.5</ele>
        <time>2025-02-16T08:49:55.000Z</time>
      </trkpt>
      <trkpt lat="43.46166" lon="6.16975">
        <ele>146.6</ele>
        <time>2025-02-16T08:50:03.000Z</time>
      </trkpt>
      <trkpt lat="43.46157" lon="6.16968">
        <ele>146.6</ele>
        <time>2025-02-16T08:50:11.000Z</time>
      </trkpt>
      <trkpt lat="43.46148" lon="6.16963">
        <ele>146.6</ele>
        <time>2025-02-16T08:50:20.000Z</time>
      </trkpt>
      <trkpt lat="43.4614" lon="6.16956">
        <ele>146.6</ele>
        <time>2025-02-16T08:50:27.000Z</time>
      </trkpt>
      <trkpt lat="43.46133" lon="6.16949">
        <ele>146.7</ele>
        <time>2025-02-16T08:50:34.000Z</time>
      </trkpt>
      <trkpt lat="43.46124" lon="6.16946">
        <ele>146.7</ele>
        <time>2025-02-16T08:50:41.000Z</time>
      </trkpt>
      <trkpt lat="43.46115" lon="6.16938">
        <ele>146.8</ele>
        <time>2025-02-16T08:50:50.000Z</time>
      </trkpt>
      <trkpt lat="43.46107" lon="6.16933">
        <ele>146.8</ele>
        <time>2025-02-16T08:50:58.000Z</time>
      </trkpt>
      <trkpt lat="43.46098" lon="6.16926">
        <ele>146.9</ele>
        <time>2025-02-16T08:51:07.000Z</time>
      </trkpt>
      <trkpt lat="43.46089" lon="6.16921">
        <ele>147</ele>
        <time>2025-02-16T08:51:15.000Z</time>
      </trkpt>
      <trkpt lat="43.4608" lon="6.16916">
        <ele>147.2</ele>
        <time>2025-02-16T08:51:24.000Z</time>
      </trkpt>
      <trkpt lat="43.46071" lon="6.16911">
        <ele>147.4</ele>
        <time>2025-02-16T08:51:32.000Z</time>
      </trkpt>
      <trkpt lat="43.46065" lon="6.16902">
        <ele>147.7</ele>
        <time>2025-02-16T08:51:40.000Z</time>
      </trkpt>
      <trkpt lat="43.46061" lon="6.16889">
        <ele>147.9</ele>
        <time>2025-02-16T08:51:48.000Z</time>
      </trkpt>
      <trkpt lat="43.46056" lon="6.16877">
        <ele>148.1</ele>
        <time>2025-02-16T08:51:57.000Z</time>
      </trkpt>
      <trkpt lat="43.4605" lon="6.16867">
        <ele>148.3</ele>
        <time>2025-02-16T08:52:07.000Z</time>
      </trkpt>
      <trkpt lat="43.46044" lon="6.16856">
        <ele>148.5</ele>
        <time>2025-02-16T08:52:15.000Z</time>
      </trkpt>
      <trkpt lat="43.46038" lon="6.16846">
        <ele>148.7</ele>
        <time>2025-02-16T08:52:24.000Z</time>
      </trkpt>
      <trkpt lat="43.46032" lon="6.16835">
        <ele>149</ele>
        <time>2025-02-16T08:52:32.000Z</time>
      </trkpt>
      <trkpt lat="43.46026" lon="6.16824">
        <ele>149.8</ele>
        <time>2025-02-16T08:52:43.000Z</time>
      </trkpt>
      <trkpt lat="43.4602" lon="6.16814">
        <ele>150.8</ele>
        <time>2025-02-16T08:52:51.000Z</time>
      </trkpt>
      <trkpt lat="43.46013" lon="6.16805">
        <ele>152</ele>
        <time>2025-02-16T08:53:00.000Z</time>
      </trkpt>
      <trkpt lat="43.46009" lon="6.16792">
        <ele>153.2</ele>
        <time>2025-02-16T08:53:10.000Z</time>
      </trkpt>
      <trkpt lat="43.46004" lon="6.16782">
        <ele>154.1</ele>
        <time>2025-02-16T08:53:19.000Z</time>
      </trkpt>
      <trkpt lat="43.45997" lon="6.16773">
        <ele>154.9</ele>
        <time>2025-02-16T08:53:28.000Z</time>
      </trkpt>
      <trkpt lat="43.45987" lon="6.1677">
        <ele>155.5</ele>
        <time>2025-02-16T08:53:36.000Z</time>
      </trkpt>
      <trkpt lat="43.45978" lon="6.16766">
        <ele>156</ele>
        <time>2025-02-16T08:53:44.000Z</time>
      </trkpt>
      <trkpt lat="43.45969" lon="6.16764">
        <ele>156.4</ele>
        <time>2025-02-16T08:53:55.000Z</time>
      </trkpt>
      <trkpt lat="43.4597" lon="6.16764">
        <ele>156.5</ele>
        <time>2025-02-16T08:53:58.000Z</time>
      </trkpt>
      <trkpt lat="43.4597" lon="6.16763">
        <ele>156.6</ele>
        <time>2025-02-16T08:53:59.000Z</time>
      </trkpt>
      <trkpt lat="43.4597" lon="6.16763">
        <ele>156.6</ele>
        <time>2025-02-16T08:54:00.000Z</time>
      </trkpt>
      <trkpt lat="43.4597" lon="6.16763">
        <ele>156.6</ele>
        <time>2025-02-16T08:54:01.000Z</time>
      </trkpt>
      <trkpt lat="43.45961" lon="6.1676">
        <ele>156.7</ele>
        <time>2025-02-16T08:54:09.000Z</time>
      </trkpt>
      <trkpt lat="43.45951" lon="6.16759">
        <ele>156.8</ele>
        <time>2025-02-16T08:54:17.000Z</time>
      </trkpt>
      <trkpt lat="43.45942" lon="6.16756">
        <ele>157</ele>
        <time>2025-02-16T08:54:25.000Z</time>
      </trkpt>
      <trkpt lat="43.45934" lon="6.16752">
        <ele>157.1</ele>
        <time>2025-02-16T08:54:33.000Z</time>
      </trkpt>
      <trkpt lat="43.45925" lon="6.16751">
        <ele>157.3</ele>
        <time>2025-02-16T08:54:41.000Z</time>
      </trkpt>
      <trkpt lat="43.45915" lon="6.16749">
        <ele>157.5</ele>
        <time>2025-02-16T08:54:49.000Z</time>
      </trkpt>
      <trkpt lat="43.45906" lon="6.16745">
        <ele>157.7</ele>
        <time>2025-02-16T08:54:57.000Z</time>
      </trkpt>
      <trkpt lat="43.45897" lon="6.16739">
        <ele>158</ele>
        <time>2025-02-16T08:55:06.000Z</time>
      </trkpt>
      <trkpt lat="43.4589" lon="6.1673">
        <ele>158.7</ele>
        <time>2025-02-16T08:55:18.000Z</time>
      </trkpt>
      <trkpt lat="43.45882" lon="6.1672">
        <ele>159.3</ele>
        <time>2025-02-16T08:55:30.000Z</time>
      </trkpt>
      <trkpt lat="43.45877" lon="6.1671">
        <ele>159.8</ele>
        <time>2025-02-16T08:55:38.000Z</time>
      </trkpt>
      <trkpt lat="43.45869" lon="6.16702">
        <ele>160.4</ele>
        <time>2025-02-16T08:55:47.000Z</time>
      </trkpt>
      <trkpt lat="43.45861" lon="6.16695">
        <ele>161</ele>
        <time>2025-02-16T08:55:55.000Z</time>
      </trkpt>
      <trkpt lat="43.45855" lon="6.16685">
        <ele>161.7</ele>
        <time>2025-02-16T08:56:04.000Z</time>
      </trkpt>
      <trkpt lat="43.45847" lon="6.16677">
        <ele>162.6</ele>
        <time>2025-02-16T08:56:13.000Z</time>
      </trkpt>
      <trkpt lat="43.4584" lon="6.16669">
        <ele>163.7</ele>
        <time>2025-02-16T08:56:22.000Z</time>
      </trkpt>
      <trkpt lat="43.45831" lon="6.16662">
        <ele>165.6</ele>
        <time>2025-02-16T08:56:36.000Z</time>
      </trkpt>
      <trkpt lat="43.45823" lon="6.16654">
        <ele>167.1</ele>
        <time>2025-02-16T08:56:47.000Z</time>
      </trkpt>
      <trkpt lat="43.45815" lon="6.16648">
        <ele>168.2</ele>
        <time>2025-02-16T08:56:57.000Z</time>
      </trkpt>
      <trkpt lat="43.45806" lon="6.16641">
        <ele>169.4</ele>
        <time>2025-02-16T08:57:07.000Z</time>
      </trkpt>
      <trkpt lat="43.45797" lon="6.16642">
        <ele>170.1</ele>
        <time>2025-02-16T08:57:13.000Z</time>
      </trkpt>
      <trkpt lat="43.45788" lon="6.16641">
        <ele>170.9</ele>
        <time>2025-02-16T08:57:20.000Z</time>
      </trkpt>
      <trkpt lat="43.45785" lon="6.16638">
        <ele>171.7</ele>
        <time>2025-02-16T08:57:30.000Z</time>
      </trkpt>
      <trkpt lat="43.45785" lon="6.16638">
        <ele>171.5</ele>
        <time>2025-02-16T08:57:31.000Z</time>
      </trkpt>
      <trkpt lat="43.45785" lon="6.16638">
        <ele>170.9</ele>
        <time>2025-02-16T08:57:32.000Z</time>
      </trkpt>
      <trkpt lat="43.45785" lon="6.16638">
        <ele>169.5</ele>
        <time>2025-02-16T08:57:33.000Z</time>
      </trkpt>
      <trkpt lat="43.45785" lon="6.16639">
        <ele>168.1</ele>
        <time>2025-02-16T08:57:34.000Z</time>
      </trkpt>
      <trkpt lat="43.45785" lon="6.16639">
        <ele>169.9</ele>
        <time>2025-02-16T08:57:35.000Z</time>
      </trkpt>
      <trkpt lat="43.45785" lon="6.16639">
        <ele>173.1</ele>
        <time>2025-02-16T08:57:36.000Z</time>
      </trkpt>
      <trkpt lat="43.45785" lon="6.1664">
        <ele>173.6</ele>
        <time>2025-02-16T08:57:40.000Z</time>
      </trkpt>
      <trkpt lat="43.45784" lon="6.16639">
        <ele>173.3</ele>
        <time>2025-02-16T08:57:41.000Z</time>
      </trkpt>
      <trkpt lat="43.45783" lon="6.16639">
        <ele>173.1</ele>
        <time>2025-02-16T08:57:42.000Z</time>
      </trkpt>
      <trkpt lat="43.45774" lon="6.16636">
        <ele>172.8</ele>
        <time>2025-02-16T08:57:52.000Z</time>
      </trkpt>
      <trkpt lat="43.45763" lon="6.16635">
        <ele>172.9</ele>
        <time>2025-02-16T08:57:59.000Z</time>
      </trkpt>
      <trkpt lat="43.45754" lon="6.16633">
        <ele>173.1</ele>
        <time>2025-02-16T08:58:07.000Z</time>
      </trkpt>
      <trkpt lat="43.45745" lon="6.16632">
        <ele>173.5</ele>
        <time>2025-02-16T08:58:16.000Z</time>
      </trkpt>
      <trkpt lat="43.45737" lon="6.16626">
        <ele>173.9</ele>
        <time>2025-02-16T08:58:24.000Z</time>
      </trkpt>
      <trkpt lat="43.45728" lon="6.16625">
        <ele>174.5</ele>
        <time>2025-02-16T08:58:34.000Z</time>
      </trkpt>
      <trkpt lat="43.45728" lon="6.16624">
        <ele>174.6</ele>
        <time>2025-02-16T08:58:37.000Z</time>
      </trkpt>
      <trkpt lat="43.45728" lon="6.16624">
        <ele>174.7</ele>
        <time>2025-02-16T08:58:38.000Z</time>
      </trkpt>
      <trkpt lat="43.45728" lon="6.16624">
        <ele>174.7</ele>
        <time>2025-02-16T08:58:39.000Z</time>
      </trkpt>
      <trkpt lat="43.45727" lon="6.16624">
        <ele>174.7</ele>
        <time>2025-02-16T08:58:40.000Z</time>
      </trkpt>
      <trkpt lat="43.45726" lon="6.16624">
        <ele>174.8</ele>
        <time>2025-02-16T08:58:41.000Z</time>
      </trkpt>
      <trkpt lat="43.45725" lon="6.16619">
        <ele>175.1</ele>
        <time>2025-02-16T08:58:50.000Z</time>
      </trkpt>
      <trkpt lat="43.45725" lon="6.16619">
        <ele>175.1</ele>
        <time>2025-02-16T08:58:51.000Z</time>
      </trkpt>
      <trkpt lat="43.45724" lon="6.16619">
        <ele>175.2</ele>
        <time>2025-02-16T08:59:00.000Z</time>
      </trkpt>
      <trkpt lat="43.45724" lon="6.16618">
        <ele>175.2</ele>
        <time>2025-02-16T08:59:01.000Z</time>
      </trkpt>
      <trkpt lat="43.45724" lon="6.16618">
        <ele>175.2</ele>
        <time>2025-02-16T08:59:02.000Z</time>
      </trkpt>
      <trkpt lat="43.45724" lon="6.16618">
        <ele>175.2</ele>
        <time>2025-02-16T08:59:03.000Z</time>
      </trkpt>
      <trkpt lat="43.45724" lon="6.16619">
        <ele>175.2</ele>
        <time>2025-02-16T08:59:04.000Z</time>
      </trkpt>
      <trkpt lat="43.45725" lon="6.16617">
        <ele>175.3</ele>
        <time>2025-02-16T08:59:13.000Z</time>
      </trkpt>
      <trkpt lat="43.45725" lon="6.16616">
        <ele>175.3</ele>
        <time>2025-02-16T08:59:14.000Z</time>
      </trkpt>
      <trkpt lat="43.45729" lon="6.16604">
        <ele>175.3</ele>
        <time>2025-02-16T08:59:25.000Z</time>
      </trkpt>
      <trkpt lat="43.4573" lon="6.16591">
        <ele>175.3</ele>
        <time>2025-02-16T08:59:37.000Z</time>
      </trkpt>
      <trkpt lat="43.45729" lon="6.16578">
        <ele>175.2</ele>
        <time>2025-02-16T08:59:46.000Z</time>
      </trkpt>
      <trkpt lat="43.4573" lon="6.16564">
        <ele>175.1</ele>
        <time>2025-02-16T08:59:53.000Z</time>
      </trkpt>
      <trkpt lat="43.45733" lon="6.16551">
        <ele>174.8</ele>
        <time>2025-02-16T09:00:01.000Z</time>
      </trkpt>
      <trkpt lat="43.45737" lon="6.16538">
        <ele>174.3</ele>
        <time>2025-02-16T09:00:09.000Z</time>
      </trkpt>
      <trkpt lat="43.45738" lon="6.16525">
        <ele>173.5</ele>
        <time>2025-02-16T09:00:26.000Z</time>
      </trkpt>
      <trkpt lat="43.45739" lon="6.16513">
        <ele>173.4</ele>
        <time>2025-02-16T09:00:34.000Z</time>
      </trkpt>
      <trkpt lat="43.45742" lon="6.16501">
        <ele>173.4</ele>
        <time>2025-02-16T09:00:44.000Z</time>
      </trkpt>
      <trkpt lat="43.45742" lon="6.16501">
        <ele>173.4</ele>
        <time>2025-02-16T09:00:48.000Z</time>
      </trkpt>
      <trkpt lat="43.45742" lon="6.16501">
        <ele>173.4</ele>
        <time>2025-02-16T09:00:49.000Z</time>
      </trkpt>
      <trkpt lat="43.45738" lon="6.165">
        <ele>173.4</ele>
        <time>2025-02-16T09:01:05.000Z</time>
      </trkpt>
      <trkpt lat="43.45738" lon="6.16499">
        <ele>173.3</ele>
        <time>2025-02-16T09:01:06.000Z</time>
      </trkpt>
      <trkpt lat="43.45739" lon="6.16499">
        <ele>173.3</ele>
        <time>2025-02-16T09:01:07.000Z</time>
      </trkpt>
      <trkpt lat="43.45739" lon="6.16498">
        <ele>173.3</ele>
        <time>2025-02-16T09:01:13.000Z</time>
      </trkpt>
      <trkpt lat="43.45739" lon="6.16498">
        <ele>173.3</ele>
        <time>2025-02-16T09:01:14.000Z</time>
      </trkpt>
      <trkpt lat="43.45739" lon="6.16497">
        <ele>173.3</ele>
        <time>2025-02-16T09:01:17.000Z</time>
      </trkpt>
      <trkpt lat="43.4574" lon="6.16496">
        <ele>173.3</ele>
        <time>2025-02-16T09:01:18.000Z</time>
      </trkpt>
      <trkpt lat="43.4574" lon="6.16496">
        <ele>173.3</ele>
        <time>2025-02-16T09:01:19.000Z</time>
      </trkpt>
      <trkpt lat="43.45743" lon="6.16483">
        <ele>172.9</ele>
        <time>2025-02-16T09:01:38.000Z</time>
      </trkpt>
      <trkpt lat="43.45743" lon="6.16469">
        <ele>171.9</ele>
        <time>2025-02-16T09:01:46.000Z</time>
      </trkpt>
      <trkpt lat="43.45737" lon="6.16459">
        <ele>170</ele>
        <time>2025-02-16T09:01:55.000Z</time>
      </trkpt>
      <trkpt lat="43.45731" lon="6.16448">
        <ele>169</ele>
        <time>2025-02-16T09:02:04.000Z</time>
      </trkpt>
      <trkpt lat="43.45728" lon="6.16436">
        <ele>168.7</ele>
        <time>2025-02-16T09:02:13.000Z</time>
      </trkpt>
      <trkpt lat="43.45728" lon="6.16422">
        <ele>169.1</ele>
        <time>2025-02-16T09:02:27.000Z</time>
      </trkpt>
      <trkpt lat="43.45724" lon="6.1641">
        <ele>170.7</ele>
        <time>2025-02-16T09:02:38.000Z</time>
      </trkpt>
      <trkpt lat="43.45729" lon="6.16399">
        <ele>172.8</ele>
        <time>2025-02-16T09:02:49.000Z</time>
      </trkpt>
      <trkpt lat="43.45739" lon="6.16399">
        <ele>173.5</ele>
        <time>2025-02-16T09:03:00.000Z</time>
      </trkpt>
      <trkpt lat="43.45748" lon="6.16397">
        <ele>173.5</ele>
        <time>2025-02-16T09:03:11.000Z</time>
      </trkpt>
      <trkpt lat="43.45754" lon="6.16386">
        <ele>173.5</ele>
        <time>2025-02-16T09:03:19.000Z</time>
      </trkpt>
      <trkpt lat="43.45756" lon="6.16373">
        <ele>173.4</ele>
        <time>2025-02-16T09:03:29.000Z</time>
      </trkpt>
      <trkpt lat="43.45758" lon="6.1636">
        <ele>173.3</ele>
        <time>2025-02-16T09:03:38.000Z</time>
      </trkpt>
      <trkpt lat="43.45762" lon="6.16348">
        <ele>173.2</ele>
        <time>2025-02-16T09:03:45.000Z</time>
      </trkpt>
      <trkpt lat="43.45764" lon="6.16335">
        <ele>173.1</ele>
        <time>2025-02-16T09:03:55.000Z</time>
      </trkpt>
      <trkpt lat="43.45768" lon="6.16323">
        <ele>173</ele>
        <time>2025-02-16T09:04:05.000Z</time>
      </trkpt>
      <trkpt lat="43.45772" lon="6.1631">
        <ele>172.9</ele>
        <time>2025-02-16T09:04:14.000Z</time>
      </trkpt>
      <trkpt lat="43.45773" lon="6.16302">
        <ele>172.7</ele>
        <time>2025-02-16T09:04:23.000Z</time>
      </trkpt>
      <trkpt lat="43.45772" lon="6.16301">
        <ele>172.7</ele>
        <time>2025-02-16T09:04:24.000Z</time>
      </trkpt>
      <trkpt lat="43.45772" lon="6.16299">
        <ele>172.7</ele>
        <time>2025-02-16T09:04:25.000Z</time>
      </trkpt>
      <trkpt lat="43.45772" lon="6.16298">
        <ele>172.7</ele>
        <time>2025-02-16T09:04:26.000Z</time>
      </trkpt>
      <trkpt lat="43.4577" lon="6.16285">
        <ele>172.7</ele>
        <time>2025-02-16T09:04:35.000Z</time>
      </trkpt>
      <trkpt lat="43.45767" lon="6.16272">
        <ele>172.7</ele>
        <time>2025-02-16T09:04:44.000Z</time>
      </trkpt>
      <trkpt lat="43.45766" lon="6.16258">
        <ele>172.6</ele>
        <time>2025-02-16T09:04:53.000Z</time>
      </trkpt>
      <trkpt lat="43.45762" lon="6.16246">
        <ele>172.5</ele>
        <time>2025-02-16T09:05:02.000Z</time>
      </trkpt>
      <trkpt lat="43.45761" lon="6.16233">
        <ele>172.3</ele>
        <time>2025-02-16T09:05:10.000Z</time>
      </trkpt>
      <trkpt lat="43.45759" lon="6.1622">
        <ele>172.2</ele>
        <time>2025-02-16T09:05:18.000Z</time>
      </trkpt>
      <trkpt lat="43.4576" lon="6.16207">
        <ele>172</ele>
        <time>2025-02-16T09:05:26.000Z</time>
      </trkpt>
      <trkpt lat="43.45759" lon="6.16194">
        <ele>171.9</ele>
        <time>2025-02-16T09:05:34.000Z</time>
      </trkpt>
      <trkpt lat="43.4576" lon="6.16181">
        <ele>171.7</ele>
        <time>2025-02-16T09:05:42.000Z</time>
      </trkpt>
      <trkpt lat="43.45759" lon="6.16167">
        <ele>171.4</ele>
        <time>2025-02-16T09:05:51.000Z</time>
      </trkpt>
      <trkpt lat="43.45763" lon="6.16156">
        <ele>171.2</ele>
        <time>2025-02-16T09:05:59.000Z</time>
      </trkpt>
      <trkpt lat="43.45767" lon="6.16145">
        <ele>171.1</ele>
        <time>2025-02-16T09:06:08.000Z</time>
      </trkpt>
      <trkpt lat="43.45772" lon="6.16134">
        <ele>171</ele>
        <time>2025-02-16T09:06:14.000Z</time>
      </trkpt>
      <trkpt lat="43.45776" lon="6.16121">
        <ele>170.7</ele>
        <time>2025-02-16T09:06:22.000Z</time>
      </trkpt>
      <trkpt lat="43.45781" lon="6.16111">
        <ele>170.4</ele>
        <time>2025-02-16T09:06:29.000Z</time>
      </trkpt>
      <trkpt lat="43.45786" lon="6.161">
        <ele>170</ele>
        <time>2025-02-16T09:06:36.000Z</time>
      </trkpt>
      <trkpt lat="43.45793" lon="6.1609">
        <ele>169.6</ele>
        <time>2025-02-16T09:06:44.000Z</time>
      </trkpt>
      <trkpt lat="43.45799" lon="6.1608">
        <ele>169.2</ele>
        <time>2025-02-16T09:06:52.000Z</time>
      </trkpt>
      <trkpt lat="43.45805" lon="6.16069">
        <ele>168.9</ele>
        <time>2025-02-16T09:07:01.000Z</time>
      </trkpt>
      <trkpt lat="43.4581" lon="6.16058">
        <ele>168.4</ele>
        <time>2025-02-16T09:07:12.000Z</time>
      </trkpt>
      <trkpt lat="43.45816" lon="6.16047">
        <ele>168.2</ele>
        <time>2025-02-16T09:07:20.000Z</time>
      </trkpt>
      <trkpt lat="43.45821" lon="6.16036">
        <ele>168</ele>
        <time>2025-02-16T09:07:27.000Z</time>
      </trkpt>
      <trkpt lat="43.45827" lon="6.16026">
        <ele>167.9</ele>
        <time>2025-02-16T09:07:35.000Z</time>
      </trkpt>
      <trkpt lat="43.45834" lon="6.16016">
        <ele>167.8</ele>
        <time>2025-02-16T09:07:43.000Z</time>
      </trkpt>
      <trkpt lat="43.45842" lon="6.16007">
        <ele>167.7</ele>
        <time>2025-02-16T09:07:51.000Z</time>
      </trkpt>
      <trkpt lat="43.45846" lon="6.15995">
        <ele>167.6</ele>
        <time>2025-02-16T09:08:00.000Z</time>
      </trkpt>
      <trkpt lat="43.45851" lon="6.15984">
        <ele>167.5</ele>
        <time>2025-02-16T09:08:09.000Z</time>
      </trkpt>
      <trkpt lat="43.45857" lon="6.15973">
        <ele>167.4</ele>
        <time>2025-02-16T09:08:17.000Z</time>
      </trkpt>
      <trkpt lat="43.45864" lon="6.15964">
        <ele>167.4</ele>
        <time>2025-02-16T09:08:26.000Z</time>
      </trkpt>
      <trkpt lat="43.45868" lon="6.1595">
        <ele>167.3</ele>
        <time>2025-02-16T09:08:35.000Z</time>
      </trkpt>
      <trkpt lat="43.45873" lon="6.1594">
        <ele>167.2</ele>
        <time>2025-02-16T09:08:43.000Z</time>
      </trkpt>
      <trkpt lat="43.45876" lon="6.15927">
        <ele>167.1</ele>
        <time>2025-02-16T09:08:53.000Z</time>
      </trkpt>
      <trkpt lat="43.45878" lon="6.15914">
        <ele>167</ele>
        <time>2025-02-16T09:09:02.000Z</time>
      </trkpt>
      <trkpt lat="43.45882" lon="6.15902">
        <ele>166.9</ele>
        <time>2025-02-16T09:09:11.000Z</time>
      </trkpt>
      <trkpt lat="43.45888" lon="6.15892">
        <ele>166.7</ele>
        <time>2025-02-16T09:09:20.000Z</time>
      </trkpt>
      <trkpt lat="43.45891" lon="6.15887">
        <ele>166.6</ele>
        <time>2025-02-16T09:09:28.000Z</time>
      </trkpt>
      <trkpt lat="43.45891" lon="6.15887">
        <ele>166.6</ele>
        <time>2025-02-16T09:09:29.000Z</time>
      </trkpt>
      <trkpt lat="43.45891" lon="6.15886">
        <ele>166.5</ele>
        <time>2025-02-16T09:09:32.000Z</time>
      </trkpt>
      <trkpt lat="43.45891" lon="6.15885">
        <ele>166.5</ele>
        <time>2025-02-16T09:09:33.000Z</time>
      </trkpt>
      <trkpt lat="43.45891" lon="6.15885">
        <ele>166.5</ele>
        <time>2025-02-16T09:09:34.000Z</time>
      </trkpt>
      <trkpt lat="43.45891" lon="6.15885">
        <ele>166.5</ele>
        <time>2025-02-16T09:09:35.000Z</time>
      </trkpt>
      <trkpt lat="43.45891" lon="6.15885">
        <ele>166.4</ele>
        <time>2025-02-16T09:09:36.000Z</time>
      </trkpt>
      <trkpt lat="43.45894" lon="6.15882">
        <ele>166.5</ele>
        <time>2025-02-16T09:09:45.000Z</time>
      </trkpt>
      <trkpt lat="43.45894" lon="6.15881">
        <ele>166.5</ele>
        <time>2025-02-16T09:09:46.000Z</time>
      </trkpt>
      <trkpt lat="43.459" lon="6.15873">
        <ele>166.3</ele>
        <time>2025-02-16T09:09:57.000Z</time>
      </trkpt>
      <trkpt lat="43.45902" lon="6.1586">
        <ele>166</ele>
        <time>2025-02-16T09:10:06.000Z</time>
      </trkpt>
      <trkpt lat="43.45899" lon="6.15848">
        <ele>165.5</ele>
        <time>2025-02-16T09:10:16.000Z</time>
      </trkpt>
      <trkpt lat="43.45899" lon="6.15848">
        <ele>165.4</ele>
        <time>2025-02-16T09:10:17.000Z</time>
      </trkpt>
      <trkpt lat="43.45899" lon="6.15848">
        <ele>165.4</ele>
        <time>2025-02-16T09:10:18.000Z</time>
      </trkpt>
      <trkpt lat="43.45899" lon="6.15848">
        <ele>165.3</ele>
        <time>2025-02-16T09:10:19.000Z</time>
      </trkpt>
      <trkpt lat="43.45899" lon="6.15848">
        <ele>165.3</ele>
        <time>2025-02-16T09:10:20.000Z</time>
      </trkpt>
      <trkpt lat="43.45899" lon="6.15848">
        <ele>165.2</ele>
        <time>2025-02-16T09:10:21.000Z</time>
      </trkpt>
      <trkpt lat="43.45898" lon="6.15848">
        <ele>165.2</ele>
        <time>2025-02-16T09:10:22.000Z</time>
      </trkpt>
      <trkpt lat="43.45899" lon="6.15848">
        <ele>165.2</ele>
        <time>2025-02-16T09:10:23.000Z</time>
      </trkpt>
      <trkpt lat="43.459" lon="6.15847">
        <ele>165.1</ele>
        <time>2025-02-16T09:10:24.000Z</time>
      </trkpt>
      <trkpt lat="43.459" lon="6.15847">
        <ele>165.1</ele>
        <time>2025-02-16T09:10:25.000Z</time>
      </trkpt>
      <trkpt lat="43.45901" lon="6.15846">
        <ele>165</ele>
        <time>2025-02-16T09:10:38.000Z</time>
      </trkpt>
      <trkpt lat="43.45901" lon="6.15844">
        <ele>165</ele>
        <time>2025-02-16T09:10:39.000Z</time>
      </trkpt>
      <trkpt lat="43.45901" lon="6.15831">
        <ele>164.9</ele>
        <time>2025-02-16T09:10:48.000Z</time>
      </trkpt>
      <trkpt lat="43.45899" lon="6.15829">
        <ele>164.8</ele>
        <time>2025-02-16T09:10:52.000Z</time>
      </trkpt>
      <trkpt lat="43.45899" lon="6.15829">
        <ele>164.8</ele>
        <time>2025-02-16T09:10:53.000Z</time>
      </trkpt>
      <trkpt lat="43.45899" lon="6.15829">
        <ele>164.8</ele>
        <time>2025-02-16T09:10:54.000Z</time>
      </trkpt>
      <trkpt lat="43.45899" lon="6.15826">
        <ele>164.7</ele>
        <time>2025-02-16T09:11:00.000Z</time>
      </trkpt>
      <trkpt lat="43.45899" lon="6.15825">
        <ele>164.7</ele>
        <time>2025-02-16T09:11:01.000Z</time>
      </trkpt>
      <trkpt lat="43.45897" lon="6.15812">
        <ele>164.4</ele>
        <time>2025-02-16T09:11:11.000Z</time>
      </trkpt>
      <trkpt lat="43.45897" lon="6.15799">
        <ele>164.1</ele>
        <time>2025-02-16T09:11:20.000Z</time>
      </trkpt>
      <trkpt lat="43.45899" lon="6.15785">
        <ele>163.6</ele>
        <time>2025-02-16T09:11:28.000Z</time>
      </trkpt>
      <trkpt lat="43.45901" lon="6.15772">
        <ele>163.1</ele>
        <time>2025-02-16T09:11:36.000Z</time>
      </trkpt>
      <trkpt lat="43.45902" lon="6.15759">
        <ele>162.7</ele>
        <time>2025-02-16T09:11:44.000Z</time>
      </trkpt>
      <trkpt lat="43.45904" lon="6.15747">
        <ele>162.3</ele>
        <time>2025-02-16T09:11:52.000Z</time>
      </trkpt>
      <trkpt lat="43.45907" lon="6.15734">
        <ele>161.8</ele>
        <time>2025-02-16T09:12:00.000Z</time>
      </trkpt>
      <trkpt lat="43.45909" lon="6.15722">
        <ele>161.4</ele>
        <time>2025-02-16T09:12:07.000Z</time>
      </trkpt>
      <trkpt lat="43.4591" lon="6.15708">
        <ele>160.9</ele>
        <time>2025-02-16T09:12:17.000Z</time>
      </trkpt>
      <trkpt lat="43.45915" lon="6.15696">
        <ele>160.5</ele>
        <time>2025-02-16T09:12:25.000Z</time>
      </trkpt>
      <trkpt lat="43.45918" lon="6.15683">
        <ele>160</ele>
        <time>2025-02-16T09:12:33.000Z</time>
      </trkpt>
      <trkpt lat="43.45921" lon="6.1567">
        <ele>159.4</ele>
        <time>2025-02-16T09:12:41.000Z</time>
      </trkpt>
      <trkpt lat="43.45924" lon="6.15657">
        <ele>158.5</ele>
        <time>2025-02-16T09:12:51.000Z</time>
      </trkpt>
      <trkpt lat="43.45928" lon="6.15645">
        <ele>157.9</ele>
        <time>2025-02-16T09:12:58.000Z</time>
      </trkpt>
      <trkpt lat="43.45919" lon="6.15646">
        <ele>157.4</ele>
        <time>2025-02-16T09:13:10.000Z</time>
      </trkpt>
      <trkpt lat="43.45912" lon="6.15654">
        <ele>157.4</ele>
        <time>2025-02-16T09:13:18.000Z</time>
      </trkpt>
      <trkpt lat="43.45908" lon="6.15652">
        <ele>157.5</ele>
        <time>2025-02-16T09:13:26.000Z</time>
      </trkpt>
      <trkpt lat="43.45908" lon="6.15652">
        <ele>157.5</ele>
        <time>2025-02-16T09:13:27.000Z</time>
      </trkpt>
      <trkpt lat="43.4591" lon="6.15655">
        <ele>157.3</ele>
        <time>2025-02-16T09:14:36.000Z</time>
      </trkpt>
      <trkpt lat="43.45911" lon="6.15655">
        <ele>157.3</ele>
        <time>2025-02-16T09:14:37.000Z</time>
      </trkpt>
      <trkpt lat="43.4592" lon="6.15652">
        <ele>157.2</ele>
        <time>2025-02-16T09:14:46.000Z</time>
      </trkpt>
      <trkpt lat="43.45927" lon="6.15643">
        <ele>157.1</ele>
        <time>2025-02-16T09:14:53.000Z</time>
      </trkpt>
      <trkpt lat="43.45935" lon="6.15636">
        <ele>156.9</ele>
        <time>2025-02-16T09:15:01.000Z</time>
      </trkpt>
      <trkpt lat="43.45945" lon="6.15634">
        <ele>156.6</ele>
        <time>2025-02-16T09:15:09.000Z</time>
      </trkpt>
      <trkpt lat="43.45954" lon="6.15632">
        <ele>156.3</ele>
        <time>2025-02-16T09:15:18.000Z</time>
      </trkpt>
      <trkpt lat="43.45962" lon="6.15625">
        <ele>155.9</ele>
        <time>2025-02-16T09:15:25.000Z</time>
      </trkpt>
      <trkpt lat="43.4597" lon="6.15617">
        <ele>155.5</ele>
        <time>2025-02-16T09:15:32.000Z</time>
      </trkpt>
      <trkpt lat="43.45978" lon="6.1561">
        <ele>155.3</ele>
        <time>2025-02-16T09:15:39.000Z</time>
      </trkpt>
      <trkpt lat="43.45986" lon="6.15603">
        <ele>155.2</ele>
        <time>2025-02-16T09:15:47.000Z</time>
      </trkpt>
      <trkpt lat="43.45993" lon="6.15595">
        <ele>155.1</ele>
        <time>2025-02-16T09:15:55.000Z</time>
      </trkpt>
      <trkpt lat="43.46001" lon="6.15588">
        <ele>155.1</ele>
        <time>2025-02-16T09:16:03.000Z</time>
      </trkpt>
      <trkpt lat="43.4601" lon="6.15581">
        <ele>155</ele>
        <time>2025-02-16T09:16:11.000Z</time>
      </trkpt>
      <trkpt lat="43.46017" lon="6.15573">
        <ele>155</ele>
        <time>2025-02-16T09:16:21.000Z</time>
      </trkpt>
      <trkpt lat="43.46025" lon="6.15565">
        <ele>155</ele>
        <time>2025-02-16T09:16:31.000Z</time>
      </trkpt>
      <trkpt lat="43.46025" lon="6.15565">
        <ele>155</ele>
        <time>2025-02-16T09:16:35.000Z</time>
      </trkpt>
      <trkpt lat="43.46025" lon="6.15565">
        <ele>155</ele>
        <time>2025-02-16T09:16:36.000Z</time>
      </trkpt>
      <trkpt lat="43.46025" lon="6.15565">
        <ele>155</ele>
        <time>2025-02-16T09:16:40.000Z</time>
      </trkpt>
      <trkpt lat="43.46025" lon="6.15565">
        <ele>155</ele>
        <time>2025-02-16T09:16:41.000Z</time>
      </trkpt>
      <trkpt lat="43.46025" lon="6.15565">
        <ele>155</ele>
        <time>2025-02-16T09:16:45.000Z</time>
      </trkpt>
      <trkpt lat="43.46025" lon="6.15565">
        <ele>155</ele>
        <time>2025-02-16T09:16:46.000Z</time>
      </trkpt>
      <trkpt lat="43.46024" lon="6.15567">
        <ele>155</ele>
        <time>2025-02-16T09:17:01.000Z</time>
      </trkpt>
      <trkpt lat="43.46024" lon="6.15567">
        <ele>155</ele>
        <time>2025-02-16T09:17:02.000Z</time>
      </trkpt>
      <trkpt lat="43.46024" lon="6.15567">
        <ele>155</ele>
        <time>2025-02-16T09:17:03.000Z</time>
      </trkpt>
      <trkpt lat="43.46024" lon="6.15567">
        <ele>155</ele>
        <time>2025-02-16T09:17:04.000Z</time>
      </trkpt>
      <trkpt lat="43.46024" lon="6.15567">
        <ele>155.1</ele>
        <time>2025-02-16T09:17:07.000Z</time>
      </trkpt>
      <trkpt lat="43.46024" lon="6.15567">
        <ele>155.1</ele>
        <time>2025-02-16T09:17:08.000Z</time>
      </trkpt>
      <trkpt lat="43.46024" lon="6.15567">
        <ele>155.1</ele>
        <time>2025-02-16T09:17:09.000Z</time>
      </trkpt>
      <trkpt lat="43.46024" lon="6.15567">
        <ele>155.1</ele>
        <time>2025-02-16T09:17:16.000Z</time>
      </trkpt>
      <trkpt lat="43.46024" lon="6.15567">
        <ele>155.1</ele>
        <time>2025-02-16T09:17:17.000Z</time>
      </trkpt>
      <trkpt lat="43.46024" lon="6.15566">
        <ele>155</ele>
        <time>2025-02-16T09:17:25.000Z</time>
      </trkpt>
      <trkpt lat="43.46024" lon="6.15565">
        <ele>155</ele>
        <time>2025-02-16T09:17:26.000Z</time>
      </trkpt>
      <trkpt lat="43.46026" lon="6.15551">
        <ele>155</ele>
        <time>2025-02-16T09:17:34.000Z</time>
      </trkpt>
      <trkpt lat="43.46029" lon="6.15549">
        <ele>155</ele>
        <time>2025-02-16T09:17:41.000Z</time>
      </trkpt>
      <trkpt lat="43.46029" lon="6.15549">
        <ele>155</ele>
        <time>2025-02-16T09:17:42.000Z</time>
      </trkpt>
      <trkpt lat="43.46029" lon="6.15548">
        <ele>155</ele>
        <time>2025-02-16T09:17:43.000Z</time>
      </trkpt>
      <trkpt lat="43.4603" lon="6.15546">
        <ele>155</ele>
        <time>2025-02-16T09:17:44.000Z</time>
      </trkpt>
      <trkpt lat="43.46031" lon="6.15546">
        <ele>155</ele>
        <time>2025-02-16T09:17:45.000Z</time>
      </trkpt>
      <trkpt lat="43.46032" lon="6.15533">
        <ele>154.9</ele>
        <time>2025-02-16T09:17:54.000Z</time>
      </trkpt>
      <trkpt lat="43.46032" lon="6.1552">
        <ele>154.9</ele>
        <time>2025-02-16T09:18:05.000Z</time>
      </trkpt>
      <trkpt lat="43.4603" lon="6.15516">
        <ele>154.7</ele>
        <time>2025-02-16T09:18:23.000Z</time>
      </trkpt>
      <trkpt lat="43.46031" lon="6.15515">
        <ele>154.7</ele>
        <time>2025-02-16T09:18:24.000Z</time>
      </trkpt>
      <trkpt lat="43.46031" lon="6.15513">
        <ele>154.7</ele>
        <time>2025-02-16T09:18:25.000Z</time>
      </trkpt>
      <trkpt lat="43.46032" lon="6.15512">
        <ele>154.6</ele>
        <time>2025-02-16T09:18:26.000Z</time>
      </trkpt>
      <trkpt lat="43.46039" lon="6.15507">
        <ele>154.3</ele>
        <time>2025-02-16T09:18:45.000Z</time>
      </trkpt>
      <trkpt lat="43.46039" lon="6.15508">
        <ele>154.3</ele>
        <time>2025-02-16T09:18:46.000Z</time>
      </trkpt>
      <trkpt lat="43.46039" lon="6.15508">
        <ele>154.3</ele>
        <time>2025-02-16T09:18:47.000Z</time>
      </trkpt>
      <trkpt lat="43.46039" lon="6.15508">
        <ele>154.3</ele>
        <time>2025-02-16T09:18:48.000Z</time>
      </trkpt>
      <trkpt lat="43.46039" lon="6.15508">
        <ele>154.3</ele>
        <time>2025-02-16T09:18:49.000Z</time>
      </trkpt>
      <trkpt lat="43.46039" lon="6.15508">
        <ele>154.3</ele>
        <time>2025-02-16T09:18:50.000Z</time>
      </trkpt>
      <trkpt lat="43.46039" lon="6.15508">
        <ele>154.3</ele>
        <time>2025-02-16T09:18:51.000Z</time>
      </trkpt>
      <trkpt lat="43.46041" lon="6.15507">
        <ele>154.3</ele>
        <time>2025-02-16T09:18:58.000Z</time>
      </trkpt>
      <trkpt lat="43.46041" lon="6.15507">
        <ele>154.3</ele>
        <time>2025-02-16T09:18:59.000Z</time>
      </trkpt>
      <trkpt lat="43.46042" lon="6.15507">
        <ele>154.2</ele>
        <time>2025-02-16T09:19:00.000Z</time>
      </trkpt>
      <trkpt lat="43.46042" lon="6.15507">
        <ele>154.2</ele>
        <time>2025-02-16T09:19:06.000Z</time>
      </trkpt>
      <trkpt lat="43.46042" lon="6.15507">
        <ele>154.2</ele>
        <time>2025-02-16T09:19:07.000Z</time>
      </trkpt>
      <trkpt lat="43.46043" lon="6.15507">
        <ele>154.2</ele>
        <time>2025-02-16T09:19:15.000Z</time>
      </trkpt>
      <trkpt lat="43.46043" lon="6.15507">
        <ele>154.2</ele>
        <time>2025-02-16T09:19:16.000Z</time>
      </trkpt>
      <trkpt lat="43.46044" lon="6.15507">
        <ele>154.2</ele>
        <time>2025-02-16T09:19:17.000Z</time>
      </trkpt>
      <trkpt lat="43.46044" lon="6.15506">
        <ele>154.2</ele>
        <time>2025-02-16T09:19:18.000Z</time>
      </trkpt>
      <trkpt lat="43.46044" lon="6.15506">
        <ele>154.2</ele>
        <time>2025-02-16T09:19:19.000Z</time>
      </trkpt>
      <trkpt lat="43.46045" lon="6.15508">
        <ele>154.2</ele>
        <time>2025-02-16T09:19:22.000Z</time>
      </trkpt>
      <trkpt lat="43.46045" lon="6.15509">
        <ele>154.2</ele>
        <time>2025-02-16T09:19:23.000Z</time>
      </trkpt>
      <trkpt lat="43.46045" lon="6.1551">
        <ele>154.2</ele>
        <time>2025-02-16T09:19:24.000Z</time>
      </trkpt>
      <trkpt lat="43.46048" lon="6.15522">
        <ele>154.4</ele>
        <time>2025-02-16T09:19:48.000Z</time>
      </trkpt>
      <trkpt lat="43.46046" lon="6.15525">
        <ele>155</ele>
        <time>2025-02-16T09:19:55.000Z</time>
      </trkpt>
      <trkpt lat="43.46046" lon="6.15525">
        <ele>155.2</ele>
        <time>2025-02-16T09:19:56.000Z</time>
      </trkpt>
      <trkpt lat="43.46047" lon="6.15525">
        <ele>155.3</ele>
        <time>2025-02-16T09:19:57.000Z</time>
      </trkpt>
      <trkpt lat="43.46047" lon="6.15526">
        <ele>155.4</ele>
        <time>2025-02-16T09:19:58.000Z</time>
      </trkpt>
      <trkpt lat="43.46047" lon="6.15527">
        <ele>155.6</ele>
        <time>2025-02-16T09:19:59.000Z</time>
      </trkpt>
      <trkpt lat="43.46051" lon="6.15522">
        <ele>156.2</ele>
        <time>2025-02-16T09:20:17.000Z</time>
      </trkpt>
      <trkpt lat="43.46051" lon="6.15522">
        <ele>156.3</ele>
        <time>2025-02-16T09:20:18.000Z</time>
      </trkpt>
      <trkpt lat="43.46052" lon="6.15521">
        <ele>156.3</ele>
        <time>2025-02-16T09:20:19.000Z</time>
      </trkpt>
      <trkpt lat="43.46051" lon="6.15521">
        <ele>156.3</ele>
        <time>2025-02-16T09:20:20.000Z</time>
      </trkpt>
      <trkpt lat="43.4605" lon="6.1552">
        <ele>156.2</ele>
        <time>2025-02-16T09:20:21.000Z</time>
      </trkpt>
      <trkpt lat="43.4605" lon="6.1552">
        <ele>156.2</ele>
        <time>2025-02-16T09:20:25.000Z</time>
      </trkpt>
      <trkpt lat="43.4605" lon="6.1552">
        <ele>156.2</ele>
        <time>2025-02-16T09:20:26.000Z</time>
      </trkpt>
      <trkpt lat="43.4605" lon="6.1552">
        <ele>156</ele>
        <time>2025-02-16T09:20:35.000Z</time>
      </trkpt>
      <trkpt lat="43.4605" lon="6.1552">
        <ele>156</ele>
        <time>2025-02-16T09:20:36.000Z</time>
      </trkpt>
      <trkpt lat="43.46051" lon="6.15517">
        <ele>155.5</ele>
        <time>2025-02-16T09:20:45.000Z</time>
      </trkpt>
      <trkpt lat="43.46051" lon="6.15517">
        <ele>155.4</ele>
        <time>2025-02-16T09:20:46.000Z</time>
      </trkpt>
      <trkpt lat="43.4605" lon="6.15516">
        <ele>155.3</ele>
        <time>2025-02-16T09:20:50.000Z</time>
      </trkpt>
      <trkpt lat="43.4605" lon="6.15515">
        <ele>155.3</ele>
        <time>2025-02-16T09:20:51.000Z</time>
      </trkpt>
      <trkpt lat="43.46048" lon="6.15502">
        <ele>154.7</ele>
        <time>2025-02-16T09:21:04.000Z</time>
      </trkpt>
      <trkpt lat="43.46049" lon="6.15498">
        <ele>154.6</ele>
        <time>2025-02-16T09:21:10.000Z</time>
      </trkpt>
      <trkpt lat="43.46049" lon="6.15498">
        <ele>154.6</ele>
        <time>2025-02-16T09:21:11.000Z</time>
      </trkpt>
      <trkpt lat="43.46049" lon="6.15498">
        <ele>154.6</ele>
        <time>2025-02-16T09:21:12.000Z</time>
      </trkpt>
      <trkpt lat="43.46047" lon="6.15497">
        <ele>154.4</ele>
        <time>2025-02-16T09:22:26.000Z</time>
      </trkpt>
      <trkpt lat="43.46047" lon="6.15497">
        <ele>154.4</ele>
        <time>2025-02-16T09:22:27.000Z</time>
      </trkpt>
      <trkpt lat="43.46047" lon="6.15497">
        <ele>154.4</ele>
        <time>2025-02-16T09:22:28.000Z</time>
      </trkpt>
      <trkpt lat="43.46047" lon="6.15497">
        <ele>154.4</ele>
        <time>2025-02-16T09:22:29.000Z</time>
      </trkpt>
      <trkpt lat="43.46045" lon="6.15496">
        <ele>154.4</ele>
        <time>2025-02-16T09:22:36.000Z</time>
      </trkpt>
      <trkpt lat="43.46045" lon="6.15497">
        <ele>154.4</ele>
        <time>2025-02-16T09:22:37.000Z</time>
      </trkpt>
      <trkpt lat="43.46044" lon="6.15498">
        <ele>154.4</ele>
        <time>2025-02-16T09:22:42.000Z</time>
      </trkpt>
      <trkpt lat="43.46044" lon="6.15499">
        <ele>154.4</ele>
        <time>2025-02-16T09:22:43.000Z</time>
      </trkpt>
      <trkpt lat="43.46044" lon="6.15499">
        <ele>154.4</ele>
        <time>2025-02-16T09:22:44.000Z</time>
      </trkpt>
      <trkpt lat="43.46045" lon="6.155">
        <ele>154.4</ele>
        <time>2025-02-16T09:22:48.000Z</time>
      </trkpt>
      <trkpt lat="43.46045" lon="6.15501">
        <ele>154.4</ele>
        <time>2025-02-16T09:22:49.000Z</time>
      </trkpt>
      <trkpt lat="43.46045" lon="6.15501">
        <ele>154.4</ele>
        <time>2025-02-16T09:22:50.000Z</time>
      </trkpt>
      <trkpt lat="43.46044" lon="6.15503">
        <ele>154.4</ele>
        <time>2025-02-16T09:22:51.000Z</time>
      </trkpt>
      <trkpt lat="43.46044" lon="6.15503">
        <ele>154.4</ele>
        <time>2025-02-16T09:22:52.000Z</time>
      </trkpt>
      <trkpt lat="43.46045" lon="6.15503">
        <ele>154.4</ele>
        <time>2025-02-16T09:22:55.000Z</time>
      </trkpt>
      <trkpt lat="43.46045" lon="6.15503">
        <ele>154.4</ele>
        <time>2025-02-16T09:22:56.000Z</time>
      </trkpt>
      <trkpt lat="43.46046" lon="6.15502">
        <ele>154.4</ele>
        <time>2025-02-16T09:23:00.000Z</time>
      </trkpt>
      <trkpt lat="43.46046" lon="6.15501">
        <ele>154.4</ele>
        <time>2025-02-16T09:23:01.000Z</time>
      </trkpt>
      <trkpt lat="43.46046" lon="6.15501">
        <ele>154.4</ele>
        <time>2025-02-16T09:23:02.000Z</time>
      </trkpt>
      <trkpt lat="43.46046" lon="6.15501">
        <ele>154.4</ele>
        <time>2025-02-16T09:23:03.000Z</time>
      </trkpt>
      <trkpt lat="43.46046" lon="6.15501">
        <ele>154.4</ele>
        <time>2025-02-16T09:23:04.000Z</time>
      </trkpt>
      <trkpt lat="43.46046" lon="6.15501">
        <ele>154.4</ele>
        <time>2025-02-16T09:23:05.000Z</time>
      </trkpt>
      <trkpt lat="43.46046" lon="6.15501">
        <ele>154.4</ele>
        <time>2025-02-16T09:23:06.000Z</time>
      </trkpt>
      <trkpt lat="43.46046" lon="6.155">
        <ele>154.4</ele>
        <time>2025-02-16T09:23:13.000Z</time>
      </trkpt>
      <trkpt lat="43.46046" lon="6.15501">
        <ele>154.4</ele>
        <time>2025-02-16T09:23:14.000Z</time>
      </trkpt>
      <trkpt lat="43.46041" lon="6.15506">
        <ele>154.5</ele>
        <time>2025-02-16T09:23:30.000Z</time>
      </trkpt>
      <trkpt lat="43.46041" lon="6.15506">
        <ele>154.5</ele>
        <time>2025-02-16T09:23:31.000Z</time>
      </trkpt>
      <trkpt lat="43.46041" lon="6.15506">
        <ele>154.5</ele>
        <time>2025-02-16T09:23:32.000Z</time>
      </trkpt>
      <trkpt lat="43.46041" lon="6.15505">
        <ele>154.6</ele>
        <time>2025-02-16T09:23:33.000Z</time>
      </trkpt>
      <trkpt lat="43.46041" lon="6.15505">
        <ele>154.6</ele>
        <time>2025-02-16T09:23:34.000Z</time>
      </trkpt>
      <trkpt lat="43.46034" lon="6.15504">
        <ele>154.3</ele>
        <time>2025-02-16T09:23:48.000Z</time>
      </trkpt>
      <trkpt lat="43.46034" lon="6.15504">
        <ele>154.3</ele>
        <time>2025-02-16T09:23:49.000Z</time>
      </trkpt>
      <trkpt lat="43.46038" lon="6.15502">
        <ele>155.1</ele>
        <time>2025-02-16T09:23:55.000Z</time>
      </trkpt>
      <trkpt lat="43.4604" lon="6.15501">
        <ele>155</ele>
        <time>2025-02-16T09:23:56.000Z</time>
      </trkpt>
      <trkpt lat="43.4604" lon="6.15501">
        <ele>155</ele>
        <time>2025-02-16T09:23:57.000Z</time>
      </trkpt>
      <trkpt lat="43.46046" lon="6.15502">
        <ele>154.1</ele>
        <time>2025-02-16T09:24:25.000Z</time>
      </trkpt>
      <trkpt lat="43.46047" lon="6.15502">
        <ele>154.1</ele>
        <time>2025-02-16T09:24:26.000Z</time>
      </trkpt>
      <trkpt lat="43.46048" lon="6.15503">
        <ele>154</ele>
        <time>2025-02-16T09:24:30.000Z</time>
      </trkpt>
      <trkpt lat="43.46048" lon="6.15503">
        <ele>154</ele>
        <time>2025-02-16T09:24:31.000Z</time>
      </trkpt>
      <trkpt lat="43.46048" lon="6.15504">
        <ele>154</ele>
        <time>2025-02-16T09:24:32.000Z</time>
      </trkpt>
      <trkpt lat="43.46048" lon="6.15504">
        <ele>154</ele>
        <time>2025-02-16T09:24:33.000Z</time>
      </trkpt>
      <trkpt lat="43.46048" lon="6.15504">
        <ele>154</ele>
        <time>2025-02-16T09:24:34.000Z</time>
      </trkpt>
      <trkpt lat="43.46048" lon="6.15504">
        <ele>154</ele>
        <time>2025-02-16T09:24:35.000Z</time>
      </trkpt>
      <trkpt lat="43.46048" lon="6.15505">
        <ele>154.1</ele>
        <time>2025-02-16T09:24:47.000Z</time>
      </trkpt>
      <trkpt lat="43.46048" lon="6.15504">
        <ele>154.2</ele>
        <time>2025-02-16T09:24:48.000Z</time>
      </trkpt>
      <trkpt lat="43.46047" lon="6.15504">
        <ele>154.3</ele>
        <time>2025-02-16T09:24:49.000Z</time>
      </trkpt>
      <trkpt lat="43.46047" lon="6.15504">
        <ele>154.3</ele>
        <time>2025-02-16T09:24:50.000Z</time>
      </trkpt>
      <trkpt lat="43.46047" lon="6.15504">
        <ele>154.3</ele>
        <time>2025-02-16T09:24:51.000Z</time>
      </trkpt>
      <trkpt lat="43.46046" lon="6.15504">
        <ele>154.3</ele>
        <time>2025-02-16T09:24:58.000Z</time>
      </trkpt>
      <trkpt lat="43.46045" lon="6.15503">
        <ele>154.3</ele>
        <time>2025-02-16T09:24:59.000Z</time>
      </trkpt>
      <trkpt lat="43.46044" lon="6.15502">
        <ele>154.3</ele>
        <time>2025-02-16T09:25:00.000Z</time>
      </trkpt>
      <trkpt lat="43.46035" lon="6.15501">
        <ele>154.3</ele>
        <time>2025-02-16T09:25:07.000Z</time>
      </trkpt>
      <trkpt lat="43.46033" lon="6.15489">
        <ele>154.2</ele>
        <time>2025-02-16T09:25:19.000Z</time>
      </trkpt>
      <trkpt lat="43.46035" lon="6.15476">
        <ele>154.1</ele>
        <time>2025-02-16T09:25:28.000Z</time>
      </trkpt>
      <trkpt lat="43.46034" lon="6.15477">
        <ele>154</ele>
        <time>2025-02-16T09:25:32.000Z</time>
      </trkpt>
      <trkpt lat="43.46033" lon="6.15477">
        <ele>154</ele>
        <time>2025-02-16T09:25:33.000Z</time>
      </trkpt>
      <trkpt lat="43.46033" lon="6.15477">
        <ele>154</ele>
        <time>2025-02-16T09:25:34.000Z</time>
      </trkpt>
      <trkpt lat="43.46034" lon="6.15477">
        <ele>153.9</ele>
        <time>2025-02-16T09:25:38.000Z</time>
      </trkpt>
      <trkpt lat="43.46034" lon="6.15477">
        <ele>153.9</ele>
        <time>2025-02-16T09:25:39.000Z</time>
      </trkpt>
      <trkpt lat="43.46035" lon="6.15477">
        <ele>153.9</ele>
        <time>2025-02-16T09:25:40.000Z</time>
      </trkpt>
      <trkpt lat="43.46041" lon="6.15468">
        <ele>153.6</ele>
        <time>2025-02-16T09:25:51.000Z</time>
      </trkpt>
      <trkpt lat="43.46042" lon="6.1546">
        <ele>153.2</ele>
        <time>2025-02-16T09:26:05.000Z</time>
      </trkpt>
      <trkpt lat="43.46042" lon="6.1546">
        <ele>153.2</ele>
        <time>2025-02-16T09:26:06.000Z</time>
      </trkpt>
      <trkpt lat="43.46043" lon="6.15459">
        <ele>153.2</ele>
        <time>2025-02-16T09:26:10.000Z</time>
      </trkpt>
      <trkpt lat="43.46043" lon="6.15459">
        <ele>153.1</ele>
        <time>2025-02-16T09:26:11.000Z</time>
      </trkpt>
      <trkpt lat="43.46043" lon="6.15457">
        <ele>153.1</ele>
        <time>2025-02-16T09:26:12.000Z</time>
      </trkpt>
      <trkpt lat="43.46044" lon="6.15448">
        <ele>152.9</ele>
        <time>2025-02-16T09:26:23.000Z</time>
      </trkpt>
      <trkpt lat="43.46044" lon="6.15448">
        <ele>152.9</ele>
        <time>2025-02-16T09:26:24.000Z</time>
      </trkpt>
      <trkpt lat="43.46044" lon="6.15448">
        <ele>152.9</ele>
        <time>2025-02-16T09:26:25.000Z</time>
      </trkpt>
      <trkpt lat="43.46044" lon="6.15448">
        <ele>152.9</ele>
        <time>2025-02-16T09:26:26.000Z</time>
      </trkpt>
      <trkpt lat="43.46044" lon="6.15448">
        <ele>152.9</ele>
        <time>2025-02-16T09:26:27.000Z</time>
      </trkpt>
      <trkpt lat="43.46049" lon="6.15437">
        <ele>152.8</ele>
        <time>2025-02-16T09:26:36.000Z</time>
      </trkpt>
      <trkpt lat="43.46052" lon="6.15424">
        <ele>152.7</ele>
        <time>2025-02-16T09:26:44.000Z</time>
      </trkpt>
      <trkpt lat="43.46055" lon="6.15411">
        <ele>152.6</ele>
        <time>2025-02-16T09:26:53.000Z</time>
      </trkpt>
      <trkpt lat="43.46058" lon="6.15399">
        <ele>152.3</ele>
        <time>2025-02-16T09:27:06.000Z</time>
      </trkpt>
      <trkpt lat="43.46058" lon="6.15393">
        <ele>152.2</ele>
        <time>2025-02-16T09:27:13.000Z</time>
      </trkpt>
      <trkpt lat="43.46058" lon="6.15393">
        <ele>152.2</ele>
        <time>2025-02-16T09:27:14.000Z</time>
      </trkpt>
      <trkpt lat="43.46059" lon="6.15392">
        <ele>152.1</ele>
        <time>2025-02-16T09:27:15.000Z</time>
      </trkpt>
      <trkpt lat="43.46059" lon="6.15391">
        <ele>152.1</ele>
        <time>2025-02-16T09:27:16.000Z</time>
      </trkpt>
      <trkpt lat="43.46064" lon="6.15379">
        <ele>151.9</ele>
        <time>2025-02-16T09:27:24.000Z</time>
      </trkpt>
      <trkpt lat="43.46067" lon="6.15367">
        <ele>151.7</ele>
        <time>2025-02-16T09:27:32.000Z</time>
      </trkpt>
      <trkpt lat="43.46069" lon="6.15354">
        <ele>151.3</ele>
        <time>2025-02-16T09:27:41.000Z</time>
      </trkpt>
      <trkpt lat="43.46072" lon="6.15341">
        <ele>150.9</ele>
        <time>2025-02-16T09:27:52.000Z</time>
      </trkpt>
      <trkpt lat="43.46076" lon="6.15329">
        <ele>150.8</ele>
        <time>2025-02-16T09:28:00.000Z</time>
      </trkpt>
      <trkpt lat="43.46079" lon="6.15317">
        <ele>150.6</ele>
        <time>2025-02-16T09:28:08.000Z</time>
      </trkpt>
      <trkpt lat="43.46083" lon="6.15304">
        <ele>150.3</ele>
        <time>2025-02-16T09:28:16.000Z</time>
      </trkpt>
      <trkpt lat="43.46084" lon="6.15291">
        <ele>150.1</ele>
        <time>2025-02-16T09:28:25.000Z</time>
      </trkpt>
      <trkpt lat="43.46087" lon="6.15278">
        <ele>149.9</ele>
        <time>2025-02-16T09:28:34.000Z</time>
      </trkpt>
      <trkpt lat="43.46091" lon="6.15266">
        <ele>149.7</ele>
        <time>2025-02-16T09:28:42.000Z</time>
      </trkpt>
      <trkpt lat="43.46095" lon="6.15253">
        <ele>149.4</ele>
        <time>2025-02-16T09:28:51.000Z</time>
      </trkpt>
      <trkpt lat="43.46098" lon="6.1524">
        <ele>149.3</ele>
        <time>2025-02-16T09:28:59.000Z</time>
      </trkpt>
      <trkpt lat="43.46101" lon="6.15228">
        <ele>149</ele>
        <time>2025-02-16T09:29:07.000Z</time>
      </trkpt>
      <trkpt lat="43.46105" lon="6.15215">
        <ele>148.7</ele>
        <time>2025-02-16T09:29:15.000Z</time>
      </trkpt>
      <trkpt lat="43.46108" lon="6.15203">
        <ele>148.3</ele>
        <time>2025-02-16T09:29:23.000Z</time>
      </trkpt>
      <trkpt lat="43.46111" lon="6.15191">
        <ele>148</ele>
        <time>2025-02-16T09:29:32.000Z</time>
      </trkpt>
      <trkpt lat="43.46112" lon="6.15178">
        <ele>147.8</ele>
        <time>2025-02-16T09:29:41.000Z</time>
      </trkpt>
      <trkpt lat="43.46112" lon="6.15177">
        <ele>147.6</ele>
        <time>2025-02-16T09:29:46.000Z</time>
      </trkpt>
      <trkpt lat="43.46112" lon="6.15177">
        <ele>147.6</ele>
        <time>2025-02-16T09:29:47.000Z</time>
      </trkpt>
      <trkpt lat="43.46112" lon="6.15177">
        <ele>147.5</ele>
        <time>2025-02-16T09:29:50.000Z</time>
      </trkpt>
      <trkpt lat="43.46112" lon="6.15176">
        <ele>147.4</ele>
        <time>2025-02-16T09:29:51.000Z</time>
      </trkpt>
      <trkpt lat="43.46112" lon="6.15176">
        <ele>147.4</ele>
        <time>2025-02-16T09:29:52.000Z</time>
      </trkpt>
      <trkpt lat="43.46112" lon="6.15176">
        <ele>147.4</ele>
        <time>2025-02-16T09:29:53.000Z</time>
      </trkpt>
      <trkpt lat="43.46112" lon="6.15176">
        <ele>147.4</ele>
        <time>2025-02-16T09:29:54.000Z</time>
      </trkpt>
      <trkpt lat="43.46111" lon="6.15177">
        <ele>147.2</ele>
        <time>2025-02-16T09:30:06.000Z</time>
      </trkpt>
      <trkpt lat="43.4611" lon="6.15177">
        <ele>147.2</ele>
        <time>2025-02-16T09:30:07.000Z</time>
      </trkpt>
      <trkpt lat="43.4611" lon="6.15177">
        <ele>147.2</ele>
        <time>2025-02-16T09:30:08.000Z</time>
      </trkpt>
      <trkpt lat="43.4611" lon="6.15177">
        <ele>147.2</ele>
        <time>2025-02-16T09:30:09.000Z</time>
      </trkpt>
      <trkpt lat="43.4611" lon="6.15177">
        <ele>147.2</ele>
        <time>2025-02-16T09:30:12.000Z</time>
      </trkpt>
      <trkpt lat="43.4611" lon="6.15177">
        <ele>147.2</ele>
        <time>2025-02-16T09:30:13.000Z</time>
      </trkpt>
      <trkpt lat="43.4611" lon="6.15177">
        <ele>147.2</ele>
        <time>2025-02-16T09:30:14.000Z</time>
      </trkpt>
      <trkpt lat="43.4611" lon="6.15177">
        <ele>147.2</ele>
        <time>2025-02-16T09:30:15.000Z</time>
      </trkpt>
      <trkpt lat="43.4611" lon="6.15177">
        <ele>147.2</ele>
        <time>2025-02-16T09:30:16.000Z</time>
      </trkpt>
      <trkpt lat="43.4611" lon="6.15177">
        <ele>147</ele>
        <time>2025-02-16T09:31:05.000Z</time>
      </trkpt>
      <trkpt lat="43.4611" lon="6.15177">
        <ele>147</ele>
        <time>2025-02-16T09:31:06.000Z</time>
      </trkpt>
      <trkpt lat="43.4611" lon="6.15177">
        <ele>147</ele>
        <time>2025-02-16T09:31:07.000Z</time>
      </trkpt>
      <trkpt lat="43.4611" lon="6.15177">
        <ele>147</ele>
        <time>2025-02-16T09:31:08.000Z</time>
      </trkpt>
      <trkpt lat="43.4611" lon="6.15177">
        <ele>147</ele>
        <time>2025-02-16T09:31:09.000Z</time>
      </trkpt>
      <trkpt lat="43.4611" lon="6.15177">
        <ele>147</ele>
        <time>2025-02-16T09:31:52.000Z</time>
      </trkpt>
      <trkpt lat="43.4611" lon="6.15177">
        <ele>147</ele>
        <time>2025-02-16T09:31:53.000Z</time>
      </trkpt>
      <trkpt lat="43.4611" lon="6.15177">
        <ele>147</ele>
        <time>2025-02-16T09:31:54.000Z</time>
      </trkpt>
      <trkpt lat="43.4611" lon="6.15177">
        <ele>147</ele>
        <time>2025-02-16T09:31:55.000Z</time>
      </trkpt>
      <trkpt lat="43.4611" lon="6.15177">
        <ele>147</ele>
        <time>2025-02-16T09:31:56.000Z</time>
      </trkpt>
      <trkpt lat="43.4611" lon="6.15177">
        <ele>146.9</ele>
        <time>2025-02-16T09:32:23.000Z</time>
      </trkpt>
      <trkpt lat="43.4611" lon="6.15176">
        <ele>146.9</ele>
        <time>2025-02-16T09:32:24.000Z</time>
      </trkpt>
      <trkpt lat="43.46112" lon="6.15172">
        <ele>146.9</ele>
        <time>2025-02-16T09:32:35.000Z</time>
      </trkpt>
      <trkpt lat="43.46112" lon="6.15172">
        <ele>146.9</ele>
        <time>2025-02-16T09:32:36.000Z</time>
      </trkpt>
      <trkpt lat="43.46113" lon="6.15172">
        <ele>146.8</ele>
        <time>2025-02-16T09:32:48.000Z</time>
      </trkpt>
      <trkpt lat="43.46114" lon="6.15171">
        <ele>146.8</ele>
        <time>2025-02-16T09:32:49.000Z</time>
      </trkpt>
      <trkpt lat="43.46118" lon="6.1516">
        <ele>146.8</ele>
        <time>2025-02-16T09:32:59.000Z</time>
      </trkpt>
      <trkpt lat="43.46122" lon="6.15147">
        <ele>146.8</ele>
        <time>2025-02-16T09:33:08.000Z</time>
      </trkpt>
      <trkpt lat="43.46125" lon="6.15135">
        <ele>146.7</ele>
        <time>2025-02-16T09:33:18.000Z</time>
      </trkpt>
      <trkpt lat="43.46128" lon="6.15123">
        <ele>146.5</ele>
        <time>2025-02-16T09:33:27.000Z</time>
      </trkpt>
      <trkpt lat="43.46131" lon="6.15111">
        <ele>146.2</ele>
        <time>2025-02-16T09:33:38.000Z</time>
      </trkpt>
      <trkpt lat="43.46134" lon="6.15098">
        <ele>145.9</ele>
        <time>2025-02-16T09:33:48.000Z</time>
      </trkpt>
      <trkpt lat="43.46136" lon="6.15093">
        <ele>145.8</ele>
        <time>2025-02-16T09:33:55.000Z</time>
      </trkpt>
      <trkpt lat="43.46136" lon="6.15093">
        <ele>145.8</ele>
        <time>2025-02-16T09:33:56.000Z</time>
      </trkpt>
      <trkpt lat="43.46137" lon="6.15092">
        <ele>145.6</ele>
        <time>2025-02-16T09:34:05.000Z</time>
      </trkpt>
      <trkpt lat="43.46137" lon="6.15091">
        <ele>145.6</ele>
        <time>2025-02-16T09:34:06.000Z</time>
      </trkpt>
      <trkpt lat="43.46137" lon="6.15091">
        <ele>145.5</ele>
        <time>2025-02-16T09:34:10.000Z</time>
      </trkpt>
      <trkpt lat="43.46137" lon="6.1509">
        <ele>145.5</ele>
        <time>2025-02-16T09:34:11.000Z</time>
      </trkpt>
      <trkpt lat="43.46137" lon="6.15089">
        <ele>145.5</ele>
        <time>2025-02-16T09:34:12.000Z</time>
      </trkpt>
      <trkpt lat="43.46138" lon="6.15088">
        <ele>145.5</ele>
        <time>2025-02-16T09:34:13.000Z</time>
      </trkpt>
      <trkpt lat="43.46138" lon="6.15087">
        <ele>145.5</ele>
        <time>2025-02-16T09:34:14.000Z</time>
      </trkpt>
      <trkpt lat="43.46141" lon="6.15075">
        <ele>145.4</ele>
        <time>2025-02-16T09:34:23.000Z</time>
      </trkpt>
      <trkpt lat="43.46144" lon="6.15063">
        <ele>145.4</ele>
        <time>2025-02-16T09:34:31.000Z</time>
      </trkpt>
      <trkpt lat="43.46146" lon="6.15051">
        <ele>145.2</ele>
        <time>2025-02-16T09:34:40.000Z</time>
      </trkpt>
      <trkpt lat="43.4615" lon="6.15038">
        <ele>145.1</ele>
        <time>2025-02-16T09:34:49.000Z</time>
      </trkpt>
      <trkpt lat="43.46152" lon="6.15026">
        <ele>144.9</ele>
        <time>2025-02-16T09:34:58.000Z</time>
      </trkpt>
      <trkpt lat="43.46155" lon="6.15014">
        <ele>144.8</ele>
        <time>2025-02-16T09:35:08.000Z</time>
      </trkpt>
      <trkpt lat="43.46159" lon="6.15002">
        <ele>144.7</ele>
        <time>2025-02-16T09:35:16.000Z</time>
      </trkpt>
      <trkpt lat="43.46162" lon="6.14989">
        <ele>144.6</ele>
        <time>2025-02-16T09:35:25.000Z</time>
      </trkpt>
      <trkpt lat="43.46163" lon="6.14975">
        <ele>144.5</ele>
        <time>2025-02-16T09:35:33.000Z</time>
      </trkpt>
      <trkpt lat="43.46165" lon="6.14963">
        <ele>144.3</ele>
        <time>2025-02-16T09:35:41.000Z</time>
      </trkpt>
      <trkpt lat="43.46167" lon="6.14949">
        <ele>144.3</ele>
        <time>2025-02-16T09:35:50.000Z</time>
      </trkpt>
      <trkpt lat="43.46168" lon="6.14936">
        <ele>144.2</ele>
        <time>2025-02-16T09:35:59.000Z</time>
      </trkpt>
      <trkpt lat="43.46168" lon="6.14922">
        <ele>144.2</ele>
        <time>2025-02-16T09:36:08.000Z</time>
      </trkpt>
      <trkpt lat="43.4617" lon="6.1491">
        <ele>144.1</ele>
        <time>2025-02-16T09:36:16.000Z</time>
      </trkpt>
      <trkpt lat="43.46172" lon="6.14897">
        <ele>144.1</ele>
        <time>2025-02-16T09:36:24.000Z</time>
      </trkpt>
      <trkpt lat="43.46174" lon="6.14885">
        <ele>144.1</ele>
        <time>2025-02-16T09:36:31.000Z</time>
      </trkpt>
      <trkpt lat="43.46173" lon="6.14872">
        <ele>144.2</ele>
        <time>2025-02-16T09:36:38.000Z</time>
      </trkpt>
      <trkpt lat="43.46175" lon="6.14859">
        <ele>144.2</ele>
        <time>2025-02-16T09:36:46.000Z</time>
      </trkpt>
      <trkpt lat="43.46177" lon="6.14847">
        <ele>144.2</ele>
        <time>2025-02-16T09:36:56.000Z</time>
      </trkpt>
      <trkpt lat="43.46177" lon="6.14847">
        <ele>144.2</ele>
        <time>2025-02-16T09:36:57.000Z</time>
      </trkpt>
      <trkpt lat="43.46178" lon="6.14844">
        <ele>144.2</ele>
        <time>2025-02-16T09:37:02.000Z</time>
      </trkpt>
      <trkpt lat="43.46178" lon="6.14843">
        <ele>144.2</ele>
        <time>2025-02-16T09:37:03.000Z</time>
      </trkpt>
      <trkpt lat="43.46178" lon="6.14841">
        <ele>144.2</ele>
        <time>2025-02-16T09:37:04.000Z</time>
      </trkpt>
      <trkpt lat="43.4618" lon="6.14828">
        <ele>144.1</ele>
        <time>2025-02-16T09:37:13.000Z</time>
      </trkpt>
      <trkpt lat="43.46181" lon="6.14815">
        <ele>144.1</ele>
        <time>2025-02-16T09:37:21.000Z</time>
      </trkpt>
      <trkpt lat="43.4618" lon="6.14812">
        <ele>144.1</ele>
        <time>2025-02-16T09:37:26.000Z</time>
      </trkpt>
      <trkpt lat="43.4618" lon="6.14812">
        <ele>144.1</ele>
        <time>2025-02-16T09:37:27.000Z</time>
      </trkpt>
      <trkpt lat="43.46181" lon="6.14809">
        <ele>144.1</ele>
        <time>2025-02-16T09:37:30.000Z</time>
      </trkpt>
      <trkpt lat="43.46181" lon="6.14808">
        <ele>144.1</ele>
        <time>2025-02-16T09:37:31.000Z</time>
      </trkpt>
      <trkpt lat="43.46182" lon="6.14795">
        <ele>144</ele>
        <time>2025-02-16T09:37:39.000Z</time>
      </trkpt>
      <trkpt lat="43.46183" lon="6.14782">
        <ele>144</ele>
        <time>2025-02-16T09:37:47.000Z</time>
      </trkpt>
      <trkpt lat="43.46184" lon="6.14769">
        <ele>144.1</ele>
        <time>2025-02-16T09:37:55.000Z</time>
      </trkpt>
      <trkpt lat="43.46186" lon="6.14756">
        <ele>144.1</ele>
        <time>2025-02-16T09:38:03.000Z</time>
      </trkpt>
      <trkpt lat="43.46185" lon="6.14742">
        <ele>144.2</ele>
        <time>2025-02-16T09:38:11.000Z</time>
      </trkpt>
      <trkpt lat="43.46182" lon="6.14729">
        <ele>144.2</ele>
        <time>2025-02-16T09:38:18.000Z</time>
      </trkpt>
      <trkpt lat="43.4618" lon="6.14716">
        <ele>144.2</ele>
        <time>2025-02-16T09:38:25.000Z</time>
      </trkpt>
      <trkpt lat="43.46179" lon="6.14703">
        <ele>144.2</ele>
        <time>2025-02-16T09:38:33.000Z</time>
      </trkpt>
      <trkpt lat="43.46184" lon="6.1469">
        <ele>144.3</ele>
        <time>2025-02-16T09:38:41.000Z</time>
      </trkpt>
      <trkpt lat="43.46188" lon="6.14678">
        <ele>144.3</ele>
        <time>2025-02-16T09:38:49.000Z</time>
      </trkpt>
      <trkpt lat="43.46189" lon="6.14676">
        <ele>144.3</ele>
        <time>2025-02-16T09:39:00.000Z</time>
      </trkpt>
      <trkpt lat="43.46189" lon="6.14676">
        <ele>144.3</ele>
        <time>2025-02-16T09:39:01.000Z</time>
      </trkpt>
      <trkpt lat="43.46189" lon="6.14676">
        <ele>144.3</ele>
        <time>2025-02-16T09:39:12.000Z</time>
      </trkpt>
      <trkpt lat="43.46189" lon="6.14675">
        <ele>144.3</ele>
        <time>2025-02-16T09:39:13.000Z</time>
      </trkpt>
      <trkpt lat="43.46189" lon="6.14674">
        <ele>144.3</ele>
        <time>2025-02-16T09:39:14.000Z</time>
      </trkpt>
      <trkpt lat="43.46193" lon="6.14661">
        <ele>144.3</ele>
        <time>2025-02-16T09:39:22.000Z</time>
      </trkpt>
      <trkpt lat="43.46197" lon="6.14649">
        <ele>144.3</ele>
        <time>2025-02-16T09:39:30.000Z</time>
      </trkpt>
      <trkpt lat="43.46201" lon="6.14637">
        <ele>144.3</ele>
        <time>2025-02-16T09:39:38.000Z</time>
      </trkpt>
      <trkpt lat="43.46205" lon="6.14625">
        <ele>144.3</ele>
        <time>2025-02-16T09:39:45.000Z</time>
      </trkpt>
      <trkpt lat="43.46207" lon="6.14613">
        <ele>144.3</ele>
        <time>2025-02-16T09:39:53.000Z</time>
      </trkpt>
      <trkpt lat="43.46211" lon="6.14601">
        <ele>144.4</ele>
        <time>2025-02-16T09:40:00.000Z</time>
      </trkpt>
      <trkpt lat="43.46216" lon="6.14589">
        <ele>144.4</ele>
        <time>2025-02-16T09:40:07.000Z</time>
      </trkpt>
      <trkpt lat="43.4622" lon="6.14576">
        <ele>144.4</ele>
        <time>2025-02-16T09:40:15.000Z</time>
      </trkpt>
      <trkpt lat="43.46225" lon="6.14565">
        <ele>144.5</ele>
        <time>2025-02-16T09:40:22.000Z</time>
      </trkpt>
      <trkpt lat="43.46228" lon="6.14552">
        <ele>144.5</ele>
        <time>2025-02-16T09:40:30.000Z</time>
      </trkpt>
      <trkpt lat="43.46231" lon="6.1454">
        <ele>144.6</ele>
        <time>2025-02-16T09:40:38.000Z</time>
      </trkpt>
      <trkpt lat="43.46234" lon="6.14528">
        <ele>144.6</ele>
        <time>2025-02-16T09:40:46.000Z</time>
      </trkpt>
      <trkpt lat="43.46237" lon="6.14516">
        <ele>144.7</ele>
        <time>2025-02-16T09:40:55.000Z</time>
      </trkpt>
      <trkpt lat="43.46237" lon="6.14515">
        <ele>144.7</ele>
        <time>2025-02-16T09:41:00.000Z</time>
      </trkpt>
      <trkpt lat="43.46237" lon="6.14514">
        <ele>144.7</ele>
        <time>2025-02-16T09:41:01.000Z</time>
      </trkpt>
      <trkpt lat="43.46238" lon="6.14513">
        <ele>144.7</ele>
        <time>2025-02-16T09:41:02.000Z</time>
      </trkpt>
      <trkpt lat="43.46238" lon="6.14512">
        <ele>144.7</ele>
        <time>2025-02-16T09:41:03.000Z</time>
      </trkpt>
      <trkpt lat="43.46238" lon="6.14511">
        <ele>144.7</ele>
        <time>2025-02-16T09:41:04.000Z</time>
      </trkpt>
      <trkpt lat="43.46242" lon="6.14499">
        <ele>144.7</ele>
        <time>2025-02-16T09:41:17.000Z</time>
      </trkpt>
      <trkpt lat="43.46246" lon="6.14487">
        <ele>144.8</ele>
        <time>2025-02-16T09:41:29.000Z</time>
      </trkpt>
      <trkpt lat="43.46249" lon="6.14475">
        <ele>144.8</ele>
        <time>2025-02-16T09:41:38.000Z</time>
      </trkpt>
      <trkpt lat="43.46252" lon="6.14463">
        <ele>144.8</ele>
        <time>2025-02-16T09:41:46.000Z</time>
      </trkpt>
      <trkpt lat="43.46255" lon="6.1445">
        <ele>144.8</ele>
        <time>2025-02-16T09:41:55.000Z</time>
      </trkpt>
      <trkpt lat="43.46258" lon="6.14437">
        <ele>144.8</ele>
        <time>2025-02-16T09:42:04.000Z</time>
      </trkpt>
      <trkpt lat="43.46262" lon="6.14425">
        <ele>144.9</ele>
        <time>2025-02-16T09:42:13.000Z</time>
      </trkpt>
      <trkpt lat="43.46264" lon="6.14413">
        <ele>144.9</ele>
        <time>2025-02-16T09:42:21.000Z</time>
      </trkpt>
      <trkpt lat="43.46268" lon="6.14401">
        <ele>144.9</ele>
        <time>2025-02-16T09:42:29.000Z</time>
      </trkpt>
      <trkpt lat="43.4627" lon="6.14389">
        <ele>144.9</ele>
        <time>2025-02-16T09:42:38.000Z</time>
      </trkpt>
      <trkpt lat="43.46274" lon="6.14376">
        <ele>144.9</ele>
        <time>2025-02-16T09:42:47.000Z</time>
      </trkpt>
      <trkpt lat="43.46277" lon="6.14364">
        <ele>144.9</ele>
        <time>2025-02-16T09:42:56.000Z</time>
      </trkpt>
      <trkpt lat="43.46279" lon="6.14352">
        <ele>144.9</ele>
        <time>2025-02-16T09:43:04.000Z</time>
      </trkpt>
      <trkpt lat="43.46283" lon="6.1434">
        <ele>144.9</ele>
        <time>2025-02-16T09:43:12.000Z</time>
      </trkpt>
      <trkpt lat="43.46286" lon="6.14327">
        <ele>145</ele>
        <time>2025-02-16T09:43:21.000Z</time>
      </trkpt>
      <trkpt lat="43.46288" lon="6.14313">
        <ele>145</ele>
        <time>2025-02-16T09:43:29.000Z</time>
      </trkpt>
      <trkpt lat="43.46288" lon="6.143">
        <ele>145</ele>
        <time>2025-02-16T09:43:38.000Z</time>
      </trkpt>
      <trkpt lat="43.46289" lon="6.14288">
        <ele>145</ele>
        <time>2025-02-16T09:43:46.000Z</time>
      </trkpt>
      <trkpt lat="43.4629" lon="6.14275">
        <ele>145.1</ele>
        <time>2025-02-16T09:43:55.000Z</time>
      </trkpt>
      <trkpt lat="43.4629" lon="6.14262">
        <ele>145.1</ele>
        <time>2025-02-16T09:44:04.000Z</time>
      </trkpt>
      <trkpt lat="43.46291" lon="6.14249">
        <ele>145.1</ele>
        <time>2025-02-16T09:44:12.000Z</time>
      </trkpt>
      <trkpt lat="43.46295" lon="6.14236">
        <ele>145.1</ele>
        <time>2025-02-16T09:44:21.000Z</time>
      </trkpt>
      <trkpt lat="43.46297" lon="6.14222">
        <ele>145.2</ele>
        <time>2025-02-16T09:44:30.000Z</time>
      </trkpt>
      <trkpt lat="43.46298" lon="6.1421">
        <ele>145.2</ele>
        <time>2025-02-16T09:44:39.000Z</time>
      </trkpt>
      <trkpt lat="43.463" lon="6.14197">
        <ele>145.2</ele>
        <time>2025-02-16T09:44:48.000Z</time>
      </trkpt>
      <trkpt lat="43.46302" lon="6.14184">
        <ele>145.2</ele>
        <time>2025-02-16T09:44:56.000Z</time>
      </trkpt>
      <trkpt lat="43.46301" lon="6.14171">
        <ele>145.2</ele>
        <time>2025-02-16T09:45:04.000Z</time>
      </trkpt>
      <trkpt lat="43.46302" lon="6.14159">
        <ele>145.2</ele>
        <time>2025-02-16T09:45:12.000Z</time>
      </trkpt>
      <trkpt lat="43.46304" lon="6.14146">
        <ele>145.2</ele>
        <time>2025-02-16T09:45:20.000Z</time>
      </trkpt>
      <trkpt lat="43.46304" lon="6.14133">
        <ele>145.2</ele>
        <time>2025-02-16T09:45:28.000Z</time>
      </trkpt>
      <trkpt lat="43.46305" lon="6.1412">
        <ele>145.2</ele>
        <time>2025-02-16T09:45:37.000Z</time>
      </trkpt>
      <trkpt lat="43.46306" lon="6.14107">
        <ele>145.2</ele>
        <time>2025-02-16T09:45:46.000Z</time>
      </trkpt>
      <trkpt lat="43.46308" lon="6.14095">
        <ele>145.3</ele>
        <time>2025-02-16T09:45:54.000Z</time>
      </trkpt>
      <trkpt lat="43.46308" lon="6.14082">
        <ele>145.3</ele>
        <time>2025-02-16T09:46:02.000Z</time>
      </trkpt>
      <trkpt lat="43.4631" lon="6.14069">
        <ele>145.3</ele>
        <time>2025-02-16T09:46:11.000Z</time>
      </trkpt>
      <trkpt lat="43.46311" lon="6.14056">
        <ele>145.3</ele>
        <time>2025-02-16T09:46:20.000Z</time>
      </trkpt>
      <trkpt lat="43.46311" lon="6.14042">
        <ele>145.3</ele>
        <time>2025-02-16T09:46:29.000Z</time>
      </trkpt>
      <trkpt lat="43.46313" lon="6.14029">
        <ele>145.3</ele>
        <time>2025-02-16T09:46:38.000Z</time>
      </trkpt>
      <trkpt lat="43.46314" lon="6.14017">
        <ele>145.3</ele>
        <time>2025-02-16T09:46:46.000Z</time>
      </trkpt>
      <trkpt lat="43.46316" lon="6.14004">
        <ele>145.3</ele>
        <time>2025-02-16T09:46:55.000Z</time>
      </trkpt>
      <trkpt lat="43.46318" lon="6.1399">
        <ele>145.4</ele>
        <time>2025-02-16T09:47:04.000Z</time>
      </trkpt>
      <trkpt lat="43.46318" lon="6.13978">
        <ele>145.4</ele>
        <time>2025-02-16T09:47:12.000Z</time>
      </trkpt>
      <trkpt lat="43.4632" lon="6.13964">
        <ele>145.4</ele>
        <time>2025-02-16T09:47:21.000Z</time>
      </trkpt>
      <trkpt lat="43.46321" lon="6.13951">
        <ele>145.4</ele>
        <time>2025-02-16T09:47:29.000Z</time>
      </trkpt>
      <trkpt lat="43.46322" lon="6.13938">
        <ele>145.4</ele>
        <time>2025-02-16T09:47:37.000Z</time>
      </trkpt>
      <trkpt lat="43.46324" lon="6.13926">
        <ele>145.5</ele>
        <time>2025-02-16T09:47:45.000Z</time>
      </trkpt>
      <trkpt lat="43.46326" lon="6.13913">
        <ele>145.5</ele>
        <time>2025-02-16T09:47:53.000Z</time>
      </trkpt>
      <trkpt lat="43.46327" lon="6.13901">
        <ele>145.5</ele>
        <time>2025-02-16T09:48:02.000Z</time>
      </trkpt>
      <trkpt lat="43.4633" lon="6.13887">
        <ele>145.5</ele>
        <time>2025-02-16T09:48:10.000Z</time>
      </trkpt>
      <trkpt lat="43.46332" lon="6.13875">
        <ele>145.5</ele>
        <time>2025-02-16T09:48:18.000Z</time>
      </trkpt>
      <trkpt lat="43.46333" lon="6.13862">
        <ele>145.6</ele>
        <time>2025-02-16T09:48:26.000Z</time>
      </trkpt>
      <trkpt lat="43.46335" lon="6.13848">
        <ele>145.6</ele>
        <time>2025-02-16T09:48:36.000Z</time>
      </trkpt>
      <trkpt lat="43.46338" lon="6.13836">
        <ele>145.7</ele>
        <time>2025-02-16T09:48:45.000Z</time>
      </trkpt>
      <trkpt lat="43.4634" lon="6.13822">
        <ele>145.8</ele>
        <time>2025-02-16T09:48:54.000Z</time>
      </trkpt>
      <trkpt lat="43.46342" lon="6.13809">
        <ele>145.8</ele>
        <time>2025-02-16T09:49:03.000Z</time>
      </trkpt>
      <trkpt lat="43.46344" lon="6.13796">
        <ele>146</ele>
        <time>2025-02-16T09:49:12.000Z</time>
      </trkpt>
      <trkpt lat="43.46347" lon="6.13783">
        <ele>146.1</ele>
        <time>2025-02-16T09:49:21.000Z</time>
      </trkpt>
      <trkpt lat="43.4635" lon="6.13771">
        <ele>146.2</ele>
        <time>2025-02-16T09:49:29.000Z</time>
      </trkpt>
      <trkpt lat="43.46353" lon="6.13758">
        <ele>146.3</ele>
        <time>2025-02-16T09:49:37.000Z</time>
      </trkpt>
      <trkpt lat="43.46354" lon="6.13745">
        <ele>146.4</ele>
        <time>2025-02-16T09:49:46.000Z</time>
      </trkpt>
      <trkpt lat="43.46355" lon="6.13733">
        <ele>146.5</ele>
        <time>2025-02-16T09:49:54.000Z</time>
      </trkpt>
      <trkpt lat="43.46357" lon="6.1372">
        <ele>146.7</ele>
        <time>2025-02-16T09:50:03.000Z</time>
      </trkpt>
      <trkpt lat="43.46359" lon="6.13707">
        <ele>146.8</ele>
        <time>2025-02-16T09:50:11.000Z</time>
      </trkpt>
      <trkpt lat="43.46362" lon="6.13695">
        <ele>146.9</ele>
        <time>2025-02-16T09:50:20.000Z</time>
      </trkpt>
      <trkpt lat="43.46365" lon="6.13682">
        <ele>147</ele>
        <time>2025-02-16T09:50:29.000Z</time>
      </trkpt>
      <trkpt lat="43.46367" lon="6.13668">
        <ele>147</ele>
        <time>2025-02-16T09:50:38.000Z</time>
      </trkpt>
      <trkpt lat="43.4637" lon="6.13656">
        <ele>147.1</ele>
        <time>2025-02-16T09:50:46.000Z</time>
      </trkpt>
      <trkpt lat="43.46374" lon="6.13644">
        <ele>147.2</ele>
        <time>2025-02-16T09:50:55.000Z</time>
      </trkpt>
      <trkpt lat="43.46378" lon="6.13632">
        <ele>147.2</ele>
        <time>2025-02-16T09:51:04.000Z</time>
      </trkpt>
      <trkpt lat="43.46381" lon="6.1362">
        <ele>147.3</ele>
        <time>2025-02-16T09:51:12.000Z</time>
      </trkpt>
      <trkpt lat="43.46384" lon="6.13607">
        <ele>147.4</ele>
        <time>2025-02-16T09:51:21.000Z</time>
      </trkpt>
      <trkpt lat="43.46388" lon="6.13596">
        <ele>147.4</ele>
        <time>2025-02-16T09:51:30.000Z</time>
      </trkpt>
      <trkpt lat="43.46391" lon="6.13583">
        <ele>147.5</ele>
        <time>2025-02-16T09:51:40.000Z</time>
      </trkpt>
      <trkpt lat="43.46393" lon="6.1357">
        <ele>147.6</ele>
        <time>2025-02-16T09:51:49.000Z</time>
      </trkpt>
      <trkpt lat="43.46395" lon="6.13557">
        <ele>147.7</ele>
        <time>2025-02-16T09:51:58.000Z</time>
      </trkpt>
      <trkpt lat="43.46397" lon="6.13544">
        <ele>147.9</ele>
        <time>2025-02-16T09:52:08.000Z</time>
      </trkpt>
      <trkpt lat="43.46399" lon="6.13531">
        <ele>148.1</ele>
        <time>2025-02-16T09:52:18.000Z</time>
      </trkpt>
      <trkpt lat="43.46401" lon="6.13519">
        <ele>148.2</ele>
        <time>2025-02-16T09:52:27.000Z</time>
      </trkpt>
      <trkpt lat="43.46403" lon="6.13506">
        <ele>148.7</ele>
        <time>2025-02-16T09:52:41.000Z</time>
      </trkpt>
      <trkpt lat="43.46406" lon="6.13494">
        <ele>149.1</ele>
        <time>2025-02-16T09:52:50.000Z</time>
      </trkpt>
      <trkpt lat="43.46409" lon="6.13482">
        <ele>149.3</ele>
        <time>2025-02-16T09:52:58.000Z</time>
      </trkpt>
      <trkpt lat="43.46411" lon="6.1347">
        <ele>149.5</ele>
        <time>2025-02-16T09:53:06.000Z</time>
      </trkpt>
      <trkpt lat="43.46414" lon="6.13458">
        <ele>149.6</ele>
        <time>2025-02-16T09:53:14.000Z</time>
      </trkpt>
      <trkpt lat="43.46418" lon="6.13446">
        <ele>149.6</ele>
        <time>2025-02-16T09:53:23.000Z</time>
      </trkpt>
      <trkpt lat="43.46422" lon="6.13435">
        <ele>149.6</ele>
        <time>2025-02-16T09:53:31.000Z</time>
      </trkpt>
      <trkpt lat="43.46425" lon="6.13422">
        <ele>149.6</ele>
        <time>2025-02-16T09:53:40.000Z</time>
      </trkpt>
      <trkpt lat="43.46428" lon="6.1341">
        <ele>149.6</ele>
        <time>2025-02-16T09:53:49.000Z</time>
      </trkpt>
      <trkpt lat="43.46432" lon="6.13398">
        <ele>149.6</ele>
        <time>2025-02-16T09:53:57.000Z</time>
      </trkpt>
      <trkpt lat="43.46435" lon="6.13386">
        <ele>149.6</ele>
        <time>2025-02-16T09:54:06.000Z</time>
      </trkpt>
      <trkpt lat="43.46437" lon="6.13373">
        <ele>149.6</ele>
        <time>2025-02-16T09:54:14.000Z</time>
      </trkpt>
      <trkpt lat="43.4644" lon="6.13361">
        <ele>149.6</ele>
        <time>2025-02-16T09:54:22.000Z</time>
      </trkpt>
      <trkpt lat="43.46444" lon="6.13349">
        <ele>149.6</ele>
        <time>2025-02-16T09:54:32.000Z</time>
      </trkpt>
      <trkpt lat="43.46448" lon="6.13338">
        <ele>149.6</ele>
        <time>2025-02-16T09:54:41.000Z</time>
      </trkpt>
      <trkpt lat="43.46452" lon="6.13326">
        <ele>149.6</ele>
        <time>2025-02-16T09:54:50.000Z</time>
      </trkpt>
      <trkpt lat="43.46457" lon="6.13315">
        <ele>149.6</ele>
        <time>2025-02-16T09:55:00.000Z</time>
      </trkpt>
      <trkpt lat="43.46461" lon="6.1331">
        <ele>149.5</ele>
        <time>2025-02-16T09:55:13.000Z</time>
      </trkpt>
      <trkpt lat="43.46461" lon="6.1331">
        <ele>149.5</ele>
        <time>2025-02-16T09:55:14.000Z</time>
      </trkpt>
      <trkpt lat="43.46461" lon="6.1331">
        <ele>149.5</ele>
        <time>2025-02-16T09:55:15.000Z</time>
      </trkpt>
      <trkpt lat="43.46461" lon="6.13308">
        <ele>149.5</ele>
        <time>2025-02-16T09:55:16.000Z</time>
      </trkpt>
      <trkpt lat="43.46462" lon="6.13307">
        <ele>149.4</ele>
        <time>2025-02-16T09:55:17.000Z</time>
      </trkpt>
      <trkpt lat="43.46466" lon="6.133">
        <ele>149.1</ele>
        <time>2025-02-16T09:55:35.000Z</time>
      </trkpt>
      <trkpt lat="43.46466" lon="6.133">
        <ele>149.1</ele>
        <time>2025-02-16T09:55:36.000Z</time>
      </trkpt>
      <trkpt lat="43.46466" lon="6.133">
        <ele>149.1</ele>
        <time>2025-02-16T09:55:37.000Z</time>
      </trkpt>
      <trkpt lat="43.46465" lon="6.133">
        <ele>149.1</ele>
        <time>2025-02-16T09:55:38.000Z</time>
      </trkpt>
      <trkpt lat="43.46465" lon="6.133">
        <ele>149.1</ele>
        <time>2025-02-16T09:55:39.000Z</time>
      </trkpt>
      <trkpt lat="43.46466" lon="6.13299">
        <ele>149.1</ele>
        <time>2025-02-16T09:55:40.000Z</time>
      </trkpt>
      <trkpt lat="43.46466" lon="6.13299">
        <ele>149.1</ele>
        <time>2025-02-16T09:55:41.000Z</time>
      </trkpt>
      <trkpt lat="43.46465" lon="6.13299">
        <ele>149.1</ele>
        <time>2025-02-16T09:55:42.000Z</time>
      </trkpt>
      <trkpt lat="43.46465" lon="6.13299">
        <ele>149.1</ele>
        <time>2025-02-16T09:55:43.000Z</time>
      </trkpt>
      <trkpt lat="43.46465" lon="6.13299">
        <ele>149.1</ele>
        <time>2025-02-16T09:55:44.000Z</time>
      </trkpt>
      <trkpt lat="43.46464" lon="6.13298">
        <ele>149.1</ele>
        <time>2025-02-16T09:55:53.000Z</time>
      </trkpt>
      <trkpt lat="43.46464" lon="6.13298">
        <ele>149</ele>
        <time>2025-02-16T09:55:54.000Z</time>
      </trkpt>
      <trkpt lat="43.46464" lon="6.13298">
        <ele>149</ele>
        <time>2025-02-16T09:55:55.000Z</time>
      </trkpt>
      <trkpt lat="43.46464" lon="6.13298">
        <ele>149</ele>
        <time>2025-02-16T09:55:56.000Z</time>
      </trkpt>
      <trkpt lat="43.46464" lon="6.13298">
        <ele>149</ele>
        <time>2025-02-16T09:55:57.000Z</time>
      </trkpt>
      <trkpt lat="43.46464" lon="6.13298">
        <ele>149</ele>
        <time>2025-02-16T09:55:58.000Z</time>
      </trkpt>
      <trkpt lat="43.46464" lon="6.13298">
        <ele>149</ele>
        <time>2025-02-16T09:55:59.000Z</time>
      </trkpt>
      <trkpt lat="43.46465" lon="6.13298">
        <ele>149</ele>
        <time>2025-02-16T09:56:15.000Z</time>
      </trkpt>
      <trkpt lat="43.46465" lon="6.13298">
        <ele>149</ele>
        <time>2025-02-16T09:56:16.000Z</time>
      </trkpt>
      <trkpt lat="43.46465" lon="6.13297">
        <ele>149</ele>
        <time>2025-02-16T09:56:17.000Z</time>
      </trkpt>
      <trkpt lat="43.46466" lon="6.13293">
        <ele>148.9</ele>
        <time>2025-02-16T09:56:28.000Z</time>
      </trkpt>
      <trkpt lat="43.46466" lon="6.13293">
        <ele>148.9</ele>
        <time>2025-02-16T09:56:29.000Z</time>
      </trkpt>
      <trkpt lat="43.46466" lon="6.13291">
        <ele>148.9</ele>
        <time>2025-02-16T09:56:37.000Z</time>
      </trkpt>
      <trkpt lat="43.46466" lon="6.1329">
        <ele>148.9</ele>
        <time>2025-02-16T09:56:38.000Z</time>
      </trkpt>
      <trkpt lat="43.46466" lon="6.13289">
        <ele>148.9</ele>
        <time>2025-02-16T09:56:39.000Z</time>
      </trkpt>
      <trkpt lat="43.46464" lon="6.13276">
        <ele>148.9</ele>
        <time>2025-02-16T09:56:48.000Z</time>
      </trkpt>
      <trkpt lat="43.46467" lon="6.13263">
        <ele>148.9</ele>
        <time>2025-02-16T09:57:00.000Z</time>
      </trkpt>
      <trkpt lat="43.46467" lon="6.13257">
        <ele>149.1</ele>
        <time>2025-02-16T09:57:18.000Z</time>
      </trkpt>
      <trkpt lat="43.46467" lon="6.13257">
        <ele>149.1</ele>
        <time>2025-02-16T09:57:19.000Z</time>
      </trkpt>
      <trkpt lat="43.46467" lon="6.13261">
        <ele>149.2</ele>
        <time>2025-02-16T09:57:28.000Z</time>
      </trkpt>
      <trkpt lat="43.46467" lon="6.13263">
        <ele>149.2</ele>
        <time>2025-02-16T09:57:29.000Z</time>
      </trkpt>
      <trkpt lat="43.46467" lon="6.13265">
        <ele>149.2</ele>
        <time>2025-02-16T09:57:30.000Z</time>
      </trkpt>
      <trkpt lat="43.46468" lon="6.1327">
        <ele>149.2</ele>
        <time>2025-02-16T09:57:38.000Z</time>
      </trkpt>
      <trkpt lat="43.46468" lon="6.1327">
        <ele>149.2</ele>
        <time>2025-02-16T09:57:39.000Z</time>
      </trkpt>
      <trkpt lat="43.46469" lon="6.1327">
        <ele>149.2</ele>
        <time>2025-02-16T09:57:42.000Z</time>
      </trkpt>
      <trkpt lat="43.4647" lon="6.1327">
        <ele>149.2</ele>
        <time>2025-02-16T09:57:43.000Z</time>
      </trkpt>
      <trkpt lat="43.4647" lon="6.1327">
        <ele>149.2</ele>
        <time>2025-02-16T09:57:44.000Z</time>
      </trkpt>
      <trkpt lat="43.46479" lon="6.13264">
        <ele>149.2</ele>
        <time>2025-02-16T09:57:53.000Z</time>
      </trkpt>
      <trkpt lat="43.46481" lon="6.13259">
        <ele>149.3</ele>
        <time>2025-02-16T09:58:01.000Z</time>
      </trkpt>
      <trkpt lat="43.46481" lon="6.13259">
        <ele>149.3</ele>
        <time>2025-02-16T09:58:02.000Z</time>
      </trkpt>
      <trkpt lat="43.46483" lon="6.13258">
        <ele>149.3</ele>
        <time>2025-02-16T09:58:11.000Z</time>
      </trkpt>
      <trkpt lat="43.46484" lon="6.13258">
        <ele>149.3</ele>
        <time>2025-02-16T09:58:12.000Z</time>
      </trkpt>
      <trkpt lat="43.46493" lon="6.13258">
        <ele>149.5</ele>
        <time>2025-02-16T09:58:29.000Z</time>
      </trkpt>
      <trkpt lat="43.46503" lon="6.13258">
        <ele>149.6</ele>
        <time>2025-02-16T09:58:39.000Z</time>
      </trkpt>
      <trkpt lat="43.46512" lon="6.13258">
        <ele>149.6</ele>
        <time>2025-02-16T09:58:48.000Z</time>
      </trkpt>
      <trkpt lat="43.46521" lon="6.13258">
        <ele>149.7</ele>
        <time>2025-02-16T09:58:57.000Z</time>
      </trkpt>
      <trkpt lat="43.4653" lon="6.13259">
        <ele>149.7</ele>
        <time>2025-02-16T09:59:06.000Z</time>
      </trkpt>
      <trkpt lat="43.4653" lon="6.13259">
        <ele>149.7</ele>
        <time>2025-02-16T09:59:07.000Z</time>
      </trkpt>
      <trkpt lat="43.46531" lon="6.13259">
        <ele>149.7</ele>
        <time>2025-02-16T09:59:08.000Z</time>
      </trkpt>
      <trkpt lat="43.4653" lon="6.13259">
        <ele>149.8</ele>
        <time>2025-02-16T09:59:09.000Z</time>
      </trkpt>
      <trkpt lat="43.4653" lon="6.13258">
        <ele>149.8</ele>
        <time>2025-02-16T09:59:10.000Z</time>
      </trkpt>
      <trkpt lat="43.4653" lon="6.13258">
        <ele>149.8</ele>
        <time>2025-02-16T09:59:11.000Z</time>
      </trkpt>
      <trkpt lat="43.4653" lon="6.13257">
        <ele>149.8</ele>
        <time>2025-02-16T09:59:12.000Z</time>
      </trkpt>
      <trkpt lat="43.46531" lon="6.13255">
        <ele>149.7</ele>
        <time>2025-02-16T09:59:18.000Z</time>
      </trkpt>
      <trkpt lat="43.46531" lon="6.13255">
        <ele>149.7</ele>
        <time>2025-02-16T09:59:19.000Z</time>
      </trkpt>
      <trkpt lat="43.46531" lon="6.13255">
        <ele>149.7</ele>
        <time>2025-02-16T09:59:20.000Z</time>
      </trkpt>
      <trkpt lat="43.46531" lon="6.13255">
        <ele>149.7</ele>
        <time>2025-02-16T09:59:23.000Z</time>
      </trkpt>
      <trkpt lat="43.46531" lon="6.13255">
        <ele>149.8</ele>
        <time>2025-02-16T09:59:24.000Z</time>
      </trkpt>
      <trkpt lat="43.46531" lon="6.13255">
        <ele>149.9</ele>
        <time>2025-02-16T09:59:25.000Z</time>
      </trkpt>
      <trkpt lat="43.4654" lon="6.13257">
        <ele>150</ele>
        <time>2025-02-16T09:59:39.000Z</time>
      </trkpt>
      <trkpt lat="43.4655" lon="6.13259">
        <ele>150.1</ele>
        <time>2025-02-16T09:59:49.000Z</time>
      </trkpt>
      <trkpt lat="43.46559" lon="6.13263">
        <ele>150.1</ele>
        <time>2025-02-16T09:59:58.000Z</time>
      </trkpt>
      <trkpt lat="43.46568" lon="6.13263">
        <ele>150.2</ele>
        <time>2025-02-16T10:00:07.000Z</time>
      </trkpt>
      <trkpt lat="43.46578" lon="6.13265">
        <ele>150.2</ele>
        <time>2025-02-16T10:00:15.000Z</time>
      </trkpt>
      <trkpt lat="43.46587" lon="6.13265">
        <ele>150.3</ele>
        <time>2025-02-16T10:00:23.000Z</time>
      </trkpt>
      <trkpt lat="43.46597" lon="6.13264">
        <ele>150.3</ele>
        <time>2025-02-16T10:00:44.000Z</time>
      </trkpt>
      <trkpt lat="43.46606" lon="6.13265">
        <ele>150.4</ele>
        <time>2025-02-16T10:00:52.000Z</time>
      </trkpt>
      <trkpt lat="43.46615" lon="6.13263">
        <ele>150.4</ele>
        <time>2025-02-16T10:01:00.000Z</time>
      </trkpt>
      <trkpt lat="43.46624" lon="6.13264">
        <ele>150.5</ele>
        <time>2025-02-16T10:01:09.000Z</time>
      </trkpt>
      <trkpt lat="43.46634" lon="6.13264">
        <ele>150.5</ele>
        <time>2025-02-16T10:01:17.000Z</time>
      </trkpt>
      <trkpt lat="43.46643" lon="6.13266">
        <ele>150.5</ele>
        <time>2025-02-16T10:01:26.000Z</time>
      </trkpt>
      <trkpt lat="43.46653" lon="6.13265">
        <ele>150.4</ele>
        <time>2025-02-16T10:01:35.000Z</time>
      </trkpt>
      <trkpt lat="43.46663" lon="6.13266">
        <ele>150.2</ele>
        <time>2025-02-16T10:01:44.000Z</time>
      </trkpt>
      <trkpt lat="43.46673" lon="6.13267">
        <ele>149.9</ele>
        <time>2025-02-16T10:01:53.000Z</time>
      </trkpt>
      <trkpt lat="43.46683" lon="6.13268">
        <ele>149.5</ele>
        <time>2025-02-16T10:02:03.000Z</time>
      </trkpt>
      <trkpt lat="43.46693" lon="6.13269">
        <ele>149.2</ele>
        <time>2025-02-16T10:02:12.000Z</time>
      </trkpt>
      <trkpt lat="43.46703" lon="6.1327">
        <ele>148.8</ele>
        <time>2025-02-16T10:02:21.000Z</time>
      </trkpt>
      <trkpt lat="43.46712" lon="6.13271">
        <ele>148.5</ele>
        <time>2025-02-16T10:02:30.000Z</time>
      </trkpt>
      <trkpt lat="43.46721" lon="6.13271">
        <ele>147.9</ele>
        <time>2025-02-16T10:02:40.000Z</time>
      </trkpt>
      <trkpt lat="43.46731" lon="6.13271">
        <ele>147.3</ele>
        <time>2025-02-16T10:02:50.000Z</time>
      </trkpt>
      <trkpt lat="43.46741" lon="6.13272">
        <ele>146.5</ele>
        <time>2025-02-16T10:02:59.000Z</time>
      </trkpt>
      <trkpt lat="43.46749" lon="6.13268">
        <ele>145.8</ele>
        <time>2025-02-16T10:03:06.000Z</time>
      </trkpt>
      <trkpt lat="43.46759" lon="6.13264">
        <ele>145.3</ele>
        <time>2025-02-16T10:03:13.000Z</time>
      </trkpt>
      <trkpt lat="43.46766" lon="6.13254">
        <ele>145.1</ele>
        <time>2025-02-16T10:03:21.000Z</time>
      </trkpt>
      <trkpt lat="43.46774" lon="6.13248">
        <ele>145</ele>
        <time>2025-02-16T10:03:29.000Z</time>
      </trkpt>
      <trkpt lat="43.46782" lon="6.1324">
        <ele>144.9</ele>
        <time>2025-02-16T10:03:37.000Z</time>
      </trkpt>
      <trkpt lat="43.4679" lon="6.13235">
        <ele>144.8</ele>
        <time>2025-02-16T10:03:45.000Z</time>
      </trkpt>
      <trkpt lat="43.46799" lon="6.13231">
        <ele>144.8</ele>
        <time>2025-02-16T10:03:55.000Z</time>
      </trkpt>
      <trkpt lat="43.46808" lon="6.13227">
        <ele>144.8</ele>
        <time>2025-02-16T10:04:04.000Z</time>
      </trkpt>
      <trkpt lat="43.46816" lon="6.13219">
        <ele>144.8</ele>
        <time>2025-02-16T10:04:12.000Z</time>
      </trkpt>
      <trkpt lat="43.4682" lon="6.13208">
        <ele>144.9</ele>
        <time>2025-02-16T10:04:20.000Z</time>
      </trkpt>
      <trkpt lat="43.46821" lon="6.13195">
        <ele>145.1</ele>
        <time>2025-02-16T10:04:28.000Z</time>
      </trkpt>
      <trkpt lat="43.46823" lon="6.13183">
        <ele>145.2</ele>
        <time>2025-02-16T10:04:36.000Z</time>
      </trkpt>
      <trkpt lat="43.46823" lon="6.1317">
        <ele>145.4</ele>
        <time>2025-02-16T10:04:45.000Z</time>
      </trkpt>
      <trkpt lat="43.46826" lon="6.13156">
        <ele>145.7</ele>
        <time>2025-02-16T10:04:54.000Z</time>
      </trkpt>
      <trkpt lat="43.46829" lon="6.13143">
        <ele>145.8</ele>
        <time>2025-02-16T10:05:02.000Z</time>
      </trkpt>
      <trkpt lat="43.4683" lon="6.1313">
        <ele>145.9</ele>
        <time>2025-02-16T10:05:11.000Z</time>
      </trkpt>
      <trkpt lat="43.46832" lon="6.13117">
        <ele>146</ele>
        <time>2025-02-16T10:05:20.000Z</time>
      </trkpt>
      <trkpt lat="43.46836" lon="6.13105">
        <ele>146</ele>
        <time>2025-02-16T10:05:28.000Z</time>
      </trkpt>
      <trkpt lat="43.46838" lon="6.13092">
        <ele>146</ele>
        <time>2025-02-16T10:05:36.000Z</time>
      </trkpt>
      <trkpt lat="43.46841" lon="6.1308">
        <ele>146</ele>
        <time>2025-02-16T10:05:44.000Z</time>
      </trkpt>
      <trkpt lat="43.46842" lon="6.13067">
        <ele>146</ele>
        <time>2025-02-16T10:05:53.000Z</time>
      </trkpt>
      <trkpt lat="43.46843" lon="6.13054">
        <ele>146</ele>
        <time>2025-02-16T10:06:02.000Z</time>
      </trkpt>
      <trkpt lat="43.46841" lon="6.13041">
        <ele>146</ele>
        <time>2025-02-16T10:06:10.000Z</time>
      </trkpt>
      <trkpt lat="43.46842" lon="6.13028">
        <ele>145.9</ele>
        <time>2025-02-16T10:06:21.000Z</time>
      </trkpt>
      <trkpt lat="43.46844" lon="6.13015">
        <ele>145.8</ele>
        <time>2025-02-16T10:06:34.000Z</time>
      </trkpt>
      <trkpt lat="43.46843" lon="6.13002">
        <ele>145.8</ele>
        <time>2025-02-16T10:06:43.000Z</time>
      </trkpt>
      <trkpt lat="43.46841" lon="6.12989">
        <ele>145.6</ele>
        <time>2025-02-16T10:06:52.000Z</time>
      </trkpt>
      <trkpt lat="43.46839" lon="6.12976">
        <ele>145.3</ele>
        <time>2025-02-16T10:07:00.000Z</time>
      </trkpt>
      <trkpt lat="43.46837" lon="6.12964">
        <ele>145</ele>
        <time>2025-02-16T10:07:08.000Z</time>
      </trkpt>
      <trkpt lat="43.46833" lon="6.12952">
        <ele>144.3</ele>
        <time>2025-02-16T10:07:16.000Z</time>
      </trkpt>
      <trkpt lat="43.46828" lon="6.12941">
        <ele>143.8</ele>
        <time>2025-02-16T10:07:27.000Z</time>
      </trkpt>
      <trkpt lat="43.46826" lon="6.12935">
        <ele>143.6</ele>
        <time>2025-02-16T10:07:35.000Z</time>
      </trkpt>
      <trkpt lat="43.46826" lon="6.12935">
        <ele>143.6</ele>
        <time>2025-02-16T10:07:36.000Z</time>
      </trkpt>
      <trkpt lat="43.46826" lon="6.12935">
        <ele>143.5</ele>
        <time>2025-02-16T10:07:42.000Z</time>
      </trkpt>
      <trkpt lat="43.46826" lon="6.12935">
        <ele>143.5</ele>
        <time>2025-02-16T10:07:43.000Z</time>
      </trkpt>
      <trkpt lat="43.46826" lon="6.12935">
        <ele>143.4</ele>
        <time>2025-02-16T10:07:44.000Z</time>
      </trkpt>
      <trkpt lat="43.46825" lon="6.12935">
        <ele>143.4</ele>
        <time>2025-02-16T10:07:47.000Z</time>
      </trkpt>
      <trkpt lat="43.46825" lon="6.12936">
        <ele>143.4</ele>
        <time>2025-02-16T10:07:48.000Z</time>
      </trkpt>
      <trkpt lat="43.46825" lon="6.12936">
        <ele>143.4</ele>
        <time>2025-02-16T10:07:49.000Z</time>
      </trkpt>
      <trkpt lat="43.46825" lon="6.12936">
        <ele>143.4</ele>
        <time>2025-02-16T10:07:50.000Z</time>
      </trkpt>
      <trkpt lat="43.46825" lon="6.12936">
        <ele>143.4</ele>
        <time>2025-02-16T10:07:51.000Z</time>
      </trkpt>
      <trkpt lat="43.46825" lon="6.12936">
        <ele>143.4</ele>
        <time>2025-02-16T10:07:52.000Z</time>
      </trkpt>
      <trkpt lat="43.46825" lon="6.12936">
        <ele>143.4</ele>
        <time>2025-02-16T10:07:53.000Z</time>
      </trkpt>
      <trkpt lat="43.46825" lon="6.12936">
        <ele>143.4</ele>
        <time>2025-02-16T10:07:54.000Z</time>
      </trkpt>
      <trkpt lat="43.46824" lon="6.12936">
        <ele>143.4</ele>
        <time>2025-02-16T10:07:57.000Z</time>
      </trkpt>
      <trkpt lat="43.46824" lon="6.12936">
        <ele>143.4</ele>
        <time>2025-02-16T10:07:58.000Z</time>
      </trkpt>
      <trkpt lat="43.46824" lon="6.12936">
        <ele>143.4</ele>
        <time>2025-02-16T10:07:59.000Z</time>
      </trkpt>
      <trkpt lat="43.46824" lon="6.12936">
        <ele>143.4</ele>
        <time>2025-02-16T10:08:00.000Z</time>
      </trkpt>
      <trkpt lat="43.46824" lon="6.12936">
        <ele>143.4</ele>
        <time>2025-02-16T10:08:01.000Z</time>
      </trkpt>
      <trkpt lat="43.46825" lon="6.12935">
        <ele>143.3</ele>
        <time>2025-02-16T10:08:07.000Z</time>
      </trkpt>
      <trkpt lat="43.46824" lon="6.12936">
        <ele>143.3</ele>
        <time>2025-02-16T10:08:08.000Z</time>
      </trkpt>
      <trkpt lat="43.46824" lon="6.12936">
        <ele>143.3</ele>
        <time>2025-02-16T10:08:09.000Z</time>
      </trkpt>
      <trkpt lat="43.46824" lon="6.12936">
        <ele>143.3</ele>
        <time>2025-02-16T10:08:10.000Z</time>
      </trkpt>
      <trkpt lat="43.46824" lon="6.12936">
        <ele>143.3</ele>
        <time>2025-02-16T10:08:11.000Z</time>
      </trkpt>
      <trkpt lat="43.46824" lon="6.12935">
        <ele>143.3</ele>
        <time>2025-02-16T10:08:20.000Z</time>
      </trkpt>
      <trkpt lat="43.46824" lon="6.12934">
        <ele>143.3</ele>
        <time>2025-02-16T10:08:21.000Z</time>
      </trkpt>
      <trkpt lat="43.46824" lon="6.12934">
        <ele>143.3</ele>
        <time>2025-02-16T10:08:22.000Z</time>
      </trkpt>
      <trkpt lat="43.46824" lon="6.12935">
        <ele>143.3</ele>
        <time>2025-02-16T10:08:23.000Z</time>
      </trkpt>
      <trkpt lat="43.46824" lon="6.12935">
        <ele>143.3</ele>
        <time>2025-02-16T10:08:24.000Z</time>
      </trkpt>
      <trkpt lat="43.46824" lon="6.12935">
        <ele>143.3</ele>
        <time>2025-02-16T10:08:25.000Z</time>
      </trkpt>
      <trkpt lat="43.46824" lon="6.12934">
        <ele>143.3</ele>
        <time>2025-02-16T10:08:26.000Z</time>
      </trkpt>
      <trkpt lat="43.46824" lon="6.12934">
        <ele>143.3</ele>
        <time>2025-02-16T10:08:27.000Z</time>
      </trkpt>
      <trkpt lat="43.46824" lon="6.12934">
        <ele>143.3</ele>
        <time>2025-02-16T10:08:28.000Z</time>
      </trkpt>
      <trkpt lat="43.46824" lon="6.12934">
        <ele>143.3</ele>
        <time>2025-02-16T10:08:29.000Z</time>
      </trkpt>
      <trkpt lat="43.46824" lon="6.12934">
        <ele>143.3</ele>
        <time>2025-02-16T10:08:30.000Z</time>
      </trkpt>
      <trkpt lat="43.46824" lon="6.12934">
        <ele>143.3</ele>
        <time>2025-02-16T10:08:31.000Z</time>
      </trkpt>
      <trkpt lat="43.46823" lon="6.12934">
        <ele>143.3</ele>
        <time>2025-02-16T10:08:32.000Z</time>
      </trkpt>
      <trkpt lat="43.46822" lon="6.12934">
        <ele>143.3</ele>
        <time>2025-02-16T10:08:33.000Z</time>
      </trkpt>
      <trkpt lat="43.46822" lon="6.12933">
        <ele>143.3</ele>
        <time>2025-02-16T10:08:34.000Z</time>
      </trkpt>
      <trkpt lat="43.46822" lon="6.12933">
        <ele>143.3</ele>
        <time>2025-02-16T10:08:35.000Z</time>
      </trkpt>
      <trkpt lat="43.46821" lon="6.12933">
        <ele>143.3</ele>
        <time>2025-02-16T10:08:43.000Z</time>
      </trkpt>
      <trkpt lat="43.46821" lon="6.12933">
        <ele>143.3</ele>
        <time>2025-02-16T10:08:44.000Z</time>
      </trkpt>
      <trkpt lat="43.46821" lon="6.12933">
        <ele>143.3</ele>
        <time>2025-02-16T10:08:45.000Z</time>
      </trkpt>
      <trkpt lat="43.46821" lon="6.12934">
        <ele>143.3</ele>
        <time>2025-02-16T10:08:46.000Z</time>
      </trkpt>
      <trkpt lat="43.46822" lon="6.12938">
        <ele>143.3</ele>
        <time>2025-02-16T10:09:10.000Z</time>
      </trkpt>
      <trkpt lat="43.46822" lon="6.12938">
        <ele>143.3</ele>
        <time>2025-02-16T10:09:11.000Z</time>
      </trkpt>
      <trkpt lat="43.46822" lon="6.12938">
        <ele>143.3</ele>
        <time>2025-02-16T10:09:12.000Z</time>
      </trkpt>
      <trkpt lat="43.46822" lon="6.12938">
        <ele>143.3</ele>
        <time>2025-02-16T10:09:13.000Z</time>
      </trkpt>
      <trkpt lat="43.46822" lon="6.12938">
        <ele>143.3</ele>
        <time>2025-02-16T10:09:14.000Z</time>
      </trkpt>
      <trkpt lat="43.46822" lon="6.12938">
        <ele>143.3</ele>
        <time>2025-02-16T10:09:15.000Z</time>
      </trkpt>
      <trkpt lat="43.46821" lon="6.12939">
        <ele>143.3</ele>
        <time>2025-02-16T10:09:16.000Z</time>
      </trkpt>
      <trkpt lat="43.46821" lon="6.12939">
        <ele>143.3</ele>
        <time>2025-02-16T10:09:17.000Z</time>
      </trkpt>
      <trkpt lat="43.46822" lon="6.12938">
        <ele>143.3</ele>
        <time>2025-02-16T10:09:28.000Z</time>
      </trkpt>
      <trkpt lat="43.46822" lon="6.12938">
        <ele>143.3</ele>
        <time>2025-02-16T10:09:29.000Z</time>
      </trkpt>
      <trkpt lat="43.46822" lon="6.12938">
        <ele>143.3</ele>
        <time>2025-02-16T10:09:30.000Z</time>
      </trkpt>
      <trkpt lat="43.46822" lon="6.12938">
        <ele>143.4</ele>
        <time>2025-02-16T10:09:31.000Z</time>
      </trkpt>
      <trkpt lat="43.46822" lon="6.12938">
        <ele>143.4</ele>
        <time>2025-02-16T10:09:32.000Z</time>
      </trkpt>
      <trkpt lat="43.46821" lon="6.12938">
        <ele>143.5</ele>
        <time>2025-02-16T10:09:35.000Z</time>
      </trkpt>
      <trkpt lat="43.46822" lon="6.12938">
        <ele>143.5</ele>
        <time>2025-02-16T10:09:36.000Z</time>
      </trkpt>
      <trkpt lat="43.46822" lon="6.12938">
        <ele>143.5</ele>
        <time>2025-02-16T10:09:37.000Z</time>
      </trkpt>
      <trkpt lat="43.46822" lon="6.12938">
        <ele>143.5</ele>
        <time>2025-02-16T10:09:38.000Z</time>
      </trkpt>
      <trkpt lat="43.46822" lon="6.12938">
        <ele>143.5</ele>
        <time>2025-02-16T10:09:39.000Z</time>
      </trkpt>
      <trkpt lat="43.46822" lon="6.12939">
        <ele>143.5</ele>
        <time>2025-02-16T10:09:45.000Z</time>
      </trkpt>
      <trkpt lat="43.46822" lon="6.12939">
        <ele>143.5</ele>
        <time>2025-02-16T10:09:46.000Z</time>
      </trkpt>
      <trkpt lat="43.46823" lon="6.12938">
        <ele>143.5</ele>
        <time>2025-02-16T10:09:52.000Z</time>
      </trkpt>
      <trkpt lat="43.46822" lon="6.12937">
        <ele>143.5</ele>
        <time>2025-02-16T10:09:53.000Z</time>
      </trkpt>
      <trkpt lat="43.46823" lon="6.12937">
        <ele>143.5</ele>
        <time>2025-02-16T10:09:54.000Z</time>
      </trkpt>
      <trkpt lat="43.46821" lon="6.12933">
        <ele>143.6</ele>
        <time>2025-02-16T10:10:07.000Z</time>
      </trkpt>
      <trkpt lat="43.46822" lon="6.12933">
        <ele>143.7</ele>
        <time>2025-02-16T10:10:08.000Z</time>
      </trkpt>
      <trkpt lat="43.46822" lon="6.12932">
        <ele>143.8</ele>
        <time>2025-02-16T10:10:09.000Z</time>
      </trkpt>
      <trkpt lat="43.46822" lon="6.12932">
        <ele>143.8</ele>
        <time>2025-02-16T10:10:10.000Z</time>
      </trkpt>
      <trkpt lat="43.4682" lon="6.12931">
        <ele>143.9</ele>
        <time>2025-02-16T10:10:11.000Z</time>
      </trkpt>
      <trkpt lat="43.46818" lon="6.1293">
        <ele>144.4</ele>
        <time>2025-02-16T10:10:18.000Z</time>
      </trkpt>
      <trkpt lat="43.46818" lon="6.1293">
        <ele>144.4</ele>
        <time>2025-02-16T10:10:19.000Z</time>
      </trkpt>
      <trkpt lat="43.46818" lon="6.12929">
        <ele>144.4</ele>
        <time>2025-02-16T10:10:20.000Z</time>
      </trkpt>
      <trkpt lat="43.46818" lon="6.12929">
        <ele>144.5</ele>
        <time>2025-02-16T10:10:21.000Z</time>
      </trkpt>
      <trkpt lat="43.46819" lon="6.12928">
        <ele>144.6</ele>
        <time>2025-02-16T10:10:22.000Z</time>
      </trkpt>
      <trkpt lat="43.46825" lon="6.12919">
        <ele>144.5</ele>
        <time>2025-02-16T10:10:45.000Z</time>
      </trkpt>
      <trkpt lat="43.46828" lon="6.12907">
        <ele>144.4</ele>
        <time>2025-02-16T10:11:04.000Z</time>
      </trkpt>
      <trkpt lat="43.46825" lon="6.12901">
        <ele>144.9</ele>
        <time>2025-02-16T10:11:23.000Z</time>
      </trkpt>
      <trkpt lat="43.46825" lon="6.12901">
        <ele>144.9</ele>
        <time>2025-02-16T10:11:24.000Z</time>
      </trkpt>
      <trkpt lat="43.46825" lon="6.12901">
        <ele>144.9</ele>
        <time>2025-02-16T10:11:25.000Z</time>
      </trkpt>
      <trkpt lat="43.46822" lon="6.12898">
        <ele>145.2</ele>
        <time>2025-02-16T10:11:42.000Z</time>
      </trkpt>
      <trkpt lat="43.46822" lon="6.12897">
        <ele>145.2</ele>
        <time>2025-02-16T10:11:43.000Z</time>
      </trkpt>
      <trkpt lat="43.46822" lon="6.12897">
        <ele>145.2</ele>
        <time>2025-02-16T10:11:44.000Z</time>
      </trkpt>
      <trkpt lat="43.46825" lon="6.12894">
        <ele>143.7</ele>
        <time>2025-02-16T10:12:16.000Z</time>
      </trkpt>
      <trkpt lat="43.46825" lon="6.12894">
        <ele>143.6</ele>
        <time>2025-02-16T10:12:17.000Z</time>
      </trkpt>
      <trkpt lat="43.46825" lon="6.12894">
        <ele>143.4</ele>
        <time>2025-02-16T10:12:20.000Z</time>
      </trkpt>
      <trkpt lat="43.46825" lon="6.12894">
        <ele>143.4</ele>
        <time>2025-02-16T10:12:21.000Z</time>
      </trkpt>
      <trkpt lat="43.46825" lon="6.12894">
        <ele>143.3</ele>
        <time>2025-02-16T10:12:22.000Z</time>
      </trkpt>
      <trkpt lat="43.46825" lon="6.12894">
        <ele>143.3</ele>
        <time>2025-02-16T10:12:23.000Z</time>
      </trkpt>
      <trkpt lat="43.46825" lon="6.12894">
        <ele>143.3</ele>
        <time>2025-02-16T10:12:24.000Z</time>
      </trkpt>
      <trkpt lat="43.46825" lon="6.12894">
        <ele>143.2</ele>
        <time>2025-02-16T10:12:28.000Z</time>
      </trkpt>
      <trkpt lat="43.46825" lon="6.12894">
        <ele>143.1</ele>
        <time>2025-02-16T10:12:29.000Z</time>
      </trkpt>
      <trkpt lat="43.46825" lon="6.12894">
        <ele>143.1</ele>
        <time>2025-02-16T10:12:30.000Z</time>
      </trkpt>
      <trkpt lat="43.46825" lon="6.12894">
        <ele>143.1</ele>
        <time>2025-02-16T10:12:31.000Z</time>
      </trkpt>
      <trkpt lat="43.46825" lon="6.12895">
        <ele>143.1</ele>
        <time>2025-02-16T10:12:52.000Z</time>
      </trkpt>
      <trkpt lat="43.46825" lon="6.12895">
        <ele>143.1</ele>
        <time>2025-02-16T10:12:53.000Z</time>
      </trkpt>
      <trkpt lat="43.46825" lon="6.12895">
        <ele>143.1</ele>
        <time>2025-02-16T10:12:54.000Z</time>
      </trkpt>
      <trkpt lat="43.46825" lon="6.12896">
        <ele>143</ele>
        <time>2025-02-16T10:13:02.000Z</time>
      </trkpt>
      <trkpt lat="43.46825" lon="6.12896">
        <ele>143</ele>
        <time>2025-02-16T10:13:03.000Z</time>
      </trkpt>
      <trkpt lat="43.46825" lon="6.12896">
        <ele>143</ele>
        <time>2025-02-16T10:13:04.000Z</time>
      </trkpt>
      <trkpt lat="43.46824" lon="6.12896">
        <ele>143.1</ele>
        <time>2025-02-16T10:13:17.000Z</time>
      </trkpt>
      <trkpt lat="43.46824" lon="6.12895">
        <ele>143.1</ele>
        <time>2025-02-16T10:13:18.000Z</time>
      </trkpt>
      <trkpt lat="43.46824" lon="6.12895">
        <ele>143.1</ele>
        <time>2025-02-16T10:13:19.000Z</time>
      </trkpt>
      <trkpt lat="43.46823" lon="6.12895">
        <ele>143</ele>
        <time>2025-02-16T10:13:25.000Z</time>
      </trkpt>
      <trkpt lat="43.46823" lon="6.12895">
        <ele>143</ele>
        <time>2025-02-16T10:13:26.000Z</time>
      </trkpt>
      <trkpt lat="43.46818" lon="6.12891">
        <ele>143.1</ele>
        <time>2025-02-16T10:14:15.000Z</time>
      </trkpt>
      <trkpt lat="43.46818" lon="6.12891">
        <ele>143.1</ele>
        <time>2025-02-16T10:14:16.000Z</time>
      </trkpt>
      <trkpt lat="43.46818" lon="6.12891">
        <ele>143.1</ele>
        <time>2025-02-16T10:14:17.000Z</time>
      </trkpt>
      <trkpt lat="43.46818" lon="6.12891">
        <ele>143.1</ele>
        <time>2025-02-16T10:14:18.000Z</time>
      </trkpt>
      <trkpt lat="43.46818" lon="6.12891">
        <ele>143.1</ele>
        <time>2025-02-16T10:14:19.000Z</time>
      </trkpt>
      <trkpt lat="43.46818" lon="6.12891">
        <ele>143.1</ele>
        <time>2025-02-16T10:14:27.000Z</time>
      </trkpt>
      <trkpt lat="43.46818" lon="6.12891">
        <ele>143.1</ele>
        <time>2025-02-16T10:14:28.000Z</time>
      </trkpt>
      <trkpt lat="43.46818" lon="6.12891">
        <ele>143.1</ele>
        <time>2025-02-16T10:14:29.000Z</time>
      </trkpt>
      <trkpt lat="43.46818" lon="6.12891">
        <ele>143.1</ele>
        <time>2025-02-16T10:14:30.000Z</time>
      </trkpt>
      <trkpt lat="43.46818" lon="6.12891">
        <ele>143.1</ele>
        <time>2025-02-16T10:14:31.000Z</time>
      </trkpt>
      <trkpt lat="43.46818" lon="6.12891">
        <ele>143.1</ele>
        <time>2025-02-16T10:14:32.000Z</time>
      </trkpt>
      <trkpt lat="43.46819" lon="6.12893">
        <ele>143.1</ele>
        <time>2025-02-16T10:14:52.000Z</time>
      </trkpt>
      <trkpt lat="43.46819" lon="6.12893">
        <ele>143.1</ele>
        <time>2025-02-16T10:14:53.000Z</time>
      </trkpt>
      <trkpt lat="43.46818" lon="6.12893">
        <ele>143.1</ele>
        <time>2025-02-16T10:14:54.000Z</time>
      </trkpt>
      <trkpt lat="43.46818" lon="6.12893">
        <ele>143.1</ele>
        <time>2025-02-16T10:14:55.000Z</time>
      </trkpt>
      <trkpt lat="43.46817" lon="6.12893">
        <ele>143.1</ele>
        <time>2025-02-16T10:14:56.000Z</time>
      </trkpt>
      <trkpt lat="43.46817" lon="6.1289">
        <ele>143.2</ele>
        <time>2025-02-16T10:15:25.000Z</time>
      </trkpt>
      <trkpt lat="43.46817" lon="6.1289">
        <ele>143.1</ele>
        <time>2025-02-16T10:15:26.000Z</time>
      </trkpt>
      <trkpt lat="43.46817" lon="6.1289">
        <ele>143.1</ele>
        <time>2025-02-16T10:15:27.000Z</time>
      </trkpt>
      <trkpt lat="43.46817" lon="6.1289">
        <ele>143.1</ele>
        <time>2025-02-16T10:15:28.000Z</time>
      </trkpt>
      <trkpt lat="43.46817" lon="6.1289">
        <ele>143.1</ele>
        <time>2025-02-16T10:15:29.000Z</time>
      </trkpt>
      <trkpt lat="43.46817" lon="6.12892">
        <ele>143.1</ele>
        <time>2025-02-16T10:16:06.000Z</time>
      </trkpt>
      <trkpt lat="43.46816" lon="6.12892">
        <ele>143.1</ele>
        <time>2025-02-16T10:16:07.000Z</time>
      </trkpt>
      <trkpt lat="43.46818" lon="6.12904">
        <ele>143.1</ele>
        <time>2025-02-16T10:16:29.000Z</time>
      </trkpt>
      <trkpt lat="43.46824" lon="6.12908">
        <ele>143</ele>
        <time>2025-02-16T10:16:42.000Z</time>
      </trkpt>
      <trkpt lat="43.46824" lon="6.12908">
        <ele>143</ele>
        <time>2025-02-16T10:16:43.000Z</time>
      </trkpt>
      <trkpt lat="43.46824" lon="6.12908">
        <ele>143</ele>
        <time>2025-02-16T10:16:44.000Z</time>
      </trkpt>
      <trkpt lat="43.46822" lon="6.12908">
        <ele>143</ele>
        <time>2025-02-16T10:16:58.000Z</time>
      </trkpt>
      <trkpt lat="43.46821" lon="6.12908">
        <ele>143</ele>
        <time>2025-02-16T10:16:59.000Z</time>
      </trkpt>
      <trkpt lat="43.4682" lon="6.12908">
        <ele>143</ele>
        <time>2025-02-16T10:17:00.000Z</time>
      </trkpt>
      <trkpt lat="43.4682" lon="6.12908">
        <ele>143</ele>
        <time>2025-02-16T10:17:01.000Z</time>
      </trkpt>
      <trkpt lat="43.4682" lon="6.12908">
        <ele>143</ele>
        <time>2025-02-16T10:17:02.000Z</time>
      </trkpt>
      <trkpt lat="43.4682" lon="6.12908">
        <ele>143</ele>
        <time>2025-02-16T10:17:03.000Z</time>
      </trkpt>
      <trkpt lat="43.4682" lon="6.12908">
        <ele>143</ele>
        <time>2025-02-16T10:17:04.000Z</time>
      </trkpt>
      <trkpt lat="43.4682" lon="6.12908">
        <ele>143</ele>
        <time>2025-02-16T10:17:05.000Z</time>
      </trkpt>
      <trkpt lat="43.4682" lon="6.12908">
        <ele>143</ele>
        <time>2025-02-16T10:17:06.000Z</time>
      </trkpt>
      <trkpt lat="43.4682" lon="6.12908">
        <ele>143</ele>
        <time>2025-02-16T10:17:07.000Z</time>
      </trkpt>
      <trkpt lat="43.4682" lon="6.12906">
        <ele>143</ele>
        <time>2025-02-16T10:17:08.000Z</time>
      </trkpt>
      <trkpt lat="43.4682" lon="6.12905">
        <ele>143</ele>
        <time>2025-02-16T10:17:09.000Z</time>
      </trkpt>
      <trkpt lat="43.46822" lon="6.12903">
        <ele>143</ele>
        <time>2025-02-16T10:17:20.000Z</time>
      </trkpt>
      <trkpt lat="43.46822" lon="6.12903">
        <ele>143</ele>
        <time>2025-02-16T10:17:21.000Z</time>
      </trkpt>
      <trkpt lat="43.46822" lon="6.12903">
        <ele>143</ele>
        <time>2025-02-16T10:17:22.000Z</time>
      </trkpt>
      <trkpt lat="43.46822" lon="6.12903">
        <ele>143</ele>
        <time>2025-02-16T10:17:23.000Z</time>
      </trkpt>
      <trkpt lat="43.46822" lon="6.12903">
        <ele>143</ele>
        <time>2025-02-16T10:17:24.000Z</time>
      </trkpt>
      <trkpt lat="43.46822" lon="6.12903">
        <ele>143</ele>
        <time>2025-02-16T10:17:25.000Z</time>
      </trkpt>
      <trkpt lat="43.46819" lon="6.1289">
        <ele>143.1</ele>
        <time>2025-02-16T10:17:36.000Z</time>
      </trkpt>
      <trkpt lat="43.46818" lon="6.12878">
        <ele>143.1</ele>
        <time>2025-02-16T10:17:45.000Z</time>
      </trkpt>
      <trkpt lat="43.46813" lon="6.12866">
        <ele>143.3</ele>
        <time>2025-02-16T10:17:56.000Z</time>
      </trkpt>
      <trkpt lat="43.46812" lon="6.12853">
        <ele>144</ele>
        <time>2025-02-16T10:18:05.000Z</time>
      </trkpt>
      <trkpt lat="43.46808" lon="6.12842">
        <ele>145.3</ele>
        <time>2025-02-16T10:18:15.000Z</time>
      </trkpt>
      <trkpt lat="43.46801" lon="6.12831">
        <ele>145.9</ele>
        <time>2025-02-16T10:18:23.000Z</time>
      </trkpt>
      <trkpt lat="43.46797" lon="6.1282">
        <ele>146.3</ele>
        <time>2025-02-16T10:18:32.000Z</time>
      </trkpt>
      <trkpt lat="43.46795" lon="6.12808">
        <ele>146.5</ele>
        <time>2025-02-16T10:18:41.000Z</time>
      </trkpt>
      <trkpt lat="43.46798" lon="6.12795">
        <ele>146.7</ele>
        <time>2025-02-16T10:18:50.000Z</time>
      </trkpt>
      <trkpt lat="43.46805" lon="6.12786">
        <ele>147</ele>
        <time>2025-02-16T10:18:59.000Z</time>
      </trkpt>
      <trkpt lat="43.46812" lon="6.12777">
        <ele>147.4</ele>
        <time>2025-02-16T10:19:09.000Z</time>
      </trkpt>
      <trkpt lat="43.46819" lon="6.12769">
        <ele>147.7</ele>
        <time>2025-02-16T10:19:18.000Z</time>
      </trkpt>
      <trkpt lat="43.46826" lon="6.12761">
        <ele>147.8</ele>
        <time>2025-02-16T10:19:27.000Z</time>
      </trkpt>
      <trkpt lat="43.46826" lon="6.12761">
        <ele>147.8</ele>
        <time>2025-02-16T10:19:28.000Z</time>
      </trkpt>
      <trkpt lat="43.46826" lon="6.12761">
        <ele>147.8</ele>
        <time>2025-02-16T10:19:29.000Z</time>
      </trkpt>
      <trkpt lat="43.46826" lon="6.12761">
        <ele>147.8</ele>
        <time>2025-02-16T10:19:30.000Z</time>
      </trkpt>
      <trkpt lat="43.46827" lon="6.1276">
        <ele>147.8</ele>
        <time>2025-02-16T10:19:31.000Z</time>
      </trkpt>
      <trkpt lat="43.46828" lon="6.12759">
        <ele>147.9</ele>
        <time>2025-02-16T10:19:32.000Z</time>
      </trkpt>
      <trkpt lat="43.46835" lon="6.12752">
        <ele>148.2</ele>
        <time>2025-02-16T10:19:43.000Z</time>
      </trkpt>
      <trkpt lat="43.46843" lon="6.12744">
        <ele>148.4</ele>
        <time>2025-02-16T10:19:52.000Z</time>
      </trkpt>
      <trkpt lat="43.46852" lon="6.12739">
        <ele>148.5</ele>
        <time>2025-02-16T10:20:00.000Z</time>
      </trkpt>
      <trkpt lat="43.4686" lon="6.12734">
        <ele>148.6</ele>
        <time>2025-02-16T10:20:08.000Z</time>
      </trkpt>
      <trkpt lat="43.4687" lon="6.12729">
        <ele>148.7</ele>
        <time>2025-02-16T10:20:16.000Z</time>
      </trkpt>
      <trkpt lat="43.46878" lon="6.12723">
        <ele>148.8</ele>
        <time>2025-02-16T10:20:24.000Z</time>
      </trkpt>
      <trkpt lat="43.46887" lon="6.12718">
        <ele>149</ele>
        <time>2025-02-16T10:20:32.000Z</time>
      </trkpt>
      <trkpt lat="43.46896" lon="6.12711">
        <ele>149.1</ele>
        <time>2025-02-16T10:20:41.000Z</time>
      </trkpt>
      <trkpt lat="43.46904" lon="6.12707">
        <ele>149.3</ele>
        <time>2025-02-16T10:20:50.000Z</time>
      </trkpt>
      <trkpt lat="43.46913" lon="6.12707">
        <ele>149.4</ele>
        <time>2025-02-16T10:20:57.000Z</time>
      </trkpt>
      <trkpt lat="43.46923" lon="6.12706">
        <ele>149.4</ele>
        <time>2025-02-16T10:21:06.000Z</time>
      </trkpt>
      <trkpt lat="43.46932" lon="6.12706">
        <ele>149.5</ele>
        <time>2025-02-16T10:21:13.000Z</time>
      </trkpt>
      <trkpt lat="43.46941" lon="6.1271">
        <ele>149.6</ele>
        <time>2025-02-16T10:21:23.000Z</time>
      </trkpt>
      <trkpt lat="43.4695" lon="6.12712">
        <ele>149.6</ele>
        <time>2025-02-16T10:21:32.000Z</time>
      </trkpt>
      <trkpt lat="43.46957" lon="6.12712">
        <ele>149.6</ele>
        <time>2025-02-16T10:21:52.000Z</time>
      </trkpt>
      <trkpt lat="43.46957" lon="6.12712">
        <ele>149.6</ele>
        <time>2025-02-16T10:21:53.000Z</time>
      </trkpt>
      <trkpt lat="43.46957" lon="6.12712">
        <ele>149.6</ele>
        <time>2025-02-16T10:21:54.000Z</time>
      </trkpt>
      <trkpt lat="43.46957" lon="6.12712">
        <ele>149.6</ele>
        <time>2025-02-16T10:21:55.000Z</time>
      </trkpt>
      <trkpt lat="43.46958" lon="6.12712">
        <ele>149.6</ele>
        <time>2025-02-16T10:21:56.000Z</time>
      </trkpt>
      <trkpt lat="43.46967" lon="6.12708">
        <ele>149.6</ele>
        <time>2025-02-16T10:22:05.000Z</time>
      </trkpt>
      <trkpt lat="43.46977" lon="6.12706">
        <ele>149.6</ele>
        <time>2025-02-16T10:22:14.000Z</time>
      </trkpt>
      <trkpt lat="43.46986" lon="6.12704">
        <ele>149.6</ele>
        <time>2025-02-16T10:22:22.000Z</time>
      </trkpt>
      <trkpt lat="43.46996" lon="6.12702">
        <ele>149.6</ele>
        <time>2025-02-16T10:22:31.000Z</time>
      </trkpt>
      <trkpt lat="43.47006" lon="6.12705">
        <ele>149.6</ele>
        <time>2025-02-16T10:22:43.000Z</time>
      </trkpt>
      <trkpt lat="43.47013" lon="6.12709">
        <ele>149.6</ele>
        <time>2025-02-16T10:22:52.000Z</time>
      </trkpt>
      <trkpt lat="43.47013" lon="6.12709">
        <ele>149.6</ele>
        <time>2025-02-16T10:22:53.000Z</time>
      </trkpt>
      <trkpt lat="43.47013" lon="6.12709">
        <ele>149.6</ele>
        <time>2025-02-16T10:22:54.000Z</time>
      </trkpt>
      <trkpt lat="43.47013" lon="6.1271">
        <ele>149.5</ele>
        <time>2025-02-16T10:22:58.000Z</time>
      </trkpt>
      <trkpt lat="43.47013" lon="6.1271">
        <ele>149.5</ele>
        <time>2025-02-16T10:22:59.000Z</time>
      </trkpt>
      <trkpt lat="43.47013" lon="6.1271">
        <ele>149.5</ele>
        <time>2025-02-16T10:23:00.000Z</time>
      </trkpt>
      <trkpt lat="43.47013" lon="6.1271">
        <ele>149.5</ele>
        <time>2025-02-16T10:23:01.000Z</time>
      </trkpt>
      <trkpt lat="43.47013" lon="6.1271">
        <ele>149.5</ele>
        <time>2025-02-16T10:23:02.000Z</time>
      </trkpt>
      <trkpt lat="43.47013" lon="6.12711">
        <ele>149.5</ele>
        <time>2025-02-16T10:23:05.000Z</time>
      </trkpt>
      <trkpt lat="43.47014" lon="6.1271">
        <ele>149.5</ele>
        <time>2025-02-16T10:23:06.000Z</time>
      </trkpt>
      <trkpt lat="43.47021" lon="6.12707">
        <ele>149.4</ele>
        <time>2025-02-16T10:23:17.000Z</time>
      </trkpt>
      <trkpt lat="43.47021" lon="6.12707">
        <ele>149.4</ele>
        <time>2025-02-16T10:23:18.000Z</time>
      </trkpt>
      <trkpt lat="43.47021" lon="6.12707">
        <ele>149.4</ele>
        <time>2025-02-16T10:23:19.000Z</time>
      </trkpt>
      <trkpt lat="43.47021" lon="6.12707">
        <ele>149.4</ele>
        <time>2025-02-16T10:23:25.000Z</time>
      </trkpt>
      <trkpt lat="43.47021" lon="6.12707">
        <ele>149.4</ele>
        <time>2025-02-16T10:23:26.000Z</time>
      </trkpt>
      <trkpt lat="43.47021" lon="6.12707">
        <ele>149.4</ele>
        <time>2025-02-16T10:23:27.000Z</time>
      </trkpt>
      <trkpt lat="43.47021" lon="6.12707">
        <ele>149.4</ele>
        <time>2025-02-16T10:23:28.000Z</time>
      </trkpt>
      <trkpt lat="43.47021" lon="6.12707">
        <ele>149.4</ele>
        <time>2025-02-16T10:23:29.000Z</time>
      </trkpt>
      <trkpt lat="43.47021" lon="6.12707">
        <ele>149.4</ele>
        <time>2025-02-16T10:23:30.000Z</time>
      </trkpt>
      <trkpt lat="43.47022" lon="6.12706">
        <ele>149.4</ele>
        <time>2025-02-16T10:23:31.000Z</time>
      </trkpt>
      <trkpt lat="43.47031" lon="6.12705">
        <ele>149.4</ele>
        <time>2025-02-16T10:23:41.000Z</time>
      </trkpt>
      <trkpt lat="43.47041" lon="6.12704">
        <ele>149.3</ele>
        <time>2025-02-16T10:23:50.000Z</time>
      </trkpt>
      <trkpt lat="43.4705" lon="6.12705">
        <ele>149.3</ele>
        <time>2025-02-16T10:23:58.000Z</time>
      </trkpt>
      <trkpt lat="43.4706" lon="6.12705">
        <ele>149.3</ele>
        <time>2025-02-16T10:24:07.000Z</time>
      </trkpt>
      <trkpt lat="43.47069" lon="6.12704">
        <ele>149.4</ele>
        <time>2025-02-16T10:24:15.000Z</time>
      </trkpt>
      <trkpt lat="43.47078" lon="6.12701">
        <ele>149.4</ele>
        <time>2025-02-16T10:24:24.000Z</time>
      </trkpt>
      <trkpt lat="43.47088" lon="6.12701">
        <ele>149.4</ele>
        <time>2025-02-16T10:24:33.000Z</time>
      </trkpt>
      <trkpt lat="43.47097" lon="6.12703">
        <ele>149.4</ele>
        <time>2025-02-16T10:24:41.000Z</time>
      </trkpt>
      <trkpt lat="43.47107" lon="6.12704">
        <ele>149.5</ele>
        <time>2025-02-16T10:24:50.000Z</time>
      </trkpt>
      <trkpt lat="43.47116" lon="6.12701">
        <ele>149.5</ele>
        <time>2025-02-16T10:24:58.000Z</time>
      </trkpt>
      <trkpt lat="43.47125" lon="6.12701">
        <ele>149.5</ele>
        <time>2025-02-16T10:25:07.000Z</time>
      </trkpt>
      <trkpt lat="43.47135" lon="6.12698">
        <ele>149.6</ele>
        <time>2025-02-16T10:25:16.000Z</time>
      </trkpt>
      <trkpt lat="43.47145" lon="6.12698">
        <ele>149.6</ele>
        <time>2025-02-16T10:25:24.000Z</time>
      </trkpt>
      <trkpt lat="43.47155" lon="6.12698">
        <ele>149.6</ele>
        <time>2025-02-16T10:25:34.000Z</time>
      </trkpt>
      <trkpt lat="43.47165" lon="6.12697">
        <ele>149.7</ele>
        <time>2025-02-16T10:25:43.000Z</time>
      </trkpt>
      <trkpt lat="43.47174" lon="6.12697">
        <ele>149.7</ele>
        <time>2025-02-16T10:25:53.000Z</time>
      </trkpt>
      <trkpt lat="43.47184" lon="6.12697">
        <ele>149.7</ele>
        <time>2025-02-16T10:26:01.000Z</time>
      </trkpt>
      <trkpt lat="43.47193" lon="6.12698">
        <ele>149.7</ele>
        <time>2025-02-16T10:26:10.000Z</time>
      </trkpt>
      <trkpt lat="43.47199" lon="6.12688">
        <ele>149.8</ele>
        <time>2025-02-16T10:26:18.000Z</time>
      </trkpt>
      <trkpt lat="43.47198" lon="6.12674">
        <ele>150</ele>
        <time>2025-02-16T10:26:26.000Z</time>
      </trkpt>
      <trkpt lat="43.472" lon="6.12661">
        <ele>150.1</ele>
        <time>2025-02-16T10:26:34.000Z</time>
      </trkpt>
      <trkpt lat="43.47202" lon="6.12648">
        <ele>150.3</ele>
        <time>2025-02-16T10:26:43.000Z</time>
      </trkpt>
      <trkpt lat="43.47202" lon="6.12635">
        <ele>150.5</ele>
        <time>2025-02-16T10:26:52.000Z</time>
      </trkpt>
      <trkpt lat="43.47207" lon="6.12623">
        <ele>150.6</ele>
        <time>2025-02-16T10:27:01.000Z</time>
      </trkpt>
      <trkpt lat="43.47214" lon="6.12614">
        <ele>150.7</ele>
        <time>2025-02-16T10:27:10.000Z</time>
      </trkpt>
      <trkpt lat="43.4722" lon="6.12604">
        <ele>150.8</ele>
        <time>2025-02-16T10:27:19.000Z</time>
      </trkpt>
      <trkpt lat="43.47226" lon="6.12593">
        <ele>150.9</ele>
        <time>2025-02-16T10:27:29.000Z</time>
      </trkpt>
      <trkpt lat="43.47231" lon="6.12582">
        <ele>150.9</ele>
        <time>2025-02-16T10:27:38.000Z</time>
      </trkpt>
      <trkpt lat="43.47233" lon="6.12568">
        <ele>151</ele>
        <time>2025-02-16T10:27:47.000Z</time>
      </trkpt>
      <trkpt lat="43.47237" lon="6.12556">
        <ele>151</ele>
        <time>2025-02-16T10:28:04.000Z</time>
      </trkpt>
      <trkpt lat="43.47236" lon="6.12549">
        <ele>151.2</ele>
        <time>2025-02-16T10:28:13.000Z</time>
      </trkpt>
      <trkpt lat="43.47236" lon="6.12549">
        <ele>151.2</ele>
        <time>2025-02-16T10:28:14.000Z</time>
      </trkpt>
      <trkpt lat="43.47236" lon="6.12549">
        <ele>151.2</ele>
        <time>2025-02-16T10:28:15.000Z</time>
      </trkpt>
      <trkpt lat="43.47236" lon="6.12549">
        <ele>151.2</ele>
        <time>2025-02-16T10:28:16.000Z</time>
      </trkpt>
      <trkpt lat="43.47237" lon="6.12548">
        <ele>151.3</ele>
        <time>2025-02-16T10:28:17.000Z</time>
      </trkpt>
      <trkpt lat="43.47244" lon="6.12543">
        <ele>151.4</ele>
        <time>2025-02-16T10:28:30.000Z</time>
      </trkpt>
      <trkpt lat="43.47243" lon="6.12542">
        <ele>151.4</ele>
        <time>2025-02-16T10:28:31.000Z</time>
      </trkpt>
      <trkpt lat="43.47243" lon="6.12542">
        <ele>151.4</ele>
        <time>2025-02-16T10:28:32.000Z</time>
      </trkpt>
      <trkpt lat="43.47243" lon="6.12541">
        <ele>151.5</ele>
        <time>2025-02-16T10:28:33.000Z</time>
      </trkpt>
      <trkpt lat="43.47244" lon="6.1254">
        <ele>151.5</ele>
        <time>2025-02-16T10:28:34.000Z</time>
      </trkpt>
      <trkpt lat="43.47243" lon="6.12535">
        <ele>151.5</ele>
        <time>2025-02-16T10:28:50.000Z</time>
      </trkpt>
      <trkpt lat="43.47243" lon="6.12535">
        <ele>151.5</ele>
        <time>2025-02-16T10:28:51.000Z</time>
      </trkpt>
      <trkpt lat="43.47242" lon="6.12535">
        <ele>151.5</ele>
        <time>2025-02-16T10:28:52.000Z</time>
      </trkpt>
      <trkpt lat="43.47242" lon="6.12535">
        <ele>151.5</ele>
        <time>2025-02-16T10:28:53.000Z</time>
      </trkpt>
      <trkpt lat="43.47242" lon="6.12534">
        <ele>151.5</ele>
        <time>2025-02-16T10:28:54.000Z</time>
      </trkpt>
      <trkpt lat="43.47242" lon="6.12533">
        <ele>151.6</ele>
        <time>2025-02-16T10:28:55.000Z</time>
      </trkpt>
      <trkpt lat="43.47241" lon="6.12519">
        <ele>151.6</ele>
        <time>2025-02-16T10:29:10.000Z</time>
      </trkpt>
      <trkpt lat="43.47241" lon="6.12509">
        <ele>151.5</ele>
        <time>2025-02-16T10:29:23.000Z</time>
      </trkpt>
      <trkpt lat="43.47241" lon="6.12509">
        <ele>151.5</ele>
        <time>2025-02-16T10:29:24.000Z</time>
      </trkpt>
      <trkpt lat="43.47241" lon="6.12509">
        <ele>151.5</ele>
        <time>2025-02-16T10:29:28.000Z</time>
      </trkpt>
      <trkpt lat="43.47241" lon="6.12508">
        <ele>151.5</ele>
        <time>2025-02-16T10:29:29.000Z</time>
      </trkpt>
      <trkpt lat="43.47241" lon="6.12495">
        <ele>151.5</ele>
        <time>2025-02-16T10:29:36.000Z</time>
      </trkpt>
      <trkpt lat="43.47241" lon="6.12482">
        <ele>151.5</ele>
        <time>2025-02-16T10:29:44.000Z</time>
      </trkpt>
      <trkpt lat="43.47243" lon="6.12469">
        <ele>151.5</ele>
        <time>2025-02-16T10:29:52.000Z</time>
      </trkpt>
      <trkpt lat="43.47244" lon="6.12456">
        <ele>151.5</ele>
        <time>2025-02-16T10:30:01.000Z</time>
      </trkpt>
      <trkpt lat="43.47243" lon="6.12443">
        <ele>151.5</ele>
        <time>2025-02-16T10:30:09.000Z</time>
      </trkpt>
      <trkpt lat="43.47244" lon="6.1243">
        <ele>151.5</ele>
        <time>2025-02-16T10:30:17.000Z</time>
      </trkpt>
      <trkpt lat="43.47246" lon="6.12417">
        <ele>151.6</ele>
        <time>2025-02-16T10:30:26.000Z</time>
      </trkpt>
      <trkpt lat="43.47244" lon="6.12405">
        <ele>151.6</ele>
        <time>2025-02-16T10:30:35.000Z</time>
      </trkpt>
      <trkpt lat="43.47247" lon="6.12391">
        <ele>151.7</ele>
        <time>2025-02-16T10:30:44.000Z</time>
      </trkpt>
      <trkpt lat="43.47248" lon="6.12379">
        <ele>151.8</ele>
        <time>2025-02-16T10:30:54.000Z</time>
      </trkpt>
      <trkpt lat="43.47253" lon="6.12366">
        <ele>152</ele>
        <time>2025-02-16T10:31:07.000Z</time>
      </trkpt>
      <trkpt lat="43.47255" lon="6.12359">
        <ele>152.2</ele>
        <time>2025-02-16T10:31:16.000Z</time>
      </trkpt>
      <trkpt lat="43.47255" lon="6.12359">
        <ele>152.2</ele>
        <time>2025-02-16T10:31:17.000Z</time>
      </trkpt>
      <trkpt lat="43.47253" lon="6.12357">
        <ele>152.3</ele>
        <time>2025-02-16T10:31:20.000Z</time>
      </trkpt>
      <trkpt lat="43.47253" lon="6.12356">
        <ele>152.3</ele>
        <time>2025-02-16T10:31:21.000Z</time>
      </trkpt>
      <trkpt lat="43.47253" lon="6.12355">
        <ele>152.3</ele>
        <time>2025-02-16T10:31:22.000Z</time>
      </trkpt>
      <trkpt lat="43.47253" lon="6.12355">
        <ele>152.3</ele>
        <time>2025-02-16T10:31:26.000Z</time>
      </trkpt>
      <trkpt lat="43.47253" lon="6.12355">
        <ele>152.4</ele>
        <time>2025-02-16T10:31:27.000Z</time>
      </trkpt>
      <trkpt lat="43.47254" lon="6.12355">
        <ele>152.4</ele>
        <time>2025-02-16T10:31:30.000Z</time>
      </trkpt>
      <trkpt lat="43.47253" lon="6.12354">
        <ele>152.4</ele>
        <time>2025-02-16T10:31:31.000Z</time>
      </trkpt>
      <trkpt lat="43.47248" lon="6.12353">
        <ele>152.5</ele>
        <time>2025-02-16T10:31:47.000Z</time>
      </trkpt>
      <trkpt lat="43.47248" lon="6.12353">
        <ele>152.6</ele>
        <time>2025-02-16T10:31:48.000Z</time>
      </trkpt>
      <trkpt lat="43.47248" lon="6.12353">
        <ele>152.6</ele>
        <time>2025-02-16T10:31:49.000Z</time>
      </trkpt>
      <trkpt lat="43.47246" lon="6.12352">
        <ele>152.7</ele>
        <time>2025-02-16T10:31:58.000Z</time>
      </trkpt>
      <trkpt lat="43.47246" lon="6.12351">
        <ele>152.7</ele>
        <time>2025-02-16T10:31:59.000Z</time>
      </trkpt>
      <trkpt lat="43.47248" lon="6.12347">
        <ele>152.8</ele>
        <time>2025-02-16T10:32:02.000Z</time>
      </trkpt>
      <trkpt lat="43.47249" lon="6.12347">
        <ele>152.8</ele>
        <time>2025-02-16T10:32:03.000Z</time>
      </trkpt>
      <trkpt lat="43.47249" lon="6.12347">
        <ele>152.8</ele>
        <time>2025-02-16T10:32:04.000Z</time>
      </trkpt>
      <trkpt lat="43.4725" lon="6.12346">
        <ele>152.8</ele>
        <time>2025-02-16T10:32:10.000Z</time>
      </trkpt>
      <trkpt lat="43.4725" lon="6.12345">
        <ele>152.8</ele>
        <time>2025-02-16T10:32:11.000Z</time>
      </trkpt>
      <trkpt lat="43.47252" lon="6.12341">
        <ele>151.3</ele>
        <time>2025-02-16T10:32:30.000Z</time>
      </trkpt>
      <trkpt lat="43.47252" lon="6.12341">
        <ele>151.6</ele>
        <time>2025-02-16T10:32:31.000Z</time>
      </trkpt>
      <trkpt lat="43.47251" lon="6.12347">
        <ele>153.2</ele>
        <time>2025-02-16T10:33:05.000Z</time>
      </trkpt>
      <trkpt lat="43.47251" lon="6.12347">
        <ele>153.2</ele>
        <time>2025-02-16T10:33:06.000Z</time>
      </trkpt>
      <trkpt lat="43.47248" lon="6.12344">
        <ele>153.1</ele>
        <time>2025-02-16T10:33:12.000Z</time>
      </trkpt>
      <trkpt lat="43.47248" lon="6.12344">
        <ele>153.1</ele>
        <time>2025-02-16T10:33:13.000Z</time>
      </trkpt>
      <trkpt lat="43.47247" lon="6.12345">
        <ele>153.1</ele>
        <time>2025-02-16T10:33:14.000Z</time>
      </trkpt>
      <trkpt lat="43.47247" lon="6.12344">
        <ele>153.1</ele>
        <time>2025-02-16T10:33:15.000Z</time>
      </trkpt>
      <trkpt lat="43.47247" lon="6.12344">
        <ele>153.1</ele>
        <time>2025-02-16T10:33:16.000Z</time>
      </trkpt>
      <trkpt lat="43.47245" lon="6.1233">
        <ele>153.1</ele>
        <time>2025-02-16T10:33:26.000Z</time>
      </trkpt>
      <trkpt lat="43.47247" lon="6.12316">
        <ele>153.1</ele>
        <time>2025-02-16T10:33:33.000Z</time>
      </trkpt>
      <trkpt lat="43.47252" lon="6.12305">
        <ele>153.1</ele>
        <time>2025-02-16T10:33:39.000Z</time>
      </trkpt>
      <trkpt lat="43.47251" lon="6.12295">
        <ele>153.1</ele>
        <time>2025-02-16T10:33:47.000Z</time>
      </trkpt>
      <trkpt lat="43.47251" lon="6.12295">
        <ele>153.1</ele>
        <time>2025-02-16T10:33:48.000Z</time>
      </trkpt>
      <trkpt lat="43.47251" lon="6.12295">
        <ele>153.1</ele>
        <time>2025-02-16T10:33:49.000Z</time>
      </trkpt>
      <trkpt lat="43.47251" lon="6.12296">
        <ele>153.2</ele>
        <time>2025-02-16T10:33:52.000Z</time>
      </trkpt>
      <trkpt lat="43.47251" lon="6.12295">
        <ele>153.2</ele>
        <time>2025-02-16T10:33:53.000Z</time>
      </trkpt>
      <trkpt lat="43.47251" lon="6.12295">
        <ele>153.2</ele>
        <time>2025-02-16T10:33:54.000Z</time>
      </trkpt>
      <trkpt lat="43.47251" lon="6.12295">
        <ele>153.2</ele>
        <time>2025-02-16T10:33:55.000Z</time>
      </trkpt>
      <trkpt lat="43.47251" lon="6.12295">
        <ele>153.2</ele>
        <time>2025-02-16T10:33:56.000Z</time>
      </trkpt>
      <trkpt lat="43.47251" lon="6.12295">
        <ele>153.2</ele>
        <time>2025-02-16T10:33:57.000Z</time>
      </trkpt>
      <trkpt lat="43.47252" lon="6.12295">
        <ele>153.2</ele>
        <time>2025-02-16T10:34:05.000Z</time>
      </trkpt>
      <trkpt lat="43.47253" lon="6.12296">
        <ele>153.2</ele>
        <time>2025-02-16T10:34:06.000Z</time>
      </trkpt>
      <trkpt lat="43.47259" lon="6.12296">
        <ele>153.2</ele>
        <time>2025-02-16T10:34:13.000Z</time>
      </trkpt>
      <trkpt lat="43.47259" lon="6.12296">
        <ele>153.2</ele>
        <time>2025-02-16T10:34:14.000Z</time>
      </trkpt>
      <trkpt lat="43.47259" lon="6.12295">
        <ele>153.2</ele>
        <time>2025-02-16T10:34:15.000Z</time>
      </trkpt>
      <trkpt lat="43.47259" lon="6.12295">
        <ele>153.2</ele>
        <time>2025-02-16T10:34:16.000Z</time>
      </trkpt>
      <trkpt lat="43.47255" lon="6.12283">
        <ele>153.6</ele>
        <time>2025-02-16T10:34:33.000Z</time>
      </trkpt>
      <trkpt lat="43.47257" lon="6.12274">
        <ele>153.8</ele>
        <time>2025-02-16T10:34:48.000Z</time>
      </trkpt>
      <trkpt lat="43.47257" lon="6.12274">
        <ele>153.8</ele>
        <time>2025-02-16T10:34:49.000Z</time>
      </trkpt>
      <trkpt lat="43.47256" lon="6.12272">
        <ele>153.7</ele>
        <time>2025-02-16T10:34:56.000Z</time>
      </trkpt>
      <trkpt lat="43.47256" lon="6.12272">
        <ele>153.8</ele>
        <time>2025-02-16T10:34:57.000Z</time>
      </trkpt>
      <trkpt lat="43.47254" lon="6.12273">
        <ele>153.9</ele>
        <time>2025-02-16T10:35:08.000Z</time>
      </trkpt>
      <trkpt lat="43.47254" lon="6.12272">
        <ele>153.9</ele>
        <time>2025-02-16T10:35:09.000Z</time>
      </trkpt>
      <trkpt lat="43.47254" lon="6.12271">
        <ele>153.9</ele>
        <time>2025-02-16T10:35:10.000Z</time>
      </trkpt>
      <trkpt lat="43.47254" lon="6.1227">
        <ele>153.9</ele>
        <time>2025-02-16T10:35:11.000Z</time>
      </trkpt>
      <trkpt lat="43.47254" lon="6.1227">
        <ele>153.9</ele>
        <time>2025-02-16T10:35:12.000Z</time>
      </trkpt>
      <trkpt lat="43.47254" lon="6.12269">
        <ele>154</ele>
        <time>2025-02-16T10:35:17.000Z</time>
      </trkpt>
      <trkpt lat="43.47254" lon="6.12269">
        <ele>154</ele>
        <time>2025-02-16T10:35:18.000Z</time>
      </trkpt>
      <trkpt lat="43.47254" lon="6.12269">
        <ele>154</ele>
        <time>2025-02-16T10:35:19.000Z</time>
      </trkpt>
      <trkpt lat="43.47253" lon="6.12269">
        <ele>154</ele>
        <time>2025-02-16T10:35:25.000Z</time>
      </trkpt>
      <trkpt lat="43.47253" lon="6.12269">
        <ele>154</ele>
        <time>2025-02-16T10:35:26.000Z</time>
      </trkpt>
      <trkpt lat="43.47253" lon="6.12269">
        <ele>154</ele>
        <time>2025-02-16T10:35:27.000Z</time>
      </trkpt>
      <trkpt lat="43.47253" lon="6.12269">
        <ele>154</ele>
        <time>2025-02-16T10:35:28.000Z</time>
      </trkpt>
      <trkpt lat="43.47253" lon="6.12269">
        <ele>154</ele>
        <time>2025-02-16T10:35:29.000Z</time>
      </trkpt>
      <trkpt lat="43.47253" lon="6.12269">
        <ele>154</ele>
        <time>2025-02-16T10:35:30.000Z</time>
      </trkpt>
      <trkpt lat="43.47252" lon="6.12268">
        <ele>153.9</ele>
        <time>2025-02-16T10:35:33.000Z</time>
      </trkpt>
      <trkpt lat="43.47252" lon="6.12267">
        <ele>153.8</ele>
        <time>2025-02-16T10:35:34.000Z</time>
      </trkpt>
      <trkpt lat="43.4725" lon="6.12266">
        <ele>154</ele>
        <time>2025-02-16T10:35:43.000Z</time>
      </trkpt>
      <trkpt lat="43.4725" lon="6.12266">
        <ele>154.1</ele>
        <time>2025-02-16T10:35:44.000Z</time>
      </trkpt>
      <trkpt lat="43.4725" lon="6.12266">
        <ele>154.1</ele>
        <time>2025-02-16T10:36:00.000Z</time>
      </trkpt>
      <trkpt lat="43.4725" lon="6.12265">
        <ele>154.1</ele>
        <time>2025-02-16T10:36:01.000Z</time>
      </trkpt>
      <trkpt lat="43.4725" lon="6.12265">
        <ele>154.1</ele>
        <time>2025-02-16T10:36:02.000Z</time>
      </trkpt>
      <trkpt lat="43.4725" lon="6.12265">
        <ele>154.1</ele>
        <time>2025-02-16T10:36:03.000Z</time>
      </trkpt>
      <trkpt lat="43.4725" lon="6.12265">
        <ele>154.1</ele>
        <time>2025-02-16T10:36:04.000Z</time>
      </trkpt>
      <trkpt lat="43.4725" lon="6.12265">
        <ele>154.1</ele>
        <time>2025-02-16T10:36:08.000Z</time>
      </trkpt>
      <trkpt lat="43.4725" lon="6.12265">
        <ele>154.1</ele>
        <time>2025-02-16T10:36:09.000Z</time>
      </trkpt>
      <trkpt lat="43.4725" lon="6.12264">
        <ele>154.1</ele>
        <time>2025-02-16T10:36:10.000Z</time>
      </trkpt>
      <trkpt lat="43.47251" lon="6.12265">
        <ele>154.1</ele>
        <time>2025-02-16T10:36:13.000Z</time>
      </trkpt>
      <trkpt lat="43.4725" lon="6.12265">
        <ele>154.1</ele>
        <time>2025-02-16T10:36:14.000Z</time>
      </trkpt>
      <trkpt lat="43.4725" lon="6.12264">
        <ele>154.1</ele>
        <time>2025-02-16T10:36:15.000Z</time>
      </trkpt>
      <trkpt lat="43.4725" lon="6.12263">
        <ele>154.2</ele>
        <time>2025-02-16T10:36:16.000Z</time>
      </trkpt>
      <trkpt lat="43.47258" lon="6.12255">
        <ele>154.2</ele>
        <time>2025-02-16T10:36:25.000Z</time>
      </trkpt>
      <trkpt lat="43.47267" lon="6.12252">
        <ele>154.3</ele>
        <time>2025-02-16T10:36:37.000Z</time>
      </trkpt>
      <trkpt lat="43.47273" lon="6.12241">
        <ele>154.5</ele>
        <time>2025-02-16T10:36:45.000Z</time>
      </trkpt>
      <trkpt lat="43.47282" lon="6.12235">
        <ele>154.7</ele>
        <time>2025-02-16T10:36:52.000Z</time>
      </trkpt>
      <trkpt lat="43.47291" lon="6.1223">
        <ele>154.9</ele>
        <time>2025-02-16T10:37:01.000Z</time>
      </trkpt>
      <trkpt lat="43.47302" lon="6.12231">
        <ele>155.2</ele>
        <time>2025-02-16T10:37:13.000Z</time>
      </trkpt>
      <trkpt lat="43.47312" lon="6.12228">
        <ele>155.4</ele>
        <time>2025-02-16T10:37:22.000Z</time>
      </trkpt>
      <trkpt lat="43.4732" lon="6.1222">
        <ele>155.8</ele>
        <time>2025-02-16T10:37:35.000Z</time>
      </trkpt>
      <trkpt lat="43.47327" lon="6.12212">
        <ele>155.9</ele>
        <time>2025-02-16T10:37:42.000Z</time>
      </trkpt>
      <trkpt lat="43.47335" lon="6.12205">
        <ele>156.2</ele>
        <time>2025-02-16T10:37:52.000Z</time>
      </trkpt>
      <trkpt lat="43.4734" lon="6.12201">
        <ele>156.5</ele>
        <time>2025-02-16T10:38:01.000Z</time>
      </trkpt>
      <trkpt lat="43.4734" lon="6.12201">
        <ele>156.5</ele>
        <time>2025-02-16T10:38:02.000Z</time>
      </trkpt>
      <trkpt lat="43.47341" lon="6.12201">
        <ele>156.7</ele>
        <time>2025-02-16T10:38:10.000Z</time>
      </trkpt>
      <trkpt lat="43.47341" lon="6.122">
        <ele>156.7</ele>
        <time>2025-02-16T10:38:11.000Z</time>
      </trkpt>
      <trkpt lat="43.47349" lon="6.12195">
        <ele>156.9</ele>
        <time>2025-02-16T10:38:26.000Z</time>
      </trkpt>
      <trkpt lat="43.47349" lon="6.12195">
        <ele>156.9</ele>
        <time>2025-02-16T10:38:27.000Z</time>
      </trkpt>
      <trkpt lat="43.47351" lon="6.122">
        <ele>156.9</ele>
        <time>2025-02-16T10:38:31.000Z</time>
      </trkpt>
      <trkpt lat="43.47351" lon="6.12203">
        <ele>156.9</ele>
        <time>2025-02-16T10:38:32.000Z</time>
      </trkpt>
      <trkpt lat="43.47362" lon="6.12207">
        <ele>157.1</ele>
        <time>2025-02-16T10:38:46.000Z</time>
      </trkpt>
      <trkpt lat="43.4737" lon="6.12202">
        <ele>157.2</ele>
        <time>2025-02-16T10:38:58.000Z</time>
      </trkpt>
      <trkpt lat="43.47379" lon="6.12199">
        <ele>157.5</ele>
        <time>2025-02-16T10:39:08.000Z</time>
      </trkpt>
      <trkpt lat="43.47389" lon="6.12197">
        <ele>157.8</ele>
        <time>2025-02-16T10:39:17.000Z</time>
      </trkpt>
      <trkpt lat="43.47398" lon="6.12194">
        <ele>158</ele>
        <time>2025-02-16T10:39:26.000Z</time>
      </trkpt>
      <trkpt lat="43.47404" lon="6.12189">
        <ele>158.3</ele>
        <time>2025-02-16T10:39:40.000Z</time>
      </trkpt>
      <trkpt lat="43.47404" lon="6.12189">
        <ele>158.4</ele>
        <time>2025-02-16T10:39:41.000Z</time>
      </trkpt>
      <trkpt lat="43.47405" lon="6.1219">
        <ele>158.4</ele>
        <time>2025-02-16T10:39:50.000Z</time>
      </trkpt>
      <trkpt lat="43.47405" lon="6.1219">
        <ele>158.5</ele>
        <time>2025-02-16T10:39:51.000Z</time>
      </trkpt>
      <trkpt lat="43.47402" lon="6.12178">
        <ele>158.6</ele>
        <time>2025-02-16T10:40:11.000Z</time>
      </trkpt>
      <trkpt lat="43.47408" lon="6.12168">
        <ele>158.6</ele>
        <time>2025-02-16T10:40:16.000Z</time>
      </trkpt>
      <trkpt lat="43.474" lon="6.12161">
        <ele>158.6</ele>
        <time>2025-02-16T10:40:24.000Z</time>
      </trkpt>
      <trkpt lat="43.47396" lon="6.12155">
        <ele>158.5</ele>
        <time>2025-02-16T10:40:35.000Z</time>
      </trkpt>
      <trkpt lat="43.47396" lon="6.12155">
        <ele>158.5</ele>
        <time>2025-02-16T10:40:36.000Z</time>
      </trkpt>
      <trkpt lat="43.47396" lon="6.12155">
        <ele>158.5</ele>
        <time>2025-02-16T10:40:37.000Z</time>
      </trkpt>
      <trkpt lat="43.47395" lon="6.12154">
        <ele>158.5</ele>
        <time>2025-02-16T10:40:38.000Z</time>
      </trkpt>
      <trkpt lat="43.47396" lon="6.12153">
        <ele>158.5</ele>
        <time>2025-02-16T10:40:39.000Z</time>
      </trkpt>
      <trkpt lat="43.47401" lon="6.12143">
        <ele>158.9</ele>
        <time>2025-02-16T10:41:00.000Z</time>
      </trkpt>
      <trkpt lat="43.4741" lon="6.1214">
        <ele>160</ele>
        <time>2025-02-16T10:41:11.000Z</time>
      </trkpt>
      <trkpt lat="43.47414" lon="6.12152">
        <ele>165</ele>
        <time>2025-02-16T10:41:42.000Z</time>
      </trkpt>
      <trkpt lat="43.47411" lon="6.12157">
        <ele>166.3</ele>
        <time>2025-02-16T10:41:58.000Z</time>
      </trkpt>
      <trkpt lat="43.4741" lon="6.12158">
        <ele>166.4</ele>
        <time>2025-02-16T10:41:59.000Z</time>
      </trkpt>
      <trkpt lat="43.47414" lon="6.1216">
        <ele>166.8</ele>
        <time>2025-02-16T10:43:50.000Z</time>
      </trkpt>
      <trkpt lat="43.47414" lon="6.1216">
        <ele>166.8</ele>
        <time>2025-02-16T10:43:51.000Z</time>
      </trkpt>
      <trkpt lat="43.47413" lon="6.12163">
        <ele>166.9</ele>
        <time>2025-02-16T10:43:57.000Z</time>
      </trkpt>
      <trkpt lat="43.47414" lon="6.12162">
        <ele>166.9</ele>
        <time>2025-02-16T10:43:58.000Z</time>
      </trkpt>
      <trkpt lat="43.47415" lon="6.12162">
        <ele>166.9</ele>
        <time>2025-02-16T10:43:59.000Z</time>
      </trkpt>
      <trkpt lat="43.47415" lon="6.12162">
        <ele>166.9</ele>
        <time>2025-02-16T10:44:00.000Z</time>
      </trkpt>
      <trkpt lat="43.47414" lon="6.12163">
        <ele>166.9</ele>
        <time>2025-02-16T10:44:01.000Z</time>
      </trkpt>
      <trkpt lat="43.47414" lon="6.12163">
        <ele>166.9</ele>
        <time>2025-02-16T10:44:02.000Z</time>
      </trkpt>
      <trkpt lat="43.47414" lon="6.12163">
        <ele>167</ele>
        <time>2025-02-16T10:44:03.000Z</time>
      </trkpt>
      <trkpt lat="43.47414" lon="6.12163">
        <ele>167</ele>
        <time>2025-02-16T10:44:04.000Z</time>
      </trkpt>
      <trkpt lat="43.47415" lon="6.12161">
        <ele>167</ele>
        <time>2025-02-16T10:44:30.000Z</time>
      </trkpt>
      <trkpt lat="43.47415" lon="6.12161">
        <ele>167.1</ele>
        <time>2025-02-16T10:44:31.000Z</time>
      </trkpt>
      <trkpt lat="43.47415" lon="6.12161">
        <ele>167.1</ele>
        <time>2025-02-16T10:44:32.000Z</time>
      </trkpt>
      <trkpt lat="43.47421" lon="6.12151">
        <ele>167.9</ele>
        <time>2025-02-16T10:45:05.000Z</time>
      </trkpt>
      <trkpt lat="43.47424" lon="6.12144">
        <ele>170.6</ele>
        <time>2025-02-16T10:45:21.000Z</time>
      </trkpt>
      <trkpt lat="43.47424" lon="6.12144">
        <ele>170.7</ele>
        <time>2025-02-16T10:45:22.000Z</time>
      </trkpt>
      <trkpt lat="43.47423" lon="6.12144">
        <ele>171</ele>
        <time>2025-02-16T10:45:27.000Z</time>
      </trkpt>
      <trkpt lat="43.47422" lon="6.12143">
        <ele>171</ele>
        <time>2025-02-16T10:45:28.000Z</time>
      </trkpt>
      <trkpt lat="43.47421" lon="6.12143">
        <ele>171.1</ele>
        <time>2025-02-16T10:45:29.000Z</time>
      </trkpt>
      <trkpt lat="43.47418" lon="6.12141">
        <ele>171.3</ele>
        <time>2025-02-16T10:45:38.000Z</time>
      </trkpt>
      <trkpt lat="43.47418" lon="6.12141">
        <ele>171.4</ele>
        <time>2025-02-16T10:45:39.000Z</time>
      </trkpt>
      <trkpt lat="43.47417" lon="6.12141">
        <ele>171.4</ele>
        <time>2025-02-16T10:45:40.000Z</time>
      </trkpt>
      <trkpt lat="43.47417" lon="6.12141">
        <ele>171.4</ele>
        <time>2025-02-16T10:45:41.000Z</time>
      </trkpt>
      <trkpt lat="43.47413" lon="6.12141">
        <ele>171.5</ele>
        <time>2025-02-16T10:45:50.000Z</time>
      </trkpt>
      <trkpt lat="43.47413" lon="6.12141">
        <ele>171.5</ele>
        <time>2025-02-16T10:45:51.000Z</time>
      </trkpt>
      <trkpt lat="43.47413" lon="6.12141">
        <ele>171.5</ele>
        <time>2025-02-16T10:45:52.000Z</time>
      </trkpt>
      <trkpt lat="43.47413" lon="6.12141">
        <ele>171.5</ele>
        <time>2025-02-16T10:45:53.000Z</time>
      </trkpt>
      <trkpt lat="43.47413" lon="6.12141">
        <ele>171.5</ele>
        <time>2025-02-16T10:45:54.000Z</time>
      </trkpt>
      <trkpt lat="43.47413" lon="6.12141">
        <ele>171.5</ele>
        <time>2025-02-16T10:45:55.000Z</time>
      </trkpt>
      <trkpt lat="43.47413" lon="6.12141">
        <ele>171.5</ele>
        <time>2025-02-16T10:45:56.000Z</time>
      </trkpt>
      <trkpt lat="43.47413" lon="6.12141">
        <ele>171.6</ele>
        <time>2025-02-16T10:46:00.000Z</time>
      </trkpt>
      <trkpt lat="43.47414" lon="6.12142">
        <ele>171.6</ele>
        <time>2025-02-16T10:46:01.000Z</time>
      </trkpt>
      <trkpt lat="43.47414" lon="6.12142">
        <ele>171.6</ele>
        <time>2025-02-16T10:46:05.000Z</time>
      </trkpt>
      <trkpt lat="43.47414" lon="6.12142">
        <ele>171.6</ele>
        <time>2025-02-16T10:46:06.000Z</time>
      </trkpt>
      <trkpt lat="43.47414" lon="6.12145">
        <ele>171.5</ele>
        <time>2025-02-16T10:46:28.000Z</time>
      </trkpt>
      <trkpt lat="43.47414" lon="6.12145">
        <ele>171.4</ele>
        <time>2025-02-16T10:46:29.000Z</time>
      </trkpt>
      <trkpt lat="43.47414" lon="6.12145">
        <ele>171.4</ele>
        <time>2025-02-16T10:46:30.000Z</time>
      </trkpt>
      <trkpt lat="43.47415" lon="6.12145">
        <ele>171.4</ele>
        <time>2025-02-16T10:46:31.000Z</time>
      </trkpt>
      <trkpt lat="43.47415" lon="6.12145">
        <ele>171.5</ele>
        <time>2025-02-16T10:46:32.000Z</time>
      </trkpt>
      <trkpt lat="43.47415" lon="6.12145">
        <ele>171.4</ele>
        <time>2025-02-16T10:46:38.000Z</time>
      </trkpt>
      <trkpt lat="43.47415" lon="6.12145">
        <ele>171.4</ele>
        <time>2025-02-16T10:46:39.000Z</time>
      </trkpt>
      <trkpt lat="43.47415" lon="6.12145">
        <ele>171.4</ele>
        <time>2025-02-16T10:46:40.000Z</time>
      </trkpt>
      <trkpt lat="43.47415" lon="6.12145">
        <ele>171.4</ele>
        <time>2025-02-16T10:46:41.000Z</time>
      </trkpt>
      <trkpt lat="43.47415" lon="6.12145">
        <ele>171.4</ele>
        <time>2025-02-16T10:46:42.000Z</time>
      </trkpt>
      <trkpt lat="43.47417" lon="6.12144">
        <ele>171.4</ele>
        <time>2025-02-16T10:47:42.000Z</time>
      </trkpt>
      <trkpt lat="43.47418" lon="6.12143">
        <ele>171.4</ele>
        <time>2025-02-16T10:47:43.000Z</time>
      </trkpt>
      <trkpt lat="43.47419" lon="6.12143">
        <ele>171.4</ele>
        <time>2025-02-16T10:47:44.000Z</time>
      </trkpt>
      <trkpt lat="43.47422" lon="6.12141">
        <ele>171.4</ele>
        <time>2025-02-16T10:47:52.000Z</time>
      </trkpt>
      <trkpt lat="43.47422" lon="6.12141">
        <ele>171.4</ele>
        <time>2025-02-16T10:47:53.000Z</time>
      </trkpt>
      <trkpt lat="43.47422" lon="6.12141">
        <ele>171.4</ele>
        <time>2025-02-16T10:47:54.000Z</time>
      </trkpt>
      <trkpt lat="43.47421" lon="6.1214">
        <ele>171.4</ele>
        <time>2025-02-16T10:48:00.000Z</time>
      </trkpt>
      <trkpt lat="43.47421" lon="6.1214">
        <ele>171.4</ele>
        <time>2025-02-16T10:48:01.000Z</time>
      </trkpt>
      <trkpt lat="43.47421" lon="6.12139">
        <ele>171.4</ele>
        <time>2025-02-16T10:48:02.000Z</time>
      </trkpt>
      <trkpt lat="43.4742" lon="6.12127">
        <ele>171.4</ele>
        <time>2025-02-16T10:48:25.000Z</time>
      </trkpt>
      <trkpt lat="43.47427" lon="6.12119">
        <ele>172.1</ele>
        <time>2025-02-16T10:48:42.000Z</time>
      </trkpt>
      <trkpt lat="43.47429" lon="6.12119">
        <ele>172.2</ele>
        <time>2025-02-16T10:48:43.000Z</time>
      </trkpt>
      <trkpt lat="43.47429" lon="6.12119">
        <ele>172.3</ele>
        <time>2025-02-16T10:48:44.000Z</time>
      </trkpt>
      <trkpt lat="43.47433" lon="6.12113">
        <ele>172.7</ele>
        <time>2025-02-16T10:48:52.000Z</time>
      </trkpt>
      <trkpt lat="43.47433" lon="6.12111">
        <ele>172.8</ele>
        <time>2025-02-16T10:48:53.000Z</time>
      </trkpt>
      <trkpt lat="43.47432" lon="6.1211">
        <ele>172.8</ele>
        <time>2025-02-16T10:48:54.000Z</time>
      </trkpt>
      <trkpt lat="43.47432" lon="6.12109">
        <ele>172.8</ele>
        <time>2025-02-16T10:48:55.000Z</time>
      </trkpt>
      <trkpt lat="43.47432" lon="6.12108">
        <ele>172.9</ele>
        <time>2025-02-16T10:48:56.000Z</time>
      </trkpt>
      <trkpt lat="43.47429" lon="6.12105">
        <ele>173</ele>
        <time>2025-02-16T10:49:02.000Z</time>
      </trkpt>
      <trkpt lat="43.47428" lon="6.12104">
        <ele>173</ele>
        <time>2025-02-16T10:49:03.000Z</time>
      </trkpt>
      <trkpt lat="43.47428" lon="6.12103">
        <ele>173</ele>
        <time>2025-02-16T10:49:04.000Z</time>
      </trkpt>
      <trkpt lat="43.47434" lon="6.12112">
        <ele>176.1</ele>
        <time>2025-02-16T10:49:34.000Z</time>
      </trkpt>
      <trkpt lat="43.47434" lon="6.12108">
        <ele>178.5</ele>
        <time>2025-02-16T10:49:50.000Z</time>
      </trkpt>
      <trkpt lat="43.47435" lon="6.12108">
        <ele>178.6</ele>
        <time>2025-02-16T10:49:51.000Z</time>
      </trkpt>
      <trkpt lat="43.47435" lon="6.12107">
        <ele>178.7</ele>
        <time>2025-02-16T10:49:52.000Z</time>
      </trkpt>
      <trkpt lat="43.47436" lon="6.12107">
        <ele>178.8</ele>
        <time>2025-02-16T10:49:53.000Z</time>
      </trkpt>
      <trkpt lat="43.47436" lon="6.12107">
        <ele>178.9</ele>
        <time>2025-02-16T10:49:54.000Z</time>
      </trkpt>
      <trkpt lat="43.47437" lon="6.12106">
        <ele>179.1</ele>
        <time>2025-02-16T10:50:01.000Z</time>
      </trkpt>
      <trkpt lat="43.47438" lon="6.12106">
        <ele>179.2</ele>
        <time>2025-02-16T10:50:02.000Z</time>
      </trkpt>
      <trkpt lat="43.47439" lon="6.12106">
        <ele>179.3</ele>
        <time>2025-02-16T10:50:05.000Z</time>
      </trkpt>
      <trkpt lat="43.47441" lon="6.12107">
        <ele>179.3</ele>
        <time>2025-02-16T10:50:06.000Z</time>
      </trkpt>
      <trkpt lat="43.47444" lon="6.12095">
        <ele>179.5</ele>
        <time>2025-02-16T10:50:20.000Z</time>
      </trkpt>
      <trkpt lat="43.47442" lon="6.12093">
        <ele>179.7</ele>
        <time>2025-02-16T10:50:28.000Z</time>
      </trkpt>
      <trkpt lat="43.47442" lon="6.12093">
        <ele>179.7</ele>
        <time>2025-02-16T10:50:29.000Z</time>
      </trkpt>
      <trkpt lat="43.47441" lon="6.12092">
        <ele>179.7</ele>
        <time>2025-02-16T10:50:33.000Z</time>
      </trkpt>
      <trkpt lat="43.47441" lon="6.12092">
        <ele>179.8</ele>
        <time>2025-02-16T10:50:34.000Z</time>
      </trkpt>
      <trkpt lat="43.47441" lon="6.12092">
        <ele>179.8</ele>
        <time>2025-02-16T10:50:35.000Z</time>
      </trkpt>
      <trkpt lat="43.47441" lon="6.12092">
        <ele>179.8</ele>
        <time>2025-02-16T10:50:36.000Z</time>
      </trkpt>
      <trkpt lat="43.4744" lon="6.12091">
        <ele>179.8</ele>
        <time>2025-02-16T10:50:37.000Z</time>
      </trkpt>
      <trkpt lat="43.4744" lon="6.1209">
        <ele>179.8</ele>
        <time>2025-02-16T10:50:38.000Z</time>
      </trkpt>
      <trkpt lat="43.4744" lon="6.12089">
        <ele>179.9</ele>
        <time>2025-02-16T10:50:39.000Z</time>
      </trkpt>
      <trkpt lat="43.4744" lon="6.12076">
        <ele>179.9</ele>
        <time>2025-02-16T10:50:49.000Z</time>
      </trkpt>
      <trkpt lat="43.47442" lon="6.12064">
        <ele>180</ele>
        <time>2025-02-16T10:51:00.000Z</time>
      </trkpt>
      <trkpt lat="43.4744" lon="6.12058">
        <ele>180</ele>
        <time>2025-02-16T10:51:15.000Z</time>
      </trkpt>
      <trkpt lat="43.4744" lon="6.12058">
        <ele>180</ele>
        <time>2025-02-16T10:51:16.000Z</time>
      </trkpt>
      <trkpt lat="43.47439" lon="6.12058">
        <ele>180</ele>
        <time>2025-02-16T10:51:27.000Z</time>
      </trkpt>
      <trkpt lat="43.47438" lon="6.12058">
        <ele>180</ele>
        <time>2025-02-16T10:51:28.000Z</time>
      </trkpt>
      <trkpt lat="43.47437" lon="6.12057">
        <ele>180</ele>
        <time>2025-02-16T10:51:29.000Z</time>
      </trkpt>
      <trkpt lat="43.47433" lon="6.12056">
        <ele>180</ele>
        <time>2025-02-16T10:51:37.000Z</time>
      </trkpt>
      <trkpt lat="43.47432" lon="6.12056">
        <ele>180</ele>
        <time>2025-02-16T10:51:38.000Z</time>
      </trkpt>
      <trkpt lat="43.47432" lon="6.12056">
        <ele>180</ele>
        <time>2025-02-16T10:51:39.000Z</time>
      </trkpt>
      <trkpt lat="43.47432" lon="6.12056">
        <ele>180</ele>
        <time>2025-02-16T10:51:46.000Z</time>
      </trkpt>
      <trkpt lat="43.47432" lon="6.12056">
        <ele>180</ele>
        <time>2025-02-16T10:51:47.000Z</time>
      </trkpt>
      <trkpt lat="43.47432" lon="6.12056">
        <ele>180</ele>
        <time>2025-02-16T10:51:48.000Z</time>
      </trkpt>
      <trkpt lat="43.47432" lon="6.12056">
        <ele>180</ele>
        <time>2025-02-16T10:51:49.000Z</time>
      </trkpt>
      <trkpt lat="43.47432" lon="6.12056">
        <ele>180</ele>
        <time>2025-02-16T10:51:52.000Z</time>
      </trkpt>
      <trkpt lat="43.47432" lon="6.12056">
        <ele>180</ele>
        <time>2025-02-16T10:51:53.000Z</time>
      </trkpt>
      <trkpt lat="43.47432" lon="6.12055">
        <ele>180</ele>
        <time>2025-02-16T10:51:54.000Z</time>
      </trkpt>
      <trkpt lat="43.47431" lon="6.12053">
        <ele>180</ele>
        <time>2025-02-16T10:52:02.000Z</time>
      </trkpt>
      <trkpt lat="43.47431" lon="6.12053">
        <ele>180</ele>
        <time>2025-02-16T10:52:03.000Z</time>
      </trkpt>
      <trkpt lat="43.47431" lon="6.12053">
        <ele>180</ele>
        <time>2025-02-16T10:52:04.000Z</time>
      </trkpt>
      <trkpt lat="43.47432" lon="6.12053">
        <ele>180</ele>
        <time>2025-02-16T10:52:05.000Z</time>
      </trkpt>
      <trkpt lat="43.47433" lon="6.12053">
        <ele>180</ele>
        <time>2025-02-16T10:52:06.000Z</time>
      </trkpt>
      <trkpt lat="43.47434" lon="6.12062">
        <ele>180.1</ele>
        <time>2025-02-16T10:52:18.000Z</time>
      </trkpt>
      <trkpt lat="43.47434" lon="6.12062">
        <ele>180.1</ele>
        <time>2025-02-16T10:52:19.000Z</time>
      </trkpt>
      <trkpt lat="43.47434" lon="6.12062">
        <ele>180.1</ele>
        <time>2025-02-16T10:52:20.000Z</time>
      </trkpt>
      <trkpt lat="43.47435" lon="6.12062">
        <ele>180.1</ele>
        <time>2025-02-16T10:52:26.000Z</time>
      </trkpt>
      <trkpt lat="43.47436" lon="6.12062">
        <ele>180.1</ele>
        <time>2025-02-16T10:52:27.000Z</time>
      </trkpt>
      <trkpt lat="43.47438" lon="6.12064">
        <ele>180.2</ele>
        <time>2025-02-16T10:52:33.000Z</time>
      </trkpt>
      <trkpt lat="43.47438" lon="6.12064">
        <ele>180.2</ele>
        <time>2025-02-16T10:52:34.000Z</time>
      </trkpt>
      <trkpt lat="43.47438" lon="6.12064">
        <ele>180.2</ele>
        <time>2025-02-16T10:52:35.000Z</time>
      </trkpt>
      <trkpt lat="43.47437" lon="6.12064">
        <ele>180.2</ele>
        <time>2025-02-16T10:53:00.000Z</time>
      </trkpt>
      <trkpt lat="43.47437" lon="6.12065">
        <ele>180.2</ele>
        <time>2025-02-16T10:53:01.000Z</time>
      </trkpt>
      <trkpt lat="43.47437" lon="6.12065">
        <ele>180.2</ele>
        <time>2025-02-16T10:53:02.000Z</time>
      </trkpt>
      <trkpt lat="43.47439" lon="6.12078">
        <ele>180.4</ele>
        <time>2025-02-16T10:53:19.000Z</time>
      </trkpt>
      <trkpt lat="43.47436" lon="6.12085">
        <ele>180.5</ele>
        <time>2025-02-16T10:53:48.000Z</time>
      </trkpt>
      <trkpt lat="43.47436" lon="6.12085">
        <ele>180.5</ele>
        <time>2025-02-16T10:53:49.000Z</time>
      </trkpt>
      <trkpt lat="43.47435" lon="6.12087">
        <ele>180.4</ele>
        <time>2025-02-16T10:53:52.000Z</time>
      </trkpt>
      <trkpt lat="43.47435" lon="6.12089">
        <ele>180.4</ele>
        <time>2025-02-16T10:53:53.000Z</time>
      </trkpt>
      <trkpt lat="43.47435" lon="6.1209">
        <ele>180.4</ele>
        <time>2025-02-16T10:53:54.000Z</time>
      </trkpt>
      <trkpt lat="43.47436" lon="6.12094">
        <ele>180.4</ele>
        <time>2025-02-16T10:54:00.000Z</time>
      </trkpt>
      <trkpt lat="43.47436" lon="6.12094">
        <ele>180.4</ele>
        <time>2025-02-16T10:54:01.000Z</time>
      </trkpt>
      <trkpt lat="43.47436" lon="6.12094">
        <ele>180.4</ele>
        <time>2025-02-16T10:54:02.000Z</time>
      </trkpt>
      <trkpt lat="43.47436" lon="6.12095">
        <ele>180.4</ele>
        <time>2025-02-16T10:54:06.000Z</time>
      </trkpt>
      <trkpt lat="43.47437" lon="6.12096">
        <ele>180.4</ele>
        <time>2025-02-16T10:54:07.000Z</time>
      </trkpt>
      <trkpt lat="43.47437" lon="6.12098">
        <ele>180.4</ele>
        <time>2025-02-16T10:54:15.000Z</time>
      </trkpt>
      <trkpt lat="43.47437" lon="6.12098">
        <ele>180.4</ele>
        <time>2025-02-16T10:54:16.000Z</time>
      </trkpt>
      <trkpt lat="43.47437" lon="6.12098">
        <ele>180.4</ele>
        <time>2025-02-16T10:54:17.000Z</time>
      </trkpt>
      <trkpt lat="43.47438" lon="6.12098">
        <ele>180.4</ele>
        <time>2025-02-16T10:54:30.000Z</time>
      </trkpt>
      <trkpt lat="43.47438" lon="6.12098">
        <ele>180.4</ele>
        <time>2025-02-16T10:54:31.000Z</time>
      </trkpt>
      <trkpt lat="43.47439" lon="6.12098">
        <ele>180.4</ele>
        <time>2025-02-16T10:54:32.000Z</time>
      </trkpt>
      <trkpt lat="43.47439" lon="6.12098">
        <ele>180.4</ele>
        <time>2025-02-16T10:54:33.000Z</time>
      </trkpt>
      <trkpt lat="43.47439" lon="6.12098">
        <ele>180.4</ele>
        <time>2025-02-16T10:54:34.000Z</time>
      </trkpt>
      <trkpt lat="43.47439" lon="6.12098">
        <ele>180.4</ele>
        <time>2025-02-16T10:54:35.000Z</time>
      </trkpt>
      <trkpt lat="43.47439" lon="6.12098">
        <ele>180.4</ele>
        <time>2025-02-16T10:54:36.000Z</time>
      </trkpt>
      <trkpt lat="43.47439" lon="6.12098">
        <ele>180.4</ele>
        <time>2025-02-16T10:54:37.000Z</time>
      </trkpt>
      <trkpt lat="43.47439" lon="6.12098">
        <ele>180.4</ele>
        <time>2025-02-16T10:54:38.000Z</time>
      </trkpt>
      <trkpt lat="43.47439" lon="6.12098">
        <ele>180.4</ele>
        <time>2025-02-16T10:54:39.000Z</time>
      </trkpt>
      <trkpt lat="43.47438" lon="6.12099">
        <ele>180.4</ele>
        <time>2025-02-16T10:55:13.000Z</time>
      </trkpt>
      <trkpt lat="43.47438" lon="6.12099">
        <ele>180.4</ele>
        <time>2025-02-16T10:55:14.000Z</time>
      </trkpt>
      <trkpt lat="43.47444" lon="6.1211">
        <ele>180.4</ele>
        <time>2025-02-16T10:55:26.000Z</time>
      </trkpt>
      <trkpt lat="43.47451" lon="6.12117">
        <ele>179.9</ele>
        <time>2025-02-16T10:55:38.000Z</time>
      </trkpt>
      <trkpt lat="43.4746" lon="6.12112">
        <ele>178.8</ele>
        <time>2025-02-16T10:55:47.000Z</time>
      </trkpt>
      <trkpt lat="43.47465" lon="6.12113">
        <ele>178</ele>
        <time>2025-02-16T10:55:53.000Z</time>
      </trkpt>
      <trkpt lat="43.47465" lon="6.12113">
        <ele>177.9</ele>
        <time>2025-02-16T10:55:54.000Z</time>
      </trkpt>
      <trkpt lat="43.47465" lon="6.12113">
        <ele>177.8</ele>
        <time>2025-02-16T10:55:55.000Z</time>
      </trkpt>
      <trkpt lat="43.47466" lon="6.12112">
        <ele>177.7</ele>
        <time>2025-02-16T10:55:56.000Z</time>
      </trkpt>
      <trkpt lat="43.47474" lon="6.12108">
        <ele>176.6</ele>
        <time>2025-02-16T10:56:08.000Z</time>
      </trkpt>
      <trkpt lat="43.47484" lon="6.12104">
        <ele>174.9</ele>
        <time>2025-02-16T10:56:25.000Z</time>
      </trkpt>
      <trkpt lat="43.47474" lon="6.1211">
        <ele>173.6</ele>
        <time>2025-02-16T10:56:37.000Z</time>
      </trkpt>
      <trkpt lat="43.47466" lon="6.12118">
        <ele>172.1</ele>
        <time>2025-02-16T10:56:50.000Z</time>
      </trkpt>
      <trkpt lat="43.47463" lon="6.12123">
        <ele>170.7</ele>
        <time>2025-02-16T10:57:03.000Z</time>
      </trkpt>
      <trkpt lat="43.47463" lon="6.12123">
        <ele>170.7</ele>
        <time>2025-02-16T10:57:04.000Z</time>
      </trkpt>
      <trkpt lat="43.47462" lon="6.12123">
        <ele>170.5</ele>
        <time>2025-02-16T10:57:07.000Z</time>
      </trkpt>
      <trkpt lat="43.47461" lon="6.12123">
        <ele>170.5</ele>
        <time>2025-02-16T10:57:08.000Z</time>
      </trkpt>
      <trkpt lat="43.47461" lon="6.12124">
        <ele>170.4</ele>
        <time>2025-02-16T10:57:09.000Z</time>
      </trkpt>
      <trkpt lat="43.47454" lon="6.12135">
        <ele>169.5</ele>
        <time>2025-02-16T10:57:18.000Z</time>
      </trkpt>
      <trkpt lat="43.47447" lon="6.12143">
        <ele>167.5</ele>
        <time>2025-02-16T10:57:34.000Z</time>
      </trkpt>
      <trkpt lat="43.47445" lon="6.12147">
        <ele>166.1</ele>
        <time>2025-02-16T10:57:45.000Z</time>
      </trkpt>
      <trkpt lat="43.47445" lon="6.12147">
        <ele>166</ele>
        <time>2025-02-16T10:57:46.000Z</time>
      </trkpt>
      <trkpt lat="43.47442" lon="6.12147">
        <ele>165.7</ele>
        <time>2025-02-16T10:57:53.000Z</time>
      </trkpt>
      <trkpt lat="43.47442" lon="6.12148">
        <ele>165.6</ele>
        <time>2025-02-16T10:57:54.000Z</time>
      </trkpt>
      <trkpt lat="43.47442" lon="6.12149">
        <ele>165.6</ele>
        <time>2025-02-16T10:57:55.000Z</time>
      </trkpt>
      <trkpt lat="43.47444" lon="6.12162">
        <ele>164</ele>
        <time>2025-02-16T10:58:13.000Z</time>
      </trkpt>
      <trkpt lat="43.4744" lon="6.12169">
        <ele>163</ele>
        <time>2025-02-16T10:58:28.000Z</time>
      </trkpt>
      <trkpt lat="43.4744" lon="6.12168">
        <ele>163</ele>
        <time>2025-02-16T10:58:29.000Z</time>
      </trkpt>
      <trkpt lat="43.4744" lon="6.12168">
        <ele>163</ele>
        <time>2025-02-16T10:58:30.000Z</time>
      </trkpt>
      <trkpt lat="43.4744" lon="6.12168">
        <ele>162.9</ele>
        <time>2025-02-16T10:58:35.000Z</time>
      </trkpt>
      <trkpt lat="43.47441" lon="6.12168">
        <ele>162.9</ele>
        <time>2025-02-16T10:58:36.000Z</time>
      </trkpt>
      <trkpt lat="43.47441" lon="6.12167">
        <ele>162.9</ele>
        <time>2025-02-16T10:58:37.000Z</time>
      </trkpt>
      <trkpt lat="43.47442" lon="6.12168">
        <ele>162.9</ele>
        <time>2025-02-16T10:58:40.000Z</time>
      </trkpt>
      <trkpt lat="43.47443" lon="6.12167">
        <ele>162.9</ele>
        <time>2025-02-16T10:58:41.000Z</time>
      </trkpt>
      <trkpt lat="43.47443" lon="6.12166">
        <ele>162.9</ele>
        <time>2025-02-16T10:58:42.000Z</time>
      </trkpt>
      <trkpt lat="43.47443" lon="6.12166">
        <ele>162.9</ele>
        <time>2025-02-16T10:58:43.000Z</time>
      </trkpt>
      <trkpt lat="43.47443" lon="6.12166">
        <ele>162.8</ele>
        <time>2025-02-16T10:58:44.000Z</time>
      </trkpt>
      <trkpt lat="43.47443" lon="6.12166">
        <ele>162.8</ele>
        <time>2025-02-16T10:58:45.000Z</time>
      </trkpt>
      <trkpt lat="43.47452" lon="6.1217">
        <ele>162.3</ele>
        <time>2025-02-16T10:58:57.000Z</time>
      </trkpt>
      <trkpt lat="43.47454" lon="6.1217">
        <ele>161.9</ele>
        <time>2025-02-16T10:59:02.000Z</time>
      </trkpt>
      <trkpt lat="43.47455" lon="6.1217">
        <ele>161.8</ele>
        <time>2025-02-16T10:59:03.000Z</time>
      </trkpt>
      <trkpt lat="43.47456" lon="6.1217">
        <ele>161.8</ele>
        <time>2025-02-16T10:59:04.000Z</time>
      </trkpt>
      <trkpt lat="43.47455" lon="6.1217">
        <ele>161.7</ele>
        <time>2025-02-16T10:59:05.000Z</time>
      </trkpt>
      <trkpt lat="43.47455" lon="6.12171">
        <ele>161.6</ele>
        <time>2025-02-16T10:59:06.000Z</time>
      </trkpt>
      <trkpt lat="43.47446" lon="6.12174">
        <ele>161.1</ele>
        <time>2025-02-16T10:59:16.000Z</time>
      </trkpt>
      <trkpt lat="43.47436" lon="6.12174">
        <ele>160.8</ele>
        <time>2025-02-16T10:59:21.000Z</time>
      </trkpt>
      <trkpt lat="43.47425" lon="6.12173">
        <ele>160.7</ele>
        <time>2025-02-16T10:59:24.000Z</time>
      </trkpt>
      <trkpt lat="43.47411" lon="6.12193">
        <ele>160.7</ele>
        <time>2025-02-16T10:59:38.000Z</time>
      </trkpt>
      <trkpt lat="43.47415" lon="6.12186">
        <ele>160.5</ele>
        <time>2025-02-16T10:59:40.000Z</time>
      </trkpt>
      <trkpt lat="43.47415" lon="6.12187">
        <ele>160.4</ele>
        <time>2025-02-16T10:59:41.000Z</time>
      </trkpt>
      <trkpt lat="43.47418" lon="6.12182">
        <ele>160.2</ele>
        <time>2025-02-16T10:59:50.000Z</time>
      </trkpt>
      <trkpt lat="43.47417" lon="6.12182">
        <ele>160.2</ele>
        <time>2025-02-16T10:59:51.000Z</time>
      </trkpt>
      <trkpt lat="43.47417" lon="6.12182">
        <ele>160.2</ele>
        <time>2025-02-16T10:59:52.000Z</time>
      </trkpt>
      <trkpt lat="43.47416" lon="6.12182">
        <ele>160.2</ele>
        <time>2025-02-16T10:59:53.000Z</time>
      </trkpt>
      <trkpt lat="43.47415" lon="6.12182">
        <ele>160.2</ele>
        <time>2025-02-16T10:59:54.000Z</time>
      </trkpt>
      <trkpt lat="43.47406" lon="6.12184">
        <ele>160.1</ele>
        <time>2025-02-16T11:00:04.000Z</time>
      </trkpt>
      <trkpt lat="43.47396" lon="6.12184">
        <ele>160</ele>
        <time>2025-02-16T11:00:13.000Z</time>
      </trkpt>
      <trkpt lat="43.47388" lon="6.12189">
        <ele>159.9</ele>
        <time>2025-02-16T11:00:21.000Z</time>
      </trkpt>
      <trkpt lat="43.47378" lon="6.1219">
        <ele>159.8</ele>
        <time>2025-02-16T11:00:29.000Z</time>
      </trkpt>
      <trkpt lat="43.47369" lon="6.12193">
        <ele>159.7</ele>
        <time>2025-02-16T11:00:37.000Z</time>
      </trkpt>
      <trkpt lat="43.4736" lon="6.12198">
        <ele>159.5</ele>
        <time>2025-02-16T11:00:46.000Z</time>
      </trkpt>
      <trkpt lat="43.47355" lon="6.122">
        <ele>159.2</ele>
        <time>2025-02-16T11:01:00.000Z</time>
      </trkpt>
      <trkpt lat="43.47355" lon="6.12201">
        <ele>159.1</ele>
        <time>2025-02-16T11:01:01.000Z</time>
      </trkpt>
      <trkpt lat="43.47354" lon="6.12201">
        <ele>159.1</ele>
        <time>2025-02-16T11:01:02.000Z</time>
      </trkpt>
      <trkpt lat="43.47355" lon="6.12201">
        <ele>159.1</ele>
        <time>2025-02-16T11:01:03.000Z</time>
      </trkpt>
      <trkpt lat="43.47355" lon="6.12201">
        <ele>159.1</ele>
        <time>2025-02-16T11:01:04.000Z</time>
      </trkpt>
      <trkpt lat="43.47355" lon="6.12201">
        <ele>159</ele>
        <time>2025-02-16T11:01:13.000Z</time>
      </trkpt>
      <trkpt lat="43.47355" lon="6.12201">
        <ele>159</ele>
        <time>2025-02-16T11:01:14.000Z</time>
      </trkpt>
      <trkpt lat="43.47356" lon="6.12206">
        <ele>158.9</ele>
        <time>2025-02-16T11:01:20.000Z</time>
      </trkpt>
      <trkpt lat="43.47356" lon="6.12206">
        <ele>158.9</ele>
        <time>2025-02-16T11:01:21.000Z</time>
      </trkpt>
      <trkpt lat="43.47356" lon="6.12207">
        <ele>158.9</ele>
        <time>2025-02-16T11:01:22.000Z</time>
      </trkpt>
      <trkpt lat="43.47357" lon="6.12207">
        <ele>158.9</ele>
        <time>2025-02-16T11:01:23.000Z</time>
      </trkpt>
      <trkpt lat="43.47357" lon="6.12208">
        <ele>158.9</ele>
        <time>2025-02-16T11:01:24.000Z</time>
      </trkpt>
      <trkpt lat="43.47357" lon="6.12208">
        <ele>158.9</ele>
        <time>2025-02-16T11:01:25.000Z</time>
      </trkpt>
      <trkpt lat="43.47358" lon="6.1221">
        <ele>158.9</ele>
        <time>2025-02-16T11:01:35.000Z</time>
      </trkpt>
      <trkpt lat="43.47358" lon="6.1221">
        <ele>158.9</ele>
        <time>2025-02-16T11:01:36.000Z</time>
      </trkpt>
      <trkpt lat="43.47359" lon="6.1221">
        <ele>158.9</ele>
        <time>2025-02-16T11:01:37.000Z</time>
      </trkpt>
      <trkpt lat="43.47359" lon="6.12209">
        <ele>158.9</ele>
        <time>2025-02-16T11:01:40.000Z</time>
      </trkpt>
      <trkpt lat="43.47359" lon="6.12209">
        <ele>158.9</ele>
        <time>2025-02-16T11:01:41.000Z</time>
      </trkpt>
      <trkpt lat="43.47359" lon="6.12208">
        <ele>158.9</ele>
        <time>2025-02-16T11:01:45.000Z</time>
      </trkpt>
      <trkpt lat="43.47359" lon="6.12208">
        <ele>158.9</ele>
        <time>2025-02-16T11:01:46.000Z</time>
      </trkpt>
      <trkpt lat="43.47348" lon="6.12208">
        <ele>158.8</ele>
        <time>2025-02-16T11:02:04.000Z</time>
      </trkpt>
      <trkpt lat="43.47345" lon="6.12208">
        <ele>158.8</ele>
        <time>2025-02-16T11:02:05.000Z</time>
      </trkpt>
      <trkpt lat="43.47342" lon="6.12208">
        <ele>158.8</ele>
        <time>2025-02-16T11:02:06.000Z</time>
      </trkpt>
      <trkpt lat="43.47361" lon="6.12215">
        <ele>158.7</ele>
        <time>2025-02-16T11:02:38.000Z</time>
      </trkpt>
      <trkpt lat="43.47364" lon="6.12211">
        <ele>158.7</ele>
        <time>2025-02-16T11:02:40.000Z</time>
      </trkpt>
      <trkpt lat="43.47368" lon="6.12209">
        <ele>158.7</ele>
        <time>2025-02-16T11:02:41.000Z</time>
      </trkpt>
      <trkpt lat="43.47399" lon="6.12184">
        <ele>158.7</ele>
        <time>2025-02-16T11:02:47.000Z</time>
      </trkpt>
      <trkpt lat="43.47366" lon="6.12141">
        <ele>158.7</ele>
        <time>2025-02-16T11:02:55.000Z</time>
      </trkpt>
      <trkpt lat="43.47353" lon="6.12142">
        <ele>158.6</ele>
        <time>2025-02-16T11:02:57.000Z</time>
      </trkpt>
      <trkpt lat="43.47348" lon="6.1214">
        <ele>158.6</ele>
        <time>2025-02-16T11:02:58.000Z</time>
      </trkpt>
      <trkpt lat="43.47347" lon="6.12141">
        <ele>158.6</ele>
        <time>2025-02-16T11:02:59.000Z</time>
      </trkpt>
      <trkpt lat="43.47337" lon="6.12141">
        <ele>158.1</ele>
        <time>2025-02-16T11:03:06.000Z</time>
      </trkpt>
      <trkpt lat="43.47334" lon="6.12143">
        <ele>157.6</ele>
        <time>2025-02-16T11:03:13.000Z</time>
      </trkpt>
      <trkpt lat="43.47334" lon="6.12143">
        <ele>157.5</ele>
        <time>2025-02-16T11:03:14.000Z</time>
      </trkpt>
      <trkpt lat="43.47334" lon="6.12143">
        <ele>157.4</ele>
        <time>2025-02-16T11:03:15.000Z</time>
      </trkpt>
      <trkpt lat="43.47334" lon="6.12143">
        <ele>157</ele>
        <time>2025-02-16T11:03:27.000Z</time>
      </trkpt>
      <trkpt lat="43.47334" lon="6.12143">
        <ele>156.9</ele>
        <time>2025-02-16T11:03:28.000Z</time>
      </trkpt>
      <trkpt lat="43.47334" lon="6.12145">
        <ele>156.9</ele>
        <time>2025-02-16T11:03:29.000Z</time>
      </trkpt>
      <trkpt lat="43.47335" lon="6.12146">
        <ele>156.9</ele>
        <time>2025-02-16T11:03:33.000Z</time>
      </trkpt>
      <trkpt lat="43.47335" lon="6.12146">
        <ele>156.8</ele>
        <time>2025-02-16T11:03:34.000Z</time>
      </trkpt>
      <trkpt lat="43.47334" lon="6.12145">
        <ele>156.8</ele>
        <time>2025-02-16T11:03:38.000Z</time>
      </trkpt>
      <trkpt lat="43.47334" lon="6.12145">
        <ele>156.8</ele>
        <time>2025-02-16T11:03:39.000Z</time>
      </trkpt>
      <trkpt lat="43.47334" lon="6.12145">
        <ele>156.8</ele>
        <time>2025-02-16T11:03:40.000Z</time>
      </trkpt>
      <trkpt lat="43.47334" lon="6.12145">
        <ele>156.8</ele>
        <time>2025-02-16T11:03:41.000Z</time>
      </trkpt>
      <trkpt lat="43.47334" lon="6.12145">
        <ele>156.8</ele>
        <time>2025-02-16T11:03:42.000Z</time>
      </trkpt>
      <trkpt lat="43.47334" lon="6.12146">
        <ele>156.8</ele>
        <time>2025-02-16T11:03:43.000Z</time>
      </trkpt>
      <trkpt lat="43.47333" lon="6.12146">
        <ele>156.8</ele>
        <time>2025-02-16T11:03:44.000Z</time>
      </trkpt>
      <trkpt lat="43.47333" lon="6.12146">
        <ele>156.8</ele>
        <time>2025-02-16T11:03:48.000Z</time>
      </trkpt>
      <trkpt lat="43.47333" lon="6.12146">
        <ele>156.8</ele>
        <time>2025-02-16T11:03:49.000Z</time>
      </trkpt>
      <trkpt lat="43.47336" lon="6.12149">
        <ele>156.8</ele>
        <time>2025-02-16T11:03:55.000Z</time>
      </trkpt>
      <trkpt lat="43.47336" lon="6.12148">
        <ele>156.8</ele>
        <time>2025-02-16T11:03:56.000Z</time>
      </trkpt>
      <trkpt lat="43.47345" lon="6.12145">
        <ele>156.8</ele>
        <time>2025-02-16T11:04:08.000Z</time>
      </trkpt>
      <trkpt lat="43.47339" lon="6.12135">
        <ele>156.8</ele>
        <time>2025-02-16T11:04:19.000Z</time>
      </trkpt>
      <trkpt lat="43.47333" lon="6.12125">
        <ele>156.8</ele>
        <time>2025-02-16T11:04:30.000Z</time>
      </trkpt>
      <trkpt lat="43.47328" lon="6.12114">
        <ele>156.7</ele>
        <time>2025-02-16T11:04:43.000Z</time>
      </trkpt>
      <trkpt lat="43.47328" lon="6.12114">
        <ele>156.6</ele>
        <time>2025-02-16T11:04:46.000Z</time>
      </trkpt>
      <trkpt lat="43.47326" lon="6.12124">
        <ele>159.6</ele>
        <time>2025-02-16T11:52:30.000Z</time>
      </trkpt>
      <trkpt lat="43.47326" lon="6.12125">
        <ele>159.6</ele>
        <time>2025-02-16T11:52:31.000Z</time>
      </trkpt>
      <trkpt lat="43.47327" lon="6.12126">
        <ele>159.6</ele>
        <time>2025-02-16T11:52:32.000Z</time>
      </trkpt>
      <trkpt lat="43.47325" lon="6.12139">
        <ele>159.6</ele>
        <time>2025-02-16T11:52:51.000Z</time>
      </trkpt>
      <trkpt lat="43.4733" lon="6.1215">
        <ele>159.8</ele>
        <time>2025-02-16T11:53:03.000Z</time>
      </trkpt>
      <trkpt lat="43.47335" lon="6.12162">
        <ele>159.9</ele>
        <time>2025-02-16T11:53:16.000Z</time>
      </trkpt>
      <trkpt lat="43.47336" lon="6.12164">
        <ele>160</ele>
        <time>2025-02-16T11:53:22.000Z</time>
      </trkpt>
      <trkpt lat="43.47336" lon="6.12165">
        <ele>160</ele>
        <time>2025-02-16T11:53:23.000Z</time>
      </trkpt>
      <trkpt lat="43.47336" lon="6.12165">
        <ele>160</ele>
        <time>2025-02-16T11:53:24.000Z</time>
      </trkpt>
      <trkpt lat="43.47336" lon="6.12165">
        <ele>160.1</ele>
        <time>2025-02-16T11:53:31.000Z</time>
      </trkpt>
      <trkpt lat="43.47336" lon="6.12166">
        <ele>160.1</ele>
        <time>2025-02-16T11:53:32.000Z</time>
      </trkpt>
      <trkpt lat="43.47338" lon="6.12166">
        <ele>160.2</ele>
        <time>2025-02-16T11:53:38.000Z</time>
      </trkpt>
      <trkpt lat="43.47338" lon="6.12165">
        <ele>160.2</ele>
        <time>2025-02-16T11:53:39.000Z</time>
      </trkpt>
      <trkpt lat="43.47339" lon="6.12165">
        <ele>160.2</ele>
        <time>2025-02-16T11:53:40.000Z</time>
      </trkpt>
      <trkpt lat="43.47339" lon="6.12166">
        <ele>160.2</ele>
        <time>2025-02-16T11:53:41.000Z</time>
      </trkpt>
      <trkpt lat="43.47339" lon="6.12167">
        <ele>160.2</ele>
        <time>2025-02-16T11:53:42.000Z</time>
      </trkpt>
      <trkpt lat="43.47326" lon="6.12162">
        <ele>161.9</ele>
        <time>2025-02-16T11:54:09.000Z</time>
      </trkpt>
      <trkpt lat="43.47334" lon="6.12176">
        <ele>162.1</ele>
        <time>2025-02-16T11:54:15.000Z</time>
      </trkpt>
      <trkpt lat="43.47343" lon="6.12183">
        <ele>162.2</ele>
        <time>2025-02-16T11:54:17.000Z</time>
      </trkpt>
      <trkpt lat="43.47349" lon="6.12193">
        <ele>162.4</ele>
        <time>2025-02-16T11:54:23.000Z</time>
      </trkpt>
      <trkpt lat="43.47348" lon="6.12195">
        <ele>162.5</ele>
        <time>2025-02-16T11:54:24.000Z</time>
      </trkpt>
      <trkpt lat="43.47348" lon="6.12196">
        <ele>162.5</ele>
        <time>2025-02-16T11:54:25.000Z</time>
      </trkpt>
      <trkpt lat="43.47347" lon="6.12196">
        <ele>162.5</ele>
        <time>2025-02-16T11:54:26.000Z</time>
      </trkpt>
      <trkpt lat="43.47346" lon="6.12196">
        <ele>162.5</ele>
        <time>2025-02-16T11:54:27.000Z</time>
      </trkpt>
      <trkpt lat="43.47344" lon="6.12197">
        <ele>162.5</ele>
        <time>2025-02-16T11:54:35.000Z</time>
      </trkpt>
      <trkpt lat="43.47344" lon="6.12197">
        <ele>162.5</ele>
        <time>2025-02-16T11:54:36.000Z</time>
      </trkpt>
      <trkpt lat="43.47345" lon="6.12197">
        <ele>162.5</ele>
        <time>2025-02-16T11:54:37.000Z</time>
      </trkpt>
      <trkpt lat="43.47345" lon="6.12197">
        <ele>162.5</ele>
        <time>2025-02-16T11:54:38.000Z</time>
      </trkpt>
      <trkpt lat="43.47346" lon="6.12197">
        <ele>162.5</ele>
        <time>2025-02-16T11:54:39.000Z</time>
      </trkpt>
      <trkpt lat="43.47347" lon="6.12197">
        <ele>162.5</ele>
        <time>2025-02-16T11:54:40.000Z</time>
      </trkpt>
      <trkpt lat="43.47356" lon="6.12201">
        <ele>162.6</ele>
        <time>2025-02-16T11:54:50.000Z</time>
      </trkpt>
      <trkpt lat="43.47364" lon="6.12208">
        <ele>162.8</ele>
        <time>2025-02-16T11:55:02.000Z</time>
      </trkpt>
      <trkpt lat="43.4737" lon="6.12196">
        <ele>163</ele>
        <time>2025-02-16T11:55:10.000Z</time>
      </trkpt>
      <trkpt lat="43.47378" lon="6.12188">
        <ele>163.2</ele>
        <time>2025-02-16T11:55:20.000Z</time>
      </trkpt>
      <trkpt lat="43.47384" lon="6.12198">
        <ele>163.5</ele>
        <time>2025-02-16T11:55:31.000Z</time>
      </trkpt>
      <trkpt lat="43.47386" lon="6.1221">
        <ele>163.7</ele>
        <time>2025-02-16T11:55:39.000Z</time>
      </trkpt>
      <trkpt lat="43.47392" lon="6.12222">
        <ele>164</ele>
        <time>2025-02-16T11:55:49.000Z</time>
      </trkpt>
      <trkpt lat="43.47398" lon="6.12231">
        <ele>164.6</ele>
        <time>2025-02-16T11:55:59.000Z</time>
      </trkpt>
      <trkpt lat="43.47392" lon="6.12228">
        <ele>165.3</ele>
        <time>2025-02-16T11:56:12.000Z</time>
      </trkpt>
      <trkpt lat="43.47392" lon="6.12228">
        <ele>165.3</ele>
        <time>2025-02-16T11:56:13.000Z</time>
      </trkpt>
      <trkpt lat="43.47392" lon="6.12228">
        <ele>165.3</ele>
        <time>2025-02-16T11:56:14.000Z</time>
      </trkpt>
      <trkpt lat="43.47392" lon="6.12228">
        <ele>165.3</ele>
        <time>2025-02-16T11:56:15.000Z</time>
      </trkpt>
      <trkpt lat="43.47391" lon="6.12228">
        <ele>165.3</ele>
        <time>2025-02-16T11:56:16.000Z</time>
      </trkpt>
      <trkpt lat="43.47391" lon="6.12231">
        <ele>165.5</ele>
        <time>2025-02-16T11:56:22.000Z</time>
      </trkpt>
      <trkpt lat="43.47389" lon="6.12231">
        <ele>165.5</ele>
        <time>2025-02-16T11:56:23.000Z</time>
      </trkpt>
      <trkpt lat="43.47388" lon="6.1223">
        <ele>165.5</ele>
        <time>2025-02-16T11:56:24.000Z</time>
      </trkpt>
      <trkpt lat="43.4739" lon="6.12226">
        <ele>165.6</ele>
        <time>2025-02-16T11:56:32.000Z</time>
      </trkpt>
      <trkpt lat="43.4739" lon="6.12226">
        <ele>165.6</ele>
        <time>2025-02-16T11:56:33.000Z</time>
      </trkpt>
      <trkpt lat="43.4739" lon="6.12226">
        <ele>165.6</ele>
        <time>2025-02-16T11:56:34.000Z</time>
      </trkpt>
      <trkpt lat="43.4739" lon="6.12241">
        <ele>165.7</ele>
        <time>2025-02-16T11:56:42.000Z</time>
      </trkpt>
      <trkpt lat="43.47387" lon="6.12253">
        <ele>166</ele>
        <time>2025-02-16T11:56:52.000Z</time>
      </trkpt>
      <trkpt lat="43.47392" lon="6.12264">
        <ele>166.3</ele>
        <time>2025-02-16T11:56:59.000Z</time>
      </trkpt>
      <trkpt lat="43.47398" lon="6.12274">
        <ele>167</ele>
        <time>2025-02-16T11:57:06.000Z</time>
      </trkpt>
      <trkpt lat="43.47401" lon="6.12286">
        <ele>168.2</ele>
        <time>2025-02-16T11:57:15.000Z</time>
      </trkpt>
      <trkpt lat="43.47398" lon="6.12297">
        <ele>169.7</ele>
        <time>2025-02-16T11:57:35.000Z</time>
      </trkpt>
      <trkpt lat="43.47398" lon="6.12297">
        <ele>169.7</ele>
        <time>2025-02-16T11:57:36.000Z</time>
      </trkpt>
      <trkpt lat="43.47397" lon="6.12299">
        <ele>169.8</ele>
        <time>2025-02-16T11:57:43.000Z</time>
      </trkpt>
      <trkpt lat="43.47397" lon="6.123">
        <ele>169.9</ele>
        <time>2025-02-16T11:57:44.000Z</time>
      </trkpt>
      <trkpt lat="43.47397" lon="6.12301">
        <ele>169.9</ele>
        <time>2025-02-16T11:57:45.000Z</time>
      </trkpt>
      <trkpt lat="43.47398" lon="6.12304">
        <ele>170.1</ele>
        <time>2025-02-16T11:57:50.000Z</time>
      </trkpt>
      <trkpt lat="43.47399" lon="6.12305">
        <ele>170.1</ele>
        <time>2025-02-16T11:57:51.000Z</time>
      </trkpt>
      <trkpt lat="43.47399" lon="6.12305">
        <ele>170.1</ele>
        <time>2025-02-16T11:57:52.000Z</time>
      </trkpt>
      <trkpt lat="43.474" lon="6.12307">
        <ele>170.1</ele>
        <time>2025-02-16T11:57:53.000Z</time>
      </trkpt>
      <trkpt lat="43.47402" lon="6.12308">
        <ele>170.1</ele>
        <time>2025-02-16T11:57:54.000Z</time>
      </trkpt>
      <trkpt lat="43.47409" lon="6.12318">
        <ele>170.4</ele>
        <time>2025-02-16T11:58:00.000Z</time>
      </trkpt>
      <trkpt lat="43.47406" lon="6.1233">
        <ele>171.2</ele>
        <time>2025-02-16T11:58:10.000Z</time>
      </trkpt>
      <trkpt lat="43.47399" lon="6.12339">
        <ele>172.4</ele>
        <time>2025-02-16T11:58:20.000Z</time>
      </trkpt>
      <trkpt lat="43.47398" lon="6.12353">
        <ele>173.2</ele>
        <time>2025-02-16T11:58:29.000Z</time>
      </trkpt>
      <trkpt lat="43.47401" lon="6.12367">
        <ele>173.6</ele>
        <time>2025-02-16T11:58:38.000Z</time>
      </trkpt>
      <trkpt lat="43.47404" lon="6.12379">
        <ele>174.2</ele>
        <time>2025-02-16T11:58:49.000Z</time>
      </trkpt>
      <trkpt lat="43.47405" lon="6.12392">
        <ele>174.7</ele>
        <time>2025-02-16T11:59:01.000Z</time>
      </trkpt>
      <trkpt lat="43.47405" lon="6.12392">
        <ele>174.8</ele>
        <time>2025-02-16T11:59:02.000Z</time>
      </trkpt>
      <trkpt lat="43.47405" lon="6.12392">
        <ele>174.8</ele>
        <time>2025-02-16T11:59:03.000Z</time>
      </trkpt>
      <trkpt lat="43.47405" lon="6.12392">
        <ele>174.8</ele>
        <time>2025-02-16T11:59:04.000Z</time>
      </trkpt>
      <trkpt lat="43.47406" lon="6.12392">
        <ele>174.9</ele>
        <time>2025-02-16T11:59:05.000Z</time>
      </trkpt>
      <trkpt lat="43.47406" lon="6.12393">
        <ele>174.9</ele>
        <time>2025-02-16T11:59:06.000Z</time>
      </trkpt>
      <trkpt lat="43.47401" lon="6.12404">
        <ele>175.2</ele>
        <time>2025-02-16T11:59:15.000Z</time>
      </trkpt>
      <trkpt lat="43.47401" lon="6.12417">
        <ele>175.4</ele>
        <time>2025-02-16T11:59:23.000Z</time>
      </trkpt>
      <trkpt lat="43.47406" lon="6.12429">
        <ele>175.7</ele>
        <time>2025-02-16T11:59:30.000Z</time>
      </trkpt>
      <trkpt lat="43.47407" lon="6.12442">
        <ele>176</ele>
        <time>2025-02-16T11:59:42.000Z</time>
      </trkpt>
      <trkpt lat="43.4741" lon="6.12454">
        <ele>176.3</ele>
        <time>2025-02-16T11:59:52.000Z</time>
      </trkpt>
      <trkpt lat="43.47413" lon="6.12458">
        <ele>176.6</ele>
        <time>2025-02-16T11:59:58.000Z</time>
      </trkpt>
      <trkpt lat="43.47413" lon="6.12459">
        <ele>176.6</ele>
        <time>2025-02-16T11:59:59.000Z</time>
      </trkpt>
      <trkpt lat="43.47414" lon="6.1246">
        <ele>176.6</ele>
        <time>2025-02-16T12:00:00.000Z</time>
      </trkpt>
      <trkpt lat="43.47415" lon="6.12461">
        <ele>176.7</ele>
        <time>2025-02-16T12:00:01.000Z</time>
      </trkpt>
      <trkpt lat="43.47419" lon="6.12473">
        <ele>176.9</ele>
        <time>2025-02-16T12:00:11.000Z</time>
      </trkpt>
      <trkpt lat="43.47423" lon="6.12485">
        <ele>177.4</ele>
        <time>2025-02-16T12:00:20.000Z</time>
      </trkpt>
      <trkpt lat="43.47426" lon="6.12497">
        <ele>177.8</ele>
        <time>2025-02-16T12:00:29.000Z</time>
      </trkpt>
      <trkpt lat="43.47428" lon="6.12509">
        <ele>178.2</ele>
        <time>2025-02-16T12:00:38.000Z</time>
      </trkpt>
      <trkpt lat="43.47427" lon="6.12523">
        <ele>178.6</ele>
        <time>2025-02-16T12:00:45.000Z</time>
      </trkpt>
      <trkpt lat="43.47429" lon="6.12535">
        <ele>179.2</ele>
        <time>2025-02-16T12:00:53.000Z</time>
      </trkpt>
      <trkpt lat="43.47434" lon="6.12547">
        <ele>180.2</ele>
        <time>2025-02-16T12:01:04.000Z</time>
      </trkpt>
      <trkpt lat="43.47439" lon="6.12557">
        <ele>180.9</ele>
        <time>2025-02-16T12:01:14.000Z</time>
      </trkpt>
      <trkpt lat="43.47444" lon="6.12567">
        <ele>182.3</ele>
        <time>2025-02-16T12:01:27.000Z</time>
      </trkpt>
      <trkpt lat="43.47448" lon="6.12579">
        <ele>184.2</ele>
        <time>2025-02-16T12:01:40.000Z</time>
      </trkpt>
      <trkpt lat="43.47452" lon="6.12591">
        <ele>185.5</ele>
        <time>2025-02-16T12:01:53.000Z</time>
      </trkpt>
      <trkpt lat="43.47454" lon="6.12603">
        <ele>186.7</ele>
        <time>2025-02-16T12:02:07.000Z</time>
      </trkpt>
      <trkpt lat="43.47457" lon="6.12616">
        <ele>188.1</ele>
        <time>2025-02-16T12:02:19.000Z</time>
      </trkpt>
      <trkpt lat="43.47462" lon="6.12628">
        <ele>189.6</ele>
        <time>2025-02-16T12:02:30.000Z</time>
      </trkpt>
      <trkpt lat="43.47465" lon="6.12641">
        <ele>191.3</ele>
        <time>2025-02-16T12:02:41.000Z</time>
      </trkpt>
      <trkpt lat="43.47467" lon="6.12653">
        <ele>192</ele>
        <time>2025-02-16T12:02:49.000Z</time>
      </trkpt>
      <trkpt lat="43.47466" lon="6.12655">
        <ele>192.3</ele>
        <time>2025-02-16T12:02:57.000Z</time>
      </trkpt>
      <trkpt lat="43.47466" lon="6.12655">
        <ele>192.3</ele>
        <time>2025-02-16T12:02:58.000Z</time>
      </trkpt>
      <trkpt lat="43.47466" lon="6.12655">
        <ele>192.3</ele>
        <time>2025-02-16T12:02:59.000Z</time>
      </trkpt>
      <trkpt lat="43.47466" lon="6.12658">
        <ele>192.3</ele>
        <time>2025-02-16T12:03:02.000Z</time>
      </trkpt>
      <trkpt lat="43.47467" lon="6.12659">
        <ele>192.3</ele>
        <time>2025-02-16T12:03:03.000Z</time>
      </trkpt>
      <trkpt lat="43.47467" lon="6.12661">
        <ele>192.4</ele>
        <time>2025-02-16T12:03:04.000Z</time>
      </trkpt>
      <trkpt lat="43.47472" lon="6.12672">
        <ele>192.6</ele>
        <time>2025-02-16T12:03:12.000Z</time>
      </trkpt>
      <trkpt lat="43.47475" lon="6.12684">
        <ele>193.1</ele>
        <time>2025-02-16T12:03:21.000Z</time>
      </trkpt>
      <trkpt lat="43.4748" lon="6.12692">
        <ele>194.4</ele>
        <time>2025-02-16T12:03:37.000Z</time>
      </trkpt>
      <trkpt lat="43.47481" lon="6.12692">
        <ele>194.5</ele>
        <time>2025-02-16T12:03:38.000Z</time>
      </trkpt>
      <trkpt lat="43.47481" lon="6.12692">
        <ele>194.6</ele>
        <time>2025-02-16T12:03:39.000Z</time>
      </trkpt>
      <trkpt lat="43.47483" lon="6.12694">
        <ele>194.7</ele>
        <time>2025-02-16T12:03:42.000Z</time>
      </trkpt>
      <trkpt lat="43.47483" lon="6.12695">
        <ele>194.8</ele>
        <time>2025-02-16T12:03:43.000Z</time>
      </trkpt>
      <trkpt lat="43.47484" lon="6.12695">
        <ele>194.8</ele>
        <time>2025-02-16T12:03:44.000Z</time>
      </trkpt>
      <trkpt lat="43.47489" lon="6.12706">
        <ele>195</ele>
        <time>2025-02-16T12:03:52.000Z</time>
      </trkpt>
      <trkpt lat="43.47497" lon="6.12713">
        <ele>195.2</ele>
        <time>2025-02-16T12:04:03.000Z</time>
      </trkpt>
      <trkpt lat="43.47501" lon="6.12725">
        <ele>195.7</ele>
        <time>2025-02-16T12:04:14.000Z</time>
      </trkpt>
      <trkpt lat="43.47505" lon="6.12737">
        <ele>196.2</ele>
        <time>2025-02-16T12:04:23.000Z</time>
      </trkpt>
      <trkpt lat="43.47508" lon="6.12749">
        <ele>196.1</ele>
        <time>2025-02-16T12:04:32.000Z</time>
      </trkpt>
      <trkpt lat="43.47512" lon="6.12761">
        <ele>195.8</ele>
        <time>2025-02-16T12:04:42.000Z</time>
      </trkpt>
      <trkpt lat="43.47519" lon="6.12772">
        <ele>195.7</ele>
        <time>2025-02-16T12:04:51.000Z</time>
      </trkpt>
      <trkpt lat="43.47526" lon="6.12779">
        <ele>195.8</ele>
        <time>2025-02-16T12:04:59.000Z</time>
      </trkpt>
      <trkpt lat="43.47529" lon="6.12789">
        <ele>195.9</ele>
        <time>2025-02-16T12:05:10.000Z</time>
      </trkpt>
      <trkpt lat="43.47529" lon="6.12789">
        <ele>196</ele>
        <time>2025-02-16T12:05:11.000Z</time>
      </trkpt>
      <trkpt lat="43.47529" lon="6.1279">
        <ele>196.1</ele>
        <time>2025-02-16T12:05:20.000Z</time>
      </trkpt>
      <trkpt lat="43.47529" lon="6.1279">
        <ele>196.1</ele>
        <time>2025-02-16T12:05:21.000Z</time>
      </trkpt>
      <trkpt lat="43.47529" lon="6.12791">
        <ele>196.1</ele>
        <time>2025-02-16T12:05:22.000Z</time>
      </trkpt>
      <trkpt lat="43.47529" lon="6.12791">
        <ele>196.1</ele>
        <time>2025-02-16T12:05:26.000Z</time>
      </trkpt>
      <trkpt lat="43.47529" lon="6.12791">
        <ele>196.1</ele>
        <time>2025-02-16T12:05:27.000Z</time>
      </trkpt>
      <trkpt lat="43.47529" lon="6.12792">
        <ele>196.3</ele>
        <time>2025-02-16T12:06:11.000Z</time>
      </trkpt>
      <trkpt lat="43.47529" lon="6.12792">
        <ele>196.3</ele>
        <time>2025-02-16T12:06:12.000Z</time>
      </trkpt>
      <trkpt lat="43.47529" lon="6.12792">
        <ele>196.3</ele>
        <time>2025-02-16T12:06:15.000Z</time>
      </trkpt>
      <trkpt lat="43.47529" lon="6.12793">
        <ele>196.3</ele>
        <time>2025-02-16T12:06:16.000Z</time>
      </trkpt>
      <trkpt lat="43.4753" lon="6.12793">
        <ele>196.3</ele>
        <time>2025-02-16T12:06:17.000Z</time>
      </trkpt>
      <trkpt lat="43.4753" lon="6.12793">
        <ele>196.3</ele>
        <time>2025-02-16T12:06:18.000Z</time>
      </trkpt>
      <trkpt lat="43.4753" lon="6.12793">
        <ele>196.3</ele>
        <time>2025-02-16T12:06:19.000Z</time>
      </trkpt>
      <trkpt lat="43.4753" lon="6.12793">
        <ele>196.3</ele>
        <time>2025-02-16T12:06:22.000Z</time>
      </trkpt>
      <trkpt lat="43.4753" lon="6.12793">
        <ele>196.3</ele>
        <time>2025-02-16T12:06:23.000Z</time>
      </trkpt>
      <trkpt lat="43.4753" lon="6.12794">
        <ele>196.3</ele>
        <time>2025-02-16T12:06:24.000Z</time>
      </trkpt>
      <trkpt lat="43.4753" lon="6.12794">
        <ele>196.3</ele>
        <time>2025-02-16T12:06:25.000Z</time>
      </trkpt>
      <trkpt lat="43.4753" lon="6.12794">
        <ele>196.3</ele>
        <time>2025-02-16T12:06:26.000Z</time>
      </trkpt>
      <trkpt lat="43.4753" lon="6.12794">
        <ele>196.3</ele>
        <time>2025-02-16T12:06:30.000Z</time>
      </trkpt>
      <trkpt lat="43.4753" lon="6.12794">
        <ele>196.3</ele>
        <time>2025-02-16T12:06:31.000Z</time>
      </trkpt>
      <trkpt lat="43.4753" lon="6.12794">
        <ele>196.3</ele>
        <time>2025-02-16T12:06:32.000Z</time>
      </trkpt>
      <trkpt lat="43.47531" lon="6.12795">
        <ele>196.3</ele>
        <time>2025-02-16T12:06:36.000Z</time>
      </trkpt>
      <trkpt lat="43.47532" lon="6.12795">
        <ele>196.3</ele>
        <time>2025-02-16T12:06:37.000Z</time>
      </trkpt>
      <trkpt lat="43.47533" lon="6.12796">
        <ele>196.3</ele>
        <time>2025-02-16T12:06:41.000Z</time>
      </trkpt>
      <trkpt lat="43.47533" lon="6.12796">
        <ele>196.3</ele>
        <time>2025-02-16T12:06:42.000Z</time>
      </trkpt>
      <trkpt lat="43.47533" lon="6.12795">
        <ele>196.4</ele>
        <time>2025-02-16T12:06:46.000Z</time>
      </trkpt>
      <trkpt lat="43.47533" lon="6.12794">
        <ele>196.4</ele>
        <time>2025-02-16T12:06:47.000Z</time>
      </trkpt>
      <trkpt lat="43.47533" lon="6.12794">
        <ele>196.4</ele>
        <time>2025-02-16T12:06:50.000Z</time>
      </trkpt>
      <trkpt lat="43.47533" lon="6.12794">
        <ele>196.4</ele>
        <time>2025-02-16T12:06:51.000Z</time>
      </trkpt>
      <trkpt lat="43.47533" lon="6.12794">
        <ele>196.4</ele>
        <time>2025-02-16T12:06:52.000Z</time>
      </trkpt>
      <trkpt lat="43.47532" lon="6.12796">
        <ele>196.5</ele>
        <time>2025-02-16T12:07:06.000Z</time>
      </trkpt>
      <trkpt lat="43.47533" lon="6.12797">
        <ele>196.5</ele>
        <time>2025-02-16T12:07:07.000Z</time>
      </trkpt>
      <trkpt lat="43.47534" lon="6.128">
        <ele>196.5</ele>
        <time>2025-02-16T12:07:13.000Z</time>
      </trkpt>
      <trkpt lat="43.47534" lon="6.128">
        <ele>196.5</ele>
        <time>2025-02-16T12:07:14.000Z</time>
      </trkpt>
      <trkpt lat="43.47534" lon="6.12801">
        <ele>196.5</ele>
        <time>2025-02-16T12:07:17.000Z</time>
      </trkpt>
      <trkpt lat="43.47534" lon="6.12801">
        <ele>196.5</ele>
        <time>2025-02-16T12:07:18.000Z</time>
      </trkpt>
      <trkpt lat="43.47534" lon="6.12802">
        <ele>196.5</ele>
        <time>2025-02-16T12:07:19.000Z</time>
      </trkpt>
      <trkpt lat="43.47536" lon="6.12803">
        <ele>196.6</ele>
        <time>2025-02-16T12:07:28.000Z</time>
      </trkpt>
      <trkpt lat="43.47536" lon="6.12803">
        <ele>196.6</ele>
        <time>2025-02-16T12:07:29.000Z</time>
      </trkpt>
      <trkpt lat="43.47536" lon="6.12804">
        <ele>196.6</ele>
        <time>2025-02-16T12:07:35.000Z</time>
      </trkpt>
      <trkpt lat="43.47536" lon="6.12805">
        <ele>196.6</ele>
        <time>2025-02-16T12:07:36.000Z</time>
      </trkpt>
      <trkpt lat="43.47542" lon="6.12815">
        <ele>196.7</ele>
        <time>2025-02-16T12:07:46.000Z</time>
      </trkpt>
      <trkpt lat="43.47549" lon="6.12824">
        <ele>196.6</ele>
        <time>2025-02-16T12:07:56.000Z</time>
      </trkpt>
      <trkpt lat="43.47555" lon="6.12835">
        <ele>196.4</ele>
        <time>2025-02-16T12:08:07.000Z</time>
      </trkpt>
      <trkpt lat="43.47559" lon="6.12846">
        <ele>195.3</ele>
        <time>2025-02-16T12:08:21.000Z</time>
      </trkpt>
      <trkpt lat="43.47565" lon="6.12856">
        <ele>194.2</ele>
        <time>2025-02-16T12:08:31.000Z</time>
      </trkpt>
      <trkpt lat="43.47572" lon="6.12865">
        <ele>193.1</ele>
        <time>2025-02-16T12:08:42.000Z</time>
      </trkpt>
      <trkpt lat="43.47576" lon="6.12877">
        <ele>191.7</ele>
        <time>2025-02-16T12:08:55.000Z</time>
      </trkpt>
      <trkpt lat="43.47579" lon="6.12889">
        <ele>190</ele>
        <time>2025-02-16T12:09:06.000Z</time>
      </trkpt>
      <trkpt lat="43.47579" lon="6.12902">
        <ele>188.5</ele>
        <time>2025-02-16T12:09:16.000Z</time>
      </trkpt>
      <trkpt lat="43.47578" lon="6.12916">
        <ele>186.7</ele>
        <time>2025-02-16T12:09:27.000Z</time>
      </trkpt>
      <trkpt lat="43.47575" lon="6.12928">
        <ele>185.3</ele>
        <time>2025-02-16T12:09:36.000Z</time>
      </trkpt>
      <trkpt lat="43.47575" lon="6.12942">
        <ele>183.8</ele>
        <time>2025-02-16T12:09:46.000Z</time>
      </trkpt>
      <trkpt lat="43.47578" lon="6.12955">
        <ele>182.4</ele>
        <time>2025-02-16T12:09:59.000Z</time>
      </trkpt>
      <trkpt lat="43.47577" lon="6.12968">
        <ele>181.5</ele>
        <time>2025-02-16T12:10:09.000Z</time>
      </trkpt>
      <trkpt lat="43.47577" lon="6.12981">
        <ele>181</ele>
        <time>2025-02-16T12:10:19.000Z</time>
      </trkpt>
      <trkpt lat="43.47568" lon="6.12982">
        <ele>180.1</ele>
        <time>2025-02-16T12:10:32.000Z</time>
      </trkpt>
      <trkpt lat="43.47558" lon="6.1298">
        <ele>178.1</ele>
        <time>2025-02-16T12:10:44.000Z</time>
      </trkpt>
      <trkpt lat="43.47549" lon="6.12981">
        <ele>176.8</ele>
        <time>2025-02-16T12:10:54.000Z</time>
      </trkpt>
      <trkpt lat="43.4754" lon="6.12978">
        <ele>175.6</ele>
        <time>2025-02-16T12:11:05.000Z</time>
      </trkpt>
      <trkpt lat="43.47531" lon="6.12977">
        <ele>175.2</ele>
        <time>2025-02-16T12:11:15.000Z</time>
      </trkpt>
      <trkpt lat="43.47521" lon="6.12975">
        <ele>174.6</ele>
        <time>2025-02-16T12:11:24.000Z</time>
      </trkpt>
      <trkpt lat="43.47513" lon="6.12972">
        <ele>174.3</ele>
        <time>2025-02-16T12:11:32.000Z</time>
      </trkpt>
      <trkpt lat="43.47503" lon="6.12973">
        <ele>174</ele>
        <time>2025-02-16T12:11:41.000Z</time>
      </trkpt>
      <trkpt lat="43.47494" lon="6.12969">
        <ele>174</ele>
        <time>2025-02-16T12:11:51.000Z</time>
      </trkpt>
      <trkpt lat="43.47491" lon="6.12983">
        <ele>173.6</ele>
        <time>2025-02-16T12:12:04.000Z</time>
      </trkpt>
      <trkpt lat="43.47492" lon="6.12995">
        <ele>173.1</ele>
        <time>2025-02-16T12:12:11.000Z</time>
      </trkpt>
      <trkpt lat="43.47494" lon="6.13008">
        <ele>172.2</ele>
        <time>2025-02-16T12:12:21.000Z</time>
      </trkpt>
      <trkpt lat="43.47491" lon="6.1302">
        <ele>171.2</ele>
        <time>2025-02-16T12:12:31.000Z</time>
      </trkpt>
      <trkpt lat="43.47487" lon="6.13032">
        <ele>171</ele>
        <time>2025-02-16T12:12:39.000Z</time>
      </trkpt>
      <trkpt lat="43.47484" lon="6.13044">
        <ele>170.9</ele>
        <time>2025-02-16T12:12:47.000Z</time>
      </trkpt>
      <trkpt lat="43.47484" lon="6.13057">
        <ele>171</ele>
        <time>2025-02-16T12:12:57.000Z</time>
      </trkpt>
      <trkpt lat="43.47483" lon="6.1307">
        <ele>171</ele>
        <time>2025-02-16T12:13:16.000Z</time>
      </trkpt>
      <trkpt lat="43.47484" lon="6.13073">
        <ele>170.5</ele>
        <time>2025-02-16T12:13:30.000Z</time>
      </trkpt>
      <trkpt lat="43.47484" lon="6.13073">
        <ele>170.5</ele>
        <time>2025-02-16T12:13:31.000Z</time>
      </trkpt>
      <trkpt lat="43.47483" lon="6.13073">
        <ele>170.2</ele>
        <time>2025-02-16T12:13:37.000Z</time>
      </trkpt>
      <trkpt lat="43.47482" lon="6.13074">
        <ele>170.2</ele>
        <time>2025-02-16T12:13:38.000Z</time>
      </trkpt>
      <trkpt lat="43.47481" lon="6.13074">
        <ele>170.2</ele>
        <time>2025-02-16T12:13:39.000Z</time>
      </trkpt>
      <trkpt lat="43.4748" lon="6.13073">
        <ele>170</ele>
        <time>2025-02-16T12:13:45.000Z</time>
      </trkpt>
      <trkpt lat="43.4748" lon="6.13073">
        <ele>170</ele>
        <time>2025-02-16T12:13:46.000Z</time>
      </trkpt>
      <trkpt lat="43.47479" lon="6.13073">
        <ele>170</ele>
        <time>2025-02-16T12:13:47.000Z</time>
      </trkpt>
      <trkpt lat="43.47478" lon="6.13073">
        <ele>169.9</ele>
        <time>2025-02-16T12:13:48.000Z</time>
      </trkpt>
      <trkpt lat="43.47478" lon="6.13073">
        <ele>169.9</ele>
        <time>2025-02-16T12:13:49.000Z</time>
      </trkpt>
      <trkpt lat="43.47468" lon="6.1307">
        <ele>169.8</ele>
        <time>2025-02-16T12:14:01.000Z</time>
      </trkpt>
      <trkpt lat="43.47459" lon="6.13074">
        <ele>169.3</ele>
        <time>2025-02-16T12:14:15.000Z</time>
      </trkpt>
      <trkpt lat="43.4745" lon="6.13073">
        <ele>168.6</ele>
        <time>2025-02-16T12:14:25.000Z</time>
      </trkpt>
      <trkpt lat="43.47441" lon="6.13072">
        <ele>168.2</ele>
        <time>2025-02-16T12:14:34.000Z</time>
      </trkpt>
      <trkpt lat="43.47431" lon="6.13071">
        <ele>167.8</ele>
        <time>2025-02-16T12:14:44.000Z</time>
      </trkpt>
      <trkpt lat="43.47422" lon="6.13067">
        <ele>167.6</ele>
        <time>2025-02-16T12:14:54.000Z</time>
      </trkpt>
      <trkpt lat="43.47414" lon="6.13063">
        <ele>167.4</ele>
        <time>2025-02-16T12:15:03.000Z</time>
      </trkpt>
      <trkpt lat="43.47404" lon="6.13058">
        <ele>167.2</ele>
        <time>2025-02-16T12:15:12.000Z</time>
      </trkpt>
      <trkpt lat="43.47395" lon="6.13057">
        <ele>167.1</ele>
        <time>2025-02-16T12:15:21.000Z</time>
      </trkpt>
      <trkpt lat="43.47386" lon="6.13058">
        <ele>166.9</ele>
        <time>2025-02-16T12:15:32.000Z</time>
      </trkpt>
      <trkpt lat="43.4738" lon="6.13067">
        <ele>166.6</ele>
        <time>2025-02-16T12:15:41.000Z</time>
      </trkpt>
      <trkpt lat="43.47377" lon="6.1308">
        <ele>166.3</ele>
        <time>2025-02-16T12:15:49.000Z</time>
      </trkpt>
      <trkpt lat="43.47376" lon="6.13082">
        <ele>165.9</ele>
        <time>2025-02-16T12:16:01.000Z</time>
      </trkpt>
      <trkpt lat="43.47376" lon="6.13082">
        <ele>165.9</ele>
        <time>2025-02-16T12:16:02.000Z</time>
      </trkpt>
      <trkpt lat="43.47375" lon="6.13082">
        <ele>165.8</ele>
        <time>2025-02-16T12:16:05.000Z</time>
      </trkpt>
      <trkpt lat="43.47374" lon="6.13083">
        <ele>165.8</ele>
        <time>2025-02-16T12:16:06.000Z</time>
      </trkpt>
      <trkpt lat="43.4737" lon="6.13094">
        <ele>165.7</ele>
        <time>2025-02-16T12:16:16.000Z</time>
      </trkpt>
      <trkpt lat="43.47369" lon="6.13107">
        <ele>165.6</ele>
        <time>2025-02-16T12:16:29.000Z</time>
      </trkpt>
      <trkpt lat="43.47368" lon="6.13116">
        <ele>165.6</ele>
        <time>2025-02-16T12:16:45.000Z</time>
      </trkpt>
      <trkpt lat="43.47368" lon="6.13116">
        <ele>165.6</ele>
        <time>2025-02-16T12:16:46.000Z</time>
      </trkpt>
      <trkpt lat="43.47367" lon="6.13117">
        <ele>165.6</ele>
        <time>2025-02-16T12:16:50.000Z</time>
      </trkpt>
      <trkpt lat="43.47366" lon="6.13118">
        <ele>165.6</ele>
        <time>2025-02-16T12:16:51.000Z</time>
      </trkpt>
      <trkpt lat="43.47366" lon="6.13119">
        <ele>165.6</ele>
        <time>2025-02-16T12:16:52.000Z</time>
      </trkpt>
      <trkpt lat="43.47362" lon="6.13131">
        <ele>165.6</ele>
        <time>2025-02-16T12:17:04.000Z</time>
      </trkpt>
      <trkpt lat="43.4736" lon="6.13134">
        <ele>165.6</ele>
        <time>2025-02-16T12:17:17.000Z</time>
      </trkpt>
      <trkpt lat="43.4736" lon="6.13134">
        <ele>165.6</ele>
        <time>2025-02-16T12:17:18.000Z</time>
      </trkpt>
      <trkpt lat="43.4736" lon="6.13134">
        <ele>165.6</ele>
        <time>2025-02-16T12:17:19.000Z</time>
      </trkpt>
      <trkpt lat="43.4736" lon="6.13135">
        <ele>165.6</ele>
        <time>2025-02-16T12:17:20.000Z</time>
      </trkpt>
      <trkpt lat="43.47359" lon="6.13136">
        <ele>165.6</ele>
        <time>2025-02-16T12:17:21.000Z</time>
      </trkpt>
      <trkpt lat="43.47356" lon="6.13149">
        <ele>165.6</ele>
        <time>2025-02-16T12:17:31.000Z</time>
      </trkpt>
      <trkpt lat="43.47354" lon="6.13161">
        <ele>165.6</ele>
        <time>2025-02-16T12:17:45.000Z</time>
      </trkpt>
      <trkpt lat="43.47354" lon="6.13174">
        <ele>165.6</ele>
        <time>2025-02-16T12:17:57.000Z</time>
      </trkpt>
      <trkpt lat="43.47352" lon="6.13187">
        <ele>165.6</ele>
        <time>2025-02-16T12:18:07.000Z</time>
      </trkpt>
      <trkpt lat="43.47349" lon="6.13199">
        <ele>165.6</ele>
        <time>2025-02-16T12:18:19.000Z</time>
      </trkpt>
      <trkpt lat="43.47348" lon="6.13212">
        <ele>165.7</ele>
        <time>2025-02-16T12:18:29.000Z</time>
      </trkpt>
      <trkpt lat="43.47355" lon="6.1322">
        <ele>165.8</ele>
        <time>2025-02-16T12:18:38.000Z</time>
      </trkpt>
      <trkpt lat="43.47357" lon="6.13234">
        <ele>165.9</ele>
        <time>2025-02-16T12:18:51.000Z</time>
      </trkpt>
      <trkpt lat="43.47355" lon="6.13246">
        <ele>165.9</ele>
        <time>2025-02-16T12:19:02.000Z</time>
      </trkpt>
      <trkpt lat="43.47353" lon="6.13258">
        <ele>165.8</ele>
        <time>2025-02-16T12:19:13.000Z</time>
      </trkpt>
      <trkpt lat="43.47353" lon="6.1326">
        <ele>165.8</ele>
        <time>2025-02-16T12:19:18.000Z</time>
      </trkpt>
      <trkpt lat="43.47353" lon="6.13261">
        <ele>165.8</ele>
        <time>2025-02-16T12:19:19.000Z</time>
      </trkpt>
      <trkpt lat="43.47353" lon="6.13262">
        <ele>165.8</ele>
        <time>2025-02-16T12:19:20.000Z</time>
      </trkpt>
      <trkpt lat="43.47353" lon="6.13263">
        <ele>165.8</ele>
        <time>2025-02-16T12:19:21.000Z</time>
      </trkpt>
      <trkpt lat="43.47352" lon="6.13276">
        <ele>165.9</ele>
        <time>2025-02-16T12:19:32.000Z</time>
      </trkpt>
      <trkpt lat="43.47352" lon="6.13289">
        <ele>165.9</ele>
        <time>2025-02-16T12:19:44.000Z</time>
      </trkpt>
      <trkpt lat="43.47352" lon="6.13303">
        <ele>165.9</ele>
        <time>2025-02-16T12:19:53.000Z</time>
      </trkpt>
      <trkpt lat="43.47352" lon="6.13315">
        <ele>165.9</ele>
        <time>2025-02-16T12:20:03.000Z</time>
      </trkpt>
      <trkpt lat="43.47351" lon="6.13329">
        <ele>165.9</ele>
        <time>2025-02-16T12:20:13.000Z</time>
      </trkpt>
      <trkpt lat="43.47352" lon="6.13343">
        <ele>165.9</ele>
        <time>2025-02-16T12:20:23.000Z</time>
      </trkpt>
      <trkpt lat="43.47351" lon="6.13356">
        <ele>165.9</ele>
        <time>2025-02-16T12:20:34.000Z</time>
      </trkpt>
      <trkpt lat="43.4735" lon="6.13369">
        <ele>165.9</ele>
        <time>2025-02-16T12:20:44.000Z</time>
      </trkpt>
      <trkpt lat="43.4735" lon="6.13382">
        <ele>165.8</ele>
        <time>2025-02-16T12:20:54.000Z</time>
      </trkpt>
      <trkpt lat="43.4735" lon="6.13395">
        <ele>165.8</ele>
        <time>2025-02-16T12:21:05.000Z</time>
      </trkpt>
      <trkpt lat="43.4735" lon="6.13409">
        <ele>165.8</ele>
        <time>2025-02-16T12:21:14.000Z</time>
      </trkpt>
      <trkpt lat="43.4735" lon="6.13422">
        <ele>165.8</ele>
        <time>2025-02-16T12:21:26.000Z</time>
      </trkpt>
      <trkpt lat="43.47349" lon="6.13435">
        <ele>165.8</ele>
        <time>2025-02-16T12:21:35.000Z</time>
      </trkpt>
      <trkpt lat="43.47349" lon="6.13449">
        <ele>165.8</ele>
        <time>2025-02-16T12:21:44.000Z</time>
      </trkpt>
      <trkpt lat="43.47348" lon="6.13461">
        <ele>165.8</ele>
        <time>2025-02-16T12:21:52.000Z</time>
      </trkpt>
      <trkpt lat="43.47347" lon="6.13474">
        <ele>165.7</ele>
        <time>2025-02-16T12:22:04.000Z</time>
      </trkpt>
      <trkpt lat="43.47346" lon="6.13488">
        <ele>165.7</ele>
        <time>2025-02-16T12:22:14.000Z</time>
      </trkpt>
      <trkpt lat="43.47346" lon="6.13501">
        <ele>165.6</ele>
        <time>2025-02-16T12:22:23.000Z</time>
      </trkpt>
      <trkpt lat="43.47345" lon="6.13513">
        <ele>165.6</ele>
        <time>2025-02-16T12:22:32.000Z</time>
      </trkpt>
      <trkpt lat="43.47344" lon="6.13527">
        <ele>165.5</ele>
        <time>2025-02-16T12:22:41.000Z</time>
      </trkpt>
      <trkpt lat="43.47344" lon="6.13541">
        <ele>165.4</ele>
        <time>2025-02-16T12:22:50.000Z</time>
      </trkpt>
      <trkpt lat="43.47345" lon="6.13553">
        <ele>165.2</ele>
        <time>2025-02-16T12:22:59.000Z</time>
      </trkpt>
      <trkpt lat="43.47347" lon="6.13567">
        <ele>165.2</ele>
        <time>2025-02-16T12:23:11.000Z</time>
      </trkpt>
      <trkpt lat="43.47356" lon="6.13569">
        <ele>165.2</ele>
        <time>2025-02-16T12:23:19.000Z</time>
      </trkpt>
      <trkpt lat="43.47365" lon="6.13573">
        <ele>165.2</ele>
        <time>2025-02-16T12:23:31.000Z</time>
      </trkpt>
      <trkpt lat="43.47368" lon="6.13585">
        <ele>165.1</ele>
        <time>2025-02-16T12:23:39.000Z</time>
      </trkpt>
      <trkpt lat="43.47372" lon="6.13597">
        <ele>165.1</ele>
        <time>2025-02-16T12:23:47.000Z</time>
      </trkpt>
      <trkpt lat="43.47376" lon="6.1361">
        <ele>165</ele>
        <time>2025-02-16T12:23:56.000Z</time>
      </trkpt>
      <trkpt lat="43.47378" lon="6.13622">
        <ele>164.9</ele>
        <time>2025-02-16T12:24:05.000Z</time>
      </trkpt>
      <trkpt lat="43.47369" lon="6.13626">
        <ele>164.9</ele>
        <time>2025-02-16T12:24:17.000Z</time>
      </trkpt>
      <trkpt lat="43.4736" lon="6.13625">
        <ele>164.8</ele>
        <time>2025-02-16T12:24:24.000Z</time>
      </trkpt>
      <trkpt lat="43.47351" lon="6.13629">
        <ele>164.8</ele>
        <time>2025-02-16T12:24:34.000Z</time>
      </trkpt>
      <trkpt lat="43.47344" lon="6.13639">
        <ele>164.8</ele>
        <time>2025-02-16T12:24:44.000Z</time>
      </trkpt>
      <trkpt lat="43.47335" lon="6.13646">
        <ele>164.9</ele>
        <time>2025-02-16T12:24:54.000Z</time>
      </trkpt>
      <trkpt lat="43.4733" lon="6.13658">
        <ele>164.8</ele>
        <time>2025-02-16T12:25:05.000Z</time>
      </trkpt>
      <trkpt lat="43.4733" lon="6.13671">
        <ele>164.7</ele>
        <time>2025-02-16T12:25:13.000Z</time>
      </trkpt>
      <trkpt lat="43.47331" lon="6.13684">
        <ele>164.5</ele>
        <time>2025-02-16T12:25:24.000Z</time>
      </trkpt>
      <trkpt lat="43.47331" lon="6.13698">
        <ele>164.3</ele>
        <time>2025-02-16T12:25:34.000Z</time>
      </trkpt>
      <trkpt lat="43.47334" lon="6.1371">
        <ele>164.2</ele>
        <time>2025-02-16T12:25:42.000Z</time>
      </trkpt>
      <trkpt lat="43.47334" lon="6.13722">
        <ele>164.2</ele>
        <time>2025-02-16T12:25:51.000Z</time>
      </trkpt>
      <trkpt lat="43.47335" lon="6.13735">
        <ele>164</ele>
        <time>2025-02-16T12:26:01.000Z</time>
      </trkpt>
      <trkpt lat="43.47336" lon="6.1375">
        <ele>163.9</ele>
        <time>2025-02-16T12:26:13.000Z</time>
      </trkpt>
      <trkpt lat="43.47336" lon="6.13762">
        <ele>163.8</ele>
        <time>2025-02-16T12:26:23.000Z</time>
      </trkpt>
      <trkpt lat="43.47337" lon="6.13775">
        <ele>163.7</ele>
        <time>2025-02-16T12:26:31.000Z</time>
      </trkpt>
      <trkpt lat="43.47337" lon="6.13788">
        <ele>163.7</ele>
        <time>2025-02-16T12:26:40.000Z</time>
      </trkpt>
      <trkpt lat="43.47336" lon="6.13802">
        <ele>163.7</ele>
        <time>2025-02-16T12:26:49.000Z</time>
      </trkpt>
      <trkpt lat="43.47338" lon="6.13805">
        <ele>163.7</ele>
        <time>2025-02-16T12:26:55.000Z</time>
      </trkpt>
      <trkpt lat="43.47338" lon="6.13806">
        <ele>163.7</ele>
        <time>2025-02-16T12:26:56.000Z</time>
      </trkpt>
      <trkpt lat="43.47338" lon="6.13807">
        <ele>163.7</ele>
        <time>2025-02-16T12:26:57.000Z</time>
      </trkpt>
      <trkpt lat="43.47337" lon="6.13808">
        <ele>163.7</ele>
        <time>2025-02-16T12:26:58.000Z</time>
      </trkpt>
      <trkpt lat="43.47337" lon="6.13809">
        <ele>163.7</ele>
        <time>2025-02-16T12:26:59.000Z</time>
      </trkpt>
      <trkpt lat="43.47338" lon="6.13814">
        <ele>163.8</ele>
        <time>2025-02-16T12:27:17.000Z</time>
      </trkpt>
      <trkpt lat="43.47338" lon="6.13814">
        <ele>163.8</ele>
        <time>2025-02-16T12:27:18.000Z</time>
      </trkpt>
      <trkpt lat="43.47338" lon="6.13814">
        <ele>163.8</ele>
        <time>2025-02-16T12:27:19.000Z</time>
      </trkpt>
      <trkpt lat="43.47338" lon="6.13815">
        <ele>163.8</ele>
        <time>2025-02-16T12:27:26.000Z</time>
      </trkpt>
      <trkpt lat="43.47338" lon="6.13815">
        <ele>163.8</ele>
        <time>2025-02-16T12:27:27.000Z</time>
      </trkpt>
      <trkpt lat="43.47338" lon="6.13815">
        <ele>163.8</ele>
        <time>2025-02-16T12:27:28.000Z</time>
      </trkpt>
      <trkpt lat="43.47338" lon="6.13815">
        <ele>163.8</ele>
        <time>2025-02-16T12:27:29.000Z</time>
      </trkpt>
      <trkpt lat="43.47338" lon="6.13815">
        <ele>163.7</ele>
        <time>2025-02-16T12:27:35.000Z</time>
      </trkpt>
      <trkpt lat="43.47339" lon="6.13815">
        <ele>163.7</ele>
        <time>2025-02-16T12:27:36.000Z</time>
      </trkpt>
      <trkpt lat="43.47339" lon="6.13815">
        <ele>163.7</ele>
        <time>2025-02-16T12:27:37.000Z</time>
      </trkpt>
      <trkpt lat="43.47339" lon="6.13815">
        <ele>163.7</ele>
        <time>2025-02-16T12:27:38.000Z</time>
      </trkpt>
      <trkpt lat="43.47338" lon="6.13814">
        <ele>163.7</ele>
        <time>2025-02-16T12:27:39.000Z</time>
      </trkpt>
      <trkpt lat="43.47338" lon="6.13814">
        <ele>163.7</ele>
        <time>2025-02-16T12:27:43.000Z</time>
      </trkpt>
      <trkpt lat="43.47338" lon="6.13814">
        <ele>163.7</ele>
        <time>2025-02-16T12:27:44.000Z</time>
      </trkpt>
      <trkpt lat="43.47338" lon="6.13815">
        <ele>163.7</ele>
        <time>2025-02-16T12:27:50.000Z</time>
      </trkpt>
      <trkpt lat="43.47338" lon="6.13815">
        <ele>163.7</ele>
        <time>2025-02-16T12:27:51.000Z</time>
      </trkpt>
      <trkpt lat="43.47338" lon="6.13815">
        <ele>163.7</ele>
        <time>2025-02-16T12:27:57.000Z</time>
      </trkpt>
      <trkpt lat="43.47338" lon="6.13815">
        <ele>163.7</ele>
        <time>2025-02-16T12:27:58.000Z</time>
      </trkpt>
      <trkpt lat="43.47338" lon="6.13815">
        <ele>163.7</ele>
        <time>2025-02-16T12:27:59.000Z</time>
      </trkpt>
      <trkpt lat="43.47338" lon="6.13815">
        <ele>163.7</ele>
        <time>2025-02-16T12:28:02.000Z</time>
      </trkpt>
      <trkpt lat="43.47338" lon="6.13815">
        <ele>163.7</ele>
        <time>2025-02-16T12:28:03.000Z</time>
      </trkpt>
      <trkpt lat="43.47338" lon="6.13815">
        <ele>163.7</ele>
        <time>2025-02-16T12:28:04.000Z</time>
      </trkpt>
      <trkpt lat="43.47338" lon="6.13815">
        <ele>163.7</ele>
        <time>2025-02-16T12:28:12.000Z</time>
      </trkpt>
      <trkpt lat="43.47338" lon="6.13815">
        <ele>163.7</ele>
        <time>2025-02-16T12:28:13.000Z</time>
      </trkpt>
      <trkpt lat="43.47338" lon="6.13815">
        <ele>163.7</ele>
        <time>2025-02-16T12:28:14.000Z</time>
      </trkpt>
      <trkpt lat="43.47338" lon="6.13815">
        <ele>163.8</ele>
        <time>2025-02-16T12:28:17.000Z</time>
      </trkpt>
      <trkpt lat="43.47338" lon="6.13815">
        <ele>163.8</ele>
        <time>2025-02-16T12:28:18.000Z</time>
      </trkpt>
      <trkpt lat="43.47338" lon="6.13815">
        <ele>163.8</ele>
        <time>2025-02-16T12:28:19.000Z</time>
      </trkpt>
      <trkpt lat="43.47338" lon="6.13815">
        <ele>163.8</ele>
        <time>2025-02-16T12:28:20.000Z</time>
      </trkpt>
      <trkpt lat="43.47338" lon="6.13815">
        <ele>163.8</ele>
        <time>2025-02-16T12:28:21.000Z</time>
      </trkpt>
      <trkpt lat="43.47337" lon="6.13814">
        <ele>163.8</ele>
        <time>2025-02-16T12:28:25.000Z</time>
      </trkpt>
      <trkpt lat="43.47337" lon="6.13814">
        <ele>163.8</ele>
        <time>2025-02-16T12:28:26.000Z</time>
      </trkpt>
      <trkpt lat="43.47337" lon="6.13814">
        <ele>163.8</ele>
        <time>2025-02-16T12:28:27.000Z</time>
      </trkpt>
      <trkpt lat="43.47337" lon="6.13815">
        <ele>163.8</ele>
        <time>2025-02-16T12:28:31.000Z</time>
      </trkpt>
      <trkpt lat="43.47337" lon="6.13815">
        <ele>163.8</ele>
        <time>2025-02-16T12:28:32.000Z</time>
      </trkpt>
      <trkpt lat="43.47337" lon="6.13815">
        <ele>163.8</ele>
        <time>2025-02-16T12:28:36.000Z</time>
      </trkpt>
      <trkpt lat="43.47337" lon="6.13815">
        <ele>163.8</ele>
        <time>2025-02-16T12:28:37.000Z</time>
      </trkpt>
      <trkpt lat="43.47336" lon="6.13815">
        <ele>163.8</ele>
        <time>2025-02-16T12:28:40.000Z</time>
      </trkpt>
      <trkpt lat="43.47337" lon="6.13815">
        <ele>163.8</ele>
        <time>2025-02-16T12:28:41.000Z</time>
      </trkpt>
      <trkpt lat="43.47336" lon="6.13815">
        <ele>163.8</ele>
        <time>2025-02-16T12:28:42.000Z</time>
      </trkpt>
      <trkpt lat="43.47336" lon="6.13816">
        <ele>163.8</ele>
        <time>2025-02-16T12:29:02.000Z</time>
      </trkpt>
      <trkpt lat="43.47336" lon="6.13816">
        <ele>163.8</ele>
        <time>2025-02-16T12:29:03.000Z</time>
      </trkpt>
      <trkpt lat="43.47336" lon="6.13816">
        <ele>163.8</ele>
        <time>2025-02-16T12:29:04.000Z</time>
      </trkpt>
      <trkpt lat="43.47336" lon="6.13815">
        <ele>163.8</ele>
        <time>2025-02-16T12:29:08.000Z</time>
      </trkpt>
      <trkpt lat="43.47336" lon="6.13815">
        <ele>163.8</ele>
        <time>2025-02-16T12:29:09.000Z</time>
      </trkpt>
      <trkpt lat="43.47337" lon="6.13814">
        <ele>163.8</ele>
        <time>2025-02-16T12:29:17.000Z</time>
      </trkpt>
      <trkpt lat="43.47336" lon="6.13814">
        <ele>163.8</ele>
        <time>2025-02-16T12:29:18.000Z</time>
      </trkpt>
      <trkpt lat="43.47336" lon="6.13814">
        <ele>163.8</ele>
        <time>2025-02-16T12:29:19.000Z</time>
      </trkpt>
      <trkpt lat="43.47336" lon="6.13813">
        <ele>163.8</ele>
        <time>2025-02-16T12:29:20.000Z</time>
      </trkpt>
      <trkpt lat="43.47336" lon="6.13814">
        <ele>163.8</ele>
        <time>2025-02-16T12:29:21.000Z</time>
      </trkpt>
      <trkpt lat="43.47336" lon="6.13814">
        <ele>163.8</ele>
        <time>2025-02-16T12:29:22.000Z</time>
      </trkpt>
      <trkpt lat="43.47336" lon="6.13814">
        <ele>163.8</ele>
        <time>2025-02-16T12:29:23.000Z</time>
      </trkpt>
      <trkpt lat="43.47336" lon="6.13814">
        <ele>163.8</ele>
        <time>2025-02-16T12:29:24.000Z</time>
      </trkpt>
      <trkpt lat="43.47336" lon="6.13814">
        <ele>163.8</ele>
        <time>2025-02-16T12:29:25.000Z</time>
      </trkpt>
      <trkpt lat="43.47336" lon="6.13814">
        <ele>163.8</ele>
        <time>2025-02-16T12:29:26.000Z</time>
      </trkpt>
      <trkpt lat="43.47336" lon="6.13816">
        <ele>163.8</ele>
        <time>2025-02-16T12:29:27.000Z</time>
      </trkpt>
      <trkpt lat="43.47337" lon="6.1383">
        <ele>163.8</ele>
        <time>2025-02-16T12:29:35.000Z</time>
      </trkpt>
      <trkpt lat="43.47339" lon="6.13843">
        <ele>163.7</ele>
        <time>2025-02-16T12:29:43.000Z</time>
      </trkpt>
      <trkpt lat="43.47339" lon="6.13856">
        <ele>163.7</ele>
        <time>2025-02-16T12:29:50.000Z</time>
      </trkpt>
      <trkpt lat="43.47341" lon="6.13869">
        <ele>163.7</ele>
        <time>2025-02-16T12:29:58.000Z</time>
      </trkpt>
      <trkpt lat="43.47341" lon="6.13883">
        <ele>163.7</ele>
        <time>2025-02-16T12:30:06.000Z</time>
      </trkpt>
      <trkpt lat="43.47341" lon="6.13895">
        <ele>163.6</ele>
        <time>2025-02-16T12:30:14.000Z</time>
      </trkpt>
      <trkpt lat="43.47337" lon="6.13907">
        <ele>163.6</ele>
        <time>2025-02-16T12:30:22.000Z</time>
      </trkpt>
      <trkpt lat="43.47334" lon="6.1392">
        <ele>163.5</ele>
        <time>2025-02-16T12:30:30.000Z</time>
      </trkpt>
      <trkpt lat="43.47326" lon="6.13928">
        <ele>163.5</ele>
        <time>2025-02-16T12:30:37.000Z</time>
      </trkpt>
      <trkpt lat="43.4732" lon="6.13937">
        <ele>163.5</ele>
        <time>2025-02-16T12:30:43.000Z</time>
      </trkpt>
      <trkpt lat="43.47316" lon="6.13949">
        <ele>163.4</ele>
        <time>2025-02-16T12:30:51.000Z</time>
      </trkpt>
      <trkpt lat="43.47311" lon="6.13961">
        <ele>163.4</ele>
        <time>2025-02-16T12:30:58.000Z</time>
      </trkpt>
      <trkpt lat="43.47304" lon="6.13972">
        <ele>163.4</ele>
        <time>2025-02-16T12:31:07.000Z</time>
      </trkpt>
      <trkpt lat="43.47297" lon="6.13982">
        <ele>163.3</ele>
        <time>2025-02-16T12:31:14.000Z</time>
      </trkpt>
      <trkpt lat="43.47291" lon="6.13991">
        <ele>163.3</ele>
        <time>2025-02-16T12:31:21.000Z</time>
      </trkpt>
      <trkpt lat="43.47283" lon="6.14">
        <ele>163.2</ele>
        <time>2025-02-16T12:31:27.000Z</time>
      </trkpt>
      <trkpt lat="43.47276" lon="6.1401">
        <ele>163.1</ele>
        <time>2025-02-16T12:31:35.000Z</time>
      </trkpt>
      <trkpt lat="43.47277" lon="6.14023">
        <ele>163</ele>
        <time>2025-02-16T12:31:41.000Z</time>
      </trkpt>
      <trkpt lat="43.47276" lon="6.14036">
        <ele>162.9</ele>
        <time>2025-02-16T12:31:49.000Z</time>
      </trkpt>
      <trkpt lat="43.47276" lon="6.14037">
        <ele>162.9</ele>
        <time>2025-02-16T12:31:55.000Z</time>
      </trkpt>
      <trkpt lat="43.47276" lon="6.14037">
        <ele>162.9</ele>
        <time>2025-02-16T12:31:56.000Z</time>
      </trkpt>
      <trkpt lat="43.47277" lon="6.14038">
        <ele>162.9</ele>
        <time>2025-02-16T12:32:07.000Z</time>
      </trkpt>
      <trkpt lat="43.47278" lon="6.14038">
        <ele>162.9</ele>
        <time>2025-02-16T12:32:08.000Z</time>
      </trkpt>
      <trkpt lat="43.47278" lon="6.14038">
        <ele>162.9</ele>
        <time>2025-02-16T12:32:09.000Z</time>
      </trkpt>
      <trkpt lat="43.47278" lon="6.14038">
        <ele>162.9</ele>
        <time>2025-02-16T12:32:13.000Z</time>
      </trkpt>
      <trkpt lat="43.47278" lon="6.14038">
        <ele>162.9</ele>
        <time>2025-02-16T12:32:14.000Z</time>
      </trkpt>
      <trkpt lat="43.47278" lon="6.14038">
        <ele>162.9</ele>
        <time>2025-02-16T12:32:23.000Z</time>
      </trkpt>
      <trkpt lat="43.47278" lon="6.14038">
        <ele>162.9</ele>
        <time>2025-02-16T12:32:24.000Z</time>
      </trkpt>
      <trkpt lat="43.47278" lon="6.14038">
        <ele>162.9</ele>
        <time>2025-02-16T12:32:25.000Z</time>
      </trkpt>
      <trkpt lat="43.47278" lon="6.14038">
        <ele>162.9</ele>
        <time>2025-02-16T12:32:26.000Z</time>
      </trkpt>
      <trkpt lat="43.47278" lon="6.14038">
        <ele>162.9</ele>
        <time>2025-02-16T12:32:30.000Z</time>
      </trkpt>
      <trkpt lat="43.47278" lon="6.14038">
        <ele>162.9</ele>
        <time>2025-02-16T12:32:31.000Z</time>
      </trkpt>
      <trkpt lat="43.47278" lon="6.14038">
        <ele>162.9</ele>
        <time>2025-02-16T12:32:32.000Z</time>
      </trkpt>
      <trkpt lat="43.47278" lon="6.14038">
        <ele>162.8</ele>
        <time>2025-02-16T12:32:37.000Z</time>
      </trkpt>
      <trkpt lat="43.47278" lon="6.14038">
        <ele>162.8</ele>
        <time>2025-02-16T12:32:38.000Z</time>
      </trkpt>
      <trkpt lat="43.47278" lon="6.14038">
        <ele>162.8</ele>
        <time>2025-02-16T12:32:39.000Z</time>
      </trkpt>
      <trkpt lat="43.47278" lon="6.14038">
        <ele>162.9</ele>
        <time>2025-02-16T12:32:45.000Z</time>
      </trkpt>
      <trkpt lat="43.47278" lon="6.14038">
        <ele>162.9</ele>
        <time>2025-02-16T12:32:46.000Z</time>
      </trkpt>
      <trkpt lat="43.47278" lon="6.14038">
        <ele>162.9</ele>
        <time>2025-02-16T12:32:47.000Z</time>
      </trkpt>
      <trkpt lat="43.47278" lon="6.14038">
        <ele>162.9</ele>
        <time>2025-02-16T12:32:48.000Z</time>
      </trkpt>
      <trkpt lat="43.47278" lon="6.14038">
        <ele>162.9</ele>
        <time>2025-02-16T12:32:49.000Z</time>
      </trkpt>
      <trkpt lat="43.47278" lon="6.14039">
        <ele>162.8</ele>
        <time>2025-02-16T12:33:07.000Z</time>
      </trkpt>
      <trkpt lat="43.47278" lon="6.14041">
        <ele>162.8</ele>
        <time>2025-02-16T12:33:08.000Z</time>
      </trkpt>
      <trkpt lat="43.47278" lon="6.14043">
        <ele>162.8</ele>
        <time>2025-02-16T12:33:09.000Z</time>
      </trkpt>
      <trkpt lat="43.47279" lon="6.14055">
        <ele>162.8</ele>
        <time>2025-02-16T12:33:17.000Z</time>
      </trkpt>
      <trkpt lat="43.47277" lon="6.14068">
        <ele>162.8</ele>
        <time>2025-02-16T12:33:26.000Z</time>
      </trkpt>
      <trkpt lat="43.47277" lon="6.14082">
        <ele>162.8</ele>
        <time>2025-02-16T12:33:35.000Z</time>
      </trkpt>
      <trkpt lat="43.47277" lon="6.14096">
        <ele>162.9</ele>
        <time>2025-02-16T12:33:43.000Z</time>
      </trkpt>
      <trkpt lat="43.4728" lon="6.14106">
        <ele>163.1</ele>
        <time>2025-02-16T12:33:55.000Z</time>
      </trkpt>
      <trkpt lat="43.4728" lon="6.14106">
        <ele>163.1</ele>
        <time>2025-02-16T12:33:56.000Z</time>
      </trkpt>
      <trkpt lat="43.4728" lon="6.14106">
        <ele>163.1</ele>
        <time>2025-02-16T12:33:57.000Z</time>
      </trkpt>
      <trkpt lat="43.4728" lon="6.14107">
        <ele>163.3</ele>
        <time>2025-02-16T12:34:03.000Z</time>
      </trkpt>
      <trkpt lat="43.4728" lon="6.14107">
        <ele>163.3</ele>
        <time>2025-02-16T12:34:04.000Z</time>
      </trkpt>
      <trkpt lat="43.4728" lon="6.14107">
        <ele>163.3</ele>
        <time>2025-02-16T12:34:07.000Z</time>
      </trkpt>
      <trkpt lat="43.4728" lon="6.14107">
        <ele>163.3</ele>
        <time>2025-02-16T12:34:08.000Z</time>
      </trkpt>
      <trkpt lat="43.4728" lon="6.14107">
        <ele>163.4</ele>
        <time>2025-02-16T12:34:09.000Z</time>
      </trkpt>
      <trkpt lat="43.4728" lon="6.14109">
        <ele>163.6</ele>
        <time>2025-02-16T12:34:41.000Z</time>
      </trkpt>
      <trkpt lat="43.4728" lon="6.1411">
        <ele>163.6</ele>
        <time>2025-02-16T12:34:42.000Z</time>
      </trkpt>
      <trkpt lat="43.47271" lon="6.1411">
        <ele>163.7</ele>
        <time>2025-02-16T12:34:55.000Z</time>
      </trkpt>
      <trkpt lat="43.47264" lon="6.14119">
        <ele>163.8</ele>
        <time>2025-02-16T12:35:08.000Z</time>
      </trkpt>
      <trkpt lat="43.47262" lon="6.14132">
        <ele>163.9</ele>
        <time>2025-02-16T12:35:20.000Z</time>
      </trkpt>
      <trkpt lat="43.47261" lon="6.14145">
        <ele>163.9</ele>
        <time>2025-02-16T12:35:30.000Z</time>
      </trkpt>
      <trkpt lat="43.47259" lon="6.14158">
        <ele>164</ele>
        <time>2025-02-16T12:35:39.000Z</time>
      </trkpt>
      <trkpt lat="43.47257" lon="6.1417">
        <ele>164</ele>
        <time>2025-02-16T12:35:48.000Z</time>
      </trkpt>
      <trkpt lat="43.47256" lon="6.14184">
        <ele>164</ele>
        <time>2025-02-16T12:35:58.000Z</time>
      </trkpt>
      <trkpt lat="43.47254" lon="6.14196">
        <ele>164</ele>
        <time>2025-02-16T12:36:07.000Z</time>
      </trkpt>
      <trkpt lat="43.47253" lon="6.1421">
        <ele>164</ele>
        <time>2025-02-16T12:36:18.000Z</time>
      </trkpt>
      <trkpt lat="43.47251" lon="6.1422">
        <ele>164</ele>
        <time>2025-02-16T12:36:28.000Z</time>
      </trkpt>
      <trkpt lat="43.47251" lon="6.14221">
        <ele>164</ele>
        <time>2025-02-16T12:36:29.000Z</time>
      </trkpt>
      <trkpt lat="43.47251" lon="6.14222">
        <ele>164</ele>
        <time>2025-02-16T12:36:30.000Z</time>
      </trkpt>
      <trkpt lat="43.47251" lon="6.14223">
        <ele>164</ele>
        <time>2025-02-16T12:36:31.000Z</time>
      </trkpt>
      <trkpt lat="43.47249" lon="6.14236">
        <ele>164</ele>
        <time>2025-02-16T12:36:40.000Z</time>
      </trkpt>
      <trkpt lat="43.47247" lon="6.14248">
        <ele>164</ele>
        <time>2025-02-16T12:36:53.000Z</time>
      </trkpt>
      <trkpt lat="43.47244" lon="6.14261">
        <ele>164.1</ele>
        <time>2025-02-16T12:37:02.000Z</time>
      </trkpt>
      <trkpt lat="43.47242" lon="6.14274">
        <ele>164.1</ele>
        <time>2025-02-16T12:37:10.000Z</time>
      </trkpt>
      <trkpt lat="43.4724" lon="6.14287">
        <ele>164</ele>
        <time>2025-02-16T12:37:19.000Z</time>
      </trkpt>
      <trkpt lat="43.4724" lon="6.143">
        <ele>164</ele>
        <time>2025-02-16T12:37:27.000Z</time>
      </trkpt>
      <trkpt lat="43.47238" lon="6.14313">
        <ele>163.9</ele>
        <time>2025-02-16T12:37:35.000Z</time>
      </trkpt>
      <trkpt lat="43.47239" lon="6.14326">
        <ele>163.9</ele>
        <time>2025-02-16T12:37:48.000Z</time>
      </trkpt>
      <trkpt lat="43.47239" lon="6.14339">
        <ele>163.9</ele>
        <time>2025-02-16T12:37:57.000Z</time>
      </trkpt>
      <trkpt lat="43.47239" lon="6.14352">
        <ele>163.9</ele>
        <time>2025-02-16T12:38:06.000Z</time>
      </trkpt>
      <trkpt lat="43.4724" lon="6.14365">
        <ele>163.9</ele>
        <time>2025-02-16T12:38:14.000Z</time>
      </trkpt>
      <trkpt lat="43.4724" lon="6.14377">
        <ele>163.8</ele>
        <time>2025-02-16T12:38:22.000Z</time>
      </trkpt>
      <trkpt lat="43.4724" lon="6.14391">
        <ele>163.8</ele>
        <time>2025-02-16T12:38:31.000Z</time>
      </trkpt>
      <trkpt lat="43.4724" lon="6.14404">
        <ele>163.8</ele>
        <time>2025-02-16T12:38:39.000Z</time>
      </trkpt>
      <trkpt lat="43.47241" lon="6.14416">
        <ele>163.7</ele>
        <time>2025-02-16T12:38:47.000Z</time>
      </trkpt>
      <trkpt lat="43.4724" lon="6.14429">
        <ele>163.5</ele>
        <time>2025-02-16T12:38:56.000Z</time>
      </trkpt>
      <trkpt lat="43.47241" lon="6.14443">
        <ele>163.4</ele>
        <time>2025-02-16T12:39:05.000Z</time>
      </trkpt>
      <trkpt lat="43.47232" lon="6.1445">
        <ele>163.3</ele>
        <time>2025-02-16T12:39:18.000Z</time>
      </trkpt>
      <trkpt lat="43.47224" lon="6.14454">
        <ele>163.3</ele>
        <time>2025-02-16T12:39:27.000Z</time>
      </trkpt>
      <trkpt lat="43.47214" lon="6.14458">
        <ele>163.2</ele>
        <time>2025-02-16T12:39:36.000Z</time>
      </trkpt>
      <trkpt lat="43.47206" lon="6.14462">
        <ele>163.3</ele>
        <time>2025-02-16T12:39:44.000Z</time>
      </trkpt>
      <trkpt lat="43.47197" lon="6.14467">
        <ele>163.2</ele>
        <time>2025-02-16T12:39:52.000Z</time>
      </trkpt>
      <trkpt lat="43.47188" lon="6.14473">
        <ele>163.1</ele>
        <time>2025-02-16T12:40:00.000Z</time>
      </trkpt>
      <trkpt lat="43.47179" lon="6.14477">
        <ele>163.1</ele>
        <time>2025-02-16T12:40:08.000Z</time>
      </trkpt>
      <trkpt lat="43.47171" lon="6.14482">
        <ele>163.2</ele>
        <time>2025-02-16T12:40:16.000Z</time>
      </trkpt>
      <trkpt lat="43.47162" lon="6.14487">
        <ele>163.2</ele>
        <time>2025-02-16T12:40:25.000Z</time>
      </trkpt>
      <trkpt lat="43.47154" lon="6.14492">
        <ele>163.2</ele>
        <time>2025-02-16T12:40:34.000Z</time>
      </trkpt>
      <trkpt lat="43.47145" lon="6.14498">
        <ele>163.2</ele>
        <time>2025-02-16T12:40:42.000Z</time>
      </trkpt>
      <trkpt lat="43.47137" lon="6.14503">
        <ele>163.2</ele>
        <time>2025-02-16T12:40:50.000Z</time>
      </trkpt>
      <trkpt lat="43.47129" lon="6.14509">
        <ele>163.2</ele>
        <time>2025-02-16T12:40:58.000Z</time>
      </trkpt>
      <trkpt lat="43.47127" lon="6.14522">
        <ele>163.1</ele>
        <time>2025-02-16T12:41:07.000Z</time>
      </trkpt>
      <trkpt lat="43.47129" lon="6.14535">
        <ele>163</ele>
        <time>2025-02-16T12:41:14.000Z</time>
      </trkpt>
      <trkpt lat="43.47131" lon="6.14548">
        <ele>162.8</ele>
        <time>2025-02-16T12:41:23.000Z</time>
      </trkpt>
      <trkpt lat="43.47134" lon="6.1456">
        <ele>162.4</ele>
        <time>2025-02-16T12:41:31.000Z</time>
      </trkpt>
      <trkpt lat="43.47136" lon="6.14572">
        <ele>162.1</ele>
        <time>2025-02-16T12:41:39.000Z</time>
      </trkpt>
      <trkpt lat="43.47138" lon="6.14586">
        <ele>161.9</ele>
        <time>2025-02-16T12:41:48.000Z</time>
      </trkpt>
      <trkpt lat="43.4714" lon="6.14598">
        <ele>161.7</ele>
        <time>2025-02-16T12:41:57.000Z</time>
      </trkpt>
      <trkpt lat="43.47143" lon="6.14611">
        <ele>161.5</ele>
        <time>2025-02-16T12:42:08.000Z</time>
      </trkpt>
      <trkpt lat="43.47144" lon="6.14624">
        <ele>161.3</ele>
        <time>2025-02-16T12:42:17.000Z</time>
      </trkpt>
      <trkpt lat="43.47142" lon="6.14637">
        <ele>161.2</ele>
        <time>2025-02-16T12:42:26.000Z</time>
      </trkpt>
      <trkpt lat="43.4714" lon="6.1465">
        <ele>161.1</ele>
        <time>2025-02-16T12:42:36.000Z</time>
      </trkpt>
      <trkpt lat="43.47139" lon="6.14662">
        <ele>161</ele>
        <time>2025-02-16T12:42:45.000Z</time>
      </trkpt>
      <trkpt lat="43.47137" lon="6.14675">
        <ele>160.9</ele>
        <time>2025-02-16T12:42:54.000Z</time>
      </trkpt>
      <trkpt lat="43.47135" lon="6.14688">
        <ele>160.9</ele>
        <time>2025-02-16T12:43:03.000Z</time>
      </trkpt>
      <trkpt lat="43.47133" lon="6.14701">
        <ele>160.9</ele>
        <time>2025-02-16T12:43:12.000Z</time>
      </trkpt>
      <trkpt lat="43.47131" lon="6.14714">
        <ele>160.8</ele>
        <time>2025-02-16T12:43:21.000Z</time>
      </trkpt>
      <trkpt lat="43.47131" lon="6.14716">
        <ele>160.8</ele>
        <time>2025-02-16T12:43:26.000Z</time>
      </trkpt>
      <trkpt lat="43.47131" lon="6.14716">
        <ele>160.8</ele>
        <time>2025-02-16T12:43:27.000Z</time>
      </trkpt>
      <trkpt lat="43.47131" lon="6.14717">
        <ele>160.8</ele>
        <time>2025-02-16T12:43:32.000Z</time>
      </trkpt>
      <trkpt lat="43.47131" lon="6.14718">
        <ele>160.8</ele>
        <time>2025-02-16T12:43:33.000Z</time>
      </trkpt>
      <trkpt lat="43.4713" lon="6.14719">
        <ele>160.8</ele>
        <time>2025-02-16T12:43:34.000Z</time>
      </trkpt>
      <trkpt lat="43.4713" lon="6.14733">
        <ele>160.8</ele>
        <time>2025-02-16T12:43:44.000Z</time>
      </trkpt>
      <trkpt lat="43.47129" lon="6.14745">
        <ele>160.8</ele>
        <time>2025-02-16T12:43:53.000Z</time>
      </trkpt>
      <trkpt lat="43.47128" lon="6.14759">
        <ele>160.7</ele>
        <time>2025-02-16T12:44:02.000Z</time>
      </trkpt>
      <trkpt lat="43.47126" lon="6.14772">
        <ele>160.7</ele>
        <time>2025-02-16T12:44:12.000Z</time>
      </trkpt>
      <trkpt lat="43.47125" lon="6.14786">
        <ele>160.7</ele>
        <time>2025-02-16T12:44:20.000Z</time>
      </trkpt>
      <trkpt lat="43.47126" lon="6.14799">
        <ele>160.7</ele>
        <time>2025-02-16T12:44:28.000Z</time>
      </trkpt>
      <trkpt lat="43.47125" lon="6.14812">
        <ele>160.7</ele>
        <time>2025-02-16T12:44:36.000Z</time>
      </trkpt>
      <trkpt lat="43.47124" lon="6.14826">
        <ele>160.7</ele>
        <time>2025-02-16T12:44:44.000Z</time>
      </trkpt>
      <trkpt lat="43.47124" lon="6.1484">
        <ele>160.7</ele>
        <time>2025-02-16T12:44:52.000Z</time>
      </trkpt>
      <trkpt lat="43.47123" lon="6.14852">
        <ele>160.7</ele>
        <time>2025-02-16T12:45:00.000Z</time>
      </trkpt>
      <trkpt lat="43.47123" lon="6.14866">
        <ele>160.6</ele>
        <time>2025-02-16T12:45:09.000Z</time>
      </trkpt>
      <trkpt lat="43.47122" lon="6.14878">
        <ele>160.5</ele>
        <time>2025-02-16T12:45:17.000Z</time>
      </trkpt>
      <trkpt lat="43.47122" lon="6.14892">
        <ele>160.5</ele>
        <time>2025-02-16T12:45:26.000Z</time>
      </trkpt>
      <trkpt lat="43.4712" lon="6.14905">
        <ele>160.4</ele>
        <time>2025-02-16T12:45:35.000Z</time>
      </trkpt>
      <trkpt lat="43.47118" lon="6.14918">
        <ele>160.3</ele>
        <time>2025-02-16T12:45:46.000Z</time>
      </trkpt>
      <trkpt lat="43.4712" lon="6.1493">
        <ele>160.3</ele>
        <time>2025-02-16T12:45:55.000Z</time>
      </trkpt>
      <trkpt lat="43.4711" lon="6.14932">
        <ele>160.3</ele>
        <time>2025-02-16T12:46:06.000Z</time>
      </trkpt>
      <trkpt lat="43.471" lon="6.14931">
        <ele>160.3</ele>
        <time>2025-02-16T12:46:14.000Z</time>
      </trkpt>
      <trkpt lat="43.47091" lon="6.1493">
        <ele>160.2</ele>
        <time>2025-02-16T12:46:22.000Z</time>
      </trkpt>
      <trkpt lat="43.47081" lon="6.14929">
        <ele>160</ele>
        <time>2025-02-16T12:46:31.000Z</time>
      </trkpt>
      <trkpt lat="43.47071" lon="6.14928">
        <ele>159.9</ele>
        <time>2025-02-16T12:46:41.000Z</time>
      </trkpt>
      <trkpt lat="43.47061" lon="6.14927">
        <ele>159.8</ele>
        <time>2025-02-16T12:46:50.000Z</time>
      </trkpt>
      <trkpt lat="43.47052" lon="6.14926">
        <ele>159.8</ele>
        <time>2025-02-16T12:46:59.000Z</time>
      </trkpt>
      <trkpt lat="43.47042" lon="6.14925">
        <ele>159.7</ele>
        <time>2025-02-16T12:47:08.000Z</time>
      </trkpt>
      <trkpt lat="43.47032" lon="6.14925">
        <ele>159.6</ele>
        <time>2025-02-16T12:47:16.000Z</time>
      </trkpt>
      <trkpt lat="43.47023" lon="6.14924">
        <ele>159.5</ele>
        <time>2025-02-16T12:47:28.000Z</time>
      </trkpt>
      <trkpt lat="43.47014" lon="6.14925">
        <ele>159.5</ele>
        <time>2025-02-16T12:47:36.000Z</time>
      </trkpt>
      <trkpt lat="43.47004" lon="6.14923">
        <ele>159.4</ele>
        <time>2025-02-16T12:47:46.000Z</time>
      </trkpt>
      <trkpt lat="43.46994" lon="6.14922">
        <ele>159.4</ele>
        <time>2025-02-16T12:47:55.000Z</time>
      </trkpt>
      <trkpt lat="43.46984" lon="6.1492">
        <ele>159.3</ele>
        <time>2025-02-16T12:48:05.000Z</time>
      </trkpt>
      <trkpt lat="43.4698" lon="6.14932">
        <ele>159.1</ele>
        <time>2025-02-16T12:48:15.000Z</time>
      </trkpt>
      <trkpt lat="43.46981" lon="6.14944">
        <ele>159</ele>
        <time>2025-02-16T12:48:22.000Z</time>
      </trkpt>
      <trkpt lat="43.46982" lon="6.14957">
        <ele>158.9</ele>
        <time>2025-02-16T12:48:30.000Z</time>
      </trkpt>
      <trkpt lat="43.46982" lon="6.1497">
        <ele>158.7</ele>
        <time>2025-02-16T12:48:38.000Z</time>
      </trkpt>
      <trkpt lat="43.46983" lon="6.14983">
        <ele>158.5</ele>
        <time>2025-02-16T12:48:48.000Z</time>
      </trkpt>
      <trkpt lat="43.46982" lon="6.14996">
        <ele>158.3</ele>
        <time>2025-02-16T12:48:57.000Z</time>
      </trkpt>
      <trkpt lat="43.46984" lon="6.15009">
        <ele>158.3</ele>
        <time>2025-02-16T12:49:06.000Z</time>
      </trkpt>
      <trkpt lat="43.46984" lon="6.15011">
        <ele>158.2</ele>
        <time>2025-02-16T12:49:11.000Z</time>
      </trkpt>
      <trkpt lat="43.46984" lon="6.15011">
        <ele>158.2</ele>
        <time>2025-02-16T12:49:12.000Z</time>
      </trkpt>
      <trkpt lat="43.46984" lon="6.15011">
        <ele>158.2</ele>
        <time>2025-02-16T12:49:13.000Z</time>
      </trkpt>
      <trkpt lat="43.46984" lon="6.15011">
        <ele>158.2</ele>
        <time>2025-02-16T12:49:14.000Z</time>
      </trkpt>
      <trkpt lat="43.46984" lon="6.15011">
        <ele>158.2</ele>
        <time>2025-02-16T12:49:15.000Z</time>
      </trkpt>
      <trkpt lat="43.46984" lon="6.15011">
        <ele>158.2</ele>
        <time>2025-02-16T12:49:16.000Z</time>
      </trkpt>
      <trkpt lat="43.46984" lon="6.15011">
        <ele>158.2</ele>
        <time>2025-02-16T12:49:17.000Z</time>
      </trkpt>
      <trkpt lat="43.46985" lon="6.15014">
        <ele>158.1</ele>
        <time>2025-02-16T12:49:25.000Z</time>
      </trkpt>
      <trkpt lat="43.46985" lon="6.15015">
        <ele>158.1</ele>
        <time>2025-02-16T12:49:26.000Z</time>
      </trkpt>
      <trkpt lat="43.46985" lon="6.15016">
        <ele>158.1</ele>
        <time>2025-02-16T12:49:27.000Z</time>
      </trkpt>
      <trkpt lat="43.46992" lon="6.15024">
        <ele>158</ele>
        <time>2025-02-16T12:49:36.000Z</time>
      </trkpt>
      <trkpt lat="43.47001" lon="6.1503">
        <ele>158.1</ele>
        <time>2025-02-16T12:49:45.000Z</time>
      </trkpt>
      <trkpt lat="43.4701" lon="6.15028">
        <ele>158.1</ele>
        <time>2025-02-16T12:49:53.000Z</time>
      </trkpt>
      <trkpt lat="43.47019" lon="6.15028">
        <ele>158.2</ele>
        <time>2025-02-16T12:50:01.000Z</time>
      </trkpt>
      <trkpt lat="43.47029" lon="6.15028">
        <ele>158.2</ele>
        <time>2025-02-16T12:50:10.000Z</time>
      </trkpt>
      <trkpt lat="43.47038" lon="6.15031">
        <ele>158.3</ele>
        <time>2025-02-16T12:50:18.000Z</time>
      </trkpt>
      <trkpt lat="43.47048" lon="6.15032">
        <ele>158.3</ele>
        <time>2025-02-16T12:50:26.000Z</time>
      </trkpt>
      <trkpt lat="43.47057" lon="6.15032">
        <ele>158.3</ele>
        <time>2025-02-16T12:50:34.000Z</time>
      </trkpt>
      <trkpt lat="43.47067" lon="6.15033">
        <ele>158.2</ele>
        <time>2025-02-16T12:50:44.000Z</time>
      </trkpt>
      <trkpt lat="43.47076" lon="6.15033">
        <ele>158.1</ele>
        <time>2025-02-16T12:50:54.000Z</time>
      </trkpt>
      <trkpt lat="43.47085" lon="6.15036">
        <ele>157.9</ele>
        <time>2025-02-16T12:51:03.000Z</time>
      </trkpt>
      <trkpt lat="43.47091" lon="6.15047">
        <ele>157.7</ele>
        <time>2025-02-16T12:51:12.000Z</time>
      </trkpt>
      <trkpt lat="43.47091" lon="6.1506">
        <ele>157.4</ele>
        <time>2025-02-16T12:51:22.000Z</time>
      </trkpt>
      <trkpt lat="43.4709" lon="6.15073">
        <ele>157.1</ele>
        <time>2025-02-16T12:51:31.000Z</time>
      </trkpt>
      <trkpt lat="43.4709" lon="6.15086">
        <ele>156.8</ele>
        <time>2025-02-16T12:51:41.000Z</time>
      </trkpt>
      <trkpt lat="43.47087" lon="6.15099">
        <ele>156.6</ele>
        <time>2025-02-16T12:51:51.000Z</time>
      </trkpt>
      <trkpt lat="43.47087" lon="6.15112">
        <ele>156.5</ele>
        <time>2025-02-16T12:52:00.000Z</time>
      </trkpt>
      <trkpt lat="43.47088" lon="6.15117">
        <ele>156.5</ele>
        <time>2025-02-16T12:52:27.000Z</time>
      </trkpt>
      <trkpt lat="43.47088" lon="6.15117">
        <ele>156.5</ele>
        <time>2025-02-16T12:52:28.000Z</time>
      </trkpt>
      <trkpt lat="43.47088" lon="6.15117">
        <ele>156.5</ele>
        <time>2025-02-16T12:52:29.000Z</time>
      </trkpt>
      <trkpt lat="43.47087" lon="6.15117">
        <ele>156.5</ele>
        <time>2025-02-16T12:52:56.000Z</time>
      </trkpt>
      <trkpt lat="43.47087" lon="6.15117">
        <ele>156.4</ele>
        <time>2025-02-16T12:52:57.000Z</time>
      </trkpt>
      <trkpt lat="43.47088" lon="6.15117">
        <ele>156.5</ele>
        <time>2025-02-16T12:53:10.000Z</time>
      </trkpt>
      <trkpt lat="43.47088" lon="6.15117">
        <ele>156.5</ele>
        <time>2025-02-16T12:53:11.000Z</time>
      </trkpt>
      <trkpt lat="43.47088" lon="6.15117">
        <ele>156.5</ele>
        <time>2025-02-16T12:53:12.000Z</time>
      </trkpt>
      <trkpt lat="43.47089" lon="6.15117">
        <ele>156.5</ele>
        <time>2025-02-16T12:53:13.000Z</time>
      </trkpt>
      <trkpt lat="43.47089" lon="6.15117">
        <ele>156.5</ele>
        <time>2025-02-16T12:53:14.000Z</time>
      </trkpt>
      <trkpt lat="43.47089" lon="6.15117">
        <ele>156.5</ele>
        <time>2025-02-16T12:53:15.000Z</time>
      </trkpt>
      <trkpt lat="43.47089" lon="6.15117">
        <ele>156.5</ele>
        <time>2025-02-16T12:53:16.000Z</time>
      </trkpt>
      <trkpt lat="43.47088" lon="6.15117">
        <ele>156.4</ele>
        <time>2025-02-16T12:53:35.000Z</time>
      </trkpt>
      <trkpt lat="43.47088" lon="6.15118">
        <ele>156.3</ele>
        <time>2025-02-16T12:53:36.000Z</time>
      </trkpt>
      <trkpt lat="43.47086" lon="6.15119">
        <ele>156</ele>
        <time>2025-02-16T12:53:51.000Z</time>
      </trkpt>
      <trkpt lat="43.47086" lon="6.15119">
        <ele>156</ele>
        <time>2025-02-16T12:53:52.000Z</time>
      </trkpt>
      <trkpt lat="43.47086" lon="6.15119">
        <ele>155.8</ele>
        <time>2025-02-16T12:53:56.000Z</time>
      </trkpt>
      <trkpt lat="43.47086" lon="6.15119">
        <ele>155.8</ele>
        <time>2025-02-16T12:53:57.000Z</time>
      </trkpt>
      <trkpt lat="43.47086" lon="6.15125">
        <ele>155.5</ele>
        <time>2025-02-16T12:54:08.000Z</time>
      </trkpt>
      <trkpt lat="43.47086" lon="6.15125">
        <ele>155.5</ele>
        <time>2025-02-16T12:54:09.000Z</time>
      </trkpt>
      <trkpt lat="43.47086" lon="6.15125">
        <ele>155.5</ele>
        <time>2025-02-16T12:54:10.000Z</time>
      </trkpt>
      <trkpt lat="43.47086" lon="6.15125">
        <ele>155.2</ele>
        <time>2025-02-16T12:54:23.000Z</time>
      </trkpt>
      <trkpt lat="43.47085" lon="6.15126">
        <ele>155.2</ele>
        <time>2025-02-16T12:54:24.000Z</time>
      </trkpt>
      <trkpt lat="43.47087" lon="6.15138">
        <ele>155.1</ele>
        <time>2025-02-16T12:54:37.000Z</time>
      </trkpt>
      <trkpt lat="43.47087" lon="6.15139">
        <ele>155.1</ele>
        <time>2025-02-16T12:54:40.000Z</time>
      </trkpt>
      <trkpt lat="43.47087" lon="6.15139">
        <ele>155.1</ele>
        <time>2025-02-16T12:54:41.000Z</time>
      </trkpt>
      <trkpt lat="43.47087" lon="6.15139">
        <ele>155.1</ele>
        <time>2025-02-16T12:54:42.000Z</time>
      </trkpt>
      <trkpt lat="43.47087" lon="6.15139">
        <ele>155</ele>
        <time>2025-02-16T12:54:50.000Z</time>
      </trkpt>
      <trkpt lat="43.47087" lon="6.15139">
        <ele>155</ele>
        <time>2025-02-16T12:54:51.000Z</time>
      </trkpt>
      <trkpt lat="43.47087" lon="6.15139">
        <ele>155</ele>
        <time>2025-02-16T12:54:55.000Z</time>
      </trkpt>
      <trkpt lat="43.47086" lon="6.15139">
        <ele>155</ele>
        <time>2025-02-16T12:54:56.000Z</time>
      </trkpt>
      <trkpt lat="43.47087" lon="6.15139">
        <ele>154.8</ele>
        <time>2025-02-16T12:55:20.000Z</time>
      </trkpt>
      <trkpt lat="43.47087" lon="6.15139">
        <ele>154.7</ele>
        <time>2025-02-16T12:55:21.000Z</time>
      </trkpt>
      <trkpt lat="43.47087" lon="6.15139">
        <ele>154.7</ele>
        <time>2025-02-16T12:55:22.000Z</time>
      </trkpt>
      <trkpt lat="43.47087" lon="6.15139">
        <ele>154.7</ele>
        <time>2025-02-16T12:55:23.000Z</time>
      </trkpt>
      <trkpt lat="43.47087" lon="6.15139">
        <ele>154.7</ele>
        <time>2025-02-16T12:55:24.000Z</time>
      </trkpt>
      <trkpt lat="43.47088" lon="6.15141">
        <ele>154.6</ele>
        <time>2025-02-16T12:55:37.000Z</time>
      </trkpt>
      <trkpt lat="43.47088" lon="6.15142">
        <ele>154.5</ele>
        <time>2025-02-16T12:55:38.000Z</time>
      </trkpt>
      <trkpt lat="43.47089" lon="6.15143">
        <ele>154.5</ele>
        <time>2025-02-16T12:55:39.000Z</time>
      </trkpt>
      <trkpt lat="43.47089" lon="6.15145">
        <ele>154.4</ele>
        <time>2025-02-16T12:55:45.000Z</time>
      </trkpt>
      <trkpt lat="43.47089" lon="6.15145">
        <ele>154.4</ele>
        <time>2025-02-16T12:55:46.000Z</time>
      </trkpt>
      <trkpt lat="43.47089" lon="6.15145">
        <ele>154.4</ele>
        <time>2025-02-16T12:55:50.000Z</time>
      </trkpt>
      <trkpt lat="43.47089" lon="6.15145">
        <ele>154.4</ele>
        <time>2025-02-16T12:55:51.000Z</time>
      </trkpt>
      <trkpt lat="43.47089" lon="6.15145">
        <ele>154.4</ele>
        <time>2025-02-16T12:55:52.000Z</time>
      </trkpt>
      <trkpt lat="43.47089" lon="6.15145">
        <ele>154.4</ele>
        <time>2025-02-16T12:55:53.000Z</time>
      </trkpt>
      <trkpt lat="43.47089" lon="6.15145">
        <ele>154.4</ele>
        <time>2025-02-16T12:55:54.000Z</time>
      </trkpt>
      <trkpt lat="43.47089" lon="6.15146">
        <ele>154.3</ele>
        <time>2025-02-16T12:56:01.000Z</time>
      </trkpt>
      <trkpt lat="43.47089" lon="6.15146">
        <ele>154.3</ele>
        <time>2025-02-16T12:56:02.000Z</time>
      </trkpt>
      <trkpt lat="43.47089" lon="6.15146">
        <ele>154.3</ele>
        <time>2025-02-16T12:56:03.000Z</time>
      </trkpt>
      <trkpt lat="43.47089" lon="6.15146">
        <ele>154.3</ele>
        <time>2025-02-16T12:56:04.000Z</time>
      </trkpt>
      <trkpt lat="43.47089" lon="6.15145">
        <ele>154.3</ele>
        <time>2025-02-16T12:56:15.000Z</time>
      </trkpt>
      <trkpt lat="43.47089" lon="6.15145">
        <ele>154.3</ele>
        <time>2025-02-16T12:56:16.000Z</time>
      </trkpt>
      <trkpt lat="43.47089" lon="6.15145">
        <ele>154.3</ele>
        <time>2025-02-16T12:56:17.000Z</time>
      </trkpt>
      <trkpt lat="43.47089" lon="6.15145">
        <ele>154.3</ele>
        <time>2025-02-16T12:56:18.000Z</time>
      </trkpt>
      <trkpt lat="43.47089" lon="6.15145">
        <ele>154.2</ele>
        <time>2025-02-16T12:56:19.000Z</time>
      </trkpt>
      <trkpt lat="43.47089" lon="6.15145">
        <ele>154.2</ele>
        <time>2025-02-16T12:56:20.000Z</time>
      </trkpt>
      <trkpt lat="43.47089" lon="6.15145">
        <ele>153.9</ele>
        <time>2025-02-16T12:57:18.000Z</time>
      </trkpt>
      <trkpt lat="43.47089" lon="6.15146">
        <ele>153.9</ele>
        <time>2025-02-16T12:57:19.000Z</time>
      </trkpt>
      <trkpt lat="43.47089" lon="6.15159">
        <ele>153.8</ele>
        <time>2025-02-16T12:57:29.000Z</time>
      </trkpt>
      <trkpt lat="43.47089" lon="6.15172">
        <ele>153.7</ele>
        <time>2025-02-16T12:57:37.000Z</time>
      </trkpt>
      <trkpt lat="43.47089" lon="6.15185">
        <ele>153.6</ele>
        <time>2025-02-16T12:57:45.000Z</time>
      </trkpt>
      <trkpt lat="43.47089" lon="6.15199">
        <ele>153.6</ele>
        <time>2025-02-16T12:57:54.000Z</time>
      </trkpt>
      <trkpt lat="43.47088" lon="6.15212">
        <ele>153.5</ele>
        <time>2025-02-16T12:58:02.000Z</time>
      </trkpt>
      <trkpt lat="43.47089" lon="6.15225">
        <ele>153.5</ele>
        <time>2025-02-16T12:58:10.000Z</time>
      </trkpt>
      <trkpt lat="43.47088" lon="6.15238">
        <ele>153.6</ele>
        <time>2025-02-16T12:58:18.000Z</time>
      </trkpt>
      <trkpt lat="43.47087" lon="6.15251">
        <ele>153.6</ele>
        <time>2025-02-16T12:58:26.000Z</time>
      </trkpt>
      <trkpt lat="43.47086" lon="6.15266">
        <ele>153.6</ele>
        <time>2025-02-16T12:58:35.000Z</time>
      </trkpt>
      <trkpt lat="43.47086" lon="6.15279">
        <ele>153.6</ele>
        <time>2025-02-16T12:58:44.000Z</time>
      </trkpt>
      <trkpt lat="43.47084" lon="6.15291">
        <ele>153.6</ele>
        <time>2025-02-16T12:58:53.000Z</time>
      </trkpt>
      <trkpt lat="43.47082" lon="6.15304">
        <ele>153.5</ele>
        <time>2025-02-16T12:59:01.000Z</time>
      </trkpt>
      <trkpt lat="43.47081" lon="6.15318">
        <ele>153.4</ele>
        <time>2025-02-16T12:59:10.000Z</time>
      </trkpt>
      <trkpt lat="43.47083" lon="6.15331">
        <ele>153.2</ele>
        <time>2025-02-16T12:59:18.000Z</time>
      </trkpt>
      <trkpt lat="43.47083" lon="6.15344">
        <ele>152.8</ele>
        <time>2025-02-16T12:59:27.000Z</time>
      </trkpt>
      <trkpt lat="43.47082" lon="6.15357">
        <ele>152.1</ele>
        <time>2025-02-16T12:59:36.000Z</time>
      </trkpt>
      <trkpt lat="43.47088" lon="6.15367">
        <ele>151.1</ele>
        <time>2025-02-16T12:59:44.000Z</time>
      </trkpt>
      <trkpt lat="43.47098" lon="6.15368">
        <ele>150.5</ele>
        <time>2025-02-16T12:59:51.000Z</time>
      </trkpt>
      <trkpt lat="43.47107" lon="6.15365">
        <ele>150</ele>
        <time>2025-02-16T12:59:58.000Z</time>
      </trkpt>
      <trkpt lat="43.47117" lon="6.15365">
        <ele>149.6</ele>
        <time>2025-02-16T13:00:06.000Z</time>
      </trkpt>
      <trkpt lat="43.47126" lon="6.15367">
        <ele>149.4</ele>
        <time>2025-02-16T13:00:14.000Z</time>
      </trkpt>
      <trkpt lat="43.47136" lon="6.15364">
        <ele>149.2</ele>
        <time>2025-02-16T13:00:22.000Z</time>
      </trkpt>
      <trkpt lat="43.47145" lon="6.15363">
        <ele>149</ele>
        <time>2025-02-16T13:00:30.000Z</time>
      </trkpt>
      <trkpt lat="43.47145" lon="6.15363">
        <ele>148.9</ele>
        <time>2025-02-16T13:00:35.000Z</time>
      </trkpt>
      <trkpt lat="43.47145" lon="6.15363">
        <ele>148.9</ele>
        <time>2025-02-16T13:00:36.000Z</time>
      </trkpt>
      <trkpt lat="43.47145" lon="6.15363">
        <ele>148.9</ele>
        <time>2025-02-16T13:00:37.000Z</time>
      </trkpt>
      <trkpt lat="43.47145" lon="6.15363">
        <ele>148.8</ele>
        <time>2025-02-16T13:00:42.000Z</time>
      </trkpt>
      <trkpt lat="43.47145" lon="6.15362">
        <ele>148.7</ele>
        <time>2025-02-16T13:00:43.000Z</time>
      </trkpt>
      <trkpt lat="43.47146" lon="6.15362">
        <ele>148.7</ele>
        <time>2025-02-16T13:00:44.000Z</time>
      </trkpt>
      <trkpt lat="43.47146" lon="6.15362">
        <ele>148.7</ele>
        <time>2025-02-16T13:00:47.000Z</time>
      </trkpt>
      <trkpt lat="43.47147" lon="6.15362">
        <ele>148.7</ele>
        <time>2025-02-16T13:00:48.000Z</time>
      </trkpt>
      <trkpt lat="43.47148" lon="6.15362">
        <ele>148.6</ele>
        <time>2025-02-16T13:00:49.000Z</time>
      </trkpt>
      <trkpt lat="43.47149" lon="6.15361">
        <ele>148.6</ele>
        <time>2025-02-16T13:00:50.000Z</time>
      </trkpt>
      <trkpt lat="43.47151" lon="6.15361">
        <ele>148.6</ele>
        <time>2025-02-16T13:00:51.000Z</time>
      </trkpt>
      <trkpt lat="43.4716" lon="6.15361">
        <ele>148.4</ele>
        <time>2025-02-16T13:00:59.000Z</time>
      </trkpt>
      <trkpt lat="43.47169" lon="6.15361">
        <ele>148.3</ele>
        <time>2025-02-16T13:01:07.000Z</time>
      </trkpt>
      <trkpt lat="43.47179" lon="6.15359">
        <ele>148.2</ele>
        <time>2025-02-16T13:01:15.000Z</time>
      </trkpt>
      <trkpt lat="43.47188" lon="6.15359">
        <ele>148.2</ele>
        <time>2025-02-16T13:01:23.000Z</time>
      </trkpt>
      <trkpt lat="43.47198" lon="6.15358">
        <ele>148.2</ele>
        <time>2025-02-16T13:01:30.000Z</time>
      </trkpt>
      <trkpt lat="43.47208" lon="6.15357">
        <ele>148.2</ele>
        <time>2025-02-16T13:01:39.000Z</time>
      </trkpt>
      <trkpt lat="43.47218" lon="6.15357">
        <ele>148.2</ele>
        <time>2025-02-16T13:01:47.000Z</time>
      </trkpt>
      <trkpt lat="43.47227" lon="6.15357">
        <ele>148.2</ele>
        <time>2025-02-16T13:01:56.000Z</time>
      </trkpt>
      <trkpt lat="43.47236" lon="6.1536">
        <ele>148.3</ele>
        <time>2025-02-16T13:02:05.000Z</time>
      </trkpt>
      <trkpt lat="43.47243" lon="6.15369">
        <ele>148.4</ele>
        <time>2025-02-16T13:02:13.000Z</time>
      </trkpt>
      <trkpt lat="43.47248" lon="6.1538">
        <ele>148.3</ele>
        <time>2025-02-16T13:02:21.000Z</time>
      </trkpt>
      <trkpt lat="43.47252" lon="6.15391">
        <ele>148.2</ele>
        <time>2025-02-16T13:02:29.000Z</time>
      </trkpt>
      <trkpt lat="43.47257" lon="6.15402">
        <ele>148</ele>
        <time>2025-02-16T13:02:37.000Z</time>
      </trkpt>
      <trkpt lat="43.47262" lon="6.15413">
        <ele>147.8</ele>
        <time>2025-02-16T13:02:44.000Z</time>
      </trkpt>
      <trkpt lat="43.47268" lon="6.15423">
        <ele>147.6</ele>
        <time>2025-02-16T13:02:52.000Z</time>
      </trkpt>
      <trkpt lat="43.47274" lon="6.15432">
        <ele>147.2</ele>
        <time>2025-02-16T13:03:00.000Z</time>
      </trkpt>
      <trkpt lat="43.4728" lon="6.15443">
        <ele>146.6</ele>
        <time>2025-02-16T13:03:08.000Z</time>
      </trkpt>
      <trkpt lat="43.47289" lon="6.15449">
        <ele>146</ele>
        <time>2025-02-16T13:03:16.000Z</time>
      </trkpt>
      <trkpt lat="43.47298" lon="6.15447">
        <ele>145.5</ele>
        <time>2025-02-16T13:03:23.000Z</time>
      </trkpt>
      <trkpt lat="43.47306" lon="6.15438">
        <ele>145.4</ele>
        <time>2025-02-16T13:03:31.000Z</time>
      </trkpt>
      <trkpt lat="43.47315" lon="6.15432">
        <ele>145.4</ele>
        <time>2025-02-16T13:03:42.000Z</time>
      </trkpt>
      <trkpt lat="43.47324" lon="6.15427">
        <ele>145.5</ele>
        <time>2025-02-16T13:03:50.000Z</time>
      </trkpt>
      <trkpt lat="43.47333" lon="6.15422">
        <ele>145.5</ele>
        <time>2025-02-16T13:03:58.000Z</time>
      </trkpt>
      <trkpt lat="43.47343" lon="6.15418">
        <ele>145.6</ele>
        <time>2025-02-16T13:04:07.000Z</time>
      </trkpt>
      <trkpt lat="43.47353" lon="6.15416">
        <ele>145.7</ele>
        <time>2025-02-16T13:04:16.000Z</time>
      </trkpt>
      <trkpt lat="43.47362" lon="6.15413">
        <ele>145.8</ele>
        <time>2025-02-16T13:04:24.000Z</time>
      </trkpt>
      <trkpt lat="43.47372" lon="6.15412">
        <ele>145.9</ele>
        <time>2025-02-16T13:04:32.000Z</time>
      </trkpt>
      <trkpt lat="43.47381" lon="6.15412">
        <ele>146</ele>
        <time>2025-02-16T13:04:42.000Z</time>
      </trkpt>
      <trkpt lat="43.47382" lon="6.15411">
        <ele>146.1</ele>
        <time>2025-02-16T13:04:46.000Z</time>
      </trkpt>
      <trkpt lat="43.47382" lon="6.15411">
        <ele>146.1</ele>
        <time>2025-02-16T13:04:47.000Z</time>
      </trkpt>
      <trkpt lat="43.47382" lon="6.15411">
        <ele>146.1</ele>
        <time>2025-02-16T13:04:51.000Z</time>
      </trkpt>
      <trkpt lat="43.47382" lon="6.15411">
        <ele>146.2</ele>
        <time>2025-02-16T13:04:52.000Z</time>
      </trkpt>
      <trkpt lat="43.47391" lon="6.15405">
        <ele>146.3</ele>
        <time>2025-02-16T13:05:00.000Z</time>
      </trkpt>
      <trkpt lat="43.474" lon="6.15401">
        <ele>146.3</ele>
        <time>2025-02-16T13:05:07.000Z</time>
      </trkpt>
      <trkpt lat="43.4741" lon="6.15397">
        <ele>146.3</ele>
        <time>2025-02-16T13:05:16.000Z</time>
      </trkpt>
      <trkpt lat="43.47419" lon="6.15394">
        <ele>146.2</ele>
        <time>2025-02-16T13:05:24.000Z</time>
      </trkpt>
      <trkpt lat="43.47428" lon="6.15389">
        <ele>146.2</ele>
        <time>2025-02-16T13:05:32.000Z</time>
      </trkpt>
      <trkpt lat="43.47437" lon="6.15387">
        <ele>146.1</ele>
        <time>2025-02-16T13:05:40.000Z</time>
      </trkpt>
      <trkpt lat="43.47446" lon="6.15389">
        <ele>146.1</ele>
        <time>2025-02-16T13:05:53.000Z</time>
      </trkpt>
      <trkpt lat="43.47455" lon="6.15395">
        <ele>146</ele>
        <time>2025-02-16T13:06:02.000Z</time>
      </trkpt>
      <trkpt lat="43.47461" lon="6.15404">
        <ele>146</ele>
        <time>2025-02-16T13:06:10.000Z</time>
      </trkpt>
      <trkpt lat="43.47468" lon="6.15414">
        <ele>146</ele>
        <time>2025-02-16T13:06:20.000Z</time>
      </trkpt>
      <trkpt lat="43.47476" lon="6.1542">
        <ele>146</ele>
        <time>2025-02-16T13:06:28.000Z</time>
      </trkpt>
      <trkpt lat="43.47483" lon="6.15429">
        <ele>146</ele>
        <time>2025-02-16T13:06:37.000Z</time>
      </trkpt>
      <trkpt lat="43.4749" lon="6.15437">
        <ele>146</ele>
        <time>2025-02-16T13:06:48.000Z</time>
      </trkpt>
      <trkpt lat="43.47496" lon="6.15447">
        <ele>146</ele>
        <time>2025-02-16T13:06:56.000Z</time>
      </trkpt>
      <trkpt lat="43.475" lon="6.15452">
        <ele>146</ele>
        <time>2025-02-16T13:07:03.000Z</time>
      </trkpt>
      <trkpt lat="43.475" lon="6.15453">
        <ele>146</ele>
        <time>2025-02-16T13:07:04.000Z</time>
      </trkpt>
      <trkpt lat="43.47501" lon="6.15454">
        <ele>146</ele>
        <time>2025-02-16T13:07:05.000Z</time>
      </trkpt>
      <trkpt lat="43.47502" lon="6.15456">
        <ele>146</ele>
        <time>2025-02-16T13:07:06.000Z</time>
      </trkpt>
      <trkpt lat="43.47503" lon="6.15456">
        <ele>146</ele>
        <time>2025-02-16T13:07:07.000Z</time>
      </trkpt>
      <trkpt lat="43.47512" lon="6.15463">
        <ele>146</ele>
        <time>2025-02-16T13:07:16.000Z</time>
      </trkpt>
      <trkpt lat="43.47519" lon="6.1547">
        <ele>146.1</ele>
        <time>2025-02-16T13:07:25.000Z</time>
      </trkpt>
      <trkpt lat="43.47522" lon="6.15475">
        <ele>146.1</ele>
        <time>2025-02-16T13:07:31.000Z</time>
      </trkpt>
      <trkpt lat="43.47522" lon="6.15475">
        <ele>146.1</ele>
        <time>2025-02-16T13:07:32.000Z</time>
      </trkpt>
      <trkpt lat="43.47523" lon="6.15476">
        <ele>146.1</ele>
        <time>2025-02-16T13:07:33.000Z</time>
      </trkpt>
      <trkpt lat="43.47523" lon="6.15478">
        <ele>146.1</ele>
        <time>2025-02-16T13:07:34.000Z</time>
      </trkpt>
      <trkpt lat="43.47529" lon="6.15488">
        <ele>146.1</ele>
        <time>2025-02-16T13:07:44.000Z</time>
      </trkpt>
      <trkpt lat="43.47536" lon="6.15496">
        <ele>146.2</ele>
        <time>2025-02-16T13:07:55.000Z</time>
      </trkpt>
      <trkpt lat="43.47542" lon="6.15506">
        <ele>146.2</ele>
        <time>2025-02-16T13:08:03.000Z</time>
      </trkpt>
      <trkpt lat="43.47549" lon="6.15516">
        <ele>146.3</ele>
        <time>2025-02-16T13:08:13.000Z</time>
      </trkpt>
      <trkpt lat="43.47556" lon="6.15523">
        <ele>146.5</ele>
        <time>2025-02-16T13:08:22.000Z</time>
      </trkpt>
      <trkpt lat="43.47563" lon="6.15532">
        <ele>146.9</ele>
        <time>2025-02-16T13:08:31.000Z</time>
      </trkpt>
      <trkpt lat="43.47571" lon="6.15542">
        <ele>147.2</ele>
        <time>2025-02-16T13:08:40.000Z</time>
      </trkpt>
      <trkpt lat="43.47577" lon="6.15553">
        <ele>147.5</ele>
        <time>2025-02-16T13:08:49.000Z</time>
      </trkpt>
      <trkpt lat="43.47582" lon="6.15563">
        <ele>147.5</ele>
        <time>2025-02-16T13:08:57.000Z</time>
      </trkpt>
      <trkpt lat="43.47587" lon="6.15574">
        <ele>147.6</ele>
        <time>2025-02-16T13:09:07.000Z</time>
      </trkpt>
      <trkpt lat="43.47589" lon="6.15578">
        <ele>147.5</ele>
        <time>2025-02-16T13:09:21.000Z</time>
      </trkpt>
      <trkpt lat="43.47589" lon="6.15578">
        <ele>147.5</ele>
        <time>2025-02-16T13:09:22.000Z</time>
      </trkpt>
      <trkpt lat="43.47589" lon="6.15578">
        <ele>147.4</ele>
        <time>2025-02-16T13:09:28.000Z</time>
      </trkpt>
      <trkpt lat="43.47589" lon="6.15578">
        <ele>147.4</ele>
        <time>2025-02-16T13:09:29.000Z</time>
      </trkpt>
      <trkpt lat="43.47589" lon="6.15578">
        <ele>147.4</ele>
        <time>2025-02-16T13:09:30.000Z</time>
      </trkpt>
      <trkpt lat="43.47589" lon="6.15578">
        <ele>147.4</ele>
        <time>2025-02-16T13:09:31.000Z</time>
      </trkpt>
      <trkpt lat="43.47589" lon="6.15578">
        <ele>147.4</ele>
        <time>2025-02-16T13:09:32.000Z</time>
      </trkpt>
      <trkpt lat="43.47589" lon="6.15579">
        <ele>147.1</ele>
        <time>2025-02-16T13:09:50.000Z</time>
      </trkpt>
      <trkpt lat="43.47589" lon="6.1558">
        <ele>147.2</ele>
        <time>2025-02-16T13:09:51.000Z</time>
      </trkpt>
      <trkpt lat="43.4759" lon="6.1558">
        <ele>147.6</ele>
        <time>2025-02-16T13:09:57.000Z</time>
      </trkpt>
      <trkpt lat="43.4759" lon="6.1558">
        <ele>147.6</ele>
        <time>2025-02-16T13:09:58.000Z</time>
      </trkpt>
      <trkpt lat="43.4759" lon="6.1558">
        <ele>147.6</ele>
        <time>2025-02-16T13:09:59.000Z</time>
      </trkpt>
      <trkpt lat="43.4759" lon="6.1558">
        <ele>147.6</ele>
        <time>2025-02-16T13:10:00.000Z</time>
      </trkpt>
      <trkpt lat="43.4759" lon="6.1558">
        <ele>147.6</ele>
        <time>2025-02-16T13:10:01.000Z</time>
      </trkpt>
      <trkpt lat="43.4759" lon="6.1558">
        <ele>147.6</ele>
        <time>2025-02-16T13:10:02.000Z</time>
      </trkpt>
      <trkpt lat="43.4759" lon="6.15579">
        <ele>147.6</ele>
        <time>2025-02-16T13:10:05.000Z</time>
      </trkpt>
      <trkpt lat="43.47591" lon="6.15579">
        <ele>147.6</ele>
        <time>2025-02-16T13:10:06.000Z</time>
      </trkpt>
      <trkpt lat="43.47591" lon="6.1558">
        <ele>147.6</ele>
        <time>2025-02-16T13:10:07.000Z</time>
      </trkpt>
      <trkpt lat="43.47591" lon="6.1558">
        <ele>147.6</ele>
        <time>2025-02-16T13:10:08.000Z</time>
      </trkpt>
      <trkpt lat="43.47591" lon="6.1558">
        <ele>147.6</ele>
        <time>2025-02-16T13:10:09.000Z</time>
      </trkpt>
      <trkpt lat="43.47591" lon="6.15579">
        <ele>147.5</ele>
        <time>2025-02-16T13:10:12.000Z</time>
      </trkpt>
      <trkpt lat="43.47591" lon="6.15579">
        <ele>147.5</ele>
        <time>2025-02-16T13:10:13.000Z</time>
      </trkpt>
      <trkpt lat="43.47591" lon="6.15579">
        <ele>147.4</ele>
        <time>2025-02-16T13:10:14.000Z</time>
      </trkpt>
      <trkpt lat="43.4759" lon="6.15579">
        <ele>147.2</ele>
        <time>2025-02-16T13:10:21.000Z</time>
      </trkpt>
      <trkpt lat="43.4759" lon="6.1558">
        <ele>147.2</ele>
        <time>2025-02-16T13:10:22.000Z</time>
      </trkpt>
      <trkpt lat="43.47599" lon="6.15585">
        <ele>147</ele>
        <time>2025-02-16T13:10:36.000Z</time>
      </trkpt>
      <trkpt lat="43.47608" lon="6.15583">
        <ele>146.9</ele>
        <time>2025-02-16T13:10:46.000Z</time>
      </trkpt>
      <trkpt lat="43.47617" lon="6.1558">
        <ele>146.9</ele>
        <time>2025-02-16T13:10:55.000Z</time>
      </trkpt>
      <trkpt lat="43.47627" lon="6.15578">
        <ele>146.9</ele>
        <time>2025-02-16T13:11:04.000Z</time>
      </trkpt>
      <trkpt lat="43.47637" lon="6.15575">
        <ele>147</ele>
        <time>2025-02-16T13:11:13.000Z</time>
      </trkpt>
      <trkpt lat="43.47646" lon="6.15575">
        <ele>147.1</ele>
        <time>2025-02-16T13:11:22.000Z</time>
      </trkpt>
      <trkpt lat="43.47655" lon="6.15575">
        <ele>147.2</ele>
        <time>2025-02-16T13:11:32.000Z</time>
      </trkpt>
      <trkpt lat="43.47664" lon="6.15575">
        <ele>147.5</ele>
        <time>2025-02-16T13:11:40.000Z</time>
      </trkpt>
      <trkpt lat="43.47673" lon="6.15573">
        <ele>148.5</ele>
        <time>2025-02-16T13:11:51.000Z</time>
      </trkpt>
      <trkpt lat="43.47682" lon="6.15575">
        <ele>149.2</ele>
        <time>2025-02-16T13:12:02.000Z</time>
      </trkpt>
      <trkpt lat="43.47689" lon="6.15585">
        <ele>150</ele>
        <time>2025-02-16T13:12:16.000Z</time>
      </trkpt>
      <trkpt lat="43.4769" lon="6.15597">
        <ele>150.3</ele>
        <time>2025-02-16T13:12:26.000Z</time>
      </trkpt>
      <trkpt lat="43.47692" lon="6.1561">
        <ele>150.6</ele>
        <time>2025-02-16T13:12:35.000Z</time>
      </trkpt>
      <trkpt lat="43.47694" lon="6.15623">
        <ele>150.9</ele>
        <time>2025-02-16T13:12:45.000Z</time>
      </trkpt>
      <trkpt lat="43.47696" lon="6.15635">
        <ele>151.1</ele>
        <time>2025-02-16T13:12:54.000Z</time>
      </trkpt>
      <trkpt lat="43.47699" lon="6.15648">
        <ele>151.2</ele>
        <time>2025-02-16T13:13:04.000Z</time>
      </trkpt>
      <trkpt lat="43.477" lon="6.15661">
        <ele>151.3</ele>
        <time>2025-02-16T13:13:14.000Z</time>
      </trkpt>
      <trkpt lat="43.47702" lon="6.15673">
        <ele>151.4</ele>
        <time>2025-02-16T13:13:28.000Z</time>
      </trkpt>
      <trkpt lat="43.47702" lon="6.15673">
        <ele>151.4</ele>
        <time>2025-02-16T13:13:29.000Z</time>
      </trkpt>
      <trkpt lat="43.47703" lon="6.15675">
        <ele>151.4</ele>
        <time>2025-02-16T13:13:43.000Z</time>
      </trkpt>
      <trkpt lat="43.47702" lon="6.15677">
        <ele>151.5</ele>
        <time>2025-02-16T13:13:44.000Z</time>
      </trkpt>
      <trkpt lat="43.47703" lon="6.15689">
        <ele>151.5</ele>
        <time>2025-02-16T13:13:54.000Z</time>
      </trkpt>
      <trkpt lat="43.47705" lon="6.15702">
        <ele>151.5</ele>
        <time>2025-02-16T13:14:03.000Z</time>
      </trkpt>
      <trkpt lat="43.47705" lon="6.15716">
        <ele>151.5</ele>
        <time>2025-02-16T13:14:14.000Z</time>
      </trkpt>
      <trkpt lat="43.47706" lon="6.15729">
        <ele>151.8</ele>
        <time>2025-02-16T13:14:24.000Z</time>
      </trkpt>
      <trkpt lat="43.47706" lon="6.15742">
        <ele>152</ele>
        <time>2025-02-16T13:14:33.000Z</time>
      </trkpt>
      <trkpt lat="43.47707" lon="6.15755">
        <ele>152.2</ele>
        <time>2025-02-16T13:14:41.000Z</time>
      </trkpt>
      <trkpt lat="43.47708" lon="6.15768">
        <ele>152.6</ele>
        <time>2025-02-16T13:14:50.000Z</time>
      </trkpt>
      <trkpt lat="43.47708" lon="6.15781">
        <ele>153.1</ele>
        <time>2025-02-16T13:15:02.000Z</time>
      </trkpt>
      <trkpt lat="43.47709" lon="6.15794">
        <ele>153.7</ele>
        <time>2025-02-16T13:15:13.000Z</time>
      </trkpt>
      <trkpt lat="43.47707" lon="6.15807">
        <ele>154.3</ele>
        <time>2025-02-16T13:15:23.000Z</time>
      </trkpt>
      <trkpt lat="43.47709" lon="6.1582">
        <ele>154.9</ele>
        <time>2025-02-16T13:15:34.000Z</time>
      </trkpt>
      <trkpt lat="43.47705" lon="6.15832">
        <ele>155.3</ele>
        <time>2025-02-16T13:15:43.000Z</time>
      </trkpt>
      <trkpt lat="43.47696" lon="6.15836">
        <ele>155.6</ele>
        <time>2025-02-16T13:15:55.000Z</time>
      </trkpt>
      <trkpt lat="43.47695" lon="6.15837">
        <ele>155.7</ele>
        <time>2025-02-16T13:16:03.000Z</time>
      </trkpt>
      <trkpt lat="43.47695" lon="6.15837">
        <ele>155.7</ele>
        <time>2025-02-16T13:16:04.000Z</time>
      </trkpt>
      <trkpt lat="43.47694" lon="6.15837">
        <ele>155.7</ele>
        <time>2025-02-16T13:16:10.000Z</time>
      </trkpt>
      <trkpt lat="43.47694" lon="6.15837">
        <ele>155.7</ele>
        <time>2025-02-16T13:16:11.000Z</time>
      </trkpt>
      <trkpt lat="43.47694" lon="6.15837">
        <ele>155.7</ele>
        <time>2025-02-16T13:16:12.000Z</time>
      </trkpt>
      <trkpt lat="43.47694" lon="6.15837">
        <ele>155.7</ele>
        <time>2025-02-16T13:16:13.000Z</time>
      </trkpt>
      <trkpt lat="43.47694" lon="6.15837">
        <ele>155.7</ele>
        <time>2025-02-16T13:16:14.000Z</time>
      </trkpt>
      <trkpt lat="43.47696" lon="6.15839">
        <ele>155.8</ele>
        <time>2025-02-16T13:17:07.000Z</time>
      </trkpt>
      <trkpt lat="43.47696" lon="6.15839">
        <ele>155.7</ele>
        <time>2025-02-16T13:17:08.000Z</time>
      </trkpt>
      <trkpt lat="43.47695" lon="6.1584">
        <ele>155.7</ele>
        <time>2025-02-16T13:17:09.000Z</time>
      </trkpt>
      <trkpt lat="43.47695" lon="6.15841">
        <ele>155.8</ele>
        <time>2025-02-16T13:17:15.000Z</time>
      </trkpt>
      <trkpt lat="43.47695" lon="6.15841">
        <ele>155.8</ele>
        <time>2025-02-16T13:17:16.000Z</time>
      </trkpt>
      <trkpt lat="43.47695" lon="6.15842">
        <ele>155.9</ele>
        <time>2025-02-16T13:17:28.000Z</time>
      </trkpt>
      <trkpt lat="43.47695" lon="6.15843">
        <ele>155.9</ele>
        <time>2025-02-16T13:17:29.000Z</time>
      </trkpt>
      <trkpt lat="43.47695" lon="6.15843">
        <ele>155.9</ele>
        <time>2025-02-16T13:17:30.000Z</time>
      </trkpt>
      <trkpt lat="43.47694" lon="6.15848">
        <ele>156.1</ele>
        <time>2025-02-16T13:17:41.000Z</time>
      </trkpt>
      <trkpt lat="43.47694" lon="6.15848">
        <ele>156.1</ele>
        <time>2025-02-16T13:17:42.000Z</time>
      </trkpt>
      <trkpt lat="43.47697" lon="6.15849">
        <ele>156.3</ele>
        <time>2025-02-16T13:18:00.000Z</time>
      </trkpt>
      <trkpt lat="43.47697" lon="6.15849">
        <ele>156.3</ele>
        <time>2025-02-16T13:18:01.000Z</time>
      </trkpt>
      <trkpt lat="43.47698" lon="6.15849">
        <ele>156.3</ele>
        <time>2025-02-16T13:18:02.000Z</time>
      </trkpt>
      <trkpt lat="43.47707" lon="6.15849">
        <ele>156.5</ele>
        <time>2025-02-16T13:18:15.000Z</time>
      </trkpt>
      <trkpt lat="43.47717" lon="6.15853">
        <ele>156.6</ele>
        <time>2025-02-16T13:18:26.000Z</time>
      </trkpt>
      <trkpt lat="43.47718" lon="6.15855">
        <ele>156.7</ele>
        <time>2025-02-16T13:18:31.000Z</time>
      </trkpt>
      <trkpt lat="43.47718" lon="6.15854">
        <ele>156.7</ele>
        <time>2025-02-16T13:18:32.000Z</time>
      </trkpt>
      <trkpt lat="43.47718" lon="6.1585">
        <ele>157.1</ele>
        <time>2025-02-16T13:19:07.000Z</time>
      </trkpt>
      <trkpt lat="43.47718" lon="6.1585">
        <ele>157.1</ele>
        <time>2025-02-16T13:19:08.000Z</time>
      </trkpt>
      <trkpt lat="43.47718" lon="6.15851">
        <ele>157.1</ele>
        <time>2025-02-16T13:19:09.000Z</time>
      </trkpt>
      <trkpt lat="43.47719" lon="6.15851">
        <ele>157.1</ele>
        <time>2025-02-16T13:19:12.000Z</time>
      </trkpt>
      <trkpt lat="43.47719" lon="6.15851">
        <ele>157.1</ele>
        <time>2025-02-16T13:19:13.000Z</time>
      </trkpt>
      <trkpt lat="43.47719" lon="6.15851">
        <ele>157.1</ele>
        <time>2025-02-16T13:19:14.000Z</time>
      </trkpt>
      <trkpt lat="43.47719" lon="6.15851">
        <ele>157.1</ele>
        <time>2025-02-16T13:19:23.000Z</time>
      </trkpt>
      <trkpt lat="43.47719" lon="6.1585">
        <ele>157.1</ele>
        <time>2025-02-16T13:19:24.000Z</time>
      </trkpt>
      <trkpt lat="43.4771" lon="6.15847">
        <ele>157.1</ele>
        <time>2025-02-16T13:19:36.000Z</time>
      </trkpt>
      <trkpt lat="43.47701" lon="6.15845">
        <ele>157</ele>
        <time>2025-02-16T13:19:48.000Z</time>
      </trkpt>
      <trkpt lat="43.47698" lon="6.15845">
        <ele>157</ele>
        <time>2025-02-16T13:19:58.000Z</time>
      </trkpt>
      <trkpt lat="43.47698" lon="6.15845">
        <ele>157</ele>
        <time>2025-02-16T13:19:59.000Z</time>
      </trkpt>
      <trkpt lat="43.47698" lon="6.15845">
        <ele>157.1</ele>
        <time>2025-02-16T13:20:18.000Z</time>
      </trkpt>
      <trkpt lat="43.47698" lon="6.15845">
        <ele>157.1</ele>
        <time>2025-02-16T13:20:19.000Z</time>
      </trkpt>
      <trkpt lat="43.47698" lon="6.15845">
        <ele>157.1</ele>
        <time>2025-02-16T13:20:20.000Z</time>
      </trkpt>
      <trkpt lat="43.47698" lon="6.15844">
        <ele>157.1</ele>
        <time>2025-02-16T13:20:21.000Z</time>
      </trkpt>
      <trkpt lat="43.47698" lon="6.15844">
        <ele>157.2</ele>
        <time>2025-02-16T13:20:42.000Z</time>
      </trkpt>
      <trkpt lat="43.47698" lon="6.15844">
        <ele>157.2</ele>
        <time>2025-02-16T13:20:43.000Z</time>
      </trkpt>
      <trkpt lat="43.47698" lon="6.15844">
        <ele>157.2</ele>
        <time>2025-02-16T13:20:44.000Z</time>
      </trkpt>
      <trkpt lat="43.47698" lon="6.15844">
        <ele>157.2</ele>
        <time>2025-02-16T13:20:45.000Z</time>
      </trkpt>
      <trkpt lat="43.47698" lon="6.15844">
        <ele>157.2</ele>
        <time>2025-02-16T13:20:46.000Z</time>
      </trkpt>
      <trkpt lat="43.47698" lon="6.15844">
        <ele>157.3</ele>
        <time>2025-02-16T13:20:57.000Z</time>
      </trkpt>
      <trkpt lat="43.47698" lon="6.15844">
        <ele>157.3</ele>
        <time>2025-02-16T13:20:58.000Z</time>
      </trkpt>
      <trkpt lat="43.47698" lon="6.15844">
        <ele>157.3</ele>
        <time>2025-02-16T13:20:59.000Z</time>
      </trkpt>
      <trkpt lat="43.47698" lon="6.15844">
        <ele>157.3</ele>
        <time>2025-02-16T13:21:00.000Z</time>
      </trkpt>
      <trkpt lat="43.47698" lon="6.15844">
        <ele>157.3</ele>
        <time>2025-02-16T13:21:01.000Z</time>
      </trkpt>
      <trkpt lat="43.47698" lon="6.15844">
        <ele>157.3</ele>
        <time>2025-02-16T13:21:05.000Z</time>
      </trkpt>
      <trkpt lat="43.47698" lon="6.15844">
        <ele>157.3</ele>
        <time>2025-02-16T13:21:06.000Z</time>
      </trkpt>
      <trkpt lat="43.47698" lon="6.15844">
        <ele>157.3</ele>
        <time>2025-02-16T13:21:07.000Z</time>
      </trkpt>
      <trkpt lat="43.47698" lon="6.15844">
        <ele>157.3</ele>
        <time>2025-02-16T13:21:08.000Z</time>
      </trkpt>
      <trkpt lat="43.47698" lon="6.15844">
        <ele>157.3</ele>
        <time>2025-02-16T13:21:09.000Z</time>
      </trkpt>
      <trkpt lat="43.477" lon="6.15845">
        <ele>157.4</ele>
        <time>2025-02-16T13:21:18.000Z</time>
      </trkpt>
      <trkpt lat="43.47699" lon="6.15846">
        <ele>157.4</ele>
        <time>2025-02-16T13:21:19.000Z</time>
      </trkpt>
      <trkpt lat="43.47693" lon="6.15855">
        <ele>157.5</ele>
        <time>2025-02-16T13:21:32.000Z</time>
      </trkpt>
      <trkpt lat="43.4769" lon="6.15868">
        <ele>157.8</ele>
        <time>2025-02-16T13:21:46.000Z</time>
      </trkpt>
      <trkpt lat="43.47686" lon="6.15879">
        <ele>158.2</ele>
        <time>2025-02-16T13:21:57.000Z</time>
      </trkpt>
      <trkpt lat="43.4768" lon="6.15889">
        <ele>158.7</ele>
        <time>2025-02-16T13:22:06.000Z</time>
      </trkpt>
      <trkpt lat="43.47676" lon="6.15901">
        <ele>159.2</ele>
        <time>2025-02-16T13:22:18.000Z</time>
      </trkpt>
      <trkpt lat="43.47673" lon="6.15912">
        <ele>159.4</ele>
        <time>2025-02-16T13:22:27.000Z</time>
      </trkpt>
      <trkpt lat="43.47669" lon="6.15924">
        <ele>159.7</ele>
        <time>2025-02-16T13:22:39.000Z</time>
      </trkpt>
      <trkpt lat="43.47666" lon="6.15937">
        <ele>160</ele>
        <time>2025-02-16T13:22:47.000Z</time>
      </trkpt>
      <trkpt lat="43.47662" lon="6.1595">
        <ele>160.4</ele>
        <time>2025-02-16T13:22:56.000Z</time>
      </trkpt>
      <trkpt lat="43.47662" lon="6.15962">
        <ele>160.9</ele>
        <time>2025-02-16T13:23:06.000Z</time>
      </trkpt>
      <trkpt lat="43.4766" lon="6.15974">
        <ele>161.1</ele>
        <time>2025-02-16T13:23:16.000Z</time>
      </trkpt>
      <trkpt lat="43.47658" lon="6.15987">
        <ele>161.2</ele>
        <time>2025-02-16T13:23:25.000Z</time>
      </trkpt>
      <trkpt lat="43.47656" lon="6.15999">
        <ele>161.3</ele>
        <time>2025-02-16T13:23:33.000Z</time>
      </trkpt>
      <trkpt lat="43.4765" lon="6.16009">
        <ele>161.4</ele>
        <time>2025-02-16T13:23:40.000Z</time>
      </trkpt>
      <trkpt lat="43.47646" lon="6.1602">
        <ele>161.8</ele>
        <time>2025-02-16T13:23:52.000Z</time>
      </trkpt>
      <trkpt lat="43.47644" lon="6.16032">
        <ele>162.2</ele>
        <time>2025-02-16T13:24:03.000Z</time>
      </trkpt>
      <trkpt lat="43.4764" lon="6.16044">
        <ele>162.5</ele>
        <time>2025-02-16T13:24:13.000Z</time>
      </trkpt>
      <trkpt lat="43.47637" lon="6.16058">
        <ele>162.8</ele>
        <time>2025-02-16T13:24:22.000Z</time>
      </trkpt>
      <trkpt lat="43.47634" lon="6.16066">
        <ele>163.2</ele>
        <time>2025-02-16T13:24:31.000Z</time>
      </trkpt>
      <trkpt lat="43.47635" lon="6.16066">
        <ele>163.2</ele>
        <time>2025-02-16T13:24:32.000Z</time>
      </trkpt>
      <trkpt lat="43.47635" lon="6.16067">
        <ele>163.3</ele>
        <time>2025-02-16T13:24:37.000Z</time>
      </trkpt>
      <trkpt lat="43.47635" lon="6.16067">
        <ele>163.4</ele>
        <time>2025-02-16T13:24:38.000Z</time>
      </trkpt>
      <trkpt lat="43.47635" lon="6.16067">
        <ele>163.4</ele>
        <time>2025-02-16T13:24:39.000Z</time>
      </trkpt>
      <trkpt lat="43.47635" lon="6.16067">
        <ele>163.4</ele>
        <time>2025-02-16T13:24:40.000Z</time>
      </trkpt>
      <trkpt lat="43.47635" lon="6.16067">
        <ele>163.4</ele>
        <time>2025-02-16T13:24:41.000Z</time>
      </trkpt>
      <trkpt lat="43.47636" lon="6.16067">
        <ele>163.4</ele>
        <time>2025-02-16T13:24:42.000Z</time>
      </trkpt>
      <trkpt lat="43.47636" lon="6.16068">
        <ele>163.4</ele>
        <time>2025-02-16T13:24:43.000Z</time>
      </trkpt>
      <trkpt lat="43.47636" lon="6.1607">
        <ele>163.5</ele>
        <time>2025-02-16T13:24:44.000Z</time>
      </trkpt>
      <trkpt lat="43.47636" lon="6.16071">
        <ele>163.5</ele>
        <time>2025-02-16T13:24:45.000Z</time>
      </trkpt>
      <trkpt lat="43.47637" lon="6.16084">
        <ele>163.6</ele>
        <time>2025-02-16T13:24:54.000Z</time>
      </trkpt>
      <trkpt lat="43.47636" lon="6.16097">
        <ele>163.7</ele>
        <time>2025-02-16T13:25:03.000Z</time>
      </trkpt>
      <trkpt lat="43.47634" lon="6.16109">
        <ele>163.8</ele>
        <time>2025-02-16T13:25:13.000Z</time>
      </trkpt>
      <trkpt lat="43.4763" lon="6.16121">
        <ele>164.1</ele>
        <time>2025-02-16T13:25:24.000Z</time>
      </trkpt>
      <trkpt lat="43.47626" lon="6.16134">
        <ele>164.5</ele>
        <time>2025-02-16T13:25:34.000Z</time>
      </trkpt>
      <trkpt lat="43.47623" lon="6.16146">
        <ele>164.9</ele>
        <time>2025-02-16T13:25:43.000Z</time>
      </trkpt>
      <trkpt lat="43.4762" lon="6.16158">
        <ele>165.7</ele>
        <time>2025-02-16T13:25:57.000Z</time>
      </trkpt>
      <trkpt lat="43.47617" lon="6.16171">
        <ele>166.1</ele>
        <time>2025-02-16T13:26:06.000Z</time>
      </trkpt>
      <trkpt lat="43.47614" lon="6.16182">
        <ele>166.5</ele>
        <time>2025-02-16T13:26:16.000Z</time>
      </trkpt>
      <trkpt lat="43.47611" lon="6.16195">
        <ele>167</ele>
        <time>2025-02-16T13:26:25.000Z</time>
      </trkpt>
      <trkpt lat="43.4761" lon="6.16208">
        <ele>167.5</ele>
        <time>2025-02-16T13:26:34.000Z</time>
      </trkpt>
      <trkpt lat="43.47607" lon="6.16221">
        <ele>167.8</ele>
        <time>2025-02-16T13:26:43.000Z</time>
      </trkpt>
      <trkpt lat="43.47601" lon="6.16231">
        <ele>168.2</ele>
        <time>2025-02-16T13:26:52.000Z</time>
      </trkpt>
      <trkpt lat="43.47593" lon="6.16238">
        <ele>168.6</ele>
        <time>2025-02-16T13:27:02.000Z</time>
      </trkpt>
      <trkpt lat="43.47583" lon="6.1624">
        <ele>169.1</ele>
        <time>2025-02-16T13:27:13.000Z</time>
      </trkpt>
      <trkpt lat="43.47575" lon="6.16244">
        <ele>169.5</ele>
        <time>2025-02-16T13:27:23.000Z</time>
      </trkpt>
      <trkpt lat="43.47565" lon="6.16246">
        <ele>169.5</ele>
        <time>2025-02-16T13:27:31.000Z</time>
      </trkpt>
      <trkpt lat="43.47555" lon="6.16249">
        <ele>169.6</ele>
        <time>2025-02-16T13:27:38.000Z</time>
      </trkpt>
      <trkpt lat="43.47547" lon="6.16255">
        <ele>169.6</ele>
        <time>2025-02-16T13:27:47.000Z</time>
      </trkpt>
      <trkpt lat="43.47542" lon="6.16266">
        <ele>169.6</ele>
        <time>2025-02-16T13:27:55.000Z</time>
      </trkpt>
      <trkpt lat="43.47541" lon="6.1628">
        <ele>169.6</ele>
        <time>2025-02-16T13:28:03.000Z</time>
      </trkpt>
      <trkpt lat="43.47537" lon="6.16291">
        <ele>169.6</ele>
        <time>2025-02-16T13:28:14.000Z</time>
      </trkpt>
      <trkpt lat="43.47535" lon="6.16303">
        <ele>169.7</ele>
        <time>2025-02-16T13:28:34.000Z</time>
      </trkpt>
      <trkpt lat="43.47533" lon="6.16308">
        <ele>169.8</ele>
        <time>2025-02-16T13:28:42.000Z</time>
      </trkpt>
      <trkpt lat="43.47533" lon="6.16308">
        <ele>169.9</ele>
        <time>2025-02-16T13:28:43.000Z</time>
      </trkpt>
      <trkpt lat="43.47533" lon="6.16308">
        <ele>169.9</ele>
        <time>2025-02-16T13:28:44.000Z</time>
      </trkpt>
      <trkpt lat="43.47533" lon="6.16309">
        <ele>169.9</ele>
        <time>2025-02-16T13:28:50.000Z</time>
      </trkpt>
      <trkpt lat="43.47533" lon="6.16309">
        <ele>169.9</ele>
        <time>2025-02-16T13:28:51.000Z</time>
      </trkpt>
      <trkpt lat="43.47533" lon="6.16309">
        <ele>169.9</ele>
        <time>2025-02-16T13:28:52.000Z</time>
      </trkpt>
      <trkpt lat="43.47533" lon="6.16309">
        <ele>169.9</ele>
        <time>2025-02-16T13:28:53.000Z</time>
      </trkpt>
      <trkpt lat="43.47533" lon="6.16309">
        <ele>169.9</ele>
        <time>2025-02-16T13:28:54.000Z</time>
      </trkpt>
      <trkpt lat="43.47533" lon="6.16309">
        <ele>169.9</ele>
        <time>2025-02-16T13:28:55.000Z</time>
      </trkpt>
      <trkpt lat="43.47533" lon="6.16309">
        <ele>170</ele>
        <time>2025-02-16T13:28:56.000Z</time>
      </trkpt>
      <trkpt lat="43.47533" lon="6.16309">
        <ele>170</ele>
        <time>2025-02-16T13:28:57.000Z</time>
      </trkpt>
      <trkpt lat="43.47533" lon="6.16309">
        <ele>170</ele>
        <time>2025-02-16T13:28:58.000Z</time>
      </trkpt>
      <trkpt lat="43.47533" lon="6.16309">
        <ele>170</ele>
        <time>2025-02-16T13:28:59.000Z</time>
      </trkpt>
      <trkpt lat="43.47533" lon="6.16309">
        <ele>170</ele>
        <time>2025-02-16T13:29:00.000Z</time>
      </trkpt>
      <trkpt lat="43.47533" lon="6.16309">
        <ele>170</ele>
        <time>2025-02-16T13:29:01.000Z</time>
      </trkpt>
      <trkpt lat="43.47533" lon="6.16309">
        <ele>170</ele>
        <time>2025-02-16T13:29:02.000Z</time>
      </trkpt>
      <trkpt lat="43.47533" lon="6.16309">
        <ele>170</ele>
        <time>2025-02-16T13:29:03.000Z</time>
      </trkpt>
      <trkpt lat="43.47533" lon="6.16309">
        <ele>170</ele>
        <time>2025-02-16T13:29:04.000Z</time>
      </trkpt>
      <trkpt lat="43.47531" lon="6.16309">
        <ele>170.3</ele>
        <time>2025-02-16T13:29:40.000Z</time>
      </trkpt>
      <trkpt lat="43.47531" lon="6.16309">
        <ele>170.3</ele>
        <time>2025-02-16T13:29:41.000Z</time>
      </trkpt>
      <trkpt lat="43.47531" lon="6.16309">
        <ele>170.3</ele>
        <time>2025-02-16T13:29:45.000Z</time>
      </trkpt>
      <trkpt lat="43.47531" lon="6.16309">
        <ele>170.4</ele>
        <time>2025-02-16T13:29:46.000Z</time>
      </trkpt>
      <trkpt lat="43.47531" lon="6.16309">
        <ele>170.4</ele>
        <time>2025-02-16T13:29:47.000Z</time>
      </trkpt>
      <trkpt lat="43.47531" lon="6.16309">
        <ele>170.4</ele>
        <time>2025-02-16T13:29:53.000Z</time>
      </trkpt>
      <trkpt lat="43.47531" lon="6.16309">
        <ele>170.4</ele>
        <time>2025-02-16T13:29:54.000Z</time>
      </trkpt>
      <trkpt lat="43.47531" lon="6.16309">
        <ele>170.5</ele>
        <time>2025-02-16T13:29:58.000Z</time>
      </trkpt>
      <trkpt lat="43.47531" lon="6.16309">
        <ele>170.5</ele>
        <time>2025-02-16T13:29:59.000Z</time>
      </trkpt>
      <trkpt lat="43.47531" lon="6.16309">
        <ele>170.1</ele>
        <time>2025-02-16T13:30:05.000Z</time>
      </trkpt>
      <trkpt lat="43.47531" lon="6.16309">
        <ele>170.4</ele>
        <time>2025-02-16T13:30:06.000Z</time>
      </trkpt>
      <trkpt lat="43.47531" lon="6.16309">
        <ele>170.7</ele>
        <time>2025-02-16T13:30:07.000Z</time>
      </trkpt>
      <trkpt lat="43.47531" lon="6.16309">
        <ele>170.7</ele>
        <time>2025-02-16T13:30:08.000Z</time>
      </trkpt>
      <trkpt lat="43.47531" lon="6.16309">
        <ele>170.7</ele>
        <time>2025-02-16T13:30:09.000Z</time>
      </trkpt>
      <trkpt lat="43.47531" lon="6.16309">
        <ele>170.7</ele>
        <time>2025-02-16T13:30:10.000Z</time>
      </trkpt>
      <trkpt lat="43.47531" lon="6.16309">
        <ele>170.7</ele>
        <time>2025-02-16T13:30:11.000Z</time>
      </trkpt>
      <trkpt lat="43.47531" lon="6.16309">
        <ele>170.6</ele>
        <time>2025-02-16T13:30:12.000Z</time>
      </trkpt>
      <trkpt lat="43.47531" lon="6.16309">
        <ele>170.6</ele>
        <time>2025-02-16T13:30:13.000Z</time>
      </trkpt>
      <trkpt lat="43.47531" lon="6.16309">
        <ele>170.6</ele>
        <time>2025-02-16T13:30:14.000Z</time>
      </trkpt>
      <trkpt lat="43.47531" lon="6.16309">
        <ele>170.6</ele>
        <time>2025-02-16T13:30:15.000Z</time>
      </trkpt>
      <trkpt lat="43.47532" lon="6.16308">
        <ele>170.5</ele>
        <time>2025-02-16T13:30:25.000Z</time>
      </trkpt>
      <trkpt lat="43.47532" lon="6.16308">
        <ele>170.5</ele>
        <time>2025-02-16T13:30:26.000Z</time>
      </trkpt>
      <trkpt lat="43.47532" lon="6.16308">
        <ele>170.5</ele>
        <time>2025-02-16T13:30:27.000Z</time>
      </trkpt>
      <trkpt lat="43.47532" lon="6.16308">
        <ele>170.5</ele>
        <time>2025-02-16T13:30:28.000Z</time>
      </trkpt>
      <trkpt lat="43.47532" lon="6.16308">
        <ele>170.4</ele>
        <time>2025-02-16T13:30:29.000Z</time>
      </trkpt>
      <trkpt lat="43.47532" lon="6.16308">
        <ele>170.4</ele>
        <time>2025-02-16T13:30:30.000Z</time>
      </trkpt>
      <trkpt lat="43.47532" lon="6.16309">
        <ele>170.5</ele>
        <time>2025-02-16T13:30:57.000Z</time>
      </trkpt>
      <trkpt lat="43.47532" lon="6.16309">
        <ele>170.5</ele>
        <time>2025-02-16T13:30:58.000Z</time>
      </trkpt>
      <trkpt lat="43.47532" lon="6.16309">
        <ele>170.5</ele>
        <time>2025-02-16T13:30:59.000Z</time>
      </trkpt>
      <trkpt lat="43.47532" lon="6.16309">
        <ele>170.5</ele>
        <time>2025-02-16T13:31:00.000Z</time>
      </trkpt>
      <trkpt lat="43.47532" lon="6.16309">
        <ele>170.5</ele>
        <time>2025-02-16T13:31:01.000Z</time>
      </trkpt>
      <trkpt lat="43.47533" lon="6.16313">
        <ele>170.6</ele>
        <time>2025-02-16T13:31:41.000Z</time>
      </trkpt>
      <trkpt lat="43.47533" lon="6.16314">
        <ele>170.6</ele>
        <time>2025-02-16T13:31:42.000Z</time>
      </trkpt>
      <trkpt lat="43.47532" lon="6.16322">
        <ele>170.5</ele>
        <time>2025-02-16T13:32:12.000Z</time>
      </trkpt>
      <trkpt lat="43.47532" lon="6.16322">
        <ele>170.5</ele>
        <time>2025-02-16T13:32:13.000Z</time>
      </trkpt>
      <trkpt lat="43.47532" lon="6.16322">
        <ele>170.5</ele>
        <time>2025-02-16T13:32:14.000Z</time>
      </trkpt>
      <trkpt lat="43.47532" lon="6.16323">
        <ele>170.5</ele>
        <time>2025-02-16T13:32:18.000Z</time>
      </trkpt>
      <trkpt lat="43.47533" lon="6.16324">
        <ele>170.5</ele>
        <time>2025-02-16T13:32:19.000Z</time>
      </trkpt>
      <trkpt lat="43.47532" lon="6.16326">
        <ele>170.5</ele>
        <time>2025-02-16T13:32:20.000Z</time>
      </trkpt>
      <trkpt lat="43.47532" lon="6.16339">
        <ele>170.5</ele>
        <time>2025-02-16T13:32:29.000Z</time>
      </trkpt>
      <trkpt lat="43.47532" lon="6.16353">
        <ele>170.6</ele>
        <time>2025-02-16T13:32:40.000Z</time>
      </trkpt>
      <trkpt lat="43.47531" lon="6.16367">
        <ele>170.7</ele>
        <time>2025-02-16T13:32:49.000Z</time>
      </trkpt>
      <trkpt lat="43.47531" lon="6.16379">
        <ele>170.8</ele>
        <time>2025-02-16T13:33:00.000Z</time>
      </trkpt>
      <trkpt lat="43.47531" lon="6.16379">
        <ele>170.9</ele>
        <time>2025-02-16T13:33:02.000Z</time>
      </trkpt>
      <trkpt lat="43.47531" lon="6.16378">
        <ele>170.9</ele>
        <time>2025-02-16T13:33:03.000Z</time>
      </trkpt>
      <trkpt lat="43.47531" lon="6.16378">
        <ele>170.9</ele>
        <time>2025-02-16T13:33:04.000Z</time>
      </trkpt>
      <trkpt lat="43.47531" lon="6.16378">
        <ele>171</ele>
        <time>2025-02-16T13:33:08.000Z</time>
      </trkpt>
      <trkpt lat="43.47531" lon="6.16378">
        <ele>171</ele>
        <time>2025-02-16T13:33:09.000Z</time>
      </trkpt>
      <trkpt lat="43.47532" lon="6.16378">
        <ele>171</ele>
        <time>2025-02-16T13:33:10.000Z</time>
      </trkpt>
      <trkpt lat="43.47531" lon="6.16379">
        <ele>171.1</ele>
        <time>2025-02-16T13:33:13.000Z</time>
      </trkpt>
      <trkpt lat="43.47531" lon="6.16379">
        <ele>171.1</ele>
        <time>2025-02-16T13:33:14.000Z</time>
      </trkpt>
      <trkpt lat="43.47531" lon="6.16379">
        <ele>171.1</ele>
        <time>2025-02-16T13:33:15.000Z</time>
      </trkpt>
      <trkpt lat="43.47531" lon="6.16379">
        <ele>171.2</ele>
        <time>2025-02-16T13:33:18.000Z</time>
      </trkpt>
      <trkpt lat="43.47531" lon="6.16379">
        <ele>171.2</ele>
        <time>2025-02-16T13:33:19.000Z</time>
      </trkpt>
      <trkpt lat="43.47531" lon="6.16379">
        <ele>171.2</ele>
        <time>2025-02-16T13:33:20.000Z</time>
      </trkpt>
      <trkpt lat="43.47531" lon="6.16378">
        <ele>171.2</ele>
        <time>2025-02-16T13:33:21.000Z</time>
      </trkpt>
      <trkpt lat="43.47531" lon="6.16378">
        <ele>171.3</ele>
        <time>2025-02-16T13:33:22.000Z</time>
      </trkpt>
      <trkpt lat="43.47531" lon="6.16378">
        <ele>171.3</ele>
        <time>2025-02-16T13:33:28.000Z</time>
      </trkpt>
      <trkpt lat="43.47531" lon="6.16378">
        <ele>171.3</ele>
        <time>2025-02-16T13:33:29.000Z</time>
      </trkpt>
      <trkpt lat="43.47531" lon="6.16378">
        <ele>171.3</ele>
        <time>2025-02-16T13:33:30.000Z</time>
      </trkpt>
      <trkpt lat="43.47531" lon="6.16378">
        <ele>171.3</ele>
        <time>2025-02-16T13:33:31.000Z</time>
      </trkpt>
      <trkpt lat="43.47531" lon="6.16378">
        <ele>171.3</ele>
        <time>2025-02-16T13:33:32.000Z</time>
      </trkpt>
      <trkpt lat="43.47531" lon="6.16378">
        <ele>171.4</ele>
        <time>2025-02-16T13:33:50.000Z</time>
      </trkpt>
      <trkpt lat="43.47531" lon="6.16378">
        <ele>171.4</ele>
        <time>2025-02-16T13:33:51.000Z</time>
      </trkpt>
      <trkpt lat="43.47531" lon="6.16378">
        <ele>171.3</ele>
        <time>2025-02-16T13:33:52.000Z</time>
      </trkpt>
      <trkpt lat="43.47531" lon="6.16378">
        <ele>171.4</ele>
        <time>2025-02-16T13:33:53.000Z</time>
      </trkpt>
      <trkpt lat="43.47531" lon="6.16378">
        <ele>171.4</ele>
        <time>2025-02-16T13:33:54.000Z</time>
      </trkpt>
      <trkpt lat="43.47531" lon="6.16378">
        <ele>171.4</ele>
        <time>2025-02-16T13:33:55.000Z</time>
      </trkpt>
      <trkpt lat="43.47531" lon="6.16378">
        <ele>171.4</ele>
        <time>2025-02-16T13:33:56.000Z</time>
      </trkpt>
      <trkpt lat="43.47531" lon="6.16378">
        <ele>171.4</ele>
        <time>2025-02-16T13:33:57.000Z</time>
      </trkpt>
      <trkpt lat="43.47531" lon="6.16378">
        <ele>171.4</ele>
        <time>2025-02-16T13:33:58.000Z</time>
      </trkpt>
      <trkpt lat="43.47531" lon="6.16378">
        <ele>171.4</ele>
        <time>2025-02-16T13:33:59.000Z</time>
      </trkpt>
      <trkpt lat="43.47531" lon="6.16378">
        <ele>171.4</ele>
        <time>2025-02-16T13:34:00.000Z</time>
      </trkpt>
      <trkpt lat="43.47531" lon="6.16378">
        <ele>171.4</ele>
        <time>2025-02-16T13:34:01.000Z</time>
      </trkpt>
      <trkpt lat="43.47531" lon="6.16378">
        <ele>171.4</ele>
        <time>2025-02-16T13:34:02.000Z</time>
      </trkpt>
      <trkpt lat="43.47531" lon="6.16378">
        <ele>171.4</ele>
        <time>2025-02-16T13:34:07.000Z</time>
      </trkpt>
      <trkpt lat="43.47531" lon="6.16378">
        <ele>171.4</ele>
        <time>2025-02-16T13:34:08.000Z</time>
      </trkpt>
      <trkpt lat="43.47531" lon="6.16378">
        <ele>171.4</ele>
        <time>2025-02-16T13:34:09.000Z</time>
      </trkpt>
      <trkpt lat="43.4753" lon="6.1638">
        <ele>171.4</ele>
        <time>2025-02-16T13:34:17.000Z</time>
      </trkpt>
      <trkpt lat="43.4753" lon="6.1638">
        <ele>171.4</ele>
        <time>2025-02-16T13:34:18.000Z</time>
      </trkpt>
      <trkpt lat="43.4753" lon="6.16381">
        <ele>171.4</ele>
        <time>2025-02-16T13:34:19.000Z</time>
      </trkpt>
      <trkpt lat="43.47531" lon="6.16381">
        <ele>171.4</ele>
        <time>2025-02-16T13:34:20.000Z</time>
      </trkpt>
      <trkpt lat="43.47531" lon="6.16382">
        <ele>171.5</ele>
        <time>2025-02-16T13:34:21.000Z</time>
      </trkpt>
      <trkpt lat="43.47531" lon="6.16383">
        <ele>171.5</ele>
        <time>2025-02-16T13:34:22.000Z</time>
      </trkpt>
      <trkpt lat="43.47532" lon="6.16383">
        <ele>171.5</ele>
        <time>2025-02-16T13:34:23.000Z</time>
      </trkpt>
      <trkpt lat="43.47532" lon="6.16384">
        <ele>171.5</ele>
        <time>2025-02-16T13:34:24.000Z</time>
      </trkpt>
      <trkpt lat="43.4754" lon="6.16391">
        <ele>171.7</ele>
        <time>2025-02-16T13:34:36.000Z</time>
      </trkpt>
      <trkpt lat="43.4755" lon="6.16394">
        <ele>172.7</ele>
        <time>2025-02-16T13:34:52.000Z</time>
      </trkpt>
      <trkpt lat="43.47558" lon="6.16397">
        <ele>173.6</ele>
        <time>2025-02-16T13:35:01.000Z</time>
      </trkpt>
      <trkpt lat="43.47567" lon="6.16403">
        <ele>174.5</ele>
        <time>2025-02-16T13:35:12.000Z</time>
      </trkpt>
      <trkpt lat="43.47576" lon="6.16406">
        <ele>175</ele>
        <time>2025-02-16T13:35:21.000Z</time>
      </trkpt>
      <trkpt lat="43.47585" lon="6.16411">
        <ele>175.1</ele>
        <time>2025-02-16T13:35:30.000Z</time>
      </trkpt>
      <trkpt lat="43.47593" lon="6.16415">
        <ele>174.9</ele>
        <time>2025-02-16T13:35:37.000Z</time>
      </trkpt>
      <trkpt lat="43.47602" lon="6.16421">
        <ele>173.9</ele>
        <time>2025-02-16T13:35:47.000Z</time>
      </trkpt>
      <trkpt lat="43.47611" lon="6.16428">
        <ele>172.8</ele>
        <time>2025-02-16T13:35:55.000Z</time>
      </trkpt>
      <trkpt lat="43.4762" lon="6.16432">
        <ele>172</ele>
        <time>2025-02-16T13:36:04.000Z</time>
      </trkpt>
      <trkpt lat="43.47629" lon="6.16435">
        <ele>171.6</ele>
        <time>2025-02-16T13:36:13.000Z</time>
      </trkpt>
      <trkpt lat="43.47639" lon="6.16437">
        <ele>171.6</ele>
        <time>2025-02-16T13:36:22.000Z</time>
      </trkpt>
      <trkpt lat="43.47648" lon="6.16439">
        <ele>171.6</ele>
        <time>2025-02-16T13:36:31.000Z</time>
      </trkpt>
      <trkpt lat="43.47657" lon="6.1644">
        <ele>171.7</ele>
        <time>2025-02-16T13:36:40.000Z</time>
      </trkpt>
      <trkpt lat="43.47666" lon="6.1644">
        <ele>172.4</ele>
        <time>2025-02-16T13:36:51.000Z</time>
      </trkpt>
      <trkpt lat="43.47676" lon="6.16442">
        <ele>172.9</ele>
        <time>2025-02-16T13:37:00.000Z</time>
      </trkpt>
      <trkpt lat="43.47686" lon="6.16441">
        <ele>173.4</ele>
        <time>2025-02-16T13:37:10.000Z</time>
      </trkpt>
      <trkpt lat="43.47696" lon="6.16442">
        <ele>173.6</ele>
        <time>2025-02-16T13:37:20.000Z</time>
      </trkpt>
      <trkpt lat="43.47706" lon="6.16444">
        <ele>173.6</ele>
        <time>2025-02-16T13:37:28.000Z</time>
      </trkpt>
      <trkpt lat="43.47715" lon="6.16446">
        <ele>173.2</ele>
        <time>2025-02-16T13:37:37.000Z</time>
      </trkpt>
      <trkpt lat="43.47725" lon="6.16448">
        <ele>172.5</ele>
        <time>2025-02-16T13:37:47.000Z</time>
      </trkpt>
      <trkpt lat="43.47734" lon="6.1645">
        <ele>171.2</ele>
        <time>2025-02-16T13:37:56.000Z</time>
      </trkpt>
      <trkpt lat="43.47744" lon="6.16452">
        <ele>169.4</ele>
        <time>2025-02-16T13:38:06.000Z</time>
      </trkpt>
      <trkpt lat="43.47753" lon="6.16457">
        <ele>167.8</ele>
        <time>2025-02-16T13:38:15.000Z</time>
      </trkpt>
      <trkpt lat="43.47762" lon="6.16461">
        <ele>166.7</ele>
        <time>2025-02-16T13:38:24.000Z</time>
      </trkpt>
      <trkpt lat="43.47771" lon="6.16468">
        <ele>165.2</ele>
        <time>2025-02-16T13:38:35.000Z</time>
      </trkpt>
      <trkpt lat="43.47779" lon="6.16473">
        <ele>164.1</ele>
        <time>2025-02-16T13:38:43.000Z</time>
      </trkpt>
      <trkpt lat="43.47788" lon="6.16477">
        <ele>163.2</ele>
        <time>2025-02-16T13:38:51.000Z</time>
      </trkpt>
      <trkpt lat="43.47797" lon="6.16482">
        <ele>162.4</ele>
        <time>2025-02-16T13:38:59.000Z</time>
      </trkpt>
      <trkpt lat="43.47806" lon="6.16489">
        <ele>161.7</ele>
        <time>2025-02-16T13:39:10.000Z</time>
      </trkpt>
      <trkpt lat="43.47814" lon="6.16496">
        <ele>161.2</ele>
        <time>2025-02-16T13:39:19.000Z</time>
      </trkpt>
      <trkpt lat="43.47822" lon="6.16502">
        <ele>160.6</ele>
        <time>2025-02-16T13:39:27.000Z</time>
      </trkpt>
      <trkpt lat="43.4783" lon="6.1651">
        <ele>159.6</ele>
        <time>2025-02-16T13:39:36.000Z</time>
      </trkpt>
      <trkpt lat="43.47836" lon="6.16521">
        <ele>158.8</ele>
        <time>2025-02-16T13:39:45.000Z</time>
      </trkpt>
      <trkpt lat="43.47841" lon="6.16532">
        <ele>158.4</ele>
        <time>2025-02-16T13:39:53.000Z</time>
      </trkpt>
      <trkpt lat="43.47846" lon="6.16543">
        <ele>158.1</ele>
        <time>2025-02-16T13:40:02.000Z</time>
      </trkpt>
      <trkpt lat="43.47853" lon="6.16552">
        <ele>157.8</ele>
        <time>2025-02-16T13:40:12.000Z</time>
      </trkpt>
      <trkpt lat="43.4786" lon="6.1656">
        <ele>157.8</ele>
        <time>2025-02-16T13:40:25.000Z</time>
      </trkpt>
      <trkpt lat="43.47863" lon="6.16562">
        <ele>157.8</ele>
        <time>2025-02-16T13:40:33.000Z</time>
      </trkpt>
      <trkpt lat="43.47863" lon="6.16562">
        <ele>157.8</ele>
        <time>2025-02-16T13:40:34.000Z</time>
      </trkpt>
      <trkpt lat="43.47863" lon="6.16561">
        <ele>157.8</ele>
        <time>2025-02-16T13:40:40.000Z</time>
      </trkpt>
      <trkpt lat="43.47863" lon="6.16561">
        <ele>157.8</ele>
        <time>2025-02-16T13:40:41.000Z</time>
      </trkpt>
      <trkpt lat="43.47863" lon="6.16561">
        <ele>157.8</ele>
        <time>2025-02-16T13:40:42.000Z</time>
      </trkpt>
      <trkpt lat="43.47863" lon="6.16561">
        <ele>157.8</ele>
        <time>2025-02-16T13:40:43.000Z</time>
      </trkpt>
      <trkpt lat="43.47863" lon="6.16561">
        <ele>157.8</ele>
        <time>2025-02-16T13:40:44.000Z</time>
      </trkpt>
      <trkpt lat="43.47864" lon="6.16563">
        <ele>157.8</ele>
        <time>2025-02-16T13:40:50.000Z</time>
      </trkpt>
      <trkpt lat="43.47864" lon="6.16563">
        <ele>157.8</ele>
        <time>2025-02-16T13:40:51.000Z</time>
      </trkpt>
      <trkpt lat="43.47865" lon="6.16564">
        <ele>157.8</ele>
        <time>2025-02-16T13:40:55.000Z</time>
      </trkpt>
      <trkpt lat="43.47865" lon="6.16564">
        <ele>157.8</ele>
        <time>2025-02-16T13:40:56.000Z</time>
      </trkpt>
      <trkpt lat="43.47866" lon="6.16564">
        <ele>157.7</ele>
        <time>2025-02-16T13:41:05.000Z</time>
      </trkpt>
      <trkpt lat="43.47866" lon="6.16563">
        <ele>157.7</ele>
        <time>2025-02-16T13:41:06.000Z</time>
      </trkpt>
      <trkpt lat="43.47866" lon="6.16563">
        <ele>157.7</ele>
        <time>2025-02-16T13:41:07.000Z</time>
      </trkpt>
      <trkpt lat="43.47866" lon="6.16563">
        <ele>157.7</ele>
        <time>2025-02-16T13:41:08.000Z</time>
      </trkpt>
      <trkpt lat="43.47866" lon="6.16563">
        <ele>157.7</ele>
        <time>2025-02-16T13:41:09.000Z</time>
      </trkpt>
      <trkpt lat="43.47866" lon="6.16563">
        <ele>157.7</ele>
        <time>2025-02-16T13:41:10.000Z</time>
      </trkpt>
      <trkpt lat="43.47866" lon="6.16563">
        <ele>157.7</ele>
        <time>2025-02-16T13:41:11.000Z</time>
      </trkpt>
      <trkpt lat="43.47866" lon="6.16563">
        <ele>157.7</ele>
        <time>2025-02-16T13:41:12.000Z</time>
      </trkpt>
      <trkpt lat="43.47866" lon="6.16563">
        <ele>157.7</ele>
        <time>2025-02-16T13:41:13.000Z</time>
      </trkpt>
      <trkpt lat="43.47866" lon="6.16563">
        <ele>157.7</ele>
        <time>2025-02-16T13:41:14.000Z</time>
      </trkpt>
      <trkpt lat="43.47866" lon="6.16563">
        <ele>157.7</ele>
        <time>2025-02-16T13:41:15.000Z</time>
      </trkpt>
      <trkpt lat="43.47866" lon="6.16563">
        <ele>157.7</ele>
        <time>2025-02-16T13:41:16.000Z</time>
      </trkpt>
      <trkpt lat="43.47866" lon="6.16563">
        <ele>157.7</ele>
        <time>2025-02-16T13:41:17.000Z</time>
      </trkpt>
      <trkpt lat="43.47866" lon="6.16563">
        <ele>157.8</ele>
        <time>2025-02-16T13:41:18.000Z</time>
      </trkpt>
      <trkpt lat="43.47866" lon="6.16563">
        <ele>157.8</ele>
        <time>2025-02-16T13:41:19.000Z</time>
      </trkpt>
      <trkpt lat="43.47866" lon="6.16563">
        <ele>157.8</ele>
        <time>2025-02-16T13:41:20.000Z</time>
      </trkpt>
      <trkpt lat="43.47866" lon="6.16563">
        <ele>157.8</ele>
        <time>2025-02-16T13:41:21.000Z</time>
      </trkpt>
      <trkpt lat="43.47866" lon="6.16563">
        <ele>157.8</ele>
        <time>2025-02-16T13:41:22.000Z</time>
      </trkpt>
      <trkpt lat="43.47866" lon="6.16563">
        <ele>157.8</ele>
        <time>2025-02-16T13:41:23.000Z</time>
      </trkpt>
      <trkpt lat="43.47866" lon="6.16563">
        <ele>157.8</ele>
        <time>2025-02-16T13:41:24.000Z</time>
      </trkpt>
      <trkpt lat="43.47866" lon="6.16563">
        <ele>157.8</ele>
        <time>2025-02-16T13:41:25.000Z</time>
      </trkpt>
      <trkpt lat="43.47866" lon="6.16563">
        <ele>157.7</ele>
        <time>2025-02-16T13:41:35.000Z</time>
      </trkpt>
      <trkpt lat="43.47866" lon="6.16563">
        <ele>157.7</ele>
        <time>2025-02-16T13:41:36.000Z</time>
      </trkpt>
      <trkpt lat="43.47866" lon="6.16563">
        <ele>157.7</ele>
        <time>2025-02-16T13:41:37.000Z</time>
      </trkpt>
      <trkpt lat="43.47871" lon="6.16575">
        <ele>157.7</ele>
        <time>2025-02-16T13:41:51.000Z</time>
      </trkpt>
      <trkpt lat="43.47876" lon="6.16585">
        <ele>157.7</ele>
        <time>2025-02-16T13:42:02.000Z</time>
      </trkpt>
      <trkpt lat="43.47881" lon="6.16596">
        <ele>157.7</ele>
        <time>2025-02-16T13:42:12.000Z</time>
      </trkpt>
      <trkpt lat="43.47885" lon="6.16607">
        <ele>157.7</ele>
        <time>2025-02-16T13:42:21.000Z</time>
      </trkpt>
      <trkpt lat="43.4789" lon="6.16618">
        <ele>157.4</ele>
        <time>2025-02-16T13:42:30.000Z</time>
      </trkpt>
      <trkpt lat="43.47895" lon="6.16628">
        <ele>157</ele>
        <time>2025-02-16T13:42:39.000Z</time>
      </trkpt>
      <trkpt lat="43.47898" lon="6.1664">
        <ele>156.6</ele>
        <time>2025-02-16T13:42:47.000Z</time>
      </trkpt>
      <trkpt lat="43.47903" lon="6.16651">
        <ele>155.9</ele>
        <time>2025-02-16T13:42:56.000Z</time>
      </trkpt>
      <trkpt lat="43.47908" lon="6.16662">
        <ele>154.8</ele>
        <time>2025-02-16T13:43:06.000Z</time>
      </trkpt>
      <trkpt lat="43.47912" lon="6.16674">
        <ele>153.7</ele>
        <time>2025-02-16T13:43:15.000Z</time>
      </trkpt>
      <trkpt lat="43.47919" lon="6.16682">
        <ele>152.5</ele>
        <time>2025-02-16T13:43:24.000Z</time>
      </trkpt>
      <trkpt lat="43.47925" lon="6.16693">
        <ele>151.1</ele>
        <time>2025-02-16T13:43:34.000Z</time>
      </trkpt>
      <trkpt lat="43.4793" lon="6.16704">
        <ele>150</ele>
        <time>2025-02-16T13:43:43.000Z</time>
      </trkpt>
      <trkpt lat="43.47935" lon="6.16714">
        <ele>148.5</ele>
        <time>2025-02-16T13:43:52.000Z</time>
      </trkpt>
      <trkpt lat="43.47941" lon="6.16724">
        <ele>146.9</ele>
        <time>2025-02-16T13:44:04.000Z</time>
      </trkpt>
      <trkpt lat="43.47948" lon="6.1673">
        <ele>144.6</ele>
        <time>2025-02-16T13:44:28.000Z</time>
      </trkpt>
      <trkpt lat="43.47957" lon="6.16733">
        <ele>143.8</ele>
        <time>2025-02-16T13:44:40.000Z</time>
      </trkpt>
      <trkpt lat="43.47965" lon="6.16738">
        <ele>142.5</ele>
        <time>2025-02-16T13:44:50.000Z</time>
      </trkpt>
      <trkpt lat="43.47967" lon="6.16751">
        <ele>141.4</ele>
        <time>2025-02-16T13:45:05.000Z</time>
      </trkpt>
      <trkpt lat="43.47961" lon="6.16755">
        <ele>140.9</ele>
        <time>2025-02-16T13:45:20.000Z</time>
      </trkpt>
      <trkpt lat="43.4796" lon="6.16755">
        <ele>140.9</ele>
        <time>2025-02-16T13:45:21.000Z</time>
      </trkpt>
      <trkpt lat="43.47961" lon="6.16756">
        <ele>140.9</ele>
        <time>2025-02-16T13:45:22.000Z</time>
      </trkpt>
      <trkpt lat="43.4796" lon="6.16757">
        <ele>140.9</ele>
        <time>2025-02-16T13:45:23.000Z</time>
      </trkpt>
      <trkpt lat="43.47961" lon="6.16757">
        <ele>140.8</ele>
        <time>2025-02-16T13:45:24.000Z</time>
      </trkpt>
      <trkpt lat="43.47961" lon="6.16757">
        <ele>140.8</ele>
        <time>2025-02-16T13:45:27.000Z</time>
      </trkpt>
      <trkpt lat="43.47961" lon="6.16757">
        <ele>140.8</ele>
        <time>2025-02-16T13:45:28.000Z</time>
      </trkpt>
      <trkpt lat="43.47961" lon="6.16757">
        <ele>140.8</ele>
        <time>2025-02-16T13:45:29.000Z</time>
      </trkpt>
      <trkpt lat="43.47962" lon="6.1676">
        <ele>140.7</ele>
        <time>2025-02-16T13:45:33.000Z</time>
      </trkpt>
      <trkpt lat="43.47962" lon="6.16761">
        <ele>140.7</ele>
        <time>2025-02-16T13:45:34.000Z</time>
      </trkpt>
      <trkpt lat="43.47963" lon="6.16763">
        <ele>140.6</ele>
        <time>2025-02-16T13:45:35.000Z</time>
      </trkpt>
      <trkpt lat="43.47964" lon="6.16775">
        <ele>140.4</ele>
        <time>2025-02-16T13:45:46.000Z</time>
      </trkpt>
      <trkpt lat="43.47965" lon="6.16788">
        <ele>140.1</ele>
        <time>2025-02-16T13:46:01.000Z</time>
      </trkpt>
      <trkpt lat="43.47967" lon="6.16801">
        <ele>139.9</ele>
        <time>2025-02-16T13:46:18.000Z</time>
      </trkpt>
      <trkpt lat="43.47968" lon="6.16814">
        <ele>139.8</ele>
        <time>2025-02-16T13:46:29.000Z</time>
      </trkpt>
      <trkpt lat="43.47969" lon="6.16826">
        <ele>139.7</ele>
        <time>2025-02-16T13:46:38.000Z</time>
      </trkpt>
      <trkpt lat="43.47971" lon="6.16839">
        <ele>139.7</ele>
        <time>2025-02-16T13:46:47.000Z</time>
      </trkpt>
      <trkpt lat="43.47971" lon="6.16853">
        <ele>139.7</ele>
        <time>2025-02-16T13:46:55.000Z</time>
      </trkpt>
      <trkpt lat="43.47972" lon="6.16866">
        <ele>139.8</ele>
        <time>2025-02-16T13:47:03.000Z</time>
      </trkpt>
      <trkpt lat="43.47973" lon="6.16879">
        <ele>139.8</ele>
        <time>2025-02-16T13:47:11.000Z</time>
      </trkpt>
      <trkpt lat="43.47972" lon="6.16892">
        <ele>139.9</ele>
        <time>2025-02-16T13:47:20.000Z</time>
      </trkpt>
      <trkpt lat="43.47965" lon="6.169">
        <ele>139.9</ele>
        <time>2025-02-16T13:47:32.000Z</time>
      </trkpt>
      <trkpt lat="43.4797" lon="6.16911">
        <ele>139.9</ele>
        <time>2025-02-16T13:47:54.000Z</time>
      </trkpt>
      <trkpt lat="43.47972" lon="6.16912">
        <ele>140</ele>
        <time>2025-02-16T13:48:00.000Z</time>
      </trkpt>
      <trkpt lat="43.47972" lon="6.16911">
        <ele>140</ele>
        <time>2025-02-16T13:48:01.000Z</time>
      </trkpt>
      <trkpt lat="43.47972" lon="6.16911">
        <ele>140</ele>
        <time>2025-02-16T13:48:02.000Z</time>
      </trkpt>
      <trkpt lat="43.47973" lon="6.16912">
        <ele>140</ele>
        <time>2025-02-16T13:48:03.000Z</time>
      </trkpt>
      <trkpt lat="43.47973" lon="6.16913">
        <ele>140</ele>
        <time>2025-02-16T13:48:04.000Z</time>
      </trkpt>
      <trkpt lat="43.4798" lon="6.16922">
        <ele>140.1</ele>
        <time>2025-02-16T13:48:15.000Z</time>
      </trkpt>
      <trkpt lat="43.47983" lon="6.16934">
        <ele>140.2</ele>
        <time>2025-02-16T13:48:25.000Z</time>
      </trkpt>
      <trkpt lat="43.47985" lon="6.16946">
        <ele>140.3</ele>
        <time>2025-02-16T13:48:35.000Z</time>
      </trkpt>
      <trkpt lat="43.47986" lon="6.16959">
        <ele>140.6</ele>
        <time>2025-02-16T13:48:46.000Z</time>
      </trkpt>
      <trkpt lat="43.47987" lon="6.16972">
        <ele>140.9</ele>
        <time>2025-02-16T13:48:58.000Z</time>
      </trkpt>
      <trkpt lat="43.47988" lon="6.16985">
        <ele>141.2</ele>
        <time>2025-02-16T13:49:09.000Z</time>
      </trkpt>
      <trkpt lat="43.47989" lon="6.16997">
        <ele>141.5</ele>
        <time>2025-02-16T13:49:22.000Z</time>
      </trkpt>
      <trkpt lat="43.47982" lon="6.17006">
        <ele>141.6</ele>
        <time>2025-02-16T13:49:40.000Z</time>
      </trkpt>
      <trkpt lat="43.47979" lon="6.17018">
        <ele>141.3</ele>
        <time>2025-02-16T13:49:57.000Z</time>
      </trkpt>
      <trkpt lat="43.47979" lon="6.17025">
        <ele>141.2</ele>
        <time>2025-02-16T13:50:10.000Z</time>
      </trkpt>
      <trkpt lat="43.47979" lon="6.17025">
        <ele>141.2</ele>
        <time>2025-02-16T13:50:11.000Z</time>
      </trkpt>
      <trkpt lat="43.4798" lon="6.17027">
        <ele>141</ele>
        <time>2025-02-16T13:50:25.000Z</time>
      </trkpt>
      <trkpt lat="43.4798" lon="6.17028">
        <ele>141</ele>
        <time>2025-02-16T13:50:26.000Z</time>
      </trkpt>
      <trkpt lat="43.47981" lon="6.17029">
        <ele>141</ele>
        <time>2025-02-16T13:50:27.000Z</time>
      </trkpt>
      <trkpt lat="43.47986" lon="6.17039">
        <ele>141</ele>
        <time>2025-02-16T13:50:43.000Z</time>
      </trkpt>
      <trkpt lat="43.47987" lon="6.17039">
        <ele>141</ele>
        <time>2025-02-16T13:50:45.000Z</time>
      </trkpt>
      <trkpt lat="43.47987" lon="6.17039">
        <ele>141.1</ele>
        <time>2025-02-16T13:50:46.000Z</time>
      </trkpt>
      <trkpt lat="43.47988" lon="6.1704">
        <ele>141.1</ele>
        <time>2025-02-16T13:50:52.000Z</time>
      </trkpt>
      <trkpt lat="43.47988" lon="6.1704">
        <ele>141.1</ele>
        <time>2025-02-16T13:50:53.000Z</time>
      </trkpt>
      <trkpt lat="43.47989" lon="6.17041">
        <ele>141.1</ele>
        <time>2025-02-16T13:50:54.000Z</time>
      </trkpt>
      <trkpt lat="43.47996" lon="6.17049">
        <ele>141.2</ele>
        <time>2025-02-16T13:51:05.000Z</time>
      </trkpt>
      <trkpt lat="43.48001" lon="6.17061">
        <ele>141.3</ele>
        <time>2025-02-16T13:51:16.000Z</time>
      </trkpt>
      <trkpt lat="43.48003" lon="6.17074">
        <ele>141.3</ele>
        <time>2025-02-16T13:51:25.000Z</time>
      </trkpt>
      <trkpt lat="43.48006" lon="6.17087">
        <ele>141.3</ele>
        <time>2025-02-16T13:51:36.000Z</time>
      </trkpt>
      <trkpt lat="43.48009" lon="6.171">
        <ele>141.3</ele>
        <time>2025-02-16T13:51:46.000Z</time>
      </trkpt>
      <trkpt lat="43.48011" lon="6.17112">
        <ele>141.2</ele>
        <time>2025-02-16T13:51:55.000Z</time>
      </trkpt>
      <trkpt lat="43.48015" lon="6.17124">
        <ele>141.1</ele>
        <time>2025-02-16T13:52:04.000Z</time>
      </trkpt>
      <trkpt lat="43.48018" lon="6.17137">
        <ele>141</ele>
        <time>2025-02-16T13:52:13.000Z</time>
      </trkpt>
      <trkpt lat="43.4802" lon="6.17149">
        <ele>140.9</ele>
        <time>2025-02-16T13:52:22.000Z</time>
      </trkpt>
      <trkpt lat="43.48024" lon="6.17161">
        <ele>140.8</ele>
        <time>2025-02-16T13:52:31.000Z</time>
      </trkpt>
      <trkpt lat="43.48027" lon="6.17173">
        <ele>140.7</ele>
        <time>2025-02-16T13:52:40.000Z</time>
      </trkpt>
      <trkpt lat="43.4803" lon="6.17185">
        <ele>140.7</ele>
        <time>2025-02-16T13:52:49.000Z</time>
      </trkpt>
      <trkpt lat="43.48033" lon="6.17197">
        <ele>140.7</ele>
        <time>2025-02-16T13:52:58.000Z</time>
      </trkpt>
      <trkpt lat="43.48036" lon="6.1721">
        <ele>140.6</ele>
        <time>2025-02-16T13:53:07.000Z</time>
      </trkpt>
      <trkpt lat="43.48039" lon="6.17222">
        <ele>140.6</ele>
        <time>2025-02-16T13:53:19.000Z</time>
      </trkpt>
      <trkpt lat="43.48042" lon="6.17234">
        <ele>140.6</ele>
        <time>2025-02-16T13:53:28.000Z</time>
      </trkpt>
      <trkpt lat="43.48044" lon="6.17247">
        <ele>140.6</ele>
        <time>2025-02-16T13:53:37.000Z</time>
      </trkpt>
      <trkpt lat="43.48048" lon="6.17259">
        <ele>140.6</ele>
        <time>2025-02-16T13:53:47.000Z</time>
      </trkpt>
      <trkpt lat="43.48051" lon="6.17272">
        <ele>140.6</ele>
        <time>2025-02-16T13:53:56.000Z</time>
      </trkpt>
      <trkpt lat="43.48054" lon="6.17285">
        <ele>140.7</ele>
        <time>2025-02-16T13:54:05.000Z</time>
      </trkpt>
      <trkpt lat="43.48058" lon="6.17298">
        <ele>140.7</ele>
        <time>2025-02-16T13:54:14.000Z</time>
      </trkpt>
      <trkpt lat="43.48061" lon="6.17309">
        <ele>140.7</ele>
        <time>2025-02-16T13:54:23.000Z</time>
      </trkpt>
      <trkpt lat="43.48063" lon="6.17322">
        <ele>140.8</ele>
        <time>2025-02-16T13:54:32.000Z</time>
      </trkpt>
      <trkpt lat="43.48066" lon="6.17335">
        <ele>140.9</ele>
        <time>2025-02-16T13:54:42.000Z</time>
      </trkpt>
      <trkpt lat="43.48068" lon="6.17347">
        <ele>141.1</ele>
        <time>2025-02-16T13:54:51.000Z</time>
      </trkpt>
      <trkpt lat="43.48068" lon="6.17348">
        <ele>141.1</ele>
        <time>2025-02-16T13:54:55.000Z</time>
      </trkpt>
      <trkpt lat="43.48068" lon="6.17348">
        <ele>141.1</ele>
        <time>2025-02-16T13:54:56.000Z</time>
      </trkpt>
      <trkpt lat="43.48068" lon="6.17348">
        <ele>141.2</ele>
        <time>2025-02-16T13:54:57.000Z</time>
      </trkpt>
      <trkpt lat="43.48068" lon="6.17348">
        <ele>141.2</ele>
        <time>2025-02-16T13:54:58.000Z</time>
      </trkpt>
      <trkpt lat="43.48068" lon="6.17348">
        <ele>141.2</ele>
        <time>2025-02-16T13:54:59.000Z</time>
      </trkpt>
      <trkpt lat="43.48068" lon="6.17348">
        <ele>141.2</ele>
        <time>2025-02-16T13:55:00.000Z</time>
      </trkpt>
      <trkpt lat="43.48068" lon="6.17348">
        <ele>141.2</ele>
        <time>2025-02-16T13:55:01.000Z</time>
      </trkpt>
      <trkpt lat="43.48068" lon="6.17348">
        <ele>141.2</ele>
        <time>2025-02-16T13:55:05.000Z</time>
      </trkpt>
      <trkpt lat="43.48068" lon="6.17348">
        <ele>141.2</ele>
        <time>2025-02-16T13:55:06.000Z</time>
      </trkpt>
      <trkpt lat="43.48068" lon="6.17348">
        <ele>141.3</ele>
        <time>2025-02-16T13:55:07.000Z</time>
      </trkpt>
      <trkpt lat="43.48068" lon="6.17348">
        <ele>141.3</ele>
        <time>2025-02-16T13:55:11.000Z</time>
      </trkpt>
      <trkpt lat="43.48068" lon="6.17348">
        <ele>141.3</ele>
        <time>2025-02-16T13:55:12.000Z</time>
      </trkpt>
      <trkpt lat="43.48068" lon="6.1735">
        <ele>141.3</ele>
        <time>2025-02-16T13:55:20.000Z</time>
      </trkpt>
      <trkpt lat="43.48068" lon="6.17351">
        <ele>141.3</ele>
        <time>2025-02-16T13:55:21.000Z</time>
      </trkpt>
      <trkpt lat="43.48068" lon="6.17354">
        <ele>141.5</ele>
        <time>2025-02-16T13:55:30.000Z</time>
      </trkpt>
      <trkpt lat="43.48068" lon="6.17354">
        <ele>141.6</ele>
        <time>2025-02-16T13:55:31.000Z</time>
      </trkpt>
      <trkpt lat="43.48068" lon="6.17354">
        <ele>141.6</ele>
        <time>2025-02-16T13:55:32.000Z</time>
      </trkpt>
      <trkpt lat="43.48068" lon="6.17354">
        <ele>141.7</ele>
        <time>2025-02-16T13:55:38.000Z</time>
      </trkpt>
      <trkpt lat="43.48068" lon="6.17354">
        <ele>141.7</ele>
        <time>2025-02-16T13:55:39.000Z</time>
      </trkpt>
      <trkpt lat="43.48068" lon="6.17355">
        <ele>142.2</ele>
        <time>2025-02-16T13:55:45.000Z</time>
      </trkpt>
      <trkpt lat="43.48068" lon="6.17355">
        <ele>142.3</ele>
        <time>2025-02-16T13:55:46.000Z</time>
      </trkpt>
      <trkpt lat="43.48068" lon="6.17355">
        <ele>142.8</ele>
        <time>2025-02-16T13:56:16.000Z</time>
      </trkpt>
      <trkpt lat="43.48068" lon="6.17355">
        <ele>142.8</ele>
        <time>2025-02-16T13:56:17.000Z</time>
      </trkpt>
      <trkpt lat="43.48058" lon="6.17355">
        <ele>142.6</ele>
        <time>2025-02-16T13:56:29.000Z</time>
      </trkpt>
      <trkpt lat="43.48048" lon="6.17357">
        <ele>142.2</ele>
        <time>2025-02-16T13:56:38.000Z</time>
      </trkpt>
      <trkpt lat="43.48039" lon="6.17359">
        <ele>141.7</ele>
        <time>2025-02-16T13:56:48.000Z</time>
      </trkpt>
      <trkpt lat="43.48029" lon="6.17362">
        <ele>141.5</ele>
        <time>2025-02-16T13:56:57.000Z</time>
      </trkpt>
      <trkpt lat="43.4802" lon="6.17364">
        <ele>141.4</ele>
        <time>2025-02-16T13:57:05.000Z</time>
      </trkpt>
      <trkpt lat="43.4801" lon="6.17364">
        <ele>141.3</ele>
        <time>2025-02-16T13:57:13.000Z</time>
      </trkpt>
      <trkpt lat="43.48001" lon="6.17366">
        <ele>141.3</ele>
        <time>2025-02-16T13:57:22.000Z</time>
      </trkpt>
      <trkpt lat="43.47991" lon="6.17367">
        <ele>141.2</ele>
        <time>2025-02-16T13:57:30.000Z</time>
      </trkpt>
      <trkpt lat="43.47982" lon="6.1737">
        <ele>141.2</ele>
        <time>2025-02-16T13:57:39.000Z</time>
      </trkpt>
      <trkpt lat="43.47973" lon="6.17372">
        <ele>141.2</ele>
        <time>2025-02-16T13:57:47.000Z</time>
      </trkpt>
      <trkpt lat="43.47964" lon="6.17377">
        <ele>141.2</ele>
        <time>2025-02-16T13:57:55.000Z</time>
      </trkpt>
      <trkpt lat="43.47955" lon="6.1738">
        <ele>141.1</ele>
        <time>2025-02-16T13:58:03.000Z</time>
      </trkpt>
      <trkpt lat="43.47945" lon="6.17381">
        <ele>141.1</ele>
        <time>2025-02-16T13:58:11.000Z</time>
      </trkpt>
      <trkpt lat="43.47935" lon="6.17381">
        <ele>141.1</ele>
        <time>2025-02-16T13:58:19.000Z</time>
      </trkpt>
      <trkpt lat="43.47926" lon="6.17384">
        <ele>141.1</ele>
        <time>2025-02-16T13:58:28.000Z</time>
      </trkpt>
      <trkpt lat="43.47916" lon="6.17386">
        <ele>141.1</ele>
        <time>2025-02-16T13:58:37.000Z</time>
      </trkpt>
      <trkpt lat="43.47906" lon="6.17388">
        <ele>141.1</ele>
        <time>2025-02-16T13:58:46.000Z</time>
      </trkpt>
      <trkpt lat="43.47897" lon="6.17392">
        <ele>141.1</ele>
        <time>2025-02-16T13:58:54.000Z</time>
      </trkpt>
      <trkpt lat="43.47888" lon="6.17395">
        <ele>141.1</ele>
        <time>2025-02-16T13:59:03.000Z</time>
      </trkpt>
      <trkpt lat="43.47879" lon="6.17398">
        <ele>141.2</ele>
        <time>2025-02-16T13:59:12.000Z</time>
      </trkpt>
      <trkpt lat="43.4787" lon="6.17399">
        <ele>141.2</ele>
        <time>2025-02-16T13:59:20.000Z</time>
      </trkpt>
      <trkpt lat="43.4786" lon="6.174">
        <ele>141.2</ele>
        <time>2025-02-16T13:59:28.000Z</time>
      </trkpt>
      <trkpt lat="43.47851" lon="6.17402">
        <ele>141.1</ele>
        <time>2025-02-16T13:59:37.000Z</time>
      </trkpt>
      <trkpt lat="43.47842" lon="6.17404">
        <ele>141.1</ele>
        <time>2025-02-16T13:59:46.000Z</time>
      </trkpt>
      <trkpt lat="43.47832" lon="6.17405">
        <ele>141.1</ele>
        <time>2025-02-16T13:59:55.000Z</time>
      </trkpt>
      <trkpt lat="43.47822" lon="6.17407">
        <ele>141.1</ele>
        <time>2025-02-16T14:00:04.000Z</time>
      </trkpt>
      <trkpt lat="43.47813" lon="6.17409">
        <ele>141.1</ele>
        <time>2025-02-16T14:00:13.000Z</time>
      </trkpt>
      <trkpt lat="43.47804" lon="6.17411">
        <ele>141.1</ele>
        <time>2025-02-16T14:00:22.000Z</time>
      </trkpt>
      <trkpt lat="43.47795" lon="6.1741">
        <ele>141.2</ele>
        <time>2025-02-16T14:00:30.000Z</time>
      </trkpt>
      <trkpt lat="43.47793" lon="6.1741">
        <ele>141.2</ele>
        <time>2025-02-16T14:00:35.000Z</time>
      </trkpt>
      <trkpt lat="43.47793" lon="6.1741">
        <ele>141.2</ele>
        <time>2025-02-16T14:00:36.000Z</time>
      </trkpt>
      <trkpt lat="43.47793" lon="6.1741">
        <ele>141.2</ele>
        <time>2025-02-16T14:00:37.000Z</time>
      </trkpt>
      <trkpt lat="43.47792" lon="6.1741">
        <ele>141.2</ele>
        <time>2025-02-16T14:00:38.000Z</time>
      </trkpt>
      <trkpt lat="43.47791" lon="6.17411">
        <ele>141.2</ele>
        <time>2025-02-16T14:00:39.000Z</time>
      </trkpt>
      <trkpt lat="43.47781" lon="6.17412">
        <ele>141.2</ele>
        <time>2025-02-16T14:00:48.000Z</time>
      </trkpt>
      <trkpt lat="43.4777" lon="6.1741">
        <ele>141.2</ele>
        <time>2025-02-16T14:00:56.000Z</time>
      </trkpt>
      <trkpt lat="43.47762" lon="6.17416">
        <ele>141.2</ele>
        <time>2025-02-16T14:01:05.000Z</time>
      </trkpt>
      <trkpt lat="43.47753" lon="6.1742">
        <ele>141.2</ele>
        <time>2025-02-16T14:01:14.000Z</time>
      </trkpt>
      <trkpt lat="43.47743" lon="6.17422">
        <ele>141.2</ele>
        <time>2025-02-16T14:01:23.000Z</time>
      </trkpt>
      <trkpt lat="43.47734" lon="6.17425">
        <ele>141.2</ele>
        <time>2025-02-16T14:01:32.000Z</time>
      </trkpt>
      <trkpt lat="43.47725" lon="6.1743">
        <ele>141.2</ele>
        <time>2025-02-16T14:01:41.000Z</time>
      </trkpt>
      <trkpt lat="43.47716" lon="6.17436">
        <ele>141.1</ele>
        <time>2025-02-16T14:01:50.000Z</time>
      </trkpt>
      <trkpt lat="43.47709" lon="6.17445">
        <ele>141.1</ele>
        <time>2025-02-16T14:01:59.000Z</time>
      </trkpt>
      <trkpt lat="43.47701" lon="6.17452">
        <ele>141.1</ele>
        <time>2025-02-16T14:02:09.000Z</time>
      </trkpt>
      <trkpt lat="43.47695" lon="6.17464">
        <ele>141.1</ele>
        <time>2025-02-16T14:02:17.000Z</time>
      </trkpt>
      <trkpt lat="43.47688" lon="6.17472">
        <ele>141.1</ele>
        <time>2025-02-16T14:02:26.000Z</time>
      </trkpt>
      <trkpt lat="43.4768" lon="6.1748">
        <ele>141.2</ele>
        <time>2025-02-16T14:02:34.000Z</time>
      </trkpt>
      <trkpt lat="43.47678" lon="6.17492">
        <ele>141.2</ele>
        <time>2025-02-16T14:02:43.000Z</time>
      </trkpt>
      <trkpt lat="43.4768" lon="6.17505">
        <ele>141.1</ele>
        <time>2025-02-16T14:02:50.000Z</time>
      </trkpt>
      <trkpt lat="43.47681" lon="6.17518">
        <ele>141</ele>
        <time>2025-02-16T14:02:59.000Z</time>
      </trkpt>
      <trkpt lat="43.47685" lon="6.17529">
        <ele>140.9</ele>
        <time>2025-02-16T14:03:07.000Z</time>
      </trkpt>
      <trkpt lat="43.47686" lon="6.17542">
        <ele>140.7</ele>
        <time>2025-02-16T14:03:16.000Z</time>
      </trkpt>
      <trkpt lat="43.47685" lon="6.17545">
        <ele>140.7</ele>
        <time>2025-02-16T14:03:21.000Z</time>
      </trkpt>
      <trkpt lat="43.47685" lon="6.17545">
        <ele>140.7</ele>
        <time>2025-02-16T14:03:22.000Z</time>
      </trkpt>
      <trkpt lat="43.47685" lon="6.17546">
        <ele>140.6</ele>
        <time>2025-02-16T14:03:25.000Z</time>
      </trkpt>
      <trkpt lat="43.47685" lon="6.17547">
        <ele>140.6</ele>
        <time>2025-02-16T14:03:26.000Z</time>
      </trkpt>
      <trkpt lat="43.47684" lon="6.1756">
        <ele>140.5</ele>
        <time>2025-02-16T14:03:47.000Z</time>
      </trkpt>
      <trkpt lat="43.47675" lon="6.17565">
        <ele>139.8</ele>
        <time>2025-02-16T14:04:05.000Z</time>
      </trkpt>
      <trkpt lat="43.47668" lon="6.17566">
        <ele>139.7</ele>
        <time>2025-02-16T14:04:17.000Z</time>
      </trkpt>
      <trkpt lat="43.47668" lon="6.17566">
        <ele>139.7</ele>
        <time>2025-02-16T14:04:18.000Z</time>
      </trkpt>
      <trkpt lat="43.47668" lon="6.17566">
        <ele>139.7</ele>
        <time>2025-02-16T14:04:19.000Z</time>
      </trkpt>
      <trkpt lat="43.47667" lon="6.17567">
        <ele>139.7</ele>
        <time>2025-02-16T14:04:20.000Z</time>
      </trkpt>
      <trkpt lat="43.47667" lon="6.17566">
        <ele>139.7</ele>
        <time>2025-02-16T14:04:21.000Z</time>
      </trkpt>
      <trkpt lat="43.47666" lon="6.17568">
        <ele>139.7</ele>
        <time>2025-02-16T14:04:25.000Z</time>
      </trkpt>
      <trkpt lat="43.47666" lon="6.17568">
        <ele>139.7</ele>
        <time>2025-02-16T14:04:26.000Z</time>
      </trkpt>
      <trkpt lat="43.47666" lon="6.17568">
        <ele>139.7</ele>
        <time>2025-02-16T14:04:27.000Z</time>
      </trkpt>
      <trkpt lat="43.47665" lon="6.17568">
        <ele>139.7</ele>
        <time>2025-02-16T14:04:28.000Z</time>
      </trkpt>
      <trkpt lat="43.47664" lon="6.17567">
        <ele>139.7</ele>
        <time>2025-02-16T14:04:29.000Z</time>
      </trkpt>
      <trkpt lat="43.47655" lon="6.17572">
        <ele>139.7</ele>
        <time>2025-02-16T14:04:45.000Z</time>
      </trkpt>
      <trkpt lat="43.47646" lon="6.17577">
        <ele>139.6</ele>
        <time>2025-02-16T14:04:55.000Z</time>
      </trkpt>
      <trkpt lat="43.47637" lon="6.17582">
        <ele>139.5</ele>
        <time>2025-02-16T14:05:08.000Z</time>
      </trkpt>
      <trkpt lat="43.47632" lon="6.17588">
        <ele>139.5</ele>
        <time>2025-02-16T14:05:20.000Z</time>
      </trkpt>
      <trkpt lat="43.47632" lon="6.17588">
        <ele>139.5</ele>
        <time>2025-02-16T14:05:21.000Z</time>
      </trkpt>
      <trkpt lat="43.47633" lon="6.17586">
        <ele>139.6</ele>
        <time>2025-02-16T14:05:25.000Z</time>
      </trkpt>
      <trkpt lat="43.47633" lon="6.17586">
        <ele>139.6</ele>
        <time>2025-02-16T14:05:26.000Z</time>
      </trkpt>
      <trkpt lat="43.47624" lon="6.17585">
        <ele>139.6</ele>
        <time>2025-02-16T14:05:43.000Z</time>
      </trkpt>
      <trkpt lat="43.47615" lon="6.1759">
        <ele>140</ele>
        <time>2025-02-16T14:05:55.000Z</time>
      </trkpt>
      <trkpt lat="43.47606" lon="6.17596">
        <ele>140.5</ele>
        <time>2025-02-16T14:06:03.000Z</time>
      </trkpt>
      <trkpt lat="43.47596" lon="6.17597">
        <ele>141.1</ele>
        <time>2025-02-16T14:06:14.000Z</time>
      </trkpt>
      <trkpt lat="43.47587" lon="6.17598">
        <ele>141.4</ele>
        <time>2025-02-16T14:06:24.000Z</time>
      </trkpt>
      <trkpt lat="43.47579" lon="6.17602">
        <ele>141.6</ele>
        <time>2025-02-16T14:06:35.000Z</time>
      </trkpt>
      <trkpt lat="43.47571" lon="6.17606">
        <ele>141.7</ele>
        <time>2025-02-16T14:06:51.000Z</time>
      </trkpt>
      <trkpt lat="43.47571" lon="6.17609">
        <ele>141.7</ele>
        <time>2025-02-16T14:06:52.000Z</time>
      </trkpt>
      <trkpt lat="43.47571" lon="6.1761">
        <ele>141.8</ele>
        <time>2025-02-16T14:06:53.000Z</time>
      </trkpt>
      <trkpt lat="43.4757" lon="6.1761">
        <ele>141.8</ele>
        <time>2025-02-16T14:06:54.000Z</time>
      </trkpt>
      <trkpt lat="43.4757" lon="6.1761">
        <ele>141.8</ele>
        <time>2025-02-16T14:06:57.000Z</time>
      </trkpt>
      <trkpt lat="43.4757" lon="6.1761">
        <ele>141.8</ele>
        <time>2025-02-16T14:06:58.000Z</time>
      </trkpt>
      <trkpt lat="43.4757" lon="6.1761">
        <ele>141.8</ele>
        <time>2025-02-16T14:06:59.000Z</time>
      </trkpt>
      <trkpt lat="43.4757" lon="6.17612">
        <ele>141.8</ele>
        <time>2025-02-16T14:07:05.000Z</time>
      </trkpt>
      <trkpt lat="43.4757" lon="6.17613">
        <ele>141.8</ele>
        <time>2025-02-16T14:07:06.000Z</time>
      </trkpt>
      <trkpt lat="43.47568" lon="6.17626">
        <ele>141.9</ele>
        <time>2025-02-16T14:07:19.000Z</time>
      </trkpt>
      <trkpt lat="43.47568" lon="6.17638">
        <ele>141.9</ele>
        <time>2025-02-16T14:07:26.000Z</time>
      </trkpt>
      <trkpt lat="43.47569" lon="6.17651">
        <ele>141.9</ele>
        <time>2025-02-16T14:07:36.000Z</time>
      </trkpt>
      <trkpt lat="43.47573" lon="6.17663">
        <ele>141.9</ele>
        <time>2025-02-16T14:07:45.000Z</time>
      </trkpt>
      <trkpt lat="43.47575" lon="6.17675">
        <ele>141.9</ele>
        <time>2025-02-16T14:07:54.000Z</time>
      </trkpt>
      <trkpt lat="43.47579" lon="6.17687">
        <ele>142</ele>
        <time>2025-02-16T14:08:08.000Z</time>
      </trkpt>
      <trkpt lat="43.47582" lon="6.17699">
        <ele>141.9</ele>
        <time>2025-02-16T14:08:18.000Z</time>
      </trkpt>
      <trkpt lat="43.47583" lon="6.17712">
        <ele>141.9</ele>
        <time>2025-02-16T14:08:28.000Z</time>
      </trkpt>
      <trkpt lat="43.47583" lon="6.17725">
        <ele>141.9</ele>
        <time>2025-02-16T14:08:40.000Z</time>
      </trkpt>
      <trkpt lat="43.47583" lon="6.17738">
        <ele>142</ele>
        <time>2025-02-16T14:08:50.000Z</time>
      </trkpt>
      <trkpt lat="43.47585" lon="6.1775">
        <ele>142</ele>
        <time>2025-02-16T14:08:58.000Z</time>
      </trkpt>
      <trkpt lat="43.47589" lon="6.17755">
        <ele>142</ele>
        <time>2025-02-16T14:09:05.000Z</time>
      </trkpt>
      <trkpt lat="43.47589" lon="6.17756">
        <ele>142</ele>
        <time>2025-02-16T14:09:06.000Z</time>
      </trkpt>
      <trkpt lat="43.4759" lon="6.17757">
        <ele>142</ele>
        <time>2025-02-16T14:09:07.000Z</time>
      </trkpt>
      <trkpt lat="43.4759" lon="6.17759">
        <ele>142</ele>
        <time>2025-02-16T14:09:08.000Z</time>
      </trkpt>
      <trkpt lat="43.4759" lon="6.1776">
        <ele>142</ele>
        <time>2025-02-16T14:09:09.000Z</time>
      </trkpt>
      <trkpt lat="43.47593" lon="6.17773">
        <ele>142</ele>
        <time>2025-02-16T14:09:19.000Z</time>
      </trkpt>
      <trkpt lat="43.47596" lon="6.17785">
        <ele>142</ele>
        <time>2025-02-16T14:09:29.000Z</time>
      </trkpt>
      <trkpt lat="43.47598" lon="6.17788">
        <ele>142.1</ele>
        <time>2025-02-16T14:09:38.000Z</time>
      </trkpt>
      <trkpt lat="43.47598" lon="6.17788">
        <ele>142.1</ele>
        <time>2025-02-16T14:09:39.000Z</time>
      </trkpt>
      <trkpt lat="43.47598" lon="6.17788">
        <ele>142.1</ele>
        <time>2025-02-16T14:09:40.000Z</time>
      </trkpt>
      <trkpt lat="43.47598" lon="6.17788">
        <ele>142.1</ele>
        <time>2025-02-16T14:09:41.000Z</time>
      </trkpt>
      <trkpt lat="43.47598" lon="6.17788">
        <ele>142.1</ele>
        <time>2025-02-16T14:09:42.000Z</time>
      </trkpt>
      <trkpt lat="43.47598" lon="6.17788">
        <ele>142.1</ele>
        <time>2025-02-16T14:09:43.000Z</time>
      </trkpt>
      <trkpt lat="43.47598" lon="6.17788">
        <ele>142.1</ele>
        <time>2025-02-16T14:09:44.000Z</time>
      </trkpt>
      <trkpt lat="43.47599" lon="6.17789">
        <ele>142.1</ele>
        <time>2025-02-16T14:09:47.000Z</time>
      </trkpt>
      <trkpt lat="43.47599" lon="6.1779">
        <ele>142.1</ele>
        <time>2025-02-16T14:09:48.000Z</time>
      </trkpt>
      <trkpt lat="43.47599" lon="6.17791">
        <ele>142.1</ele>
        <time>2025-02-16T14:09:49.000Z</time>
      </trkpt>
      <trkpt lat="43.47601" lon="6.17804">
        <ele>142.1</ele>
        <time>2025-02-16T14:09:59.000Z</time>
      </trkpt>
      <trkpt lat="43.47604" lon="6.17816">
        <ele>142.1</ele>
        <time>2025-02-16T14:10:07.000Z</time>
      </trkpt>
      <trkpt lat="43.47608" lon="6.17828">
        <ele>142.1</ele>
        <time>2025-02-16T14:10:16.000Z</time>
      </trkpt>
      <trkpt lat="43.47612" lon="6.17839">
        <ele>142.1</ele>
        <time>2025-02-16T14:10:27.000Z</time>
      </trkpt>
      <trkpt lat="43.47613" lon="6.17852">
        <ele>142.1</ele>
        <time>2025-02-16T14:10:37.000Z</time>
      </trkpt>
      <trkpt lat="43.47617" lon="6.17864">
        <ele>142.1</ele>
        <time>2025-02-16T14:10:45.000Z</time>
      </trkpt>
      <trkpt lat="43.47618" lon="6.17878">
        <ele>142.1</ele>
        <time>2025-02-16T14:10:54.000Z</time>
      </trkpt>
      <trkpt lat="43.4762" lon="6.17888">
        <ele>142.1</ele>
        <time>2025-02-16T14:11:05.000Z</time>
      </trkpt>
      <trkpt lat="43.4762" lon="6.17888">
        <ele>142.1</ele>
        <time>2025-02-16T14:11:06.000Z</time>
      </trkpt>
      <trkpt lat="43.47623" lon="6.1789">
        <ele>142.1</ele>
        <time>2025-02-16T14:11:10.000Z</time>
      </trkpt>
      <trkpt lat="43.47623" lon="6.17891">
        <ele>142.1</ele>
        <time>2025-02-16T14:11:11.000Z</time>
      </trkpt>
      <trkpt lat="43.47623" lon="6.17892">
        <ele>142.1</ele>
        <time>2025-02-16T14:11:12.000Z</time>
      </trkpt>
      <trkpt lat="43.47628" lon="6.17903">
        <ele>142.1</ele>
        <time>2025-02-16T14:11:23.000Z</time>
      </trkpt>
      <trkpt lat="43.47633" lon="6.17913">
        <ele>142.1</ele>
        <time>2025-02-16T14:11:34.000Z</time>
      </trkpt>
      <trkpt lat="43.47632" lon="6.17918">
        <ele>142.1</ele>
        <time>2025-02-16T14:11:41.000Z</time>
      </trkpt>
      <trkpt lat="43.47632" lon="6.17918">
        <ele>142.1</ele>
        <time>2025-02-16T14:11:42.000Z</time>
      </trkpt>
      <trkpt lat="43.47632" lon="6.17918">
        <ele>142.3</ele>
        <time>2025-02-16T14:12:20.000Z</time>
      </trkpt>
      <trkpt lat="43.47632" lon="6.17918">
        <ele>142.3</ele>
        <time>2025-02-16T14:12:21.000Z</time>
      </trkpt>
      <trkpt lat="43.47632" lon="6.17919">
        <ele>142.3</ele>
        <time>2025-02-16T14:12:22.000Z</time>
      </trkpt>
      <trkpt lat="43.47635" lon="6.17931">
        <ele>142.3</ele>
        <time>2025-02-16T14:12:35.000Z</time>
      </trkpt>
      <trkpt lat="43.47638" lon="6.17943">
        <ele>142.4</ele>
        <time>2025-02-16T14:12:46.000Z</time>
      </trkpt>
      <trkpt lat="43.47644" lon="6.17954">
        <ele>143.4</ele>
        <time>2025-02-16T14:13:02.000Z</time>
      </trkpt>
      <trkpt lat="43.47645" lon="6.17967">
        <ele>144.7</ele>
        <time>2025-02-16T14:13:13.000Z</time>
      </trkpt>
      <trkpt lat="43.47648" lon="6.17979">
        <ele>147.4</ele>
        <time>2025-02-16T14:13:35.000Z</time>
      </trkpt>
      <trkpt lat="43.47647" lon="6.17992">
        <ele>149.3</ele>
        <time>2025-02-16T14:13:50.000Z</time>
      </trkpt>
      <trkpt lat="43.47649" lon="6.18004">
        <ele>150.3</ele>
        <time>2025-02-16T14:14:00.000Z</time>
      </trkpt>
      <trkpt lat="43.47652" lon="6.18016">
        <ele>151.1</ele>
        <time>2025-02-16T14:14:10.000Z</time>
      </trkpt>
      <trkpt lat="43.47657" lon="6.18027">
        <ele>152.2</ele>
        <time>2025-02-16T14:14:28.000Z</time>
      </trkpt>
      <trkpt lat="43.47659" lon="6.1804">
        <ele>153.6</ele>
        <time>2025-02-16T14:14:48.000Z</time>
      </trkpt>
      <trkpt lat="43.47662" lon="6.18041">
        <ele>154</ele>
        <time>2025-02-16T14:14:52.000Z</time>
      </trkpt>
      <trkpt lat="43.47661" lon="6.18042">
        <ele>154.1</ele>
        <time>2025-02-16T14:14:53.000Z</time>
      </trkpt>
      <trkpt lat="43.4766" lon="6.18042">
        <ele>154.1</ele>
        <time>2025-02-16T14:14:54.000Z</time>
      </trkpt>
      <trkpt lat="43.47656" lon="6.18044">
        <ele>154.3</ele>
        <time>2025-02-16T14:14:58.000Z</time>
      </trkpt>
      <trkpt lat="43.47656" lon="6.18044">
        <ele>154.3</ele>
        <time>2025-02-16T14:14:59.000Z</time>
      </trkpt>
      <trkpt lat="43.47655" lon="6.18045">
        <ele>154.4</ele>
        <time>2025-02-16T14:15:00.000Z</time>
      </trkpt>
      <trkpt lat="43.47646" lon="6.18053">
        <ele>154.6</ele>
        <time>2025-02-16T14:15:05.000Z</time>
      </trkpt>
      <trkpt lat="43.4764" lon="6.18062">
        <ele>155.1</ele>
        <time>2025-02-16T14:15:10.000Z</time>
      </trkpt>
      <trkpt lat="43.4765" lon="6.18065">
        <ele>155.6</ele>
        <time>2025-02-16T14:15:17.000Z</time>
      </trkpt>
      <trkpt lat="43.47652" lon="6.18065">
        <ele>155.7</ele>
        <time>2025-02-16T14:15:18.000Z</time>
      </trkpt>
      <trkpt lat="43.47653" lon="6.18066">
        <ele>155.8</ele>
        <time>2025-02-16T14:15:19.000Z</time>
      </trkpt>
      <trkpt lat="43.47653" lon="6.18067">
        <ele>155.8</ele>
        <time>2025-02-16T14:15:20.000Z</time>
      </trkpt>
      <trkpt lat="43.47653" lon="6.18068">
        <ele>155.9</ele>
        <time>2025-02-16T14:15:21.000Z</time>
      </trkpt>
      <trkpt lat="43.47653" lon="6.18068">
        <ele>155.9</ele>
        <time>2025-02-16T14:15:22.000Z</time>
      </trkpt>
      <trkpt lat="43.4765" lon="6.18081">
        <ele>157.2</ele>
        <time>2025-02-16T14:15:49.000Z</time>
      </trkpt>
      <trkpt lat="43.47643" lon="6.18089">
        <ele>157.7</ele>
        <time>2025-02-16T14:16:01.000Z</time>
      </trkpt>
      <trkpt lat="43.47641" lon="6.18101">
        <ele>157.8</ele>
        <time>2025-02-16T14:16:11.000Z</time>
      </trkpt>
      <trkpt lat="43.47641" lon="6.18114">
        <ele>157.8</ele>
        <time>2025-02-16T14:16:20.000Z</time>
      </trkpt>
      <trkpt lat="43.47633" lon="6.18122">
        <ele>157.8</ele>
        <time>2025-02-16T14:16:35.000Z</time>
      </trkpt>
      <trkpt lat="43.47624" lon="6.18121">
        <ele>158.1</ele>
        <time>2025-02-16T14:16:49.000Z</time>
      </trkpt>
      <trkpt lat="43.47619" lon="6.1812">
        <ele>158.7</ele>
        <time>2025-02-16T14:17:05.000Z</time>
      </trkpt>
      <trkpt lat="43.47619" lon="6.1812">
        <ele>158.7</ele>
        <time>2025-02-16T14:17:06.000Z</time>
      </trkpt>
      <trkpt lat="43.47618" lon="6.1812">
        <ele>158.7</ele>
        <time>2025-02-16T14:17:07.000Z</time>
      </trkpt>
      <trkpt lat="43.47618" lon="6.18121">
        <ele>158.7</ele>
        <time>2025-02-16T14:17:08.000Z</time>
      </trkpt>
      <trkpt lat="43.47618" lon="6.18121">
        <ele>158.8</ele>
        <time>2025-02-16T14:17:09.000Z</time>
      </trkpt>
      <trkpt lat="43.47609" lon="6.18115">
        <ele>159.2</ele>
        <time>2025-02-16T14:17:24.000Z</time>
      </trkpt>
      <trkpt lat="43.476" lon="6.18114">
        <ele>159.7</ele>
        <time>2025-02-16T14:17:34.000Z</time>
      </trkpt>
      <trkpt lat="43.47592" lon="6.18107">
        <ele>160.2</ele>
        <time>2025-02-16T14:17:45.000Z</time>
      </trkpt>
      <trkpt lat="43.47592" lon="6.18106">
        <ele>160.2</ele>
        <time>2025-02-16T14:17:46.000Z</time>
      </trkpt>
      <trkpt lat="43.47591" lon="6.18106">
        <ele>160.2</ele>
        <time>2025-02-16T14:17:47.000Z</time>
      </trkpt>
      <trkpt lat="43.4759" lon="6.18106">
        <ele>160.3</ele>
        <time>2025-02-16T14:17:48.000Z</time>
      </trkpt>
      <trkpt lat="43.47589" lon="6.18105">
        <ele>160.3</ele>
        <time>2025-02-16T14:17:49.000Z</time>
      </trkpt>
      <trkpt lat="43.47581" lon="6.18105">
        <ele>161.2</ele>
        <time>2025-02-16T14:18:03.000Z</time>
      </trkpt>
      <trkpt lat="43.47581" lon="6.18105">
        <ele>161.2</ele>
        <time>2025-02-16T14:18:04.000Z</time>
      </trkpt>
      <trkpt lat="43.47581" lon="6.18105">
        <ele>161.3</ele>
        <time>2025-02-16T14:18:05.000Z</time>
      </trkpt>
      <trkpt lat="43.47581" lon="6.18104">
        <ele>161.4</ele>
        <time>2025-02-16T14:18:08.000Z</time>
      </trkpt>
      <trkpt lat="43.4758" lon="6.18103">
        <ele>161.4</ele>
        <time>2025-02-16T14:18:09.000Z</time>
      </trkpt>
      <trkpt lat="43.4758" lon="6.18102">
        <ele>161.5</ele>
        <time>2025-02-16T14:18:10.000Z</time>
      </trkpt>
      <trkpt lat="43.47572" lon="6.18096">
        <ele>161.4</ele>
        <time>2025-02-16T14:18:31.000Z</time>
      </trkpt>
      <trkpt lat="43.47563" lon="6.18092">
        <ele>161.2</ele>
        <time>2025-02-16T14:18:42.000Z</time>
      </trkpt>
      <trkpt lat="43.47553" lon="6.18088">
        <ele>161.2</ele>
        <time>2025-02-16T14:18:52.000Z</time>
      </trkpt>
      <trkpt lat="43.47544" lon="6.18089">
        <ele>161.3</ele>
        <time>2025-02-16T14:19:06.000Z</time>
      </trkpt>
      <trkpt lat="43.47535" lon="6.18084">
        <ele>161.5</ele>
        <time>2025-02-16T14:19:16.000Z</time>
      </trkpt>
      <trkpt lat="43.47526" lon="6.18079">
        <ele>161.8</ele>
        <time>2025-02-16T14:19:28.000Z</time>
      </trkpt>
      <trkpt lat="43.47517" lon="6.18076">
        <ele>162.2</ele>
        <time>2025-02-16T14:19:42.000Z</time>
      </trkpt>
      <trkpt lat="43.47508" lon="6.18074">
        <ele>162.6</ele>
        <time>2025-02-16T14:19:55.000Z</time>
      </trkpt>
      <trkpt lat="43.47498" lon="6.18075">
        <ele>162.9</ele>
        <time>2025-02-16T14:20:04.000Z</time>
      </trkpt>
      <trkpt lat="43.47489" lon="6.18069">
        <ele>163.1</ele>
        <time>2025-02-16T14:20:15.000Z</time>
      </trkpt>
      <trkpt lat="43.47481" lon="6.18064">
        <ele>163.4</ele>
        <time>2025-02-16T14:20:29.000Z</time>
      </trkpt>
      <trkpt lat="43.47472" lon="6.18061">
        <ele>163.6</ele>
        <time>2025-02-16T14:20:38.000Z</time>
      </trkpt>
      <trkpt lat="43.47462" lon="6.18057">
        <ele>163.9</ele>
        <time>2025-02-16T14:20:48.000Z</time>
      </trkpt>
      <trkpt lat="43.47453" lon="6.18053">
        <ele>164.2</ele>
        <time>2025-02-16T14:21:00.000Z</time>
      </trkpt>
      <trkpt lat="43.47451" lon="6.18052">
        <ele>164.4</ele>
        <time>2025-02-16T14:21:05.000Z</time>
      </trkpt>
      <trkpt lat="43.47451" lon="6.18052">
        <ele>164.4</ele>
        <time>2025-02-16T14:21:06.000Z</time>
      </trkpt>
      <trkpt lat="43.4745" lon="6.1805">
        <ele>164.5</ele>
        <time>2025-02-16T14:21:20.000Z</time>
      </trkpt>
      <trkpt lat="43.4745" lon="6.1805">
        <ele>164.5</ele>
        <time>2025-02-16T14:21:21.000Z</time>
      </trkpt>
      <trkpt lat="43.47447" lon="6.18049">
        <ele>164.4</ele>
        <time>2025-02-16T14:21:31.000Z</time>
      </trkpt>
      <trkpt lat="43.47447" lon="6.18049">
        <ele>164.4</ele>
        <time>2025-02-16T14:21:32.000Z</time>
      </trkpt>
      <trkpt lat="43.47447" lon="6.1805">
        <ele>164.4</ele>
        <time>2025-02-16T14:21:35.000Z</time>
      </trkpt>
      <trkpt lat="43.47447" lon="6.1805">
        <ele>164.5</ele>
        <time>2025-02-16T14:21:36.000Z</time>
      </trkpt>
      <trkpt lat="43.47444" lon="6.18062">
        <ele>164.6</ele>
        <time>2025-02-16T14:21:47.000Z</time>
      </trkpt>
      <trkpt lat="43.47447" lon="6.18076">
        <ele>165.8</ele>
        <time>2025-02-16T14:21:59.000Z</time>
      </trkpt>
      <trkpt lat="43.47442" lon="6.18087">
        <ele>168.4</ele>
        <time>2025-02-16T14:22:15.000Z</time>
      </trkpt>
      <trkpt lat="43.47435" lon="6.18095">
        <ele>172.1</ele>
        <time>2025-02-16T14:22:48.000Z</time>
      </trkpt>
      <trkpt lat="43.47425" lon="6.18098">
        <ele>172.3</ele>
        <time>2025-02-16T14:22:58.000Z</time>
      </trkpt>
      <trkpt lat="43.47421" lon="6.18107">
        <ele>172.4</ele>
        <time>2025-02-16T14:23:10.000Z</time>
      </trkpt>
      <trkpt lat="43.47421" lon="6.18107">
        <ele>172.4</ele>
        <time>2025-02-16T14:23:11.000Z</time>
      </trkpt>
    </trkseg>
  </trk>
</gpx>